<?xml version="1.0" encoding="UTF-8" standalone="no" ?>
<gpx xmlns="http://www.topografix.com/GPX/1/1" xmlns:xsi="http://www.w3.org/2001/XMLSchema-instance" xsi:schemaLocation="http://www.topografix.com/GPX/1/1 http://www.topografix.com/GPX/1/1/gpx.xsd" version="1.1" creator="VisuGPX - https://www.visugpx.com">
  <metadata>
    <name>Ride 2020-10-22</name>
  </metadata>
  <trk>
    <name><![CDATA[Ride 2020-10-22]]></name>
    <trkseg>
      <trkpt lat="43.04213" lon="0.84567">
        <ele>543.28997803</ele>
        <time>2020-10-22T07:51:02Z</time>
      </trkpt>
      <trkpt lat="43.04213" lon="0.84568">
        <ele>543.28997803</ele>
        <time>2020-10-22T07:51:04Z</time>
      </trkpt>
      <trkpt lat="43.04214" lon="0.84571">
        <ele>543.28997803</ele>
        <time>2020-10-22T07:51:05Z</time>
      </trkpt>
      <trkpt lat="43.04215" lon="0.84575">
        <ele>543.28997803</ele>
        <time>2020-10-22T07:51:06Z</time>
      </trkpt>
      <trkpt lat="43.04219" lon="0.84582">
        <ele>543.28997803</ele>
        <time>2020-10-22T07:51:07Z</time>
      </trkpt>
      <trkpt lat="43.04223" lon="0.84588">
        <ele>543.28997803</ele>
        <time>2020-10-22T07:51:08Z</time>
      </trkpt>
      <trkpt lat="43.04229" lon="0.84595">
        <ele>543.28997803</ele>
        <time>2020-10-22T07:51:09Z</time>
      </trkpt>
      <trkpt lat="43.04235" lon="0.84598">
        <ele>543.28997803</ele>
        <time>2020-10-22T07:51:11Z</time>
      </trkpt>
      <trkpt lat="43.04241" lon="0.84598">
        <ele>543.28997803</ele>
        <time>2020-10-22T07:51:12Z</time>
      </trkpt>
      <trkpt lat="43.04251" lon="0.84595">
        <ele>543.28997803</ele>
        <time>2020-10-22T07:51:13Z</time>
      </trkpt>
      <trkpt lat="43.04258" lon="0.8459">
        <ele>543.28997803</ele>
        <time>2020-10-22T07:51:14Z</time>
      </trkpt>
      <trkpt lat="43.0427" lon="0.84582">
        <ele>543.28997803</ele>
        <time>2020-10-22T07:51:16Z</time>
      </trkpt>
      <trkpt lat="43.04282" lon="0.84581">
        <ele>538.11999512</ele>
        <time>2020-10-22T07:51:18Z</time>
      </trkpt>
      <trkpt lat="43.04286" lon="0.84586">
        <ele>537.54998779</ele>
        <time>2020-10-22T07:51:19Z</time>
      </trkpt>
      <trkpt lat="43.0429" lon="0.8459">
        <ele>537.09997559</ele>
        <time>2020-10-22T07:51:20Z</time>
      </trkpt>
      <trkpt lat="43.04291" lon="0.84594">
        <ele>537.13000488</ele>
        <time>2020-10-22T07:51:21Z</time>
      </trkpt>
      <trkpt lat="43.0429" lon="0.84601">
        <ele>537.04998779</ele>
        <time>2020-10-22T07:51:23Z</time>
      </trkpt>
      <trkpt lat="43.04283" lon="0.84616">
        <ele>537.07000732</ele>
        <time>2020-10-22T07:51:25Z</time>
      </trkpt>
      <trkpt lat="43.0428" lon="0.84631">
        <ele>537.19000244</ele>
        <time>2020-10-22T07:51:27Z</time>
      </trkpt>
      <trkpt lat="43.04276" lon="0.84645">
        <ele>537.0300293</ele>
        <time>2020-10-22T07:51:29Z</time>
      </trkpt>
      <trkpt lat="43.04274" lon="0.8466">
        <ele>537.32000732</ele>
        <time>2020-10-22T07:51:31Z</time>
      </trkpt>
      <trkpt lat="43.04271" lon="0.84674">
        <ele>537.75</ele>
        <time>2020-10-22T07:51:33Z</time>
      </trkpt>
      <trkpt lat="43.0427" lon="0.84682">
        <ele>537.83001709</ele>
        <time>2020-10-22T07:51:34Z</time>
      </trkpt>
      <trkpt lat="43.04269" lon="0.84689">
        <ele>537.95001221</ele>
        <time>2020-10-22T07:51:35Z</time>
      </trkpt>
      <trkpt lat="43.04268" lon="0.84697">
        <ele>537.96002197</ele>
        <time>2020-10-22T07:51:36Z</time>
      </trkpt>
      <trkpt lat="43.04266" lon="0.84713">
        <ele>537.7199707</ele>
        <time>2020-10-22T07:51:38Z</time>
      </trkpt>
      <trkpt lat="43.04265" lon="0.84721">
        <ele>537.61999512</ele>
        <time>2020-10-22T07:51:39Z</time>
      </trkpt>
      <trkpt lat="43.04264" lon="0.8473">
        <ele>537.36999512</ele>
        <time>2020-10-22T07:51:40Z</time>
      </trkpt>
      <trkpt lat="43.04263" lon="0.84738">
        <ele>537.21002197</ele>
        <time>2020-10-22T07:51:41Z</time>
      </trkpt>
      <trkpt lat="43.04263" lon="0.84747">
        <ele>538.60998535</ele>
        <time>2020-10-22T07:51:42Z</time>
      </trkpt>
      <trkpt lat="43.04261" lon="0.84765">
        <ele>537.91998291</ele>
        <time>2020-10-22T07:51:44Z</time>
      </trkpt>
      <trkpt lat="43.0426" lon="0.84774">
        <ele>537.2800293</ele>
        <time>2020-10-22T07:51:45Z</time>
      </trkpt>
      <trkpt lat="43.04257" lon="0.84793">
        <ele>536.33001709</ele>
        <time>2020-10-22T07:51:47Z</time>
      </trkpt>
      <trkpt lat="43.04255" lon="0.84814">
        <ele>535.05999756</ele>
        <time>2020-10-22T07:51:49Z</time>
      </trkpt>
      <trkpt lat="43.04251" lon="0.84834">
        <ele>534.09002686</ele>
        <time>2020-10-22T07:51:51Z</time>
      </trkpt>
      <trkpt lat="43.04246" lon="0.84849">
        <ele>532.61999512</ele>
        <time>2020-10-22T07:51:53Z</time>
      </trkpt>
      <trkpt lat="43.04241" lon="0.8485">
        <ele>532.11999512</ele>
        <time>2020-10-22T07:51:54Z</time>
      </trkpt>
      <trkpt lat="43.04235" lon="0.84846">
        <ele>531.96002197</ele>
        <time>2020-10-22T07:51:55Z</time>
      </trkpt>
      <trkpt lat="43.04228" lon="0.84829">
        <ele>531.80999756</ele>
        <time>2020-10-22T07:51:57Z</time>
      </trkpt>
      <trkpt lat="43.04224" lon="0.84812">
        <ele>532.09002686</ele>
        <time>2020-10-22T07:51:59Z</time>
      </trkpt>
      <trkpt lat="43.04221" lon="0.84795">
        <ele>532.03997803</ele>
        <time>2020-10-22T07:52:01Z</time>
      </trkpt>
      <trkpt lat="43.04219" lon="0.84786">
        <ele>532.15002441</ele>
        <time>2020-10-22T07:52:02Z</time>
      </trkpt>
      <trkpt lat="43.04216" lon="0.84771">
        <ele>532.47998047</ele>
        <time>2020-10-22T07:52:04Z</time>
      </trkpt>
      <trkpt lat="43.04214" lon="0.84763">
        <ele>532.75</ele>
        <time>2020-10-22T07:52:05Z</time>
      </trkpt>
      <trkpt lat="43.04211" lon="0.84749">
        <ele>533.15997314</ele>
        <time>2020-10-22T07:52:07Z</time>
      </trkpt>
      <trkpt lat="43.04209" lon="0.84742">
        <ele>533.38000488</ele>
        <time>2020-10-22T07:52:08Z</time>
      </trkpt>
      <trkpt lat="43.04207" lon="0.84735">
        <ele>533.34997559</ele>
        <time>2020-10-22T07:52:09Z</time>
      </trkpt>
      <trkpt lat="43.04202" lon="0.84722">
        <ele>533.48999023</ele>
        <time>2020-10-22T07:52:11Z</time>
      </trkpt>
      <trkpt lat="43.042" lon="0.84716">
        <ele>533.61999512</ele>
        <time>2020-10-22T07:52:12Z</time>
      </trkpt>
      <trkpt lat="43.04198" lon="0.8471">
        <ele>533.88000488</ele>
        <time>2020-10-22T07:52:13Z</time>
      </trkpt>
      <trkpt lat="43.04196" lon="0.84704">
        <ele>534.19000244</ele>
        <time>2020-10-22T07:52:14Z</time>
      </trkpt>
      <trkpt lat="43.04192" lon="0.84691">
        <ele>534.47998047</ele>
        <time>2020-10-22T07:52:16Z</time>
      </trkpt>
      <trkpt lat="43.04188" lon="0.84679">
        <ele>535.51000977</ele>
        <time>2020-10-22T07:52:18Z</time>
      </trkpt>
      <trkpt lat="43.04186" lon="0.84673">
        <ele>535.72998047</ele>
        <time>2020-10-22T07:52:19Z</time>
      </trkpt>
      <trkpt lat="43.04184" lon="0.84667">
        <ele>535.82000732</ele>
        <time>2020-10-22T07:52:20Z</time>
      </trkpt>
      <trkpt lat="43.04179" lon="0.84655">
        <ele>536.25</ele>
        <time>2020-10-22T07:52:22Z</time>
      </trkpt>
      <trkpt lat="43.04177" lon="0.84649">
        <ele>536.51000977</ele>
        <time>2020-10-22T07:52:23Z</time>
      </trkpt>
      <trkpt lat="43.04175" lon="0.84643">
        <ele>536.47998047</ele>
        <time>2020-10-22T07:52:24Z</time>
      </trkpt>
      <trkpt lat="43.04172" lon="0.84637">
        <ele>536.75</ele>
        <time>2020-10-22T07:52:25Z</time>
      </trkpt>
      <trkpt lat="43.04168" lon="0.84625">
        <ele>537.14001465</ele>
        <time>2020-10-22T07:52:27Z</time>
      </trkpt>
      <trkpt lat="43.04165" lon="0.84619">
        <ele>537.36999512</ele>
        <time>2020-10-22T07:52:28Z</time>
      </trkpt>
      <trkpt lat="43.04161" lon="0.84608">
        <ele>537.40002441</ele>
        <time>2020-10-22T07:52:30Z</time>
      </trkpt>
      <trkpt lat="43.04157" lon="0.84596">
        <ele>537.96002197</ele>
        <time>2020-10-22T07:52:32Z</time>
      </trkpt>
      <trkpt lat="43.04155" lon="0.8459">
        <ele>538.29998779</ele>
        <time>2020-10-22T07:52:33Z</time>
      </trkpt>
      <trkpt lat="43.04153" lon="0.84584">
        <ele>538.48999023</ele>
        <time>2020-10-22T07:52:34Z</time>
      </trkpt>
      <trkpt lat="43.04149" lon="0.84572">
        <ele>538.82000732</ele>
        <time>2020-10-22T07:52:36Z</time>
      </trkpt>
      <trkpt lat="43.04148" lon="0.84566">
        <ele>538.86999512</ele>
        <time>2020-10-22T07:52:37Z</time>
      </trkpt>
      <trkpt lat="43.04144" lon="0.84553">
        <ele>539.36999512</ele>
        <time>2020-10-22T07:52:39Z</time>
      </trkpt>
      <trkpt lat="43.0414" lon="0.84541">
        <ele>539.73999023</ele>
        <time>2020-10-22T07:52:41Z</time>
      </trkpt>
      <trkpt lat="43.04139" lon="0.84534">
        <ele>539.7800293</ele>
        <time>2020-10-22T07:52:42Z</time>
      </trkpt>
      <trkpt lat="43.04136" lon="0.84521">
        <ele>539.96002197</ele>
        <time>2020-10-22T07:52:44Z</time>
      </trkpt>
      <trkpt lat="43.04134" lon="0.84515">
        <ele>540.05999756</ele>
        <time>2020-10-22T07:52:45Z</time>
      </trkpt>
      <trkpt lat="43.04131" lon="0.84502">
        <ele>540.2800293</ele>
        <time>2020-10-22T07:52:47Z</time>
      </trkpt>
      <trkpt lat="43.04127" lon="0.8449">
        <ele>540.40002441</ele>
        <time>2020-10-22T07:52:49Z</time>
      </trkpt>
      <trkpt lat="43.04123" lon="0.84477">
        <ele>540.54998779</ele>
        <time>2020-10-22T07:52:51Z</time>
      </trkpt>
      <trkpt lat="43.0412" lon="0.84464">
        <ele>540.65997314</ele>
        <time>2020-10-22T07:52:53Z</time>
      </trkpt>
      <trkpt lat="43.04118" lon="0.84458">
        <ele>540.84997559</ele>
        <time>2020-10-22T07:52:54Z</time>
      </trkpt>
      <trkpt lat="43.04113" lon="0.84445">
        <ele>540.9699707</ele>
        <time>2020-10-22T07:52:56Z</time>
      </trkpt>
      <trkpt lat="43.04111" lon="0.84439">
        <ele>541.08001709</ele>
        <time>2020-10-22T07:52:57Z</time>
      </trkpt>
      <trkpt lat="43.04109" lon="0.84432">
        <ele>541.10998535</ele>
        <time>2020-10-22T07:52:58Z</time>
      </trkpt>
      <trkpt lat="43.04107" lon="0.84426">
        <ele>541.16998291</ele>
        <time>2020-10-22T07:52:59Z</time>
      </trkpt>
      <trkpt lat="43.04102" lon="0.84412">
        <ele>541.39001465</ele>
        <time>2020-10-22T07:53:01Z</time>
      </trkpt>
      <trkpt lat="43.04097" lon="0.84398">
        <ele>541.70001221</ele>
        <time>2020-10-22T07:53:03Z</time>
      </trkpt>
      <trkpt lat="43.04092" lon="0.84385">
        <ele>541.97998047</ele>
        <time>2020-10-22T07:53:05Z</time>
      </trkpt>
      <trkpt lat="43.04087" lon="0.84372">
        <ele>542.16998291</ele>
        <time>2020-10-22T07:53:07Z</time>
      </trkpt>
      <trkpt lat="43.04082" lon="0.84358">
        <ele>542.55999756</ele>
        <time>2020-10-22T07:53:09Z</time>
      </trkpt>
      <trkpt lat="43.0408" lon="0.84351">
        <ele>542.72998047</ele>
        <time>2020-10-22T07:53:10Z</time>
      </trkpt>
      <trkpt lat="43.04078" lon="0.84344">
        <ele>542.77001953</ele>
        <time>2020-10-22T07:53:11Z</time>
      </trkpt>
      <trkpt lat="43.04076" lon="0.84337">
        <ele>542.7800293</ele>
        <time>2020-10-22T07:53:12Z</time>
      </trkpt>
      <trkpt lat="43.04073" lon="0.84324">
        <ele>543.15997314</ele>
        <time>2020-10-22T07:53:14Z</time>
      </trkpt>
      <trkpt lat="43.04072" lon="0.8431">
        <ele>543.20001221</ele>
        <time>2020-10-22T07:53:16Z</time>
      </trkpt>
      <trkpt lat="43.04072" lon="0.84303">
        <ele>543.27001953</ele>
        <time>2020-10-22T07:53:17Z</time>
      </trkpt>
      <trkpt lat="43.0407" lon="0.84288">
        <ele>543.40997314</ele>
        <time>2020-10-22T07:53:19Z</time>
      </trkpt>
      <trkpt lat="43.04069" lon="0.84281">
        <ele>543.54998779</ele>
        <time>2020-10-22T07:53:20Z</time>
      </trkpt>
      <trkpt lat="43.04068" lon="0.84267">
        <ele>543.61999512</ele>
        <time>2020-10-22T07:53:22Z</time>
      </trkpt>
      <trkpt lat="43.04067" lon="0.84252">
        <ele>543.63000488</ele>
        <time>2020-10-22T07:53:24Z</time>
      </trkpt>
      <trkpt lat="43.04066" lon="0.84237">
        <ele>543.78997803</ele>
        <time>2020-10-22T07:53:26Z</time>
      </trkpt>
      <trkpt lat="43.04066" lon="0.8423">
        <ele>543.76000977</ele>
        <time>2020-10-22T07:53:27Z</time>
      </trkpt>
      <trkpt lat="43.04064" lon="0.84214">
        <ele>543.84997559</ele>
        <time>2020-10-22T07:53:29Z</time>
      </trkpt>
      <trkpt lat="43.04064" lon="0.84207">
        <ele>543.92999268</ele>
        <time>2020-10-22T07:53:30Z</time>
      </trkpt>
      <trkpt lat="43.04063" lon="0.84199">
        <ele>543.94000244</ele>
        <time>2020-10-22T07:53:31Z</time>
      </trkpt>
      <trkpt lat="43.04062" lon="0.84191">
        <ele>543.9699707</ele>
        <time>2020-10-22T07:53:32Z</time>
      </trkpt>
      <trkpt lat="43.04059" lon="0.84177">
        <ele>543.88000488</ele>
        <time>2020-10-22T07:53:34Z</time>
      </trkpt>
      <trkpt lat="43.04054" lon="0.84162">
        <ele>543.4699707</ele>
        <time>2020-10-22T07:53:36Z</time>
      </trkpt>
      <trkpt lat="43.04048" lon="0.84149">
        <ele>543.2199707</ele>
        <time>2020-10-22T07:53:38Z</time>
      </trkpt>
      <trkpt lat="43.0404" lon="0.84136">
        <ele>543.46002197</ele>
        <time>2020-10-22T07:53:40Z</time>
      </trkpt>
      <trkpt lat="43.04036" lon="0.84131">
        <ele>543.45001221</ele>
        <time>2020-10-22T07:53:41Z</time>
      </trkpt>
      <trkpt lat="43.04027" lon="0.8412">
        <ele>543.5300293</ele>
        <time>2020-10-22T07:53:43Z</time>
      </trkpt>
      <trkpt lat="43.04022" lon="0.84115">
        <ele>543.5300293</ele>
        <time>2020-10-22T07:53:44Z</time>
      </trkpt>
      <trkpt lat="43.04013" lon="0.84106">
        <ele>543.55999756</ele>
        <time>2020-10-22T07:53:46Z</time>
      </trkpt>
      <trkpt lat="43.04008" lon="0.84101">
        <ele>543.65002441</ele>
        <time>2020-10-22T07:53:47Z</time>
      </trkpt>
      <trkpt lat="43.04" lon="0.84092">
        <ele>543.92999268</ele>
        <time>2020-10-22T07:53:49Z</time>
      </trkpt>
      <trkpt lat="43.03991" lon="0.84082">
        <ele>544.19000244</ele>
        <time>2020-10-22T07:53:51Z</time>
      </trkpt>
      <trkpt lat="43.03982" lon="0.84073">
        <ele>544.47998047</ele>
        <time>2020-10-22T07:53:53Z</time>
      </trkpt>
      <trkpt lat="43.03978" lon="0.84069">
        <ele>544.51000977</ele>
        <time>2020-10-22T07:53:54Z</time>
      </trkpt>
      <trkpt lat="43.03974" lon="0.84064">
        <ele>544.55999756</ele>
        <time>2020-10-22T07:53:55Z</time>
      </trkpt>
      <trkpt lat="43.03966" lon="0.84056">
        <ele>545.04998779</ele>
        <time>2020-10-22T07:53:57Z</time>
      </trkpt>
      <trkpt lat="43.03962" lon="0.84051">
        <ele>545.21002197</ele>
        <time>2020-10-22T07:53:58Z</time>
      </trkpt>
      <trkpt lat="43.03954" lon="0.84043">
        <ele>545.2800293</ele>
        <time>2020-10-22T07:54:00Z</time>
      </trkpt>
      <trkpt lat="43.03946" lon="0.84034">
        <ele>545.57000732</ele>
        <time>2020-10-22T07:54:02Z</time>
      </trkpt>
      <trkpt lat="43.03942" lon="0.8403">
        <ele>545.76000977</ele>
        <time>2020-10-22T07:54:03Z</time>
      </trkpt>
      <trkpt lat="43.03934" lon="0.84022">
        <ele>546.09997559</ele>
        <time>2020-10-22T07:54:05Z</time>
      </trkpt>
      <trkpt lat="43.0393" lon="0.84017">
        <ele>546.2800293</ele>
        <time>2020-10-22T07:54:06Z</time>
      </trkpt>
      <trkpt lat="43.03922" lon="0.84009">
        <ele>546.44000244</ele>
        <time>2020-10-22T07:54:08Z</time>
      </trkpt>
      <trkpt lat="43.03914" lon="0.84">
        <ele>546.61999512</ele>
        <time>2020-10-22T07:54:10Z</time>
      </trkpt>
      <trkpt lat="43.03906" lon="0.83991">
        <ele>546.70001221</ele>
        <time>2020-10-22T07:54:12Z</time>
      </trkpt>
      <trkpt lat="43.03898" lon="0.83983">
        <ele>546.98999023</ele>
        <time>2020-10-22T07:54:14Z</time>
      </trkpt>
      <trkpt lat="43.0389" lon="0.83974">
        <ele>547.2800293</ele>
        <time>2020-10-22T07:54:16Z</time>
      </trkpt>
      <trkpt lat="43.03882" lon="0.83966">
        <ele>547.20001221</ele>
        <time>2020-10-22T07:54:18Z</time>
      </trkpt>
      <trkpt lat="43.03878" lon="0.83961">
        <ele>547.20001221</ele>
        <time>2020-10-22T07:54:19Z</time>
      </trkpt>
      <trkpt lat="43.0387" lon="0.83951">
        <ele>547.07000732</ele>
        <time>2020-10-22T07:54:21Z</time>
      </trkpt>
      <trkpt lat="43.03861" lon="0.83941">
        <ele>547.16998291</ele>
        <time>2020-10-22T07:54:23Z</time>
      </trkpt>
      <trkpt lat="43.03856" lon="0.83935">
        <ele>546.96002197</ele>
        <time>2020-10-22T07:54:24Z</time>
      </trkpt>
      <trkpt lat="43.03847" lon="0.83923">
        <ele>546.79998779</ele>
        <time>2020-10-22T07:54:26Z</time>
      </trkpt>
      <trkpt lat="43.03843" lon="0.83917">
        <ele>546.80999756</ele>
        <time>2020-10-22T07:54:27Z</time>
      </trkpt>
      <trkpt lat="43.03833" lon="0.83906">
        <ele>546.2800293</ele>
        <time>2020-10-22T07:54:29Z</time>
      </trkpt>
      <trkpt lat="43.03828" lon="0.83899">
        <ele>546.13000488</ele>
        <time>2020-10-22T07:54:30Z</time>
      </trkpt>
      <trkpt lat="43.03818" lon="0.83887">
        <ele>545.79998779</ele>
        <time>2020-10-22T07:54:32Z</time>
      </trkpt>
      <trkpt lat="43.03813" lon="0.83881">
        <ele>545.57000732</ele>
        <time>2020-10-22T07:54:33Z</time>
      </trkpt>
      <trkpt lat="43.03808" lon="0.83874">
        <ele>545.36999512</ele>
        <time>2020-10-22T07:54:34Z</time>
      </trkpt>
      <trkpt lat="43.03798" lon="0.83861">
        <ele>544.91998291</ele>
        <time>2020-10-22T07:54:36Z</time>
      </trkpt>
      <trkpt lat="43.03787" lon="0.83848">
        <ele>544.80999756</ele>
        <time>2020-10-22T07:54:38Z</time>
      </trkpt>
      <trkpt lat="43.03777" lon="0.83835">
        <ele>544.30999756</ele>
        <time>2020-10-22T07:54:40Z</time>
      </trkpt>
      <trkpt lat="43.03766" lon="0.83822">
        <ele>544.05999756</ele>
        <time>2020-10-22T07:54:42Z</time>
      </trkpt>
      <trkpt lat="43.03754" lon="0.83812">
        <ele>543.69000244</ele>
        <time>2020-10-22T07:54:44Z</time>
      </trkpt>
      <trkpt lat="43.03748" lon="0.8381">
        <ele>543.71002197</ele>
        <time>2020-10-22T07:54:45Z</time>
      </trkpt>
      <trkpt lat="43.03741" lon="0.83809">
        <ele>543.72998047</ele>
        <time>2020-10-22T07:54:46Z</time>
      </trkpt>
      <trkpt lat="43.03729" lon="0.83806">
        <ele>543.7199707</ele>
        <time>2020-10-22T07:54:48Z</time>
      </trkpt>
      <trkpt lat="43.03722" lon="0.83793">
        <ele>543.40997314</ele>
        <time>2020-10-22T07:54:50Z</time>
      </trkpt>
      <trkpt lat="43.03723" lon="0.83776">
        <ele>543.30999756</ele>
        <time>2020-10-22T07:54:52Z</time>
      </trkpt>
      <trkpt lat="43.03724" lon="0.8377">
        <ele>543.14001465</ele>
        <time>2020-10-22T07:54:53Z</time>
      </trkpt>
      <trkpt lat="43.03722" lon="0.83765">
        <ele>543.14001465</ele>
        <time>2020-10-22T07:54:54Z</time>
      </trkpt>
      <trkpt lat="43.03717" lon="0.83756">
        <ele>542.97998047</ele>
        <time>2020-10-22T07:54:56Z</time>
      </trkpt>
      <trkpt lat="43.03712" lon="0.83752">
        <ele>543.0300293</ele>
        <time>2020-10-22T07:54:57Z</time>
      </trkpt>
      <trkpt lat="43.03706" lon="0.8375">
        <ele>543.15002441</ele>
        <time>2020-10-22T07:54:58Z</time>
      </trkpt>
      <trkpt lat="43.03697" lon="0.83744">
        <ele>543.27001953</ele>
        <time>2020-10-22T07:55:00Z</time>
      </trkpt>
      <trkpt lat="43.03688" lon="0.83736">
        <ele>543.48999023</ele>
        <time>2020-10-22T07:55:02Z</time>
      </trkpt>
      <trkpt lat="43.03684" lon="0.83732">
        <ele>543.65997314</ele>
        <time>2020-10-22T07:55:03Z</time>
      </trkpt>
      <trkpt lat="43.03678" lon="0.83721">
        <ele>543.42999268</ele>
        <time>2020-10-22T07:55:05Z</time>
      </trkpt>
      <trkpt lat="43.03673" lon="0.83711">
        <ele>543.72998047</ele>
        <time>2020-10-22T07:55:07Z</time>
      </trkpt>
      <trkpt lat="43.0367" lon="0.83707">
        <ele>543.46002197</ele>
        <time>2020-10-22T07:55:09Z</time>
      </trkpt>
      <trkpt lat="43.03667" lon="0.837">
        <ele>543.53997803</ele>
        <time>2020-10-22T07:55:10Z</time>
      </trkpt>
      <trkpt lat="43.03665" lon="0.8369">
        <ele>543.95001221</ele>
        <time>2020-10-22T07:55:12Z</time>
      </trkpt>
      <trkpt lat="43.03663" lon="0.83682">
        <ele>544.57000732</ele>
        <time>2020-10-22T07:55:13Z</time>
      </trkpt>
      <trkpt lat="43.03662" lon="0.83674">
        <ele>545.29998779</ele>
        <time>2020-10-22T07:55:15Z</time>
      </trkpt>
      <trkpt lat="43.03661" lon="0.83665">
        <ele>545.59002686</ele>
        <time>2020-10-22T07:55:16Z</time>
      </trkpt>
      <trkpt lat="43.0366" lon="0.83656">
        <ele>546.40997314</ele>
        <time>2020-10-22T07:55:18Z</time>
      </trkpt>
      <trkpt lat="43.03658" lon="0.83647">
        <ele>547.02001953</ele>
        <time>2020-10-22T07:55:20Z</time>
      </trkpt>
      <trkpt lat="43.03656" lon="0.8364">
        <ele>547.67999268</ele>
        <time>2020-10-22T07:55:21Z</time>
      </trkpt>
      <trkpt lat="43.03653" lon="0.83634">
        <ele>548.27001953</ele>
        <time>2020-10-22T07:55:22Z</time>
      </trkpt>
      <trkpt lat="43.0365" lon="0.83624">
        <ele>548.88000488</ele>
        <time>2020-10-22T07:55:24Z</time>
      </trkpt>
      <trkpt lat="43.03647" lon="0.83619">
        <ele>549.38000488</ele>
        <time>2020-10-22T07:55:25Z</time>
      </trkpt>
      <trkpt lat="43.03642" lon="0.83611">
        <ele>549.7800293</ele>
        <time>2020-10-22T07:55:26Z</time>
      </trkpt>
      <trkpt lat="43.03638" lon="0.83606">
        <ele>550.67999268</ele>
        <time>2020-10-22T07:55:28Z</time>
      </trkpt>
      <trkpt lat="43.03632" lon="0.83601">
        <ele>550.86999512</ele>
        <time>2020-10-22T07:55:29Z</time>
      </trkpt>
      <trkpt lat="43.03628" lon="0.83598">
        <ele>551.19000244</ele>
        <time>2020-10-22T07:55:30Z</time>
      </trkpt>
      <trkpt lat="43.03622" lon="0.83596">
        <ele>551.73999023</ele>
        <time>2020-10-22T07:55:32Z</time>
      </trkpt>
      <trkpt lat="43.03615" lon="0.83593">
        <ele>552.03997803</ele>
        <time>2020-10-22T07:55:33Z</time>
      </trkpt>
      <trkpt lat="43.0361" lon="0.83591">
        <ele>552.04998779</ele>
        <time>2020-10-22T07:55:35Z</time>
      </trkpt>
      <trkpt lat="43.03606" lon="0.83589">
        <ele>551.78997803</ele>
        <time>2020-10-22T07:55:36Z</time>
      </trkpt>
      <trkpt lat="43.03601" lon="0.83587">
        <ele>552.44000244</ele>
        <time>2020-10-22T07:55:37Z</time>
      </trkpt>
      <trkpt lat="43.03595" lon="0.83584">
        <ele>552.72998047</ele>
        <time>2020-10-22T07:55:39Z</time>
      </trkpt>
      <trkpt lat="43.03591" lon="0.83582">
        <ele>552.9699707</ele>
        <time>2020-10-22T07:55:40Z</time>
      </trkpt>
      <trkpt lat="43.03586" lon="0.83579">
        <ele>553.40997314</ele>
        <time>2020-10-22T07:55:41Z</time>
      </trkpt>
      <trkpt lat="43.03578" lon="0.83575">
        <ele>554.03997803</ele>
        <time>2020-10-22T07:55:43Z</time>
      </trkpt>
      <trkpt lat="43.03567" lon="0.83571">
        <ele>554.69000244</ele>
        <time>2020-10-22T07:55:45Z</time>
      </trkpt>
      <trkpt lat="43.03558" lon="0.83567">
        <ele>555.04998779</ele>
        <time>2020-10-22T07:55:47Z</time>
      </trkpt>
      <trkpt lat="43.03553" lon="0.83565">
        <ele>555.15002441</ele>
        <time>2020-10-22T07:55:48Z</time>
      </trkpt>
      <trkpt lat="43.03544" lon="0.8356">
        <ele>555.46002197</ele>
        <time>2020-10-22T07:55:50Z</time>
      </trkpt>
      <trkpt lat="43.03539" lon="0.83558">
        <ele>555.4699707</ele>
        <time>2020-10-22T07:55:51Z</time>
      </trkpt>
      <trkpt lat="43.03534" lon="0.83555">
        <ele>555.70001221</ele>
        <time>2020-10-22T07:55:52Z</time>
      </trkpt>
      <trkpt lat="43.03525" lon="0.8355">
        <ele>555.65002441</ele>
        <time>2020-10-22T07:55:54Z</time>
      </trkpt>
      <trkpt lat="43.0352" lon="0.83547">
        <ele>555.86999512</ele>
        <time>2020-10-22T07:55:55Z</time>
      </trkpt>
      <trkpt lat="43.03511" lon="0.83538">
        <ele>556.15002441</ele>
        <time>2020-10-22T07:55:57Z</time>
      </trkpt>
      <trkpt lat="43.03507" lon="0.83534">
        <ele>556.39001465</ele>
        <time>2020-10-22T07:55:58Z</time>
      </trkpt>
      <trkpt lat="43.035" lon="0.83523">
        <ele>556.83001709</ele>
        <time>2020-10-22T07:56:00Z</time>
      </trkpt>
      <trkpt lat="43.03497" lon="0.83518">
        <ele>557.10998535</ele>
        <time>2020-10-22T07:56:01Z</time>
      </trkpt>
      <trkpt lat="43.03495" lon="0.83513">
        <ele>557.35998535</ele>
        <time>2020-10-22T07:56:02Z</time>
      </trkpt>
      <trkpt lat="43.0349" lon="0.83502">
        <ele>557.80999756</ele>
        <time>2020-10-22T07:56:04Z</time>
      </trkpt>
      <trkpt lat="43.03488" lon="0.83496">
        <ele>557.79998779</ele>
        <time>2020-10-22T07:56:05Z</time>
      </trkpt>
      <trkpt lat="43.03487" lon="0.8349">
        <ele>558.14001465</ele>
        <time>2020-10-22T07:56:06Z</time>
      </trkpt>
      <trkpt lat="43.03483" lon="0.83477">
        <ele>558.44000244</ele>
        <time>2020-10-22T07:56:08Z</time>
      </trkpt>
      <trkpt lat="43.03481" lon="0.83471">
        <ele>558.72998047</ele>
        <time>2020-10-22T07:56:09Z</time>
      </trkpt>
      <trkpt lat="43.03479" lon="0.83465">
        <ele>558.97998047</ele>
        <time>2020-10-22T07:56:10Z</time>
      </trkpt>
      <trkpt lat="43.03474" lon="0.83454">
        <ele>559.39001465</ele>
        <time>2020-10-22T07:56:12Z</time>
      </trkpt>
      <trkpt lat="43.03472" lon="0.83448">
        <ele>559.60998535</ele>
        <time>2020-10-22T07:56:13Z</time>
      </trkpt>
      <trkpt lat="43.03469" lon="0.83442">
        <ele>559.63000488</ele>
        <time>2020-10-22T07:56:14Z</time>
      </trkpt>
      <trkpt lat="43.03465" lon="0.8343">
        <ele>559.75</ele>
        <time>2020-10-22T07:56:16Z</time>
      </trkpt>
      <trkpt lat="43.0346" lon="0.83417">
        <ele>559.83001709</ele>
        <time>2020-10-22T07:56:18Z</time>
      </trkpt>
      <trkpt lat="43.03458" lon="0.83411">
        <ele>560.07000732</ele>
        <time>2020-10-22T07:56:19Z</time>
      </trkpt>
      <trkpt lat="43.03455" lon="0.83404">
        <ele>560.14001465</ele>
        <time>2020-10-22T07:56:20Z</time>
      </trkpt>
      <trkpt lat="43.03453" lon="0.83397">
        <ele>560.17999268</ele>
        <time>2020-10-22T07:56:21Z</time>
      </trkpt>
      <trkpt lat="43.03448" lon="0.83384">
        <ele>560.19000244</ele>
        <time>2020-10-22T07:56:23Z</time>
      </trkpt>
      <trkpt lat="43.03443" lon="0.8337">
        <ele>560.30999756</ele>
        <time>2020-10-22T07:56:25Z</time>
      </trkpt>
      <trkpt lat="43.03439" lon="0.83356">
        <ele>560.41998291</ele>
        <time>2020-10-22T07:56:27Z</time>
      </trkpt>
      <trkpt lat="43.03435" lon="0.83341">
        <ele>560.61999512</ele>
        <time>2020-10-22T07:56:29Z</time>
      </trkpt>
      <trkpt lat="43.03434" lon="0.83334">
        <ele>560.75</ele>
        <time>2020-10-22T07:56:30Z</time>
      </trkpt>
      <trkpt lat="43.03432" lon="0.83319">
        <ele>560.89001465</ele>
        <time>2020-10-22T07:56:32Z</time>
      </trkpt>
      <trkpt lat="43.03431" lon="0.83311">
        <ele>561.05999756</ele>
        <time>2020-10-22T07:56:33Z</time>
      </trkpt>
      <trkpt lat="43.03431" lon="0.83296">
        <ele>561.40997314</ele>
        <time>2020-10-22T07:56:35Z</time>
      </trkpt>
      <trkpt lat="43.03432" lon="0.83281">
        <ele>561.44000244</ele>
        <time>2020-10-22T07:56:37Z</time>
      </trkpt>
      <trkpt lat="43.03432" lon="0.83274">
        <ele>561.59997559</ele>
        <time>2020-10-22T07:56:38Z</time>
      </trkpt>
      <trkpt lat="43.03433" lon="0.83266">
        <ele>561.78997803</ele>
        <time>2020-10-22T07:56:39Z</time>
      </trkpt>
      <trkpt lat="43.03434" lon="0.83259">
        <ele>562.02001953</ele>
        <time>2020-10-22T07:56:40Z</time>
      </trkpt>
      <trkpt lat="43.03437" lon="0.83246">
        <ele>562.70001221</ele>
        <time>2020-10-22T07:56:42Z</time>
      </trkpt>
      <trkpt lat="43.03439" lon="0.83239">
        <ele>562.70001221</ele>
        <time>2020-10-22T07:56:43Z</time>
      </trkpt>
      <trkpt lat="43.03442" lon="0.83226">
        <ele>562.94000244</ele>
        <time>2020-10-22T07:56:45Z</time>
      </trkpt>
      <trkpt lat="43.03446" lon="0.83212">
        <ele>562.86999512</ele>
        <time>2020-10-22T07:56:47Z</time>
      </trkpt>
      <trkpt lat="43.0345" lon="0.83197">
        <ele>562.36999512</ele>
        <time>2020-10-22T07:56:49Z</time>
      </trkpt>
      <trkpt lat="43.03454" lon="0.8318">
        <ele>561.65002441</ele>
        <time>2020-10-22T07:56:51Z</time>
      </trkpt>
      <trkpt lat="43.03458" lon="0.83161">
        <ele>560.69000244</ele>
        <time>2020-10-22T07:56:53Z</time>
      </trkpt>
      <trkpt lat="43.0346" lon="0.83151">
        <ele>560.22998047</ele>
        <time>2020-10-22T07:56:54Z</time>
      </trkpt>
      <trkpt lat="43.03464" lon="0.83129">
        <ele>558.98999023</ele>
        <time>2020-10-22T07:56:56Z</time>
      </trkpt>
      <trkpt lat="43.03467" lon="0.83105">
        <ele>557.58001709</ele>
        <time>2020-10-22T07:56:58Z</time>
      </trkpt>
      <trkpt lat="43.03469" lon="0.83092">
        <ele>556.94000244</ele>
        <time>2020-10-22T07:56:59Z</time>
      </trkpt>
      <trkpt lat="43.03471" lon="0.83079">
        <ele>556.13000488</ele>
        <time>2020-10-22T07:57:00Z</time>
      </trkpt>
      <trkpt lat="43.03473" lon="0.83052">
        <ele>555.22998047</ele>
        <time>2020-10-22T07:57:02Z</time>
      </trkpt>
      <trkpt lat="43.03474" lon="0.83038">
        <ele>554.23999023</ele>
        <time>2020-10-22T07:57:03Z</time>
      </trkpt>
      <trkpt lat="43.03474" lon="0.83009">
        <ele>552.17999268</ele>
        <time>2020-10-22T07:57:05Z</time>
      </trkpt>
      <trkpt lat="43.03473" lon="0.82978">
        <ele>550.03997803</ele>
        <time>2020-10-22T07:57:07Z</time>
      </trkpt>
      <trkpt lat="43.03472" lon="0.82963">
        <ele>549.83001709</ele>
        <time>2020-10-22T07:57:08Z</time>
      </trkpt>
      <trkpt lat="43.03471" lon="0.82946">
        <ele>548.42999268</ele>
        <time>2020-10-22T07:57:09Z</time>
      </trkpt>
      <trkpt lat="43.0347" lon="0.82914">
        <ele>545.40997314</ele>
        <time>2020-10-22T07:57:11Z</time>
      </trkpt>
      <trkpt lat="43.03469" lon="0.8288">
        <ele>543.40997314</ele>
        <time>2020-10-22T07:57:13Z</time>
      </trkpt>
      <trkpt lat="43.03468" lon="0.82862">
        <ele>541.91998291</ele>
        <time>2020-10-22T07:57:14Z</time>
      </trkpt>
      <trkpt lat="43.03468" lon="0.82843">
        <ele>540.41998291</ele>
        <time>2020-10-22T07:57:15Z</time>
      </trkpt>
      <trkpt lat="43.03472" lon="0.82807">
        <ele>537.29998779</ele>
        <time>2020-10-22T07:57:17Z</time>
      </trkpt>
      <trkpt lat="43.03482" lon="0.82771">
        <ele>534.71002197</ele>
        <time>2020-10-22T07:57:19Z</time>
      </trkpt>
      <trkpt lat="43.03493" lon="0.82735">
        <ele>531.90997314</ele>
        <time>2020-10-22T07:57:21Z</time>
      </trkpt>
      <trkpt lat="43.03504" lon="0.827">
        <ele>530.65002441</ele>
        <time>2020-10-22T07:57:23Z</time>
      </trkpt>
      <trkpt lat="43.03509" lon="0.82682">
        <ele>529.54998779</ele>
        <time>2020-10-22T07:57:24Z</time>
      </trkpt>
      <trkpt lat="43.03517" lon="0.82646">
        <ele>527.78997803</ele>
        <time>2020-10-22T07:57:26Z</time>
      </trkpt>
      <trkpt lat="43.03521" lon="0.82628">
        <ele>526.84997559</ele>
        <time>2020-10-22T07:57:27Z</time>
      </trkpt>
      <trkpt lat="43.03528" lon="0.82593">
        <ele>524.89001465</ele>
        <time>2020-10-22T07:57:29Z</time>
      </trkpt>
      <trkpt lat="43.03536" lon="0.82558">
        <ele>522.80999756</ele>
        <time>2020-10-22T07:57:31Z</time>
      </trkpt>
      <trkpt lat="43.0354" lon="0.82541">
        <ele>521.57000732</ele>
        <time>2020-10-22T07:57:32Z</time>
      </trkpt>
      <trkpt lat="43.03544" lon="0.82505">
        <ele>518.7199707</ele>
        <time>2020-10-22T07:57:34Z</time>
      </trkpt>
      <trkpt lat="43.03545" lon="0.82486">
        <ele>518.59997559</ele>
        <time>2020-10-22T07:57:35Z</time>
      </trkpt>
      <trkpt lat="43.03539" lon="0.8245">
        <ele>516.84002686</ele>
        <time>2020-10-22T07:57:37Z</time>
      </trkpt>
      <trkpt lat="43.03534" lon="0.82432">
        <ele>515.94000244</ele>
        <time>2020-10-22T07:57:38Z</time>
      </trkpt>
      <trkpt lat="43.03524" lon="0.82398">
        <ele>514.45001221</ele>
        <time>2020-10-22T07:57:40Z</time>
      </trkpt>
      <trkpt lat="43.03519" lon="0.82381">
        <ele>514.52001953</ele>
        <time>2020-10-22T07:57:41Z</time>
      </trkpt>
      <trkpt lat="43.0351" lon="0.8235">
        <ele>513.41998291</ele>
        <time>2020-10-22T07:57:43Z</time>
      </trkpt>
      <trkpt lat="43.03506" lon="0.82336">
        <ele>513.19000244</ele>
        <time>2020-10-22T07:57:44Z</time>
      </trkpt>
      <trkpt lat="43.03498" lon="0.82308">
        <ele>512.4699707</ele>
        <time>2020-10-22T07:57:46Z</time>
      </trkpt>
      <trkpt lat="43.03494" lon="0.82295">
        <ele>512.28997803</ele>
        <time>2020-10-22T07:57:47Z</time>
      </trkpt>
      <trkpt lat="43.03486" lon="0.8227">
        <ele>511.57998657</ele>
        <time>2020-10-22T07:57:49Z</time>
      </trkpt>
      <trkpt lat="43.03479" lon="0.82248">
        <ele>511.1000061</ele>
        <time>2020-10-22T07:57:51Z</time>
      </trkpt>
      <trkpt lat="43.03475" lon="0.82237">
        <ele>510.85998535</ele>
        <time>2020-10-22T07:57:52Z</time>
      </trkpt>
      <trkpt lat="43.03467" lon="0.82216">
        <ele>510.52999878</ele>
        <time>2020-10-22T07:57:54Z</time>
      </trkpt>
      <trkpt lat="43.03462" lon="0.82207">
        <ele>510.33999634</ele>
        <time>2020-10-22T07:57:55Z</time>
      </trkpt>
      <trkpt lat="43.03449" lon="0.82194">
        <ele>509.86999512</ele>
        <time>2020-10-22T07:57:57Z</time>
      </trkpt>
      <trkpt lat="43.03434" lon="0.8219">
        <ele>509.44000244</ele>
        <time>2020-10-22T07:57:59Z</time>
      </trkpt>
      <trkpt lat="43.03419" lon="0.8219">
        <ele>509.52999878</ele>
        <time>2020-10-22T07:58:01Z</time>
      </trkpt>
      <trkpt lat="43.03412" lon="0.8219">
        <ele>509.3999939</ele>
        <time>2020-10-22T07:58:02Z</time>
      </trkpt>
      <trkpt lat="43.034" lon="0.82192">
        <ele>508.94000244</ele>
        <time>2020-10-22T07:58:04Z</time>
      </trkpt>
      <trkpt lat="43.03393" lon="0.82191">
        <ele>508.82000732</ele>
        <time>2020-10-22T07:58:05Z</time>
      </trkpt>
      <trkpt lat="43.03386" lon="0.82189">
        <ele>508.54000854</ele>
        <time>2020-10-22T07:58:06Z</time>
      </trkpt>
      <trkpt lat="43.03372" lon="0.82181">
        <ele>507.39001465</ele>
        <time>2020-10-22T07:58:08Z</time>
      </trkpt>
      <trkpt lat="43.03356" lon="0.82167">
        <ele>506.1000061</ele>
        <time>2020-10-22T07:58:10Z</time>
      </trkpt>
      <trkpt lat="43.03348" lon="0.82157">
        <ele>504.67001343</ele>
        <time>2020-10-22T07:58:11Z</time>
      </trkpt>
      <trkpt lat="43.0334" lon="0.82145">
        <ele>504.29000854</ele>
        <time>2020-10-22T07:58:12Z</time>
      </trkpt>
      <trkpt lat="43.03323" lon="0.82123">
        <ele>501.61999512</ele>
        <time>2020-10-22T07:58:14Z</time>
      </trkpt>
      <trkpt lat="43.03302" lon="0.82104">
        <ele>498.95001221</ele>
        <time>2020-10-22T07:58:16Z</time>
      </trkpt>
      <trkpt lat="43.03291" lon="0.82094">
        <ele>497.77999878</ele>
        <time>2020-10-22T07:58:17Z</time>
      </trkpt>
      <trkpt lat="43.0328" lon="0.82085">
        <ele>496.6499939</ele>
        <time>2020-10-22T07:58:18Z</time>
      </trkpt>
      <trkpt lat="43.03257" lon="0.82068">
        <ele>494.94000244</ele>
        <time>2020-10-22T07:58:20Z</time>
      </trkpt>
      <trkpt lat="43.03235" lon="0.82049">
        <ele>493.85998535</ele>
        <time>2020-10-22T07:58:22Z</time>
      </trkpt>
      <trkpt lat="43.03226" lon="0.82038">
        <ele>493</ele>
        <time>2020-10-22T07:58:23Z</time>
      </trkpt>
      <trkpt lat="43.03212" lon="0.8201">
        <ele>491</ele>
        <time>2020-10-22T07:58:25Z</time>
      </trkpt>
      <trkpt lat="43.03205" lon="0.81995">
        <ele>489.88000488</ele>
        <time>2020-10-22T07:58:26Z</time>
      </trkpt>
      <trkpt lat="43.03197" lon="0.81982">
        <ele>489.01998901</ele>
        <time>2020-10-22T07:58:27Z</time>
      </trkpt>
      <trkpt lat="43.03183" lon="0.81966">
        <ele>487.39001465</ele>
        <time>2020-10-22T07:58:29Z</time>
      </trkpt>
      <trkpt lat="43.0318" lon="0.81963">
        <ele>487</ele>
        <time>2020-10-22T07:58:30Z</time>
      </trkpt>
      <trkpt lat="43.03177" lon="0.8196">
        <ele>486.47000122</ele>
        <time>2020-10-22T07:58:31Z</time>
      </trkpt>
      <trkpt lat="43.03178" lon="0.81956">
        <ele>485.1000061</ele>
        <time>2020-10-22T07:58:33Z</time>
      </trkpt>
      <trkpt lat="43.03186" lon="0.81951">
        <ele>484.3999939</ele>
        <time>2020-10-22T07:58:35Z</time>
      </trkpt>
      <trkpt lat="43.03194" lon="0.81946">
        <ele>484.04000854</ele>
        <time>2020-10-22T07:58:36Z</time>
      </trkpt>
      <trkpt lat="43.03202" lon="0.81941">
        <ele>483.66000366</ele>
        <time>2020-10-22T07:58:37Z</time>
      </trkpt>
      <trkpt lat="43.03212" lon="0.81936">
        <ele>483.17999268</ele>
        <time>2020-10-22T07:58:38Z</time>
      </trkpt>
      <trkpt lat="43.03228" lon="0.81923">
        <ele>481.77999878</ele>
        <time>2020-10-22T07:58:40Z</time>
      </trkpt>
      <trkpt lat="43.03235" lon="0.81901">
        <ele>481.63000488</ele>
        <time>2020-10-22T07:58:42Z</time>
      </trkpt>
      <trkpt lat="43.03235" lon="0.8188">
        <ele>481.89001465</ele>
        <time>2020-10-22T07:58:44Z</time>
      </trkpt>
      <trkpt lat="43.03234" lon="0.81863">
        <ele>481.80999756</ele>
        <time>2020-10-22T07:58:46Z</time>
      </trkpt>
      <trkpt lat="43.03234" lon="0.81855">
        <ele>481.29000854</ele>
        <time>2020-10-22T07:58:47Z</time>
      </trkpt>
      <trkpt lat="43.03235" lon="0.81837">
        <ele>479.98001099</ele>
        <time>2020-10-22T07:58:49Z</time>
      </trkpt>
      <trkpt lat="43.03239" lon="0.81816">
        <ele>479.11999512</ele>
        <time>2020-10-22T07:58:51Z</time>
      </trkpt>
      <trkpt lat="43.03242" lon="0.81804">
        <ele>478.95001221</ele>
        <time>2020-10-22T07:58:52Z</time>
      </trkpt>
      <trkpt lat="43.03248" lon="0.81781">
        <ele>478.44000244</ele>
        <time>2020-10-22T07:58:54Z</time>
      </trkpt>
      <trkpt lat="43.03252" lon="0.81769">
        <ele>477.6499939</ele>
        <time>2020-10-22T07:58:55Z</time>
      </trkpt>
      <trkpt lat="43.03257" lon="0.81757">
        <ele>476.82000732</ele>
        <time>2020-10-22T07:58:56Z</time>
      </trkpt>
      <trkpt lat="43.03262" lon="0.81746">
        <ele>476.70001221</ele>
        <time>2020-10-22T07:58:57Z</time>
      </trkpt>
      <trkpt lat="43.03268" lon="0.81736">
        <ele>476.3999939</ele>
        <time>2020-10-22T07:58:58Z</time>
      </trkpt>
      <trkpt lat="43.03272" lon="0.81726">
        <ele>476.44000244</ele>
        <time>2020-10-22T07:58:59Z</time>
      </trkpt>
      <trkpt lat="43.0327" lon="0.81707">
        <ele>475.02999878</ele>
        <time>2020-10-22T07:59:01Z</time>
      </trkpt>
      <trkpt lat="43.0326" lon="0.8169">
        <ele>474.63000488</ele>
        <time>2020-10-22T07:59:03Z</time>
      </trkpt>
      <trkpt lat="43.03251" lon="0.81675">
        <ele>474.33999634</ele>
        <time>2020-10-22T07:59:05Z</time>
      </trkpt>
      <trkpt lat="43.03243" lon="0.81661">
        <ele>474.66000366</ele>
        <time>2020-10-22T07:59:07Z</time>
      </trkpt>
      <trkpt lat="43.03235" lon="0.8165">
        <ele>475.36999512</ele>
        <time>2020-10-22T07:59:09Z</time>
      </trkpt>
      <trkpt lat="43.03229" lon="0.8164">
        <ele>475.69000244</ele>
        <time>2020-10-22T07:59:11Z</time>
      </trkpt>
      <trkpt lat="43.03222" lon="0.8163">
        <ele>475.92001343</ele>
        <time>2020-10-22T07:59:13Z</time>
      </trkpt>
      <trkpt lat="43.03218" lon="0.81621">
        <ele>477.11999512</ele>
        <time>2020-10-22T07:59:15Z</time>
      </trkpt>
      <trkpt lat="43.03216" lon="0.81615">
        <ele>476.69000244</ele>
        <time>2020-10-22T07:59:16Z</time>
      </trkpt>
      <trkpt lat="43.03214" lon="0.81605">
        <ele>476.48001099</ele>
        <time>2020-10-22T07:59:18Z</time>
      </trkpt>
      <trkpt lat="43.03214" lon="0.816">
        <ele>476.57998657</ele>
        <time>2020-10-22T07:59:19Z</time>
      </trkpt>
      <trkpt lat="43.03215" lon="0.81588">
        <ele>475.75</ele>
        <time>2020-10-22T07:59:21Z</time>
      </trkpt>
      <trkpt lat="43.03218" lon="0.81573">
        <ele>476.95001221</ele>
        <time>2020-10-22T07:59:23Z</time>
      </trkpt>
      <trkpt lat="43.03219" lon="0.81565">
        <ele>476.94000244</ele>
        <time>2020-10-22T07:59:24Z</time>
      </trkpt>
      <trkpt lat="43.03223" lon="0.81548">
        <ele>476.97000122</ele>
        <time>2020-10-22T07:59:26Z</time>
      </trkpt>
      <trkpt lat="43.03225" lon="0.81532">
        <ele>477.17001343</ele>
        <time>2020-10-22T07:59:28Z</time>
      </trkpt>
      <trkpt lat="43.03228" lon="0.81516">
        <ele>477.92001343</ele>
        <time>2020-10-22T07:59:30Z</time>
      </trkpt>
      <trkpt lat="43.03229" lon="0.81508">
        <ele>478.07000732</ele>
        <time>2020-10-22T07:59:31Z</time>
      </trkpt>
      <trkpt lat="43.03231" lon="0.81494">
        <ele>477.75</ele>
        <time>2020-10-22T07:59:33Z</time>
      </trkpt>
      <trkpt lat="43.03232" lon="0.81488">
        <ele>477.66000366</ele>
        <time>2020-10-22T07:59:34Z</time>
      </trkpt>
      <trkpt lat="43.03233" lon="0.81482">
        <ele>478.01000977</ele>
        <time>2020-10-22T07:59:35Z</time>
      </trkpt>
      <trkpt lat="43.03236" lon="0.81469">
        <ele>477.54000854</ele>
        <time>2020-10-22T07:59:37Z</time>
      </trkpt>
      <trkpt lat="43.03238" lon="0.8146">
        <ele>478.42001343</ele>
        <time>2020-10-22T07:59:39Z</time>
      </trkpt>
      <trkpt lat="43.03241" lon="0.8145">
        <ele>478.76000977</ele>
        <time>2020-10-22T07:59:41Z</time>
      </trkpt>
      <trkpt lat="43.03242" lon="0.81445">
        <ele>479.19000244</ele>
        <time>2020-10-22T07:59:42Z</time>
      </trkpt>
      <trkpt lat="43.03243" lon="0.8144">
        <ele>479.35998535</ele>
        <time>2020-10-22T07:59:43Z</time>
      </trkpt>
      <trkpt lat="43.03242" lon="0.81435">
        <ele>479.73001099</ele>
        <time>2020-10-22T07:59:44Z</time>
      </trkpt>
      <trkpt lat="43.03244" lon="0.81428">
        <ele>480.10998535</ele>
        <time>2020-10-22T07:59:46Z</time>
      </trkpt>
      <trkpt lat="43.03246" lon="0.81418">
        <ele>480.32998657</ele>
        <time>2020-10-22T07:59:47Z</time>
      </trkpt>
      <trkpt lat="43.03247" lon="0.81412">
        <ele>480.83999634</ele>
        <time>2020-10-22T07:59:48Z</time>
      </trkpt>
      <trkpt lat="43.03249" lon="0.81402">
        <ele>481.48001099</ele>
        <time>2020-10-22T07:59:50Z</time>
      </trkpt>
      <trkpt lat="43.0325" lon="0.81397">
        <ele>481.20001221</ele>
        <time>2020-10-22T07:59:52Z</time>
      </trkpt>
      <trkpt lat="43.03251" lon="0.81392">
        <ele>481.54000854</ele>
        <time>2020-10-22T07:59:53Z</time>
      </trkpt>
      <trkpt lat="43.03252" lon="0.81388">
        <ele>481.58999634</ele>
        <time>2020-10-22T07:59:54Z</time>
      </trkpt>
      <trkpt lat="43.03253" lon="0.81384">
        <ele>481.95001221</ele>
        <time>2020-10-22T07:59:55Z</time>
      </trkpt>
      <trkpt lat="43.03254" lon="0.8138">
        <ele>481.82998657</ele>
        <time>2020-10-22T07:59:56Z</time>
      </trkpt>
      <trkpt lat="43.03255" lon="0.81374">
        <ele>482.1499939</ele>
        <time>2020-10-22T07:59:57Z</time>
      </trkpt>
      <trkpt lat="43.03255" lon="0.81369">
        <ele>482.75</ele>
        <time>2020-10-22T07:59:58Z</time>
      </trkpt>
      <trkpt lat="43.03256" lon="0.81363">
        <ele>483.13000488</ele>
        <time>2020-10-22T08:00:00Z</time>
      </trkpt>
      <trkpt lat="43.03256" lon="0.81358">
        <ele>484.39001465</ele>
        <time>2020-10-22T08:00:01Z</time>
      </trkpt>
      <trkpt lat="43.03256" lon="0.81352">
        <ele>484.5</ele>
        <time>2020-10-22T08:00:02Z</time>
      </trkpt>
      <trkpt lat="43.03256" lon="0.81346">
        <ele>484.52999878</ele>
        <time>2020-10-22T08:00:04Z</time>
      </trkpt>
      <trkpt lat="43.03256" lon="0.81342">
        <ele>484.52999878</ele>
        <time>2020-10-22T08:00:05Z</time>
      </trkpt>
      <trkpt lat="43.03255" lon="0.81337">
        <ele>484.97000122</ele>
        <time>2020-10-22T08:00:06Z</time>
      </trkpt>
      <trkpt lat="43.03255" lon="0.81332">
        <ele>485.22000122</ele>
        <time>2020-10-22T08:00:08Z</time>
      </trkpt>
      <trkpt lat="43.03256" lon="0.81326">
        <ele>486.29000854</ele>
        <time>2020-10-22T08:00:09Z</time>
      </trkpt>
      <trkpt lat="43.03256" lon="0.81321">
        <ele>486.26000977</ele>
        <time>2020-10-22T08:00:10Z</time>
      </trkpt>
      <trkpt lat="43.03256" lon="0.81315">
        <ele>486.67001343</ele>
        <time>2020-10-22T08:00:12Z</time>
      </trkpt>
      <trkpt lat="43.03255" lon="0.8131">
        <ele>487.29000854</ele>
        <time>2020-10-22T08:00:13Z</time>
      </trkpt>
      <trkpt lat="43.03255" lon="0.81304">
        <ele>488.23999023</ele>
        <time>2020-10-22T08:00:15Z</time>
      </trkpt>
      <trkpt lat="43.03254" lon="0.813">
        <ele>488.5</ele>
        <time>2020-10-22T08:00:16Z</time>
      </trkpt>
      <trkpt lat="43.03253" lon="0.81296">
        <ele>489.16000366</ele>
        <time>2020-10-22T08:00:17Z</time>
      </trkpt>
      <trkpt lat="43.03251" lon="0.81293">
        <ele>489.36999512</ele>
        <time>2020-10-22T08:00:18Z</time>
      </trkpt>
      <trkpt lat="43.03248" lon="0.81286">
        <ele>489.73001099</ele>
        <time>2020-10-22T08:00:20Z</time>
      </trkpt>
      <trkpt lat="43.03245" lon="0.81285">
        <ele>490.29998779</ele>
        <time>2020-10-22T08:00:21Z</time>
      </trkpt>
      <trkpt lat="43.03241" lon="0.81285">
        <ele>490.38000488</ele>
        <time>2020-10-22T08:00:23Z</time>
      </trkpt>
      <trkpt lat="43.03238" lon="0.81287">
        <ele>490.42001343</ele>
        <time>2020-10-22T08:00:24Z</time>
      </trkpt>
      <trkpt lat="43.03236" lon="0.81288">
        <ele>490.82998657</ele>
        <time>2020-10-22T08:00:25Z</time>
      </trkpt>
      <trkpt lat="43.03233" lon="0.81289">
        <ele>490.51998901</ele>
        <time>2020-10-22T08:00:26Z</time>
      </trkpt>
      <trkpt lat="43.0323" lon="0.81289">
        <ele>490.54998779</ele>
        <time>2020-10-22T08:00:27Z</time>
      </trkpt>
      <trkpt lat="43.03228" lon="0.81289">
        <ele>489.79000854</ele>
        <time>2020-10-22T08:00:29Z</time>
      </trkpt>
      <trkpt lat="43.03225" lon="0.8129">
        <ele>490.29998779</ele>
        <time>2020-10-22T08:00:30Z</time>
      </trkpt>
      <trkpt lat="43.03222" lon="0.81292">
        <ele>489.98999023</ele>
        <time>2020-10-22T08:00:31Z</time>
      </trkpt>
      <trkpt lat="43.0322" lon="0.81292">
        <ele>489.76998901</ele>
        <time>2020-10-22T08:00:33Z</time>
      </trkpt>
      <trkpt lat="43.03218" lon="0.8129">
        <ele>489.95001221</ele>
        <time>2020-10-22T08:00:34Z</time>
      </trkpt>
      <trkpt lat="43.03214" lon="0.81287">
        <ele>490.29000854</ele>
        <time>2020-10-22T08:00:35Z</time>
      </trkpt>
      <trkpt lat="43.03212" lon="0.81283">
        <ele>490.48001099</ele>
        <time>2020-10-22T08:00:37Z</time>
      </trkpt>
      <trkpt lat="43.03208" lon="0.81279">
        <ele>490.73001099</ele>
        <time>2020-10-22T08:00:39Z</time>
      </trkpt>
      <trkpt lat="43.03205" lon="0.81275">
        <ele>490.8500061</ele>
        <time>2020-10-22T08:00:40Z</time>
      </trkpt>
      <trkpt lat="43.03201" lon="0.8127">
        <ele>490.69000244</ele>
        <time>2020-10-22T08:00:41Z</time>
      </trkpt>
      <trkpt lat="43.03199" lon="0.81268">
        <ele>490.82000732</ele>
        <time>2020-10-22T08:00:42Z</time>
      </trkpt>
      <trkpt lat="43.03197" lon="0.81265">
        <ele>491.08999634</ele>
        <time>2020-10-22T08:00:44Z</time>
      </trkpt>
      <trkpt lat="43.03194" lon="0.81261">
        <ele>491.05999756</ele>
        <time>2020-10-22T08:00:45Z</time>
      </trkpt>
      <trkpt lat="43.03192" lon="0.81258">
        <ele>491.23999023</ele>
        <time>2020-10-22T08:00:46Z</time>
      </trkpt>
      <trkpt lat="43.03189" lon="0.81256">
        <ele>491.57998657</ele>
        <time>2020-10-22T08:00:47Z</time>
      </trkpt>
      <trkpt lat="43.03186" lon="0.81253">
        <ele>491.92001343</ele>
        <time>2020-10-22T08:00:49Z</time>
      </trkpt>
      <trkpt lat="43.03183" lon="0.8125">
        <ele>492.20999146</ele>
        <time>2020-10-22T08:00:50Z</time>
      </trkpt>
      <trkpt lat="43.03179" lon="0.81247">
        <ele>492.92999268</ele>
        <time>2020-10-22T08:00:52Z</time>
      </trkpt>
      <trkpt lat="43.03177" lon="0.81246">
        <ele>493.45001221</ele>
        <time>2020-10-22T08:00:53Z</time>
      </trkpt>
      <trkpt lat="43.03175" lon="0.81244">
        <ele>493.45001221</ele>
        <time>2020-10-22T08:00:54Z</time>
      </trkpt>
      <trkpt lat="43.03172" lon="0.81242">
        <ele>493.67001343</ele>
        <time>2020-10-22T08:00:55Z</time>
      </trkpt>
      <trkpt lat="43.03168" lon="0.81238">
        <ele>493.8500061</ele>
        <time>2020-10-22T08:00:57Z</time>
      </trkpt>
      <trkpt lat="43.03166" lon="0.81235">
        <ele>494.5</ele>
        <time>2020-10-22T08:00:58Z</time>
      </trkpt>
      <trkpt lat="43.03164" lon="0.81233">
        <ele>494.80999756</ele>
        <time>2020-10-22T08:00:59Z</time>
      </trkpt>
      <trkpt lat="43.03162" lon="0.8123">
        <ele>495.54998779</ele>
        <time>2020-10-22T08:01:00Z</time>
      </trkpt>
      <trkpt lat="43.03159" lon="0.81226">
        <ele>495.45999146</ele>
        <time>2020-10-22T08:01:01Z</time>
      </trkpt>
      <trkpt lat="43.03157" lon="0.81223">
        <ele>495.44000244</ele>
        <time>2020-10-22T08:01:02Z</time>
      </trkpt>
      <trkpt lat="43.03155" lon="0.8122">
        <ele>495.82000732</ele>
        <time>2020-10-22T08:01:04Z</time>
      </trkpt>
      <trkpt lat="43.03153" lon="0.81218">
        <ele>496.6499939</ele>
        <time>2020-10-22T08:01:05Z</time>
      </trkpt>
      <trkpt lat="43.0315" lon="0.81214">
        <ele>496.17001343</ele>
        <time>2020-10-22T08:01:06Z</time>
      </trkpt>
      <trkpt lat="43.03147" lon="0.81212">
        <ele>496.63000488</ele>
        <time>2020-10-22T08:01:08Z</time>
      </trkpt>
      <trkpt lat="43.03145" lon="0.81208">
        <ele>496.83999634</ele>
        <time>2020-10-22T08:01:09Z</time>
      </trkpt>
      <trkpt lat="43.03143" lon="0.81205">
        <ele>497.25</ele>
        <time>2020-10-22T08:01:10Z</time>
      </trkpt>
      <trkpt lat="43.0314" lon="0.81202">
        <ele>497.64001465</ele>
        <time>2020-10-22T08:01:11Z</time>
      </trkpt>
      <trkpt lat="43.03138" lon="0.81199">
        <ele>497.83999634</ele>
        <time>2020-10-22T08:01:13Z</time>
      </trkpt>
      <trkpt lat="43.03136" lon="0.81197">
        <ele>498.42001343</ele>
        <time>2020-10-22T08:01:14Z</time>
      </trkpt>
      <trkpt lat="43.03134" lon="0.81194">
        <ele>498.86999512</ele>
        <time>2020-10-22T08:01:16Z</time>
      </trkpt>
      <trkpt lat="43.03132" lon="0.81191">
        <ele>499.20001221</ele>
        <time>2020-10-22T08:01:17Z</time>
      </trkpt>
      <trkpt lat="43.03129" lon="0.81186">
        <ele>499.30999756</ele>
        <time>2020-10-22T08:01:18Z</time>
      </trkpt>
      <trkpt lat="43.03127" lon="0.81184">
        <ele>499.82998657</ele>
        <time>2020-10-22T08:01:20Z</time>
      </trkpt>
      <trkpt lat="43.03124" lon="0.81179">
        <ele>500.25</ele>
        <time>2020-10-22T08:01:22Z</time>
      </trkpt>
      <trkpt lat="43.03122" lon="0.81175">
        <ele>500.91000366</ele>
        <time>2020-10-22T08:01:24Z</time>
      </trkpt>
      <trkpt lat="43.0312" lon="0.81172">
        <ele>501.20001221</ele>
        <time>2020-10-22T08:01:25Z</time>
      </trkpt>
      <trkpt lat="43.03118" lon="0.81167">
        <ele>501.76998901</ele>
        <time>2020-10-22T08:01:26Z</time>
      </trkpt>
      <trkpt lat="43.03116" lon="0.81165">
        <ele>501.88000488</ele>
        <time>2020-10-22T08:01:27Z</time>
      </trkpt>
      <trkpt lat="43.03115" lon="0.81163">
        <ele>502.1499939</ele>
        <time>2020-10-22T08:01:29Z</time>
      </trkpt>
      <trkpt lat="43.03112" lon="0.81156">
        <ele>503.26998901</ele>
        <time>2020-10-22T08:01:31Z</time>
      </trkpt>
      <trkpt lat="43.03111" lon="0.81152">
        <ele>503.35998535</ele>
        <time>2020-10-22T08:01:32Z</time>
      </trkpt>
      <trkpt lat="43.0311" lon="0.81149">
        <ele>504.32000732</ele>
        <time>2020-10-22T08:01:33Z</time>
      </trkpt>
      <trkpt lat="43.03108" lon="0.81145">
        <ele>504.66000366</ele>
        <time>2020-10-22T08:01:34Z</time>
      </trkpt>
      <trkpt lat="43.03106" lon="0.81141">
        <ele>504.79000854</ele>
        <time>2020-10-22T08:01:36Z</time>
      </trkpt>
      <trkpt lat="43.03105" lon="0.81137">
        <ele>505.13000488</ele>
        <time>2020-10-22T08:01:38Z</time>
      </trkpt>
      <trkpt lat="43.03103" lon="0.81135">
        <ele>505.13000488</ele>
        <time>2020-10-22T08:01:39Z</time>
      </trkpt>
      <trkpt lat="43.031" lon="0.8113">
        <ele>506.51998901</ele>
        <time>2020-10-22T08:01:41Z</time>
      </trkpt>
      <trkpt lat="43.03099" lon="0.81126">
        <ele>507.26000977</ele>
        <time>2020-10-22T08:01:42Z</time>
      </trkpt>
      <trkpt lat="43.03098" lon="0.81123">
        <ele>507.51000977</ele>
        <time>2020-10-22T08:01:44Z</time>
      </trkpt>
      <trkpt lat="43.03096" lon="0.81119">
        <ele>508.39001465</ele>
        <time>2020-10-22T08:01:45Z</time>
      </trkpt>
      <trkpt lat="43.03094" lon="0.81116">
        <ele>508.97000122</ele>
        <time>2020-10-22T08:01:47Z</time>
      </trkpt>
      <trkpt lat="43.03093" lon="0.81114">
        <ele>509.17001343</ele>
        <time>2020-10-22T08:01:48Z</time>
      </trkpt>
      <trkpt lat="43.03091" lon="0.81109">
        <ele>510.52999878</ele>
        <time>2020-10-22T08:01:50Z</time>
      </trkpt>
      <trkpt lat="43.03089" lon="0.81105">
        <ele>510.23001099</ele>
        <time>2020-10-22T08:01:52Z</time>
      </trkpt>
      <trkpt lat="43.03088" lon="0.81102">
        <ele>509.92001343</ele>
        <time>2020-10-22T08:01:53Z</time>
      </trkpt>
      <trkpt lat="43.03087" lon="0.81099">
        <ele>509.92001343</ele>
        <time>2020-10-22T08:01:54Z</time>
      </trkpt>
      <trkpt lat="43.03085" lon="0.81097">
        <ele>510.77999878</ele>
        <time>2020-10-22T08:01:56Z</time>
      </trkpt>
      <trkpt lat="43.03084" lon="0.81094">
        <ele>511.11999512</ele>
        <time>2020-10-22T08:01:57Z</time>
      </trkpt>
      <trkpt lat="43.03082" lon="0.81091">
        <ele>511.08999634</ele>
        <time>2020-10-22T08:01:59Z</time>
      </trkpt>
      <trkpt lat="43.0308" lon="0.81088">
        <ele>511.79998779</ele>
        <time>2020-10-22T08:02:00Z</time>
      </trkpt>
      <trkpt lat="43.03079" lon="0.81086">
        <ele>512.16998291</ele>
        <time>2020-10-22T08:02:01Z</time>
      </trkpt>
      <trkpt lat="43.03078" lon="0.81084">
        <ele>512.38000488</ele>
        <time>2020-10-22T08:02:02Z</time>
      </trkpt>
      <trkpt lat="43.03076" lon="0.81081">
        <ele>513.01000977</ele>
        <time>2020-10-22T08:02:04Z</time>
      </trkpt>
      <trkpt lat="43.03075" lon="0.81079">
        <ele>513.66998291</ele>
        <time>2020-10-22T08:02:05Z</time>
      </trkpt>
      <trkpt lat="43.03074" lon="0.81077">
        <ele>513.72998047</ele>
        <time>2020-10-22T08:02:07Z</time>
      </trkpt>
      <trkpt lat="43.03072" lon="0.81075">
        <ele>513.97998047</ele>
        <time>2020-10-22T08:02:09Z</time>
      </trkpt>
      <trkpt lat="43.03069" lon="0.81072">
        <ele>514.26000977</ele>
        <time>2020-10-22T08:02:11Z</time>
      </trkpt>
      <trkpt lat="43.03068" lon="0.81071">
        <ele>514.55999756</ele>
        <time>2020-10-22T08:02:12Z</time>
      </trkpt>
      <trkpt lat="43.03066" lon="0.81068">
        <ele>514.59997559</ele>
        <time>2020-10-22T08:02:14Z</time>
      </trkpt>
      <trkpt lat="43.03064" lon="0.81066">
        <ele>515.35998535</ele>
        <time>2020-10-22T08:02:15Z</time>
      </trkpt>
      <trkpt lat="43.03062" lon="0.81062">
        <ele>515.59997559</ele>
        <time>2020-10-22T08:02:17Z</time>
      </trkpt>
      <trkpt lat="43.03061" lon="0.81059">
        <ele>515.91998291</ele>
        <time>2020-10-22T08:02:18Z</time>
      </trkpt>
      <trkpt lat="43.03059" lon="0.81057">
        <ele>516.17999268</ele>
        <time>2020-10-22T08:02:20Z</time>
      </trkpt>
      <trkpt lat="43.03058" lon="0.81054">
        <ele>516.17999268</ele>
        <time>2020-10-22T08:02:21Z</time>
      </trkpt>
      <trkpt lat="43.03054" lon="0.8105">
        <ele>516.71002197</ele>
        <time>2020-10-22T08:02:22Z</time>
      </trkpt>
      <trkpt lat="43.03053" lon="0.81048">
        <ele>516.92999268</ele>
        <time>2020-10-22T08:02:24Z</time>
      </trkpt>
      <trkpt lat="43.03051" lon="0.81045">
        <ele>516.9699707</ele>
        <time>2020-10-22T08:02:25Z</time>
      </trkpt>
      <trkpt lat="43.03049" lon="0.81043">
        <ele>517.15997314</ele>
        <time>2020-10-22T08:02:26Z</time>
      </trkpt>
      <trkpt lat="43.03047" lon="0.81041">
        <ele>517.16998291</ele>
        <time>2020-10-22T08:02:27Z</time>
      </trkpt>
      <trkpt lat="43.03045" lon="0.81039">
        <ele>517.42999268</ele>
        <time>2020-10-22T08:02:28Z</time>
      </trkpt>
      <trkpt lat="43.03043" lon="0.81037">
        <ele>517.78997803</ele>
        <time>2020-10-22T08:02:29Z</time>
      </trkpt>
      <trkpt lat="43.03041" lon="0.81034">
        <ele>518.17999268</ele>
        <time>2020-10-22T08:02:31Z</time>
      </trkpt>
      <trkpt lat="43.03039" lon="0.81032">
        <ele>518.17999268</ele>
        <time>2020-10-22T08:02:32Z</time>
      </trkpt>
      <trkpt lat="43.03036" lon="0.81029">
        <ele>518.59002686</ele>
        <time>2020-10-22T08:02:34Z</time>
      </trkpt>
      <trkpt lat="43.03035" lon="0.81027">
        <ele>518.54998779</ele>
        <time>2020-10-22T08:02:35Z</time>
      </trkpt>
      <trkpt lat="43.03032" lon="0.81023">
        <ele>518.88000488</ele>
        <time>2020-10-22T08:02:37Z</time>
      </trkpt>
      <trkpt lat="43.03029" lon="0.8102">
        <ele>518.80999756</ele>
        <time>2020-10-22T08:02:38Z</time>
      </trkpt>
      <trkpt lat="43.03028" lon="0.81018">
        <ele>519.25</ele>
        <time>2020-10-22T08:02:39Z</time>
      </trkpt>
      <trkpt lat="43.03026" lon="0.81015">
        <ele>519.48999023</ele>
        <time>2020-10-22T08:02:41Z</time>
      </trkpt>
      <trkpt lat="43.03025" lon="0.81013">
        <ele>520.5</ele>
        <time>2020-10-22T08:02:42Z</time>
      </trkpt>
      <trkpt lat="43.03025" lon="0.8101">
        <ele>520.5</ele>
        <time>2020-10-22T08:02:43Z</time>
      </trkpt>
      <trkpt lat="43.03024" lon="0.81007">
        <ele>520.85998535</ele>
        <time>2020-10-22T08:02:44Z</time>
      </trkpt>
      <trkpt lat="43.03022" lon="0.81004">
        <ele>520.89001465</ele>
        <time>2020-10-22T08:02:46Z</time>
      </trkpt>
      <trkpt lat="43.03021" lon="0.81001">
        <ele>520.89001465</ele>
        <time>2020-10-22T08:02:47Z</time>
      </trkpt>
      <trkpt lat="43.0302" lon="0.80998">
        <ele>521.96002197</ele>
        <time>2020-10-22T08:02:49Z</time>
      </trkpt>
      <trkpt lat="43.03019" lon="0.80995">
        <ele>521.95001221</ele>
        <time>2020-10-22T08:02:50Z</time>
      </trkpt>
      <trkpt lat="43.03018" lon="0.80992">
        <ele>521.63000488</ele>
        <time>2020-10-22T08:02:51Z</time>
      </trkpt>
      <trkpt lat="43.03017" lon="0.80988">
        <ele>520.7199707</ele>
        <time>2020-10-22T08:02:52Z</time>
      </trkpt>
      <trkpt lat="43.03016" lon="0.80984">
        <ele>520.94000244</ele>
        <time>2020-10-22T08:02:53Z</time>
      </trkpt>
      <trkpt lat="43.03015" lon="0.8098">
        <ele>520.86999512</ele>
        <time>2020-10-22T08:02:54Z</time>
      </trkpt>
      <trkpt lat="43.03013" lon="0.80974">
        <ele>521.59997559</ele>
        <time>2020-10-22T08:02:56Z</time>
      </trkpt>
      <trkpt lat="43.03011" lon="0.8097">
        <ele>520.91998291</ele>
        <time>2020-10-22T08:02:57Z</time>
      </trkpt>
      <trkpt lat="43.03009" lon="0.80966">
        <ele>521.82000732</ele>
        <time>2020-10-22T08:02:59Z</time>
      </trkpt>
      <trkpt lat="43.03008" lon="0.80963">
        <ele>522.23999023</ele>
        <time>2020-10-22T08:03:00Z</time>
      </trkpt>
      <trkpt lat="43.03006" lon="0.80959">
        <ele>522.76000977</ele>
        <time>2020-10-22T08:03:01Z</time>
      </trkpt>
      <trkpt lat="43.03004" lon="0.80958">
        <ele>522.80999756</ele>
        <time>2020-10-22T08:03:02Z</time>
      </trkpt>
      <trkpt lat="43.03002" lon="0.80954">
        <ele>522.7199707</ele>
        <time>2020-10-22T08:03:03Z</time>
      </trkpt>
      <trkpt lat="43.02999" lon="0.80951">
        <ele>523.10998535</ele>
        <time>2020-10-22T08:03:04Z</time>
      </trkpt>
      <trkpt lat="43.02996" lon="0.80946">
        <ele>523.40997314</ele>
        <time>2020-10-22T08:03:06Z</time>
      </trkpt>
      <trkpt lat="43.02994" lon="0.80943">
        <ele>523.07000732</ele>
        <time>2020-10-22T08:03:08Z</time>
      </trkpt>
      <trkpt lat="43.02991" lon="0.80939">
        <ele>523.84002686</ele>
        <time>2020-10-22T08:03:09Z</time>
      </trkpt>
      <trkpt lat="43.02989" lon="0.80937">
        <ele>524.76000977</ele>
        <time>2020-10-22T08:03:10Z</time>
      </trkpt>
      <trkpt lat="43.02986" lon="0.80934">
        <ele>524.55999756</ele>
        <time>2020-10-22T08:03:11Z</time>
      </trkpt>
      <trkpt lat="43.02983" lon="0.80931">
        <ele>524.47998047</ele>
        <time>2020-10-22T08:03:12Z</time>
      </trkpt>
      <trkpt lat="43.0298" lon="0.80928">
        <ele>525.14001465</ele>
        <time>2020-10-22T08:03:14Z</time>
      </trkpt>
      <trkpt lat="43.02978" lon="0.80926">
        <ele>525.65002441</ele>
        <time>2020-10-22T08:03:15Z</time>
      </trkpt>
      <trkpt lat="43.02975" lon="0.80924">
        <ele>525.46002197</ele>
        <time>2020-10-22T08:03:16Z</time>
      </trkpt>
      <trkpt lat="43.02971" lon="0.80921">
        <ele>525.88000488</ele>
        <time>2020-10-22T08:03:17Z</time>
      </trkpt>
      <trkpt lat="43.02968" lon="0.80919">
        <ele>526.09002686</ele>
        <time>2020-10-22T08:03:18Z</time>
      </trkpt>
      <trkpt lat="43.02965" lon="0.80917">
        <ele>526.61999512</ele>
        <time>2020-10-22T08:03:19Z</time>
      </trkpt>
      <trkpt lat="43.02962" lon="0.80915">
        <ele>527.02001953</ele>
        <time>2020-10-22T08:03:21Z</time>
      </trkpt>
      <trkpt lat="43.02958" lon="0.80914">
        <ele>527.60998535</ele>
        <time>2020-10-22T08:03:22Z</time>
      </trkpt>
      <trkpt lat="43.02956" lon="0.80913">
        <ele>528.28997803</ele>
        <time>2020-10-22T08:03:23Z</time>
      </trkpt>
      <trkpt lat="43.02953" lon="0.80911">
        <ele>529.33001709</ele>
        <time>2020-10-22T08:03:24Z</time>
      </trkpt>
      <trkpt lat="43.02949" lon="0.8091">
        <ele>529.30999756</ele>
        <time>2020-10-22T08:03:26Z</time>
      </trkpt>
      <trkpt lat="43.02945" lon="0.80909">
        <ele>530.19000244</ele>
        <time>2020-10-22T08:03:27Z</time>
      </trkpt>
      <trkpt lat="43.0294" lon="0.80909">
        <ele>530.58001709</ele>
        <time>2020-10-22T08:03:29Z</time>
      </trkpt>
      <trkpt lat="43.02937" lon="0.8091">
        <ele>530.97998047</ele>
        <time>2020-10-22T08:03:30Z</time>
      </trkpt>
      <trkpt lat="43.02934" lon="0.80909">
        <ele>531.59002686</ele>
        <time>2020-10-22T08:03:31Z</time>
      </trkpt>
      <trkpt lat="43.02927" lon="0.80909">
        <ele>531.48999023</ele>
        <time>2020-10-22T08:03:33Z</time>
      </trkpt>
      <trkpt lat="43.02921" lon="0.80909">
        <ele>532.02001953</ele>
        <time>2020-10-22T08:03:34Z</time>
      </trkpt>
      <trkpt lat="43.02919" lon="0.80908">
        <ele>532.60998535</ele>
        <time>2020-10-22T08:03:36Z</time>
      </trkpt>
      <trkpt lat="43.02916" lon="0.80907">
        <ele>533.33001709</ele>
        <time>2020-10-22T08:03:37Z</time>
      </trkpt>
      <trkpt lat="43.02913" lon="0.80904">
        <ele>534.53997803</ele>
        <time>2020-10-22T08:03:38Z</time>
      </trkpt>
      <trkpt lat="43.02908" lon="0.80901">
        <ele>535.25</ele>
        <time>2020-10-22T08:03:39Z</time>
      </trkpt>
      <trkpt lat="43.02905" lon="0.80898">
        <ele>535.29998779</ele>
        <time>2020-10-22T08:03:40Z</time>
      </trkpt>
      <trkpt lat="43.02902" lon="0.80895">
        <ele>535.55999756</ele>
        <time>2020-10-22T08:03:42Z</time>
      </trkpt>
      <trkpt lat="43.02899" lon="0.80891">
        <ele>537.17999268</ele>
        <time>2020-10-22T08:03:43Z</time>
      </trkpt>
      <trkpt lat="43.02896" lon="0.80887">
        <ele>537.41998291</ele>
        <time>2020-10-22T08:03:44Z</time>
      </trkpt>
      <trkpt lat="43.02892" lon="0.80882">
        <ele>537.4699707</ele>
        <time>2020-10-22T08:03:45Z</time>
      </trkpt>
      <trkpt lat="43.02888" lon="0.80878">
        <ele>537.48999023</ele>
        <time>2020-10-22T08:03:46Z</time>
      </trkpt>
      <trkpt lat="43.02884" lon="0.80873">
        <ele>537.51000977</ele>
        <time>2020-10-22T08:03:47Z</time>
      </trkpt>
      <trkpt lat="43.02879" lon="0.80868">
        <ele>536.92999268</ele>
        <time>2020-10-22T08:03:49Z</time>
      </trkpt>
      <trkpt lat="43.02876" lon="0.80864">
        <ele>537.27001953</ele>
        <time>2020-10-22T08:03:50Z</time>
      </trkpt>
      <trkpt lat="43.02874" lon="0.80857">
        <ele>537.92999268</ele>
        <time>2020-10-22T08:03:51Z</time>
      </trkpt>
      <trkpt lat="43.02875" lon="0.80851">
        <ele>538.03997803</ele>
        <time>2020-10-22T08:03:53Z</time>
      </trkpt>
      <trkpt lat="43.02875" lon="0.80845">
        <ele>537.88000488</ele>
        <time>2020-10-22T08:03:54Z</time>
      </trkpt>
      <trkpt lat="43.02876" lon="0.80841">
        <ele>538.2199707</ele>
        <time>2020-10-22T08:03:55Z</time>
      </trkpt>
      <trkpt lat="43.02878" lon="0.80835">
        <ele>538.34002686</ele>
        <time>2020-10-22T08:03:57Z</time>
      </trkpt>
      <trkpt lat="43.02881" lon="0.80827">
        <ele>538.40997314</ele>
        <time>2020-10-22T08:03:58Z</time>
      </trkpt>
      <trkpt lat="43.02884" lon="0.80821">
        <ele>538.9699707</ele>
        <time>2020-10-22T08:04:00Z</time>
      </trkpt>
      <trkpt lat="43.02886" lon="0.80815">
        <ele>539.08001709</ele>
        <time>2020-10-22T08:04:01Z</time>
      </trkpt>
      <trkpt lat="43.02889" lon="0.80808">
        <ele>539.64001465</ele>
        <time>2020-10-22T08:04:03Z</time>
      </trkpt>
      <trkpt lat="43.0289" lon="0.80803">
        <ele>540.38000488</ele>
        <time>2020-10-22T08:04:05Z</time>
      </trkpt>
      <trkpt lat="43.02891" lon="0.80797">
        <ele>540.86999512</ele>
        <time>2020-10-22T08:04:06Z</time>
      </trkpt>
      <trkpt lat="43.02892" lon="0.80792">
        <ele>541.7199707</ele>
        <time>2020-10-22T08:04:07Z</time>
      </trkpt>
      <trkpt lat="43.02893" lon="0.80787">
        <ele>541.84997559</ele>
        <time>2020-10-22T08:04:09Z</time>
      </trkpt>
      <trkpt lat="43.02895" lon="0.8078">
        <ele>542.60998535</ele>
        <time>2020-10-22T08:04:10Z</time>
      </trkpt>
      <trkpt lat="43.02895" lon="0.80776">
        <ele>542.94000244</ele>
        <time>2020-10-22T08:04:11Z</time>
      </trkpt>
      <trkpt lat="43.02896" lon="0.80772">
        <ele>543.30999756</ele>
        <time>2020-10-22T08:04:13Z</time>
      </trkpt>
      <trkpt lat="43.02896" lon="0.80766">
        <ele>544.29998779</ele>
        <time>2020-10-22T08:04:14Z</time>
      </trkpt>
      <trkpt lat="43.02896" lon="0.8076">
        <ele>544.23999023</ele>
        <time>2020-10-22T08:04:15Z</time>
      </trkpt>
      <trkpt lat="43.02895" lon="0.80752">
        <ele>544.63000488</ele>
        <time>2020-10-22T08:04:17Z</time>
      </trkpt>
      <trkpt lat="43.02893" lon="0.80747">
        <ele>544.97998047</ele>
        <time>2020-10-22T08:04:18Z</time>
      </trkpt>
      <trkpt lat="43.02889" lon="0.80736">
        <ele>545.59002686</ele>
        <time>2020-10-22T08:04:20Z</time>
      </trkpt>
      <trkpt lat="43.02887" lon="0.80731">
        <ele>545.5</ele>
        <time>2020-10-22T08:04:21Z</time>
      </trkpt>
      <trkpt lat="43.02885" lon="0.80725">
        <ele>545.42999268</ele>
        <time>2020-10-22T08:04:22Z</time>
      </trkpt>
      <trkpt lat="43.02881" lon="0.80716">
        <ele>546.79998779</ele>
        <time>2020-10-22T08:04:23Z</time>
      </trkpt>
      <trkpt lat="43.02879" lon="0.8071">
        <ele>547</ele>
        <time>2020-10-22T08:04:25Z</time>
      </trkpt>
      <trkpt lat="43.02876" lon="0.80704">
        <ele>547.33001709</ele>
        <time>2020-10-22T08:04:26Z</time>
      </trkpt>
      <trkpt lat="43.02872" lon="0.80698">
        <ele>547.39001465</ele>
        <time>2020-10-22T08:04:27Z</time>
      </trkpt>
      <trkpt lat="43.02868" lon="0.80692">
        <ele>547.72998047</ele>
        <time>2020-10-22T08:04:29Z</time>
      </trkpt>
      <trkpt lat="43.02864" lon="0.80688">
        <ele>547.69000244</ele>
        <time>2020-10-22T08:04:30Z</time>
      </trkpt>
      <trkpt lat="43.02861" lon="0.80684">
        <ele>547.64001465</ele>
        <time>2020-10-22T08:04:32Z</time>
      </trkpt>
      <trkpt lat="43.02858" lon="0.80682">
        <ele>547.53997803</ele>
        <time>2020-10-22T08:04:33Z</time>
      </trkpt>
      <trkpt lat="43.02855" lon="0.80678">
        <ele>547.59002686</ele>
        <time>2020-10-22T08:04:34Z</time>
      </trkpt>
      <trkpt lat="43.02853" lon="0.80672">
        <ele>547.79998779</ele>
        <time>2020-10-22T08:04:36Z</time>
      </trkpt>
      <trkpt lat="43.02851" lon="0.80668">
        <ele>547.76000977</ele>
        <time>2020-10-22T08:04:37Z</time>
      </trkpt>
      <trkpt lat="43.02849" lon="0.80664">
        <ele>548.69000244</ele>
        <time>2020-10-22T08:04:38Z</time>
      </trkpt>
      <trkpt lat="43.02846" lon="0.80659">
        <ele>548.69000244</ele>
        <time>2020-10-22T08:04:39Z</time>
      </trkpt>
      <trkpt lat="43.02844" lon="0.80654">
        <ele>548.90002441</ele>
        <time>2020-10-22T08:04:40Z</time>
      </trkpt>
      <trkpt lat="43.02841" lon="0.80652">
        <ele>548.90002441</ele>
        <time>2020-10-22T08:04:41Z</time>
      </trkpt>
      <trkpt lat="43.02838" lon="0.80647">
        <ele>548.13000488</ele>
        <time>2020-10-22T08:04:42Z</time>
      </trkpt>
      <trkpt lat="43.02836" lon="0.80642">
        <ele>548.17999268</ele>
        <time>2020-10-22T08:04:44Z</time>
      </trkpt>
      <trkpt lat="43.02835" lon="0.80639">
        <ele>548.17999268</ele>
        <time>2020-10-22T08:04:45Z</time>
      </trkpt>
      <trkpt lat="43.02831" lon="0.80632">
        <ele>548.76000977</ele>
        <time>2020-10-22T08:04:46Z</time>
      </trkpt>
      <trkpt lat="43.02828" lon="0.80628">
        <ele>548.51000977</ele>
        <time>2020-10-22T08:04:48Z</time>
      </trkpt>
      <trkpt lat="43.02825" lon="0.80623">
        <ele>548.45001221</ele>
        <time>2020-10-22T08:04:49Z</time>
      </trkpt>
      <trkpt lat="43.0282" lon="0.80614">
        <ele>548.17999268</ele>
        <time>2020-10-22T08:04:51Z</time>
      </trkpt>
      <trkpt lat="43.02817" lon="0.80607">
        <ele>548.69000244</ele>
        <time>2020-10-22T08:04:52Z</time>
      </trkpt>
      <trkpt lat="43.02809" lon="0.80593">
        <ele>548.70001221</ele>
        <time>2020-10-22T08:04:53Z</time>
      </trkpt>
      <trkpt lat="43.028" lon="0.80577">
        <ele>547.53997803</ele>
        <time>2020-10-22T08:04:55Z</time>
      </trkpt>
      <trkpt lat="43.02796" lon="0.80572">
        <ele>546.57000732</ele>
        <time>2020-10-22T08:04:56Z</time>
      </trkpt>
      <trkpt lat="43.02794" lon="0.80567">
        <ele>546.70001221</ele>
        <time>2020-10-22T08:04:57Z</time>
      </trkpt>
      <trkpt lat="43.02791" lon="0.80562">
        <ele>546.70001221</ele>
        <time>2020-10-22T08:04:58Z</time>
      </trkpt>
      <trkpt lat="43.02786" lon="0.80554">
        <ele>545.05999756</ele>
        <time>2020-10-22T08:05:00Z</time>
      </trkpt>
      <trkpt lat="43.02781" lon="0.80548">
        <ele>545.61999512</ele>
        <time>2020-10-22T08:05:01Z</time>
      </trkpt>
      <trkpt lat="43.02777" lon="0.8054">
        <ele>545.05999756</ele>
        <time>2020-10-22T08:05:03Z</time>
      </trkpt>
      <trkpt lat="43.02775" lon="0.80535">
        <ele>545.10998535</ele>
        <time>2020-10-22T08:05:04Z</time>
      </trkpt>
      <trkpt lat="43.02772" lon="0.80531">
        <ele>544.71002197</ele>
        <time>2020-10-22T08:05:05Z</time>
      </trkpt>
      <trkpt lat="43.0277" lon="0.80527">
        <ele>544.71002197</ele>
        <time>2020-10-22T08:05:06Z</time>
      </trkpt>
      <trkpt lat="43.02768" lon="0.80522">
        <ele>544.70001221</ele>
        <time>2020-10-22T08:05:07Z</time>
      </trkpt>
      <trkpt lat="43.02767" lon="0.80518">
        <ele>544.63000488</ele>
        <time>2020-10-22T08:05:09Z</time>
      </trkpt>
      <trkpt lat="43.02767" lon="0.80513">
        <ele>543.66998291</ele>
        <time>2020-10-22T08:05:10Z</time>
      </trkpt>
      <trkpt lat="43.02766" lon="0.80509">
        <ele>543.92999268</ele>
        <time>2020-10-22T08:05:12Z</time>
      </trkpt>
      <trkpt lat="43.02766" lon="0.80505">
        <ele>544.16998291</ele>
        <time>2020-10-22T08:05:13Z</time>
      </trkpt>
      <trkpt lat="43.02764" lon="0.80496">
        <ele>544.29998779</ele>
        <time>2020-10-22T08:05:15Z</time>
      </trkpt>
      <trkpt lat="43.02761" lon="0.80489">
        <ele>543.64001465</ele>
        <time>2020-10-22T08:05:16Z</time>
      </trkpt>
      <trkpt lat="43.02758" lon="0.80482">
        <ele>543.55999756</ele>
        <time>2020-10-22T08:05:18Z</time>
      </trkpt>
      <trkpt lat="43.02752" lon="0.80475">
        <ele>541.82000732</ele>
        <time>2020-10-22T08:05:19Z</time>
      </trkpt>
      <trkpt lat="43.02747" lon="0.80469">
        <ele>541.65997314</ele>
        <time>2020-10-22T08:05:21Z</time>
      </trkpt>
      <trkpt lat="43.02743" lon="0.80465">
        <ele>540.92999268</ele>
        <time>2020-10-22T08:05:22Z</time>
      </trkpt>
      <trkpt lat="43.02735" lon="0.80455">
        <ele>540.17999268</ele>
        <time>2020-10-22T08:05:24Z</time>
      </trkpt>
      <trkpt lat="43.0273" lon="0.80451">
        <ele>540.65002441</ele>
        <time>2020-10-22T08:05:25Z</time>
      </trkpt>
      <trkpt lat="43.02714" lon="0.80441">
        <ele>539.85998535</ele>
        <time>2020-10-22T08:05:27Z</time>
      </trkpt>
      <trkpt lat="43.02706" lon="0.80438">
        <ele>538.07000732</ele>
        <time>2020-10-22T08:05:28Z</time>
      </trkpt>
      <trkpt lat="43.02699" lon="0.80436">
        <ele>537.10998535</ele>
        <time>2020-10-22T08:05:29Z</time>
      </trkpt>
      <trkpt lat="43.0269" lon="0.80431">
        <ele>535.28997803</ele>
        <time>2020-10-22T08:05:31Z</time>
      </trkpt>
      <trkpt lat="43.02684" lon="0.80427">
        <ele>535.36999512</ele>
        <time>2020-10-22T08:05:33Z</time>
      </trkpt>
      <trkpt lat="43.02679" lon="0.80426">
        <ele>535.2199707</ele>
        <time>2020-10-22T08:05:34Z</time>
      </trkpt>
      <trkpt lat="43.02672" lon="0.80423">
        <ele>534.55999756</ele>
        <time>2020-10-22T08:05:35Z</time>
      </trkpt>
      <trkpt lat="43.02667" lon="0.80422">
        <ele>534.96002197</ele>
        <time>2020-10-22T08:05:37Z</time>
      </trkpt>
      <trkpt lat="43.02661" lon="0.80419">
        <ele>534.83001709</ele>
        <time>2020-10-22T08:05:38Z</time>
      </trkpt>
      <trkpt lat="43.02656" lon="0.80416">
        <ele>534.57000732</ele>
        <time>2020-10-22T08:05:39Z</time>
      </trkpt>
      <trkpt lat="43.02655" lon="0.80415">
        <ele>534.52001953</ele>
        <time>2020-10-22T08:05:41Z</time>
      </trkpt>
      <trkpt lat="43.02655" lon="0.80415">
        <ele>534.26000977</ele>
        <time>2020-10-22T08:05:42Z</time>
      </trkpt>
      <trkpt lat="43.02655" lon="0.80414">
        <ele>534.22998047</ele>
        <time>2020-10-22T08:05:43Z</time>
      </trkpt>
      <trkpt lat="43.02655" lon="0.80412">
        <ele>534.15002441</ele>
        <time>2020-10-22T08:05:44Z</time>
      </trkpt>
      <trkpt lat="43.02654" lon="0.80409">
        <ele>534.15002441</ele>
        <time>2020-10-22T08:05:45Z</time>
      </trkpt>
      <trkpt lat="43.0265" lon="0.80404">
        <ele>535.89001465</ele>
        <time>2020-10-22T08:05:47Z</time>
      </trkpt>
      <trkpt lat="43.02647" lon="0.804">
        <ele>533.85998535</ele>
        <time>2020-10-22T08:05:48Z</time>
      </trkpt>
      <trkpt lat="43.02644" lon="0.80396">
        <ele>532.7800293</ele>
        <time>2020-10-22T08:05:49Z</time>
      </trkpt>
      <trkpt lat="43.0264" lon="0.80387">
        <ele>532.97998047</ele>
        <time>2020-10-22T08:05:50Z</time>
      </trkpt>
      <trkpt lat="43.02638" lon="0.8038">
        <ele>533.32000732</ele>
        <time>2020-10-22T08:05:51Z</time>
      </trkpt>
      <trkpt lat="43.02636" lon="0.80372">
        <ele>531.57000732</ele>
        <time>2020-10-22T08:05:53Z</time>
      </trkpt>
      <trkpt lat="43.02635" lon="0.80366">
        <ele>531.57000732</ele>
        <time>2020-10-22T08:05:54Z</time>
      </trkpt>
      <trkpt lat="43.02632" lon="0.80359">
        <ele>530.40997314</ele>
        <time>2020-10-22T08:05:55Z</time>
      </trkpt>
      <trkpt lat="43.02628" lon="0.80354">
        <ele>529.22998047</ele>
        <time>2020-10-22T08:05:57Z</time>
      </trkpt>
      <trkpt lat="43.02624" lon="0.80349">
        <ele>528.78997803</ele>
        <time>2020-10-22T08:05:58Z</time>
      </trkpt>
      <trkpt lat="43.02621" lon="0.80344">
        <ele>528.01000977</ele>
        <time>2020-10-22T08:05:59Z</time>
      </trkpt>
      <trkpt lat="43.02618" lon="0.80338">
        <ele>527.10998535</ele>
        <time>2020-10-22T08:06:00Z</time>
      </trkpt>
      <trkpt lat="43.02615" lon="0.80334">
        <ele>525.86999512</ele>
        <time>2020-10-22T08:06:02Z</time>
      </trkpt>
      <trkpt lat="43.02611" lon="0.80331">
        <ele>524.07000732</ele>
        <time>2020-10-22T08:06:03Z</time>
      </trkpt>
      <trkpt lat="43.02609" lon="0.80329">
        <ele>523.05999756</ele>
        <time>2020-10-22T08:06:04Z</time>
      </trkpt>
      <trkpt lat="43.02607" lon="0.80329">
        <ele>522.27001953</ele>
        <time>2020-10-22T08:06:05Z</time>
      </trkpt>
      <trkpt lat="43.02604" lon="0.80331">
        <ele>521.7199707</ele>
        <time>2020-10-22T08:06:06Z</time>
      </trkpt>
      <trkpt lat="43.026" lon="0.80334">
        <ele>520.09002686</ele>
        <time>2020-10-22T08:06:08Z</time>
      </trkpt>
      <trkpt lat="43.02597" lon="0.80339">
        <ele>519.64001465</ele>
        <time>2020-10-22T08:06:09Z</time>
      </trkpt>
      <trkpt lat="43.02595" lon="0.80345">
        <ele>518.75</ele>
        <time>2020-10-22T08:06:11Z</time>
      </trkpt>
      <trkpt lat="43.02591" lon="0.80351">
        <ele>517.94000244</ele>
        <time>2020-10-22T08:06:12Z</time>
      </trkpt>
      <trkpt lat="43.02588" lon="0.80357">
        <ele>514.66998291</ele>
        <time>2020-10-22T08:06:14Z</time>
      </trkpt>
      <trkpt lat="43.02586" lon="0.8036">
        <ele>513.5</ele>
        <time>2020-10-22T08:06:15Z</time>
      </trkpt>
      <trkpt lat="43.02585" lon="0.80362">
        <ele>513.5</ele>
        <time>2020-10-22T08:06:16Z</time>
      </trkpt>
      <trkpt lat="43.02581" lon="0.80367">
        <ele>511.61999512</ele>
        <time>2020-10-22T08:06:17Z</time>
      </trkpt>
      <trkpt lat="43.02576" lon="0.80369">
        <ele>511.04000854</ele>
        <time>2020-10-22T08:06:19Z</time>
      </trkpt>
      <trkpt lat="43.02574" lon="0.80369">
        <ele>510.47000122</ele>
        <time>2020-10-22T08:06:20Z</time>
      </trkpt>
      <trkpt lat="43.02572" lon="0.80368">
        <ele>509.97000122</ele>
        <time>2020-10-22T08:06:21Z</time>
      </trkpt>
      <trkpt lat="43.02571" lon="0.80364">
        <ele>509.17999268</ele>
        <time>2020-10-22T08:06:22Z</time>
      </trkpt>
      <trkpt lat="43.02571" lon="0.8036">
        <ele>508.64001465</ele>
        <time>2020-10-22T08:06:24Z</time>
      </trkpt>
      <trkpt lat="43.02572" lon="0.80356">
        <ele>507.67001343</ele>
        <time>2020-10-22T08:06:25Z</time>
      </trkpt>
      <trkpt lat="43.02572" lon="0.8035">
        <ele>506.51000977</ele>
        <time>2020-10-22T08:06:27Z</time>
      </trkpt>
      <trkpt lat="43.02573" lon="0.80347">
        <ele>505.83999634</ele>
        <time>2020-10-22T08:06:28Z</time>
      </trkpt>
      <trkpt lat="43.02573" lon="0.80343">
        <ele>506.20001221</ele>
        <time>2020-10-22T08:06:29Z</time>
      </trkpt>
      <trkpt lat="43.02573" lon="0.8034">
        <ele>505.79000854</ele>
        <time>2020-10-22T08:06:30Z</time>
      </trkpt>
      <trkpt lat="43.02573" lon="0.80335">
        <ele>505.70999146</ele>
        <time>2020-10-22T08:06:32Z</time>
      </trkpt>
      <trkpt lat="43.02574" lon="0.80331">
        <ele>505.30999756</ele>
        <time>2020-10-22T08:06:33Z</time>
      </trkpt>
      <trkpt lat="43.02575" lon="0.80321">
        <ele>505.60998535</ele>
        <time>2020-10-22T08:06:35Z</time>
      </trkpt>
      <trkpt lat="43.02575" lon="0.80315">
        <ele>505.26998901</ele>
        <time>2020-10-22T08:06:36Z</time>
      </trkpt>
      <trkpt lat="43.02575" lon="0.80304">
        <ele>505.17001343</ele>
        <time>2020-10-22T08:06:38Z</time>
      </trkpt>
      <trkpt lat="43.02576" lon="0.80298">
        <ele>505.92001343</ele>
        <time>2020-10-22T08:06:39Z</time>
      </trkpt>
      <trkpt lat="43.02575" lon="0.80286">
        <ele>506.54000854</ele>
        <time>2020-10-22T08:06:41Z</time>
      </trkpt>
      <trkpt lat="43.02574" lon="0.80267">
        <ele>506.82998657</ele>
        <time>2020-10-22T08:06:42Z</time>
      </trkpt>
      <trkpt lat="43.02573" lon="0.80245">
        <ele>506.94000244</ele>
        <time>2020-10-22T08:06:44Z</time>
      </trkpt>
      <trkpt lat="43.02574" lon="0.80238">
        <ele>505.86999512</ele>
        <time>2020-10-22T08:06:45Z</time>
      </trkpt>
      <trkpt lat="43.02574" lon="0.80221">
        <ele>505.72000122</ele>
        <time>2020-10-22T08:06:46Z</time>
      </trkpt>
      <trkpt lat="43.02575" lon="0.80214">
        <ele>506.05999756</ele>
        <time>2020-10-22T08:06:48Z</time>
      </trkpt>
      <trkpt lat="43.02576" lon="0.80203">
        <ele>505.88000488</ele>
        <time>2020-10-22T08:06:50Z</time>
      </trkpt>
      <trkpt lat="43.02576" lon="0.80196">
        <ele>505.23001099</ele>
        <time>2020-10-22T08:06:51Z</time>
      </trkpt>
      <trkpt lat="43.02575" lon="0.80189">
        <ele>505.30999756</ele>
        <time>2020-10-22T08:06:52Z</time>
      </trkpt>
      <trkpt lat="43.02576" lon="0.80178">
        <ele>505.29000854</ele>
        <time>2020-10-22T08:06:53Z</time>
      </trkpt>
      <trkpt lat="43.02578" lon="0.8016">
        <ele>503.17001343</ele>
        <time>2020-10-22T08:06:55Z</time>
      </trkpt>
      <trkpt lat="43.0258" lon="0.8015">
        <ele>503.44000244</ele>
        <time>2020-10-22T08:06:56Z</time>
      </trkpt>
      <trkpt lat="43.02582" lon="0.80147">
        <ele>503.44000244</ele>
        <time>2020-10-22T08:06:57Z</time>
      </trkpt>
      <trkpt lat="43.02584" lon="0.80135">
        <ele>503.82998657</ele>
        <time>2020-10-22T08:06:59Z</time>
      </trkpt>
      <trkpt lat="43.02585" lon="0.80128">
        <ele>505.04998779</ele>
        <time>2020-10-22T08:07:00Z</time>
      </trkpt>
      <trkpt lat="43.02586" lon="0.80123">
        <ele>505.04998779</ele>
        <time>2020-10-22T08:07:01Z</time>
      </trkpt>
      <trkpt lat="43.02587" lon="0.80108">
        <ele>505.27999878</ele>
        <time>2020-10-22T08:07:03Z</time>
      </trkpt>
      <trkpt lat="43.02588" lon="0.80098">
        <ele>505.19000244</ele>
        <time>2020-10-22T08:07:04Z</time>
      </trkpt>
      <trkpt lat="43.02587" lon="0.8007">
        <ele>505.70999146</ele>
        <time>2020-10-22T08:07:06Z</time>
      </trkpt>
      <trkpt lat="43.02587" lon="0.80049">
        <ele>506.45001221</ele>
        <time>2020-10-22T08:07:08Z</time>
      </trkpt>
      <trkpt lat="43.02588" lon="0.8004">
        <ele>505.79000854</ele>
        <time>2020-10-22T08:07:09Z</time>
      </trkpt>
      <trkpt lat="43.02588" lon="0.80022">
        <ele>505.20001221</ele>
        <time>2020-10-22T08:07:11Z</time>
      </trkpt>
      <trkpt lat="43.02588" lon="0.80012">
        <ele>505.45999146</ele>
        <time>2020-10-22T08:07:12Z</time>
      </trkpt>
      <trkpt lat="43.02589" lon="0.79997">
        <ele>505.30999756</ele>
        <time>2020-10-22T08:07:14Z</time>
      </trkpt>
      <trkpt lat="43.02589" lon="0.79989">
        <ele>507.1000061</ele>
        <time>2020-10-22T08:07:15Z</time>
      </trkpt>
      <trkpt lat="43.0259" lon="0.79977">
        <ele>506.54998779</ele>
        <time>2020-10-22T08:07:17Z</time>
      </trkpt>
      <trkpt lat="43.02589" lon="0.79971">
        <ele>506.33999634</ele>
        <time>2020-10-22T08:07:18Z</time>
      </trkpt>
      <trkpt lat="43.02588" lon="0.7996">
        <ele>506.17999268</ele>
        <time>2020-10-22T08:07:19Z</time>
      </trkpt>
      <trkpt lat="43.02586" lon="0.79942">
        <ele>505.88000488</ele>
        <time>2020-10-22T08:07:21Z</time>
      </trkpt>
      <trkpt lat="43.02586" lon="0.79929">
        <ele>505.89001465</ele>
        <time>2020-10-22T08:07:23Z</time>
      </trkpt>
      <trkpt lat="43.02587" lon="0.79922">
        <ele>505.26998901</ele>
        <time>2020-10-22T08:07:24Z</time>
      </trkpt>
      <trkpt lat="43.02589" lon="0.79914">
        <ele>505.32998657</ele>
        <time>2020-10-22T08:07:25Z</time>
      </trkpt>
      <trkpt lat="43.02591" lon="0.79908">
        <ele>505.35998535</ele>
        <time>2020-10-22T08:07:27Z</time>
      </trkpt>
      <trkpt lat="43.02593" lon="0.79903">
        <ele>505.57000732</ele>
        <time>2020-10-22T08:07:28Z</time>
      </trkpt>
      <trkpt lat="43.02594" lon="0.79898">
        <ele>506.76998901</ele>
        <time>2020-10-22T08:07:30Z</time>
      </trkpt>
      <trkpt lat="43.02595" lon="0.79895">
        <ele>507.42999268</ele>
        <time>2020-10-22T08:07:31Z</time>
      </trkpt>
      <trkpt lat="43.02596" lon="0.79888">
        <ele>507.80999756</ele>
        <time>2020-10-22T08:07:32Z</time>
      </trkpt>
      <trkpt lat="43.02596" lon="0.7988">
        <ele>507.54000854</ele>
        <time>2020-10-22T08:07:34Z</time>
      </trkpt>
      <trkpt lat="43.02596" lon="0.79874">
        <ele>506.91000366</ele>
        <time>2020-10-22T08:07:35Z</time>
      </trkpt>
      <trkpt lat="43.02596" lon="0.79869">
        <ele>506.91000366</ele>
        <time>2020-10-22T08:07:36Z</time>
      </trkpt>
      <trkpt lat="43.02597" lon="0.79863">
        <ele>507.11999512</ele>
        <time>2020-10-22T08:07:37Z</time>
      </trkpt>
      <trkpt lat="43.02598" lon="0.79856">
        <ele>508.25</ele>
        <time>2020-10-22T08:07:38Z</time>
      </trkpt>
      <trkpt lat="43.026" lon="0.79849">
        <ele>508.51998901</ele>
        <time>2020-10-22T08:07:39Z</time>
      </trkpt>
      <trkpt lat="43.02603" lon="0.79845">
        <ele>508.8500061</ele>
        <time>2020-10-22T08:07:40Z</time>
      </trkpt>
      <trkpt lat="43.02604" lon="0.7984">
        <ele>509.1000061</ele>
        <time>2020-10-22T08:07:42Z</time>
      </trkpt>
      <trkpt lat="43.02606" lon="0.79836">
        <ele>508.75</ele>
        <time>2020-10-22T08:07:43Z</time>
      </trkpt>
      <trkpt lat="43.02607" lon="0.79829">
        <ele>509.72000122</ele>
        <time>2020-10-22T08:07:45Z</time>
      </trkpt>
      <trkpt lat="43.02608" lon="0.79826">
        <ele>509.82000732</ele>
        <time>2020-10-22T08:07:46Z</time>
      </trkpt>
      <trkpt lat="43.02609" lon="0.7982">
        <ele>510.1000061</ele>
        <time>2020-10-22T08:07:47Z</time>
      </trkpt>
      <trkpt lat="43.02608" lon="0.79813">
        <ele>510.20001221</ele>
        <time>2020-10-22T08:07:49Z</time>
      </trkpt>
      <trkpt lat="43.02608" lon="0.798">
        <ele>510.36999512</ele>
        <time>2020-10-22T08:07:51Z</time>
      </trkpt>
      <trkpt lat="43.02608" lon="0.79791">
        <ele>510.72000122</ele>
        <time>2020-10-22T08:07:52Z</time>
      </trkpt>
      <trkpt lat="43.02608" lon="0.79783">
        <ele>511.13000488</ele>
        <time>2020-10-22T08:07:54Z</time>
      </trkpt>
      <trkpt lat="43.02609" lon="0.79777">
        <ele>511.5</ele>
        <time>2020-10-22T08:07:55Z</time>
      </trkpt>
      <trkpt lat="43.02611" lon="0.79771">
        <ele>510.97000122</ele>
        <time>2020-10-22T08:07:56Z</time>
      </trkpt>
      <trkpt lat="43.02612" lon="0.79766">
        <ele>510.76000977</ele>
        <time>2020-10-22T08:07:57Z</time>
      </trkpt>
      <trkpt lat="43.02613" lon="0.79759">
        <ele>511.54998779</ele>
        <time>2020-10-22T08:07:59Z</time>
      </trkpt>
      <trkpt lat="43.02614" lon="0.79753">
        <ele>512.78997803</ele>
        <time>2020-10-22T08:08:00Z</time>
      </trkpt>
      <trkpt lat="43.02616" lon="0.79741">
        <ele>512.65997314</ele>
        <time>2020-10-22T08:08:02Z</time>
      </trkpt>
      <trkpt lat="43.02617" lon="0.7973">
        <ele>512.09002686</ele>
        <time>2020-10-22T08:08:03Z</time>
      </trkpt>
      <trkpt lat="43.02618" lon="0.7972">
        <ele>512.04998779</ele>
        <time>2020-10-22T08:08:05Z</time>
      </trkpt>
      <trkpt lat="43.0262" lon="0.79707">
        <ele>512.40002441</ele>
        <time>2020-10-22T08:08:07Z</time>
      </trkpt>
      <trkpt lat="43.02621" lon="0.79698">
        <ele>512.63000488</ele>
        <time>2020-10-22T08:08:08Z</time>
      </trkpt>
      <trkpt lat="43.02622" lon="0.79692">
        <ele>511.94000244</ele>
        <time>2020-10-22T08:08:09Z</time>
      </trkpt>
      <trkpt lat="43.02623" lon="0.79677">
        <ele>512.5</ele>
        <time>2020-10-22T08:08:11Z</time>
      </trkpt>
      <trkpt lat="43.02621" lon="0.79668">
        <ele>512.71002197</ele>
        <time>2020-10-22T08:08:12Z</time>
      </trkpt>
      <trkpt lat="43.02618" lon="0.79649">
        <ele>512.0300293</ele>
        <time>2020-10-22T08:08:14Z</time>
      </trkpt>
      <trkpt lat="43.02615" lon="0.7964">
        <ele>511.20999146</ele>
        <time>2020-10-22T08:08:15Z</time>
      </trkpt>
      <trkpt lat="43.02606" lon="0.79625">
        <ele>509.97000122</ele>
        <time>2020-10-22T08:08:17Z</time>
      </trkpt>
      <trkpt lat="43.02602" lon="0.79621">
        <ele>508.80999756</ele>
        <time>2020-10-22T08:08:18Z</time>
      </trkpt>
      <trkpt lat="43.02597" lon="0.79619">
        <ele>507.72000122</ele>
        <time>2020-10-22T08:08:19Z</time>
      </trkpt>
      <trkpt lat="43.02584" lon="0.79615">
        <ele>506.98999023</ele>
        <time>2020-10-22T08:08:21Z</time>
      </trkpt>
      <trkpt lat="43.02569" lon="0.79618">
        <ele>506.70001221</ele>
        <time>2020-10-22T08:08:23Z</time>
      </trkpt>
      <trkpt lat="43.02554" lon="0.7962">
        <ele>505.94000244</ele>
        <time>2020-10-22T08:08:25Z</time>
      </trkpt>
      <trkpt lat="43.02547" lon="0.79621">
        <ele>505.67001343</ele>
        <time>2020-10-22T08:08:26Z</time>
      </trkpt>
      <trkpt lat="43.02535" lon="0.79623">
        <ele>505.85998535</ele>
        <time>2020-10-22T08:08:28Z</time>
      </trkpt>
      <trkpt lat="43.02523" lon="0.79625">
        <ele>505.5</ele>
        <time>2020-10-22T08:08:30Z</time>
      </trkpt>
      <trkpt lat="43.02517" lon="0.79626">
        <ele>505.27999878</ele>
        <time>2020-10-22T08:08:31Z</time>
      </trkpt>
      <trkpt lat="43.02505" lon="0.79627">
        <ele>504.75</ele>
        <time>2020-10-22T08:08:33Z</time>
      </trkpt>
      <trkpt lat="43.02499" lon="0.79627">
        <ele>505.02999878</ele>
        <time>2020-10-22T08:08:34Z</time>
      </trkpt>
      <trkpt lat="43.02493" lon="0.79627">
        <ele>505.57000732</ele>
        <time>2020-10-22T08:08:35Z</time>
      </trkpt>
      <trkpt lat="43.02485" lon="0.79627">
        <ele>506.67001343</ele>
        <time>2020-10-22T08:08:37Z</time>
      </trkpt>
      <trkpt lat="43.02481" lon="0.79628">
        <ele>507.41000366</ele>
        <time>2020-10-22T08:08:38Z</time>
      </trkpt>
      <trkpt lat="43.02475" lon="0.79629">
        <ele>508.54000854</ele>
        <time>2020-10-22T08:08:40Z</time>
      </trkpt>
      <trkpt lat="43.02472" lon="0.7963">
        <ele>513.09002686</ele>
        <time>2020-10-22T08:08:41Z</time>
      </trkpt>
      <trkpt lat="43.02468" lon="0.79632">
        <ele>513.09002686</ele>
        <time>2020-10-22T08:08:42Z</time>
      </trkpt>
      <trkpt lat="43.02465" lon="0.79636">
        <ele>513.09002686</ele>
        <time>2020-10-22T08:08:43Z</time>
      </trkpt>
      <trkpt lat="43.02462" lon="0.7964">
        <ele>513.09002686</ele>
        <time>2020-10-22T08:08:45Z</time>
      </trkpt>
      <trkpt lat="43.02459" lon="0.79647">
        <ele>513.09002686</ele>
        <time>2020-10-22T08:08:46Z</time>
      </trkpt>
      <trkpt lat="43.02457" lon="0.7965">
        <ele>513.09002686</ele>
        <time>2020-10-22T08:08:47Z</time>
      </trkpt>
      <trkpt lat="43.02454" lon="0.79658">
        <ele>513.09002686</ele>
        <time>2020-10-22T08:08:49Z</time>
      </trkpt>
      <trkpt lat="43.02453" lon="0.79672">
        <ele>513.09002686</ele>
        <time>2020-10-22T08:08:51Z</time>
      </trkpt>
      <trkpt lat="43.02455" lon="0.79686">
        <ele>513.09002686</ele>
        <time>2020-10-22T08:08:53Z</time>
      </trkpt>
      <trkpt lat="43.02457" lon="0.79703">
        <ele>513.09002686</ele>
        <time>2020-10-22T08:08:55Z</time>
      </trkpt>
      <trkpt lat="43.02456" lon="0.79711">
        <ele>513.09002686</ele>
        <time>2020-10-22T08:08:56Z</time>
      </trkpt>
      <trkpt lat="43.0245" lon="0.79725">
        <ele>513.09002686</ele>
        <time>2020-10-22T08:08:58Z</time>
      </trkpt>
      <trkpt lat="43.02446" lon="0.7973">
        <ele>513.09002686</ele>
        <time>2020-10-22T08:08:59Z</time>
      </trkpt>
      <trkpt lat="43.02432" lon="0.79733">
        <ele>513.09002686</ele>
        <time>2020-10-22T08:09:01Z</time>
      </trkpt>
      <trkpt lat="43.02419" lon="0.79722">
        <ele>513.09002686</ele>
        <time>2020-10-22T08:09:03Z</time>
      </trkpt>
      <trkpt lat="43.0241" lon="0.79701">
        <ele>513.09002686</ele>
        <time>2020-10-22T08:09:05Z</time>
      </trkpt>
      <trkpt lat="43.02405" lon="0.7969">
        <ele>513.09002686</ele>
        <time>2020-10-22T08:09:06Z</time>
      </trkpt>
      <trkpt lat="43.02393" lon="0.79668">
        <ele>513.09002686</ele>
        <time>2020-10-22T08:09:08Z</time>
      </trkpt>
      <trkpt lat="43.02386" lon="0.79657">
        <ele>513.09002686</ele>
        <time>2020-10-22T08:09:09Z</time>
      </trkpt>
      <trkpt lat="43.02371" lon="0.79635">
        <ele>513.09002686</ele>
        <time>2020-10-22T08:09:11Z</time>
      </trkpt>
      <trkpt lat="43.02364" lon="0.79623">
        <ele>513.09002686</ele>
        <time>2020-10-22T08:09:12Z</time>
      </trkpt>
      <trkpt lat="43.02351" lon="0.79596">
        <ele>513.09002686</ele>
        <time>2020-10-22T08:09:14Z</time>
      </trkpt>
      <trkpt lat="43.02346" lon="0.7958">
        <ele>513.09002686</ele>
        <time>2020-10-22T08:09:15Z</time>
      </trkpt>
      <trkpt lat="43.02346" lon="0.79543">
        <ele>513.09002686</ele>
        <time>2020-10-22T08:09:17Z</time>
      </trkpt>
      <trkpt lat="43.02358" lon="0.79503">
        <ele>513.09002686</ele>
        <time>2020-10-22T08:09:19Z</time>
      </trkpt>
      <trkpt lat="43.02366" lon="0.79482">
        <ele>513.09002686</ele>
        <time>2020-10-22T08:09:20Z</time>
      </trkpt>
      <trkpt lat="43.02378" lon="0.79442">
        <ele>513.09002686</ele>
        <time>2020-10-22T08:09:22Z</time>
      </trkpt>
      <trkpt lat="43.02384" lon="0.79411">
        <ele>513.09002686</ele>
        <time>2020-10-22T08:09:24Z</time>
      </trkpt>
      <trkpt lat="43.02385" lon="0.79399">
        <ele>513.09002686</ele>
        <time>2020-10-22T08:09:25Z</time>
      </trkpt>
      <trkpt lat="43.02385" lon="0.7939">
        <ele>513.09002686</ele>
        <time>2020-10-22T08:09:26Z</time>
      </trkpt>
      <trkpt lat="43.02384" lon="0.79384">
        <ele>513.09002686</ele>
        <time>2020-10-22T08:09:27Z</time>
      </trkpt>
      <trkpt lat="43.02376" lon="0.79384">
        <ele>513.09002686</ele>
        <time>2020-10-22T08:09:29Z</time>
      </trkpt>
      <trkpt lat="43.02363" lon="0.79385">
        <ele>513.09002686</ele>
        <time>2020-10-22T08:09:31Z</time>
      </trkpt>
      <trkpt lat="43.02349" lon="0.79391">
        <ele>513.09002686</ele>
        <time>2020-10-22T08:09:33Z</time>
      </trkpt>
      <trkpt lat="43.02336" lon="0.79398">
        <ele>513.09002686</ele>
        <time>2020-10-22T08:09:35Z</time>
      </trkpt>
      <trkpt lat="43.02325" lon="0.79396">
        <ele>513.09002686</ele>
        <time>2020-10-22T08:09:37Z</time>
      </trkpt>
      <trkpt lat="43.0232" lon="0.79392">
        <ele>513.09002686</ele>
        <time>2020-10-22T08:09:38Z</time>
      </trkpt>
      <trkpt lat="43.02316" lon="0.79392">
        <ele>513.09002686</ele>
        <time>2020-10-22T08:09:39Z</time>
      </trkpt>
      <trkpt lat="43.02307" lon="0.79395">
        <ele>471.75</ele>
        <time>2020-10-22T08:09:41Z</time>
      </trkpt>
      <trkpt lat="43.02302" lon="0.79401">
        <ele>472.48001099</ele>
        <time>2020-10-22T08:09:42Z</time>
      </trkpt>
      <trkpt lat="43.02293" lon="0.79413">
        <ele>472.63000488</ele>
        <time>2020-10-22T08:09:44Z</time>
      </trkpt>
      <trkpt lat="43.02284" lon="0.79426">
        <ele>472.55999756</ele>
        <time>2020-10-22T08:09:46Z</time>
      </trkpt>
      <trkpt lat="43.02276" lon="0.7944">
        <ele>473.8500061</ele>
        <time>2020-10-22T08:09:48Z</time>
      </trkpt>
      <trkpt lat="43.02267" lon="0.79452">
        <ele>473.97000122</ele>
        <time>2020-10-22T08:09:50Z</time>
      </trkpt>
      <trkpt lat="43.02263" lon="0.79458">
        <ele>473.75</ele>
        <time>2020-10-22T08:09:51Z</time>
      </trkpt>
      <trkpt lat="43.02254" lon="0.79468">
        <ele>473.66000366</ele>
        <time>2020-10-22T08:09:53Z</time>
      </trkpt>
      <trkpt lat="43.02244" lon="0.79478">
        <ele>473.39001465</ele>
        <time>2020-10-22T08:09:55Z</time>
      </trkpt>
      <trkpt lat="43.02235" lon="0.79488">
        <ele>473.25</ele>
        <time>2020-10-22T08:09:57Z</time>
      </trkpt>
      <trkpt lat="43.02225" lon="0.79497">
        <ele>473.10998535</ele>
        <time>2020-10-22T08:09:59Z</time>
      </trkpt>
      <trkpt lat="43.02215" lon="0.79506">
        <ele>472.97000122</ele>
        <time>2020-10-22T08:10:01Z</time>
      </trkpt>
      <trkpt lat="43.02209" lon="0.79511">
        <ele>472.97000122</ele>
        <time>2020-10-22T08:10:02Z</time>
      </trkpt>
      <trkpt lat="43.02204" lon="0.79515">
        <ele>472.95001221</ele>
        <time>2020-10-22T08:10:03Z</time>
      </trkpt>
      <trkpt lat="43.02194" lon="0.79524">
        <ele>472.98999023</ele>
        <time>2020-10-22T08:10:05Z</time>
      </trkpt>
      <trkpt lat="43.02189" lon="0.79528">
        <ele>473.04000854</ele>
        <time>2020-10-22T08:10:06Z</time>
      </trkpt>
      <trkpt lat="43.02178" lon="0.79536">
        <ele>473.07000732</ele>
        <time>2020-10-22T08:10:08Z</time>
      </trkpt>
      <trkpt lat="43.02173" lon="0.7954">
        <ele>473.14001465</ele>
        <time>2020-10-22T08:10:09Z</time>
      </trkpt>
      <trkpt lat="43.02162" lon="0.79549">
        <ele>473.20001221</ele>
        <time>2020-10-22T08:10:11Z</time>
      </trkpt>
      <trkpt lat="43.02152" lon="0.79557">
        <ele>473.38000488</ele>
        <time>2020-10-22T08:10:13Z</time>
      </trkpt>
      <trkpt lat="43.02147" lon="0.7956">
        <ele>472.86999512</ele>
        <time>2020-10-22T08:10:14Z</time>
      </trkpt>
      <trkpt lat="43.02136" lon="0.79566">
        <ele>473.20001221</ele>
        <time>2020-10-22T08:10:16Z</time>
      </trkpt>
      <trkpt lat="43.0213" lon="0.79565">
        <ele>473.04998779</ele>
        <time>2020-10-22T08:10:17Z</time>
      </trkpt>
      <trkpt lat="43.0212" lon="0.79558">
        <ele>473.1000061</ele>
        <time>2020-10-22T08:10:19Z</time>
      </trkpt>
      <trkpt lat="43.02115" lon="0.79552">
        <ele>473.13000488</ele>
        <time>2020-10-22T08:10:20Z</time>
      </trkpt>
      <trkpt lat="43.02111" lon="0.79538">
        <ele>473.14001465</ele>
        <time>2020-10-22T08:10:22Z</time>
      </trkpt>
      <trkpt lat="43.02105" lon="0.7953">
        <ele>473.1000061</ele>
        <time>2020-10-22T08:10:24Z</time>
      </trkpt>
      <trkpt lat="43.021" lon="0.7953">
        <ele>473.08999634</ele>
        <time>2020-10-22T08:10:25Z</time>
      </trkpt>
      <trkpt lat="43.02089" lon="0.79538">
        <ele>472.89001465</ele>
        <time>2020-10-22T08:10:27Z</time>
      </trkpt>
      <trkpt lat="43.02078" lon="0.79548">
        <ele>472.32000732</ele>
        <time>2020-10-22T08:10:29Z</time>
      </trkpt>
      <trkpt lat="43.02072" lon="0.79552">
        <ele>472.23999023</ele>
        <time>2020-10-22T08:10:30Z</time>
      </trkpt>
      <trkpt lat="43.02062" lon="0.79561">
        <ele>472.13000488</ele>
        <time>2020-10-22T08:10:32Z</time>
      </trkpt>
      <trkpt lat="43.02057" lon="0.79565">
        <ele>471.67999268</ele>
        <time>2020-10-22T08:10:33Z</time>
      </trkpt>
      <trkpt lat="43.02051" lon="0.79569">
        <ele>471.54998779</ele>
        <time>2020-10-22T08:10:34Z</time>
      </trkpt>
      <trkpt lat="43.02041" lon="0.79577">
        <ele>471.72000122</ele>
        <time>2020-10-22T08:10:36Z</time>
      </trkpt>
      <trkpt lat="43.02031" lon="0.79583">
        <ele>472.26000977</ele>
        <time>2020-10-22T08:10:38Z</time>
      </trkpt>
      <trkpt lat="43.02026" lon="0.79586">
        <ele>472.30999756</ele>
        <time>2020-10-22T08:10:39Z</time>
      </trkpt>
      <trkpt lat="43.02016" lon="0.79594">
        <ele>472.54998779</ele>
        <time>2020-10-22T08:10:41Z</time>
      </trkpt>
      <trkpt lat="43.02012" lon="0.79597">
        <ele>472.17999268</ele>
        <time>2020-10-22T08:10:42Z</time>
      </trkpt>
      <trkpt lat="43.02007" lon="0.796">
        <ele>472.38000488</ele>
        <time>2020-10-22T08:10:43Z</time>
      </trkpt>
      <trkpt lat="43.01998" lon="0.79606">
        <ele>472.39001465</ele>
        <time>2020-10-22T08:10:45Z</time>
      </trkpt>
      <trkpt lat="43.01988" lon="0.79612">
        <ele>472.51000977</ele>
        <time>2020-10-22T08:10:47Z</time>
      </trkpt>
      <trkpt lat="43.01984" lon="0.79615">
        <ele>472.70001221</ele>
        <time>2020-10-22T08:10:48Z</time>
      </trkpt>
      <trkpt lat="43.01976" lon="0.79622">
        <ele>472.6000061</ele>
        <time>2020-10-22T08:10:50Z</time>
      </trkpt>
      <trkpt lat="43.01972" lon="0.79625">
        <ele>472.57000732</ele>
        <time>2020-10-22T08:10:51Z</time>
      </trkpt>
      <trkpt lat="43.01964" lon="0.79633">
        <ele>472.54998779</ele>
        <time>2020-10-22T08:10:53Z</time>
      </trkpt>
      <trkpt lat="43.0196" lon="0.79637">
        <ele>472.64001465</ele>
        <time>2020-10-22T08:10:54Z</time>
      </trkpt>
      <trkpt lat="43.01956" lon="0.79641">
        <ele>472.73999023</ele>
        <time>2020-10-22T08:10:55Z</time>
      </trkpt>
      <trkpt lat="43.01947" lon="0.79648">
        <ele>472.8500061</ele>
        <time>2020-10-22T08:10:57Z</time>
      </trkpt>
      <trkpt lat="43.01938" lon="0.79653">
        <ele>472.92999268</ele>
        <time>2020-10-22T08:10:59Z</time>
      </trkpt>
      <trkpt lat="43.01933" lon="0.79657">
        <ele>473.23001099</ele>
        <time>2020-10-22T08:11:00Z</time>
      </trkpt>
      <trkpt lat="43.01928" lon="0.7966">
        <ele>473.35998535</ele>
        <time>2020-10-22T08:11:01Z</time>
      </trkpt>
      <trkpt lat="43.01918" lon="0.79666">
        <ele>472.98999023</ele>
        <time>2020-10-22T08:11:03Z</time>
      </trkpt>
      <trkpt lat="43.01908" lon="0.7967">
        <ele>473.48999023</ele>
        <time>2020-10-22T08:11:05Z</time>
      </trkpt>
      <trkpt lat="43.01898" lon="0.79674">
        <ele>474.94000244</ele>
        <time>2020-10-22T08:11:07Z</time>
      </trkpt>
      <trkpt lat="43.01887" lon="0.79676">
        <ele>475.20001221</ele>
        <time>2020-10-22T08:11:09Z</time>
      </trkpt>
      <trkpt lat="43.01877" lon="0.79677">
        <ele>474.57000732</ele>
        <time>2020-10-22T08:11:11Z</time>
      </trkpt>
      <trkpt lat="43.01871" lon="0.79677">
        <ele>474.85998535</ele>
        <time>2020-10-22T08:11:12Z</time>
      </trkpt>
      <trkpt lat="43.01861" lon="0.79678">
        <ele>475.29000854</ele>
        <time>2020-10-22T08:11:14Z</time>
      </trkpt>
      <trkpt lat="43.01856" lon="0.79678">
        <ele>475.42999268</ele>
        <time>2020-10-22T08:11:15Z</time>
      </trkpt>
      <trkpt lat="43.01851" lon="0.79678">
        <ele>475.63000488</ele>
        <time>2020-10-22T08:11:16Z</time>
      </trkpt>
      <trkpt lat="43.0184" lon="0.7968">
        <ele>476.32000732</ele>
        <time>2020-10-22T08:11:18Z</time>
      </trkpt>
      <trkpt lat="43.0183" lon="0.79681">
        <ele>476.29000854</ele>
        <time>2020-10-22T08:11:20Z</time>
      </trkpt>
      <trkpt lat="43.01821" lon="0.79682">
        <ele>476.86999512</ele>
        <time>2020-10-22T08:11:22Z</time>
      </trkpt>
      <trkpt lat="43.01818" lon="0.79682">
        <ele>477.07000732</ele>
        <time>2020-10-22T08:11:23Z</time>
      </trkpt>
      <trkpt lat="43.01814" lon="0.79682">
        <ele>477.79998779</ele>
        <time>2020-10-22T08:11:24Z</time>
      </trkpt>
      <trkpt lat="43.0181" lon="0.79682">
        <ele>477.76000977</ele>
        <time>2020-10-22T08:11:25Z</time>
      </trkpt>
      <trkpt lat="43.01802" lon="0.79683">
        <ele>478.92001343</ele>
        <time>2020-10-22T08:11:27Z</time>
      </trkpt>
      <trkpt lat="43.01794" lon="0.79683">
        <ele>478.45001221</ele>
        <time>2020-10-22T08:11:29Z</time>
      </trkpt>
      <trkpt lat="43.01795" lon="0.79684">
        <ele>478.92999268</ele>
        <time>2020-10-22T08:11:30Z</time>
      </trkpt>
      <trkpt lat="43.01792" lon="0.79684">
        <ele>477.27999878</ele>
        <time>2020-10-22T08:11:31Z</time>
      </trkpt>
      <trkpt lat="43.01788" lon="0.79685">
        <ele>477.57000732</ele>
        <time>2020-10-22T08:11:33Z</time>
      </trkpt>
      <trkpt lat="43.01785" lon="0.79685">
        <ele>477.91000366</ele>
        <time>2020-10-22T08:11:34Z</time>
      </trkpt>
      <trkpt lat="43.01785" lon="0.79685">
        <ele>478.05999756</ele>
        <time>2020-10-22T08:11:35Z</time>
      </trkpt>
      <trkpt lat="43.01785" lon="0.79684">
        <ele>478.33999634</ele>
        <time>2020-10-22T08:11:37Z</time>
      </trkpt>
      <trkpt lat="43.01785" lon="0.79683">
        <ele>479.35998535</ele>
        <time>2020-10-22T08:11:38Z</time>
      </trkpt>
      <trkpt lat="43.01785" lon="0.79683">
        <ele>479.6000061</ele>
        <time>2020-10-22T08:11:39Z</time>
      </trkpt>
      <trkpt lat="43.01785" lon="0.79682">
        <ele>479.3999939</ele>
        <time>2020-10-22T08:11:41Z</time>
      </trkpt>
      <trkpt lat="43.01785" lon="0.79681">
        <ele>479.3999939</ele>
        <time>2020-10-22T08:11:42Z</time>
      </trkpt>
      <trkpt lat="43.01784" lon="0.79681">
        <ele>478.85998535</ele>
        <time>2020-10-22T08:11:43Z</time>
      </trkpt>
      <trkpt lat="43.01784" lon="0.79679">
        <ele>481.11999512</ele>
        <time>2020-10-22T08:11:45Z</time>
      </trkpt>
      <trkpt lat="43.01785" lon="0.79677">
        <ele>481.30999756</ele>
        <time>2020-10-22T08:11:46Z</time>
      </trkpt>
      <trkpt lat="43.01788" lon="0.79673">
        <ele>481.05999756</ele>
        <time>2020-10-22T08:11:47Z</time>
      </trkpt>
      <trkpt lat="43.01792" lon="0.7967">
        <ele>481.67999268</ele>
        <time>2020-10-22T08:11:49Z</time>
      </trkpt>
      <trkpt lat="43.01795" lon="0.79665">
        <ele>483.07000732</ele>
        <time>2020-10-22T08:11:50Z</time>
      </trkpt>
      <trkpt lat="43.018" lon="0.7966">
        <ele>483.86999512</ele>
        <time>2020-10-22T08:11:52Z</time>
      </trkpt>
      <trkpt lat="43.01807" lon="0.79654">
        <ele>484.20001221</ele>
        <time>2020-10-22T08:11:53Z</time>
      </trkpt>
      <trkpt lat="43.01813" lon="0.79649">
        <ele>484.54998779</ele>
        <time>2020-10-22T08:11:55Z</time>
      </trkpt>
      <trkpt lat="43.01817" lon="0.79645">
        <ele>484.76000977</ele>
        <time>2020-10-22T08:11:56Z</time>
      </trkpt>
      <trkpt lat="43.01821" lon="0.79642">
        <ele>485.33999634</ele>
        <time>2020-10-22T08:11:57Z</time>
      </trkpt>
      <trkpt lat="43.01826" lon="0.79637">
        <ele>485.47000122</ele>
        <time>2020-10-22T08:11:58Z</time>
      </trkpt>
      <trkpt lat="43.01832" lon="0.79633">
        <ele>485.42999268</ele>
        <time>2020-10-22T08:12:00Z</time>
      </trkpt>
      <trkpt lat="43.01838" lon="0.79628">
        <ele>485.94000244</ele>
        <time>2020-10-22T08:12:02Z</time>
      </trkpt>
      <trkpt lat="43.01843" lon="0.79625">
        <ele>488.58999634</ele>
        <time>2020-10-22T08:12:03Z</time>
      </trkpt>
      <trkpt lat="43.01849" lon="0.7962">
        <ele>488.47000122</ele>
        <time>2020-10-22T08:12:04Z</time>
      </trkpt>
      <trkpt lat="43.01854" lon="0.79616">
        <ele>488.76000977</ele>
        <time>2020-10-22T08:12:05Z</time>
      </trkpt>
      <trkpt lat="43.01858" lon="0.79612">
        <ele>489.51000977</ele>
        <time>2020-10-22T08:12:07Z</time>
      </trkpt>
      <trkpt lat="43.01863" lon="0.79607">
        <ele>489.82000732</ele>
        <time>2020-10-22T08:12:08Z</time>
      </trkpt>
      <trkpt lat="43.01867" lon="0.79602">
        <ele>490.69000244</ele>
        <time>2020-10-22T08:12:10Z</time>
      </trkpt>
      <trkpt lat="43.0187" lon="0.79597">
        <ele>490.98999023</ele>
        <time>2020-10-22T08:12:11Z</time>
      </trkpt>
      <trkpt lat="43.01873" lon="0.79589">
        <ele>491.29998779</ele>
        <time>2020-10-22T08:12:13Z</time>
      </trkpt>
      <trkpt lat="43.01875" lon="0.79584">
        <ele>492.45999146</ele>
        <time>2020-10-22T08:12:14Z</time>
      </trkpt>
      <trkpt lat="43.01878" lon="0.79577">
        <ele>492.67001343</ele>
        <time>2020-10-22T08:12:15Z</time>
      </trkpt>
      <trkpt lat="43.0188" lon="0.79571">
        <ele>493.57000732</ele>
        <time>2020-10-22T08:12:17Z</time>
      </trkpt>
      <trkpt lat="43.01882" lon="0.79566">
        <ele>493.57000732</ele>
        <time>2020-10-22T08:12:18Z</time>
      </trkpt>
      <trkpt lat="43.01885" lon="0.79558">
        <ele>494.17001343</ele>
        <time>2020-10-22T08:12:20Z</time>
      </trkpt>
      <trkpt lat="43.01887" lon="0.79554">
        <ele>494.07000732</ele>
        <time>2020-10-22T08:12:21Z</time>
      </trkpt>
      <trkpt lat="43.01888" lon="0.79548">
        <ele>494.91000366</ele>
        <time>2020-10-22T08:12:23Z</time>
      </trkpt>
      <trkpt lat="43.0189" lon="0.79543">
        <ele>495.6000061</ele>
        <time>2020-10-22T08:12:24Z</time>
      </trkpt>
      <trkpt lat="43.01891" lon="0.79537">
        <ele>495.6000061</ele>
        <time>2020-10-22T08:12:25Z</time>
      </trkpt>
      <trkpt lat="43.01891" lon="0.79527">
        <ele>496.3999939</ele>
        <time>2020-10-22T08:12:27Z</time>
      </trkpt>
      <trkpt lat="43.0189" lon="0.79521">
        <ele>497.01000977</ele>
        <time>2020-10-22T08:12:28Z</time>
      </trkpt>
      <trkpt lat="43.01888" lon="0.79512">
        <ele>497.51998901</ele>
        <time>2020-10-22T08:12:30Z</time>
      </trkpt>
      <trkpt lat="43.01886" lon="0.79506">
        <ele>497.76998901</ele>
        <time>2020-10-22T08:12:31Z</time>
      </trkpt>
      <trkpt lat="43.01883" lon="0.795">
        <ele>497.91000366</ele>
        <time>2020-10-22T08:12:32Z</time>
      </trkpt>
      <trkpt lat="43.0188" lon="0.79494">
        <ele>497.98001099</ele>
        <time>2020-10-22T08:12:34Z</time>
      </trkpt>
      <trkpt lat="43.01877" lon="0.79488">
        <ele>498.30999756</ele>
        <time>2020-10-22T08:12:35Z</time>
      </trkpt>
      <trkpt lat="43.01874" lon="0.79482">
        <ele>498.30999756</ele>
        <time>2020-10-22T08:12:36Z</time>
      </trkpt>
      <trkpt lat="43.01871" lon="0.79475">
        <ele>498.32998657</ele>
        <time>2020-10-22T08:12:37Z</time>
      </trkpt>
      <trkpt lat="43.01867" lon="0.79467">
        <ele>498.64001465</ele>
        <time>2020-10-22T08:12:39Z</time>
      </trkpt>
      <trkpt lat="43.01862" lon="0.79456">
        <ele>499.05999756</ele>
        <time>2020-10-22T08:12:41Z</time>
      </trkpt>
      <trkpt lat="43.01857" lon="0.79446">
        <ele>499.3500061</ele>
        <time>2020-10-22T08:12:43Z</time>
      </trkpt>
      <trkpt lat="43.01853" lon="0.79442">
        <ele>499.52999878</ele>
        <time>2020-10-22T08:12:44Z</time>
      </trkpt>
      <trkpt lat="43.01848" lon="0.79438">
        <ele>499.67999268</ele>
        <time>2020-10-22T08:12:46Z</time>
      </trkpt>
      <trkpt lat="43.01843" lon="0.79437">
        <ele>499.85998535</ele>
        <time>2020-10-22T08:12:47Z</time>
      </trkpt>
      <trkpt lat="43.0184" lon="0.79435">
        <ele>500.02999878</ele>
        <time>2020-10-22T08:12:48Z</time>
      </trkpt>
      <trkpt lat="43.01833" lon="0.79431">
        <ele>500.32000732</ele>
        <time>2020-10-22T08:12:50Z</time>
      </trkpt>
      <trkpt lat="43.01828" lon="0.79427">
        <ele>500.42001343</ele>
        <time>2020-10-22T08:12:51Z</time>
      </trkpt>
      <trkpt lat="43.01822" lon="0.79422">
        <ele>501.1000061</ele>
        <time>2020-10-22T08:12:53Z</time>
      </trkpt>
      <trkpt lat="43.01818" lon="0.79419">
        <ele>501.13000488</ele>
        <time>2020-10-22T08:12:54Z</time>
      </trkpt>
      <trkpt lat="43.01815" lon="0.79415">
        <ele>501.20999146</ele>
        <time>2020-10-22T08:12:55Z</time>
      </trkpt>
      <trkpt lat="43.01812" lon="0.79412">
        <ele>500.83999634</ele>
        <time>2020-10-22T08:12:56Z</time>
      </trkpt>
      <trkpt lat="43.01807" lon="0.79409">
        <ele>501.29000854</ele>
        <time>2020-10-22T08:12:58Z</time>
      </trkpt>
      <trkpt lat="43.01802" lon="0.79404">
        <ele>501.02999878</ele>
        <time>2020-10-22T08:12:59Z</time>
      </trkpt>
      <trkpt lat="43.01798" lon="0.79401">
        <ele>500.88000488</ele>
        <time>2020-10-22T08:13:01Z</time>
      </trkpt>
      <trkpt lat="43.01795" lon="0.79399">
        <ele>500.89001465</ele>
        <time>2020-10-22T08:13:02Z</time>
      </trkpt>
      <trkpt lat="43.01791" lon="0.79397">
        <ele>501.20999146</ele>
        <time>2020-10-22T08:13:03Z</time>
      </trkpt>
      <trkpt lat="43.01789" lon="0.79396">
        <ele>501.70001221</ele>
        <time>2020-10-22T08:13:04Z</time>
      </trkpt>
      <trkpt lat="43.01785" lon="0.79394">
        <ele>501.89001465</ele>
        <time>2020-10-22T08:13:05Z</time>
      </trkpt>
      <trkpt lat="43.01782" lon="0.79392">
        <ele>501.82000732</ele>
        <time>2020-10-22T08:13:07Z</time>
      </trkpt>
      <trkpt lat="43.01779" lon="0.7939">
        <ele>502.10998535</ele>
        <time>2020-10-22T08:13:08Z</time>
      </trkpt>
      <trkpt lat="43.01777" lon="0.79388">
        <ele>502.05999756</ele>
        <time>2020-10-22T08:13:09Z</time>
      </trkpt>
      <trkpt lat="43.01774" lon="0.79385">
        <ele>501.94000244</ele>
        <time>2020-10-22T08:13:10Z</time>
      </trkpt>
      <trkpt lat="43.01771" lon="0.79383">
        <ele>502.19000244</ele>
        <time>2020-10-22T08:13:12Z</time>
      </trkpt>
      <trkpt lat="43.01768" lon="0.79381">
        <ele>502.19000244</ele>
        <time>2020-10-22T08:13:13Z</time>
      </trkpt>
      <trkpt lat="43.01762" lon="0.79377">
        <ele>504.3999939</ele>
        <time>2020-10-22T08:13:15Z</time>
      </trkpt>
      <trkpt lat="43.01757" lon="0.79374">
        <ele>504.57998657</ele>
        <time>2020-10-22T08:13:16Z</time>
      </trkpt>
      <trkpt lat="43.01753" lon="0.79371">
        <ele>504.95001221</ele>
        <time>2020-10-22T08:13:17Z</time>
      </trkpt>
      <trkpt lat="43.01745" lon="0.79367">
        <ele>505.30999756</ele>
        <time>2020-10-22T08:13:19Z</time>
      </trkpt>
      <trkpt lat="43.01741" lon="0.79364">
        <ele>505.85998535</ele>
        <time>2020-10-22T08:13:20Z</time>
      </trkpt>
      <trkpt lat="43.01736" lon="0.7936">
        <ele>506.3500061</ele>
        <time>2020-10-22T08:13:21Z</time>
      </trkpt>
      <trkpt lat="43.01732" lon="0.79356">
        <ele>506.6499939</ele>
        <time>2020-10-22T08:13:23Z</time>
      </trkpt>
      <trkpt lat="43.0173" lon="0.79349">
        <ele>507.13000488</ele>
        <time>2020-10-22T08:13:24Z</time>
      </trkpt>
      <trkpt lat="43.01728" lon="0.79345">
        <ele>507.14001465</ele>
        <time>2020-10-22T08:13:25Z</time>
      </trkpt>
      <trkpt lat="43.01727" lon="0.79341">
        <ele>506.83999634</ele>
        <time>2020-10-22T08:13:26Z</time>
      </trkpt>
      <trkpt lat="43.01727" lon="0.79336">
        <ele>506.70001221</ele>
        <time>2020-10-22T08:13:27Z</time>
      </trkpt>
      <trkpt lat="43.01725" lon="0.7933">
        <ele>507.42999268</ele>
        <time>2020-10-22T08:13:30Z</time>
      </trkpt>
      <trkpt lat="43.01725" lon="0.79326">
        <ele>507.67999268</ele>
        <time>2020-10-22T08:13:31Z</time>
      </trkpt>
      <trkpt lat="43.01724" lon="0.79322">
        <ele>507.60998535</ele>
        <time>2020-10-22T08:13:32Z</time>
      </trkpt>
      <trkpt lat="43.01724" lon="0.79319">
        <ele>507.98001099</ele>
        <time>2020-10-22T08:13:33Z</time>
      </trkpt>
      <trkpt lat="43.01724" lon="0.79315">
        <ele>507.55999756</ele>
        <time>2020-10-22T08:13:35Z</time>
      </trkpt>
      <trkpt lat="43.01724" lon="0.79312">
        <ele>507.55999756</ele>
        <time>2020-10-22T08:13:36Z</time>
      </trkpt>
      <trkpt lat="43.01724" lon="0.79308">
        <ele>508.17999268</ele>
        <time>2020-10-22T08:13:37Z</time>
      </trkpt>
      <trkpt lat="43.01723" lon="0.79304">
        <ele>508.39001465</ele>
        <time>2020-10-22T08:13:39Z</time>
      </trkpt>
      <trkpt lat="43.01723" lon="0.79299">
        <ele>508.98001099</ele>
        <time>2020-10-22T08:13:41Z</time>
      </trkpt>
      <trkpt lat="43.01722" lon="0.79296">
        <ele>508.98001099</ele>
        <time>2020-10-22T08:13:42Z</time>
      </trkpt>
      <trkpt lat="43.01722" lon="0.79291">
        <ele>510.83999634</ele>
        <time>2020-10-22T08:13:43Z</time>
      </trkpt>
      <trkpt lat="43.01723" lon="0.79288">
        <ele>510.45001221</ele>
        <time>2020-10-22T08:13:45Z</time>
      </trkpt>
      <trkpt lat="43.01724" lon="0.79282">
        <ele>510.72000122</ele>
        <time>2020-10-22T08:13:46Z</time>
      </trkpt>
      <trkpt lat="43.01724" lon="0.79278">
        <ele>511.1499939</ele>
        <time>2020-10-22T08:13:48Z</time>
      </trkpt>
      <trkpt lat="43.01726" lon="0.79275">
        <ele>511.17999268</ele>
        <time>2020-10-22T08:13:50Z</time>
      </trkpt>
      <trkpt lat="43.01726" lon="0.79273">
        <ele>511.13000488</ele>
        <time>2020-10-22T08:13:51Z</time>
      </trkpt>
      <trkpt lat="43.01727" lon="0.79269">
        <ele>511.89001465</ele>
        <time>2020-10-22T08:13:53Z</time>
      </trkpt>
      <trkpt lat="43.01728" lon="0.79267">
        <ele>511.38000488</ele>
        <time>2020-10-22T08:13:54Z</time>
      </trkpt>
      <trkpt lat="43.01728" lon="0.79265">
        <ele>512.16998291</ele>
        <time>2020-10-22T08:13:55Z</time>
      </trkpt>
      <trkpt lat="43.01729" lon="0.79262">
        <ele>512.2800293</ele>
        <time>2020-10-22T08:13:56Z</time>
      </trkpt>
      <trkpt lat="43.01731" lon="0.79257">
        <ele>513.53997803</ele>
        <time>2020-10-22T08:13:58Z</time>
      </trkpt>
      <trkpt lat="43.01732" lon="0.79253">
        <ele>513.29998779</ele>
        <time>2020-10-22T08:13:59Z</time>
      </trkpt>
      <trkpt lat="43.01732" lon="0.7925">
        <ele>513.19000244</ele>
        <time>2020-10-22T08:14:00Z</time>
      </trkpt>
      <trkpt lat="43.01733" lon="0.79247">
        <ele>513.19000244</ele>
        <time>2020-10-22T08:14:01Z</time>
      </trkpt>
      <trkpt lat="43.01735" lon="0.7924">
        <ele>513.77001953</ele>
        <time>2020-10-22T08:14:02Z</time>
      </trkpt>
      <trkpt lat="43.01736" lon="0.79232">
        <ele>513.88000488</ele>
        <time>2020-10-22T08:14:04Z</time>
      </trkpt>
      <trkpt lat="43.01738" lon="0.79227">
        <ele>514.11999512</ele>
        <time>2020-10-22T08:14:05Z</time>
      </trkpt>
      <trkpt lat="43.01739" lon="0.79222">
        <ele>514.60998535</ele>
        <time>2020-10-22T08:14:07Z</time>
      </trkpt>
      <trkpt lat="43.0174" lon="0.79216">
        <ele>514.84002686</ele>
        <time>2020-10-22T08:14:08Z</time>
      </trkpt>
      <trkpt lat="43.01742" lon="0.79212">
        <ele>513.90997314</ele>
        <time>2020-10-22T08:14:09Z</time>
      </trkpt>
      <trkpt lat="43.01743" lon="0.79209">
        <ele>514.19000244</ele>
        <time>2020-10-22T08:14:10Z</time>
      </trkpt>
      <trkpt lat="43.01744" lon="0.79206">
        <ele>514.65997314</ele>
        <time>2020-10-22T08:14:12Z</time>
      </trkpt>
      <trkpt lat="43.01745" lon="0.79203">
        <ele>515.11999512</ele>
        <time>2020-10-22T08:14:13Z</time>
      </trkpt>
      <trkpt lat="43.01747" lon="0.79197">
        <ele>515.72998047</ele>
        <time>2020-10-22T08:14:15Z</time>
      </trkpt>
      <trkpt lat="43.01749" lon="0.79193">
        <ele>516.01000977</ele>
        <time>2020-10-22T08:14:16Z</time>
      </trkpt>
      <trkpt lat="43.01751" lon="0.79189">
        <ele>515.72998047</ele>
        <time>2020-10-22T08:14:17Z</time>
      </trkpt>
      <trkpt lat="43.01752" lon="0.79187">
        <ele>516.61999512</ele>
        <time>2020-10-22T08:14:18Z</time>
      </trkpt>
      <trkpt lat="43.01754" lon="0.79183">
        <ele>516.75</ele>
        <time>2020-10-22T08:14:20Z</time>
      </trkpt>
      <trkpt lat="43.01755" lon="0.7918">
        <ele>516.5300293</ele>
        <time>2020-10-22T08:14:21Z</time>
      </trkpt>
      <trkpt lat="43.01757" lon="0.79176">
        <ele>516.92999268</ele>
        <time>2020-10-22T08:14:22Z</time>
      </trkpt>
      <trkpt lat="43.01759" lon="0.79172">
        <ele>516.7199707</ele>
        <time>2020-10-22T08:14:24Z</time>
      </trkpt>
      <trkpt lat="43.0176" lon="0.79167">
        <ele>517.39001465</ele>
        <time>2020-10-22T08:14:25Z</time>
      </trkpt>
      <trkpt lat="43.01761" lon="0.79161">
        <ele>517.30999756</ele>
        <time>2020-10-22T08:14:27Z</time>
      </trkpt>
      <trkpt lat="43.01763" lon="0.79154">
        <ele>518.75</ele>
        <time>2020-10-22T08:14:29Z</time>
      </trkpt>
      <trkpt lat="43.01764" lon="0.79149">
        <ele>519.71002197</ele>
        <time>2020-10-22T08:14:30Z</time>
      </trkpt>
      <trkpt lat="43.01766" lon="0.79143">
        <ele>519.70001221</ele>
        <time>2020-10-22T08:14:32Z</time>
      </trkpt>
      <trkpt lat="43.01767" lon="0.7914">
        <ele>519.89001465</ele>
        <time>2020-10-22T08:14:33Z</time>
      </trkpt>
      <trkpt lat="43.01768" lon="0.79135">
        <ele>520.70001221</ele>
        <time>2020-10-22T08:14:34Z</time>
      </trkpt>
      <trkpt lat="43.01768" lon="0.7913">
        <ele>520.58001709</ele>
        <time>2020-10-22T08:14:36Z</time>
      </trkpt>
      <trkpt lat="43.01768" lon="0.79125">
        <ele>520.48999023</ele>
        <time>2020-10-22T08:14:37Z</time>
      </trkpt>
      <trkpt lat="43.01767" lon="0.79119">
        <ele>520.90002441</ele>
        <time>2020-10-22T08:14:39Z</time>
      </trkpt>
      <trkpt lat="43.01766" lon="0.79114">
        <ele>521.70001221</ele>
        <time>2020-10-22T08:14:40Z</time>
      </trkpt>
      <trkpt lat="43.01766" lon="0.79111">
        <ele>521.48999023</ele>
        <time>2020-10-22T08:14:41Z</time>
      </trkpt>
      <trkpt lat="43.01766" lon="0.79108">
        <ele>521.33001709</ele>
        <time>2020-10-22T08:14:43Z</time>
      </trkpt>
      <trkpt lat="43.01766" lon="0.79105">
        <ele>521.73999023</ele>
        <time>2020-10-22T08:14:44Z</time>
      </trkpt>
      <trkpt lat="43.01765" lon="0.791">
        <ele>522.47998047</ele>
        <time>2020-10-22T08:14:45Z</time>
      </trkpt>
      <trkpt lat="43.01764" lon="0.79097">
        <ele>522.80999756</ele>
        <time>2020-10-22T08:14:47Z</time>
      </trkpt>
      <trkpt lat="43.01764" lon="0.79094">
        <ele>522.45001221</ele>
        <time>2020-10-22T08:14:48Z</time>
      </trkpt>
      <trkpt lat="43.01763" lon="0.79089">
        <ele>523.33001709</ele>
        <time>2020-10-22T08:14:50Z</time>
      </trkpt>
      <trkpt lat="43.01763" lon="0.79083">
        <ele>523.2199707</ele>
        <time>2020-10-22T08:14:51Z</time>
      </trkpt>
      <trkpt lat="43.01764" lon="0.7908">
        <ele>523.46002197</ele>
        <time>2020-10-22T08:14:52Z</time>
      </trkpt>
      <trkpt lat="43.01764" lon="0.79077">
        <ele>522.77001953</ele>
        <time>2020-10-22T08:14:53Z</time>
      </trkpt>
      <trkpt lat="43.01765" lon="0.79073">
        <ele>523.51000977</ele>
        <time>2020-10-22T08:14:55Z</time>
      </trkpt>
      <trkpt lat="43.01766" lon="0.79071">
        <ele>523.65002441</ele>
        <time>2020-10-22T08:14:56Z</time>
      </trkpt>
      <trkpt lat="43.01768" lon="0.79067">
        <ele>524.05999756</ele>
        <time>2020-10-22T08:14:57Z</time>
      </trkpt>
      <trkpt lat="43.01769" lon="0.79064">
        <ele>524.39001465</ele>
        <time>2020-10-22T08:14:59Z</time>
      </trkpt>
      <trkpt lat="43.0177" lon="0.79061">
        <ele>524.17999268</ele>
        <time>2020-10-22T08:15:00Z</time>
      </trkpt>
      <trkpt lat="43.01772" lon="0.79056">
        <ele>524.88000488</ele>
        <time>2020-10-22T08:15:01Z</time>
      </trkpt>
      <trkpt lat="43.01774" lon="0.79051">
        <ele>525.13000488</ele>
        <time>2020-10-22T08:15:03Z</time>
      </trkpt>
      <trkpt lat="43.01776" lon="0.79047">
        <ele>525.5300293</ele>
        <time>2020-10-22T08:15:04Z</time>
      </trkpt>
      <trkpt lat="43.01777" lon="0.79044">
        <ele>526.20001221</ele>
        <time>2020-10-22T08:15:05Z</time>
      </trkpt>
      <trkpt lat="43.01779" lon="0.7904">
        <ele>526.51000977</ele>
        <time>2020-10-22T08:15:06Z</time>
      </trkpt>
      <trkpt lat="43.01781" lon="0.79035">
        <ele>526.55999756</ele>
        <time>2020-10-22T08:15:08Z</time>
      </trkpt>
      <trkpt lat="43.01782" lon="0.79033">
        <ele>526.51000977</ele>
        <time>2020-10-22T08:15:09Z</time>
      </trkpt>
      <trkpt lat="43.01783" lon="0.79031">
        <ele>527.30999756</ele>
        <time>2020-10-22T08:15:10Z</time>
      </trkpt>
      <trkpt lat="43.01784" lon="0.79028">
        <ele>526.94000244</ele>
        <time>2020-10-22T08:15:12Z</time>
      </trkpt>
      <trkpt lat="43.01785" lon="0.79026">
        <ele>526.59002686</ele>
        <time>2020-10-22T08:15:13Z</time>
      </trkpt>
      <trkpt lat="43.01788" lon="0.7902">
        <ele>526.7199707</ele>
        <time>2020-10-22T08:15:15Z</time>
      </trkpt>
      <trkpt lat="43.0179" lon="0.79015">
        <ele>527.51000977</ele>
        <time>2020-10-22T08:15:16Z</time>
      </trkpt>
      <trkpt lat="43.01791" lon="0.79012">
        <ele>527.48999023</ele>
        <time>2020-10-22T08:15:17Z</time>
      </trkpt>
      <trkpt lat="43.01792" lon="0.79008">
        <ele>527.73999023</ele>
        <time>2020-10-22T08:15:19Z</time>
      </trkpt>
      <trkpt lat="43.01793" lon="0.79005">
        <ele>527.58001709</ele>
        <time>2020-10-22T08:15:20Z</time>
      </trkpt>
      <trkpt lat="43.01794" lon="0.79001">
        <ele>527.84002686</ele>
        <time>2020-10-22T08:15:21Z</time>
      </trkpt>
      <trkpt lat="43.01795" lon="0.78999">
        <ele>528.40002441</ele>
        <time>2020-10-22T08:15:22Z</time>
      </trkpt>
      <trkpt lat="43.01795" lon="0.78996">
        <ele>528.47998047</ele>
        <time>2020-10-22T08:15:23Z</time>
      </trkpt>
      <trkpt lat="43.01796" lon="0.78993">
        <ele>528.85998535</ele>
        <time>2020-10-22T08:15:24Z</time>
      </trkpt>
      <trkpt lat="43.01796" lon="0.78991">
        <ele>529.34997559</ele>
        <time>2020-10-22T08:15:25Z</time>
      </trkpt>
      <trkpt lat="43.01798" lon="0.78988">
        <ele>529.61999512</ele>
        <time>2020-10-22T08:15:27Z</time>
      </trkpt>
      <trkpt lat="43.01799" lon="0.78983">
        <ele>530.13000488</ele>
        <time>2020-10-22T08:15:28Z</time>
      </trkpt>
      <trkpt lat="43.018" lon="0.7898">
        <ele>530.5</ele>
        <time>2020-10-22T08:15:30Z</time>
      </trkpt>
      <trkpt lat="43.01801" lon="0.78978">
        <ele>530.65002441</ele>
        <time>2020-10-22T08:15:31Z</time>
      </trkpt>
      <trkpt lat="43.01801" lon="0.78975">
        <ele>531.17999268</ele>
        <time>2020-10-22T08:15:32Z</time>
      </trkpt>
      <trkpt lat="43.01802" lon="0.7897">
        <ele>531.51000977</ele>
        <time>2020-10-22T08:15:34Z</time>
      </trkpt>
      <trkpt lat="43.01802" lon="0.78968">
        <ele>531.63000488</ele>
        <time>2020-10-22T08:15:35Z</time>
      </trkpt>
      <trkpt lat="43.01802" lon="0.78966">
        <ele>531.88000488</ele>
        <time>2020-10-22T08:15:36Z</time>
      </trkpt>
      <trkpt lat="43.01802" lon="0.78963">
        <ele>531.9699707</ele>
        <time>2020-10-22T08:15:37Z</time>
      </trkpt>
      <trkpt lat="43.01802" lon="0.7896">
        <ele>531.94000244</ele>
        <time>2020-10-22T08:15:39Z</time>
      </trkpt>
      <trkpt lat="43.01802" lon="0.78954">
        <ele>532.42999268</ele>
        <time>2020-10-22T08:15:40Z</time>
      </trkpt>
      <trkpt lat="43.01801" lon="0.78951">
        <ele>532.75</ele>
        <time>2020-10-22T08:15:42Z</time>
      </trkpt>
      <trkpt lat="43.01801" lon="0.78947">
        <ele>532.79998779</ele>
        <time>2020-10-22T08:15:43Z</time>
      </trkpt>
      <trkpt lat="43.01801" lon="0.78944">
        <ele>533.04998779</ele>
        <time>2020-10-22T08:15:44Z</time>
      </trkpt>
      <trkpt lat="43.018" lon="0.78941">
        <ele>533.28997803</ele>
        <time>2020-10-22T08:15:46Z</time>
      </trkpt>
      <trkpt lat="43.018" lon="0.78937">
        <ele>533.77001953</ele>
        <time>2020-10-22T08:15:47Z</time>
      </trkpt>
      <trkpt lat="43.01799" lon="0.78933">
        <ele>533.77001953</ele>
        <time>2020-10-22T08:15:48Z</time>
      </trkpt>
      <trkpt lat="43.01798" lon="0.78929">
        <ele>534.07000732</ele>
        <time>2020-10-22T08:15:49Z</time>
      </trkpt>
      <trkpt lat="43.01797" lon="0.78926">
        <ele>534.21002197</ele>
        <time>2020-10-22T08:15:50Z</time>
      </trkpt>
      <trkpt lat="43.01796" lon="0.78923">
        <ele>534.45001221</ele>
        <time>2020-10-22T08:15:51Z</time>
      </trkpt>
      <trkpt lat="43.01796" lon="0.7892">
        <ele>534.45001221</ele>
        <time>2020-10-22T08:15:52Z</time>
      </trkpt>
      <trkpt lat="43.01794" lon="0.78914">
        <ele>534.5300293</ele>
        <time>2020-10-22T08:15:54Z</time>
      </trkpt>
      <trkpt lat="43.01793" lon="0.7891">
        <ele>535.14001465</ele>
        <time>2020-10-22T08:15:55Z</time>
      </trkpt>
      <trkpt lat="43.01792" lon="0.78905">
        <ele>534.9699707</ele>
        <time>2020-10-22T08:15:57Z</time>
      </trkpt>
      <trkpt lat="43.01791" lon="0.78899">
        <ele>534.67999268</ele>
        <time>2020-10-22T08:15:58Z</time>
      </trkpt>
      <trkpt lat="43.0179" lon="0.78897">
        <ele>534.67999268</ele>
        <time>2020-10-22T08:15:59Z</time>
      </trkpt>
      <trkpt lat="43.01789" lon="0.78893">
        <ele>535.25</ele>
        <time>2020-10-22T08:16:00Z</time>
      </trkpt>
      <trkpt lat="43.01788" lon="0.78888">
        <ele>535.64001465</ele>
        <time>2020-10-22T08:16:02Z</time>
      </trkpt>
      <trkpt lat="43.01787" lon="0.78884">
        <ele>535.59002686</ele>
        <time>2020-10-22T08:16:03Z</time>
      </trkpt>
      <trkpt lat="43.01787" lon="0.78879">
        <ele>535.51000977</ele>
        <time>2020-10-22T08:16:05Z</time>
      </trkpt>
      <trkpt lat="43.01786" lon="0.78876">
        <ele>535.39001465</ele>
        <time>2020-10-22T08:16:06Z</time>
      </trkpt>
      <trkpt lat="43.01785" lon="0.7887">
        <ele>535.47998047</ele>
        <time>2020-10-22T08:16:08Z</time>
      </trkpt>
      <trkpt lat="43.01784" lon="0.78866">
        <ele>535.67999268</ele>
        <time>2020-10-22T08:16:09Z</time>
      </trkpt>
      <trkpt lat="43.01784" lon="0.78862">
        <ele>535.54998779</ele>
        <time>2020-10-22T08:16:10Z</time>
      </trkpt>
      <trkpt lat="43.01783" lon="0.78854">
        <ele>535.73999023</ele>
        <time>2020-10-22T08:16:12Z</time>
      </trkpt>
      <trkpt lat="43.01782" lon="0.7885">
        <ele>535.5</ele>
        <time>2020-10-22T08:16:13Z</time>
      </trkpt>
      <trkpt lat="43.01781" lon="0.78842">
        <ele>535.88000488</ele>
        <time>2020-10-22T08:16:15Z</time>
      </trkpt>
      <trkpt lat="43.0178" lon="0.78836">
        <ele>536.76000977</ele>
        <time>2020-10-22T08:16:16Z</time>
      </trkpt>
      <trkpt lat="43.0178" lon="0.78832">
        <ele>537.32000732</ele>
        <time>2020-10-22T08:16:17Z</time>
      </trkpt>
      <trkpt lat="43.01779" lon="0.78827">
        <ele>537.16998291</ele>
        <time>2020-10-22T08:16:18Z</time>
      </trkpt>
      <trkpt lat="43.01778" lon="0.78822">
        <ele>537.66998291</ele>
        <time>2020-10-22T08:16:19Z</time>
      </trkpt>
      <trkpt lat="43.01778" lon="0.78819">
        <ele>537.38000488</ele>
        <time>2020-10-22T08:16:21Z</time>
      </trkpt>
      <trkpt lat="43.01777" lon="0.78815">
        <ele>537.54998779</ele>
        <time>2020-10-22T08:16:22Z</time>
      </trkpt>
      <trkpt lat="43.01776" lon="0.78812">
        <ele>538.2199707</ele>
        <time>2020-10-22T08:16:23Z</time>
      </trkpt>
      <trkpt lat="43.01775" lon="0.78808">
        <ele>538.54998779</ele>
        <time>2020-10-22T08:16:24Z</time>
      </trkpt>
      <trkpt lat="43.01775" lon="0.78805">
        <ele>538.54998779</ele>
        <time>2020-10-22T08:16:25Z</time>
      </trkpt>
      <trkpt lat="43.01773" lon="0.78799">
        <ele>538.5</ele>
        <time>2020-10-22T08:16:26Z</time>
      </trkpt>
      <trkpt lat="43.01771" lon="0.78793">
        <ele>538.88000488</ele>
        <time>2020-10-22T08:16:28Z</time>
      </trkpt>
      <trkpt lat="43.01769" lon="0.78784">
        <ele>538.4699707</ele>
        <time>2020-10-22T08:16:30Z</time>
      </trkpt>
      <trkpt lat="43.01767" lon="0.78777">
        <ele>538.69000244</ele>
        <time>2020-10-22T08:16:31Z</time>
      </trkpt>
      <trkpt lat="43.01766" lon="0.78769">
        <ele>538.14001465</ele>
        <time>2020-10-22T08:16:32Z</time>
      </trkpt>
      <trkpt lat="43.01765" lon="0.78763">
        <ele>537.84002686</ele>
        <time>2020-10-22T08:16:33Z</time>
      </trkpt>
      <trkpt lat="43.01765" lon="0.78753">
        <ele>538.51000977</ele>
        <time>2020-10-22T08:16:35Z</time>
      </trkpt>
      <trkpt lat="43.01763" lon="0.78743">
        <ele>538.39001465</ele>
        <time>2020-10-22T08:16:37Z</time>
      </trkpt>
      <trkpt lat="43.01762" lon="0.78734">
        <ele>538.29998779</ele>
        <time>2020-10-22T08:16:38Z</time>
      </trkpt>
      <trkpt lat="43.01761" lon="0.78726">
        <ele>537.41998291</ele>
        <time>2020-10-22T08:16:39Z</time>
      </trkpt>
      <trkpt lat="43.01759" lon="0.78718">
        <ele>537.17999268</ele>
        <time>2020-10-22T08:16:40Z</time>
      </trkpt>
      <trkpt lat="43.01755" lon="0.78695">
        <ele>537.54998779</ele>
        <time>2020-10-22T08:16:42Z</time>
      </trkpt>
      <trkpt lat="43.0175" lon="0.78673">
        <ele>536.90997314</ele>
        <time>2020-10-22T08:16:44Z</time>
      </trkpt>
      <trkpt lat="43.01746" lon="0.78653">
        <ele>537.54998779</ele>
        <time>2020-10-22T08:16:46Z</time>
      </trkpt>
      <trkpt lat="43.01746" lon="0.78642">
        <ele>538.59002686</ele>
        <time>2020-10-22T08:16:47Z</time>
      </trkpt>
      <trkpt lat="43.01747" lon="0.78632">
        <ele>538.90997314</ele>
        <time>2020-10-22T08:16:48Z</time>
      </trkpt>
      <trkpt lat="43.01749" lon="0.78617">
        <ele>539.95001221</ele>
        <time>2020-10-22T08:16:50Z</time>
      </trkpt>
      <trkpt lat="43.01749" lon="0.78612">
        <ele>539.95001221</ele>
        <time>2020-10-22T08:16:51Z</time>
      </trkpt>
      <trkpt lat="43.01746" lon="0.78606">
        <ele>540.63000488</ele>
        <time>2020-10-22T08:16:53Z</time>
      </trkpt>
      <trkpt lat="43.01745" lon="0.78596">
        <ele>541.08001709</ele>
        <time>2020-10-22T08:16:54Z</time>
      </trkpt>
      <trkpt lat="43.01744" lon="0.7859">
        <ele>541.46002197</ele>
        <time>2020-10-22T08:16:55Z</time>
      </trkpt>
      <trkpt lat="43.01743" lon="0.78583">
        <ele>541.63000488</ele>
        <time>2020-10-22T08:16:56Z</time>
      </trkpt>
      <trkpt lat="43.0174" lon="0.78577">
        <ele>541.66998291</ele>
        <time>2020-10-22T08:16:58Z</time>
      </trkpt>
      <trkpt lat="43.01738" lon="0.78571">
        <ele>541.84002686</ele>
        <time>2020-10-22T08:16:59Z</time>
      </trkpt>
      <trkpt lat="43.01733" lon="0.78564">
        <ele>541.63000488</ele>
        <time>2020-10-22T08:17:01Z</time>
      </trkpt>
      <trkpt lat="43.0173" lon="0.78558">
        <ele>541.71002197</ele>
        <time>2020-10-22T08:17:02Z</time>
      </trkpt>
      <trkpt lat="43.01727" lon="0.78553">
        <ele>542.01000977</ele>
        <time>2020-10-22T08:17:03Z</time>
      </trkpt>
      <trkpt lat="43.01725" lon="0.78549">
        <ele>542.01000977</ele>
        <time>2020-10-22T08:17:04Z</time>
      </trkpt>
      <trkpt lat="43.0172" lon="0.78543">
        <ele>540.96002197</ele>
        <time>2020-10-22T08:17:05Z</time>
      </trkpt>
      <trkpt lat="43.01717" lon="0.78538">
        <ele>540.94000244</ele>
        <time>2020-10-22T08:17:07Z</time>
      </trkpt>
      <trkpt lat="43.01714" lon="0.78534">
        <ele>541.34997559</ele>
        <time>2020-10-22T08:17:08Z</time>
      </trkpt>
      <trkpt lat="43.01711" lon="0.78527">
        <ele>541.45001221</ele>
        <time>2020-10-22T08:17:09Z</time>
      </trkpt>
      <trkpt lat="43.01709" lon="0.78523">
        <ele>541.59997559</ele>
        <time>2020-10-22T08:17:11Z</time>
      </trkpt>
      <trkpt lat="43.01707" lon="0.78518">
        <ele>541.36999512</ele>
        <time>2020-10-22T08:17:12Z</time>
      </trkpt>
      <trkpt lat="43.01703" lon="0.78511">
        <ele>541.19000244</ele>
        <time>2020-10-22T08:17:14Z</time>
      </trkpt>
      <trkpt lat="43.017" lon="0.78506">
        <ele>540.88000488</ele>
        <time>2020-10-22T08:17:15Z</time>
      </trkpt>
      <trkpt lat="43.01697" lon="0.78501">
        <ele>541.19000244</ele>
        <time>2020-10-22T08:17:16Z</time>
      </trkpt>
      <trkpt lat="43.01694" lon="0.78495">
        <ele>541.84997559</ele>
        <time>2020-10-22T08:17:17Z</time>
      </trkpt>
      <trkpt lat="43.0169" lon="0.78488">
        <ele>541.83001709</ele>
        <time>2020-10-22T08:17:18Z</time>
      </trkpt>
      <trkpt lat="43.01687" lon="0.78483">
        <ele>541.77001953</ele>
        <time>2020-10-22T08:17:19Z</time>
      </trkpt>
      <trkpt lat="43.01683" lon="0.78476">
        <ele>541.13000488</ele>
        <time>2020-10-22T08:17:21Z</time>
      </trkpt>
      <trkpt lat="43.01679" lon="0.78471">
        <ele>541.33001709</ele>
        <time>2020-10-22T08:17:22Z</time>
      </trkpt>
      <trkpt lat="43.01675" lon="0.78466">
        <ele>540.78997803</ele>
        <time>2020-10-22T08:17:23Z</time>
      </trkpt>
      <trkpt lat="43.01671" lon="0.78461">
        <ele>540.83001709</ele>
        <time>2020-10-22T08:17:24Z</time>
      </trkpt>
      <trkpt lat="43.01667" lon="0.78456">
        <ele>541.10998535</ele>
        <time>2020-10-22T08:17:26Z</time>
      </trkpt>
      <trkpt lat="43.01662" lon="0.78448">
        <ele>540.82000732</ele>
        <time>2020-10-22T08:17:27Z</time>
      </trkpt>
      <trkpt lat="43.01657" lon="0.78441">
        <ele>541.26000977</ele>
        <time>2020-10-22T08:17:29Z</time>
      </trkpt>
      <trkpt lat="43.01654" lon="0.78435">
        <ele>541.15997314</ele>
        <time>2020-10-22T08:17:30Z</time>
      </trkpt>
      <trkpt lat="43.01643" lon="0.7842">
        <ele>541.7800293</ele>
        <time>2020-10-22T08:17:32Z</time>
      </trkpt>
      <trkpt lat="43.01638" lon="0.78414">
        <ele>541.65002441</ele>
        <time>2020-10-22T08:17:33Z</time>
      </trkpt>
      <trkpt lat="43.01636" lon="0.78408">
        <ele>541.65002441</ele>
        <time>2020-10-22T08:17:34Z</time>
      </trkpt>
      <trkpt lat="43.01628" lon="0.78396">
        <ele>540.71002197</ele>
        <time>2020-10-22T08:17:36Z</time>
      </trkpt>
      <trkpt lat="43.01624" lon="0.78388">
        <ele>540.69000244</ele>
        <time>2020-10-22T08:17:37Z</time>
      </trkpt>
      <trkpt lat="43.01629" lon="0.78384">
        <ele>540.88000488</ele>
        <time>2020-10-22T08:17:39Z</time>
      </trkpt>
      <trkpt lat="43.01624" lon="0.78376">
        <ele>540.45001221</ele>
        <time>2020-10-22T08:17:40Z</time>
      </trkpt>
      <trkpt lat="43.01618" lon="0.78369">
        <ele>540.25</ele>
        <time>2020-10-22T08:17:41Z</time>
      </trkpt>
      <trkpt lat="43.01613" lon="0.78364">
        <ele>540.70001221</ele>
        <time>2020-10-22T08:17:43Z</time>
      </trkpt>
      <trkpt lat="43.01608" lon="0.78357">
        <ele>542.0300293</ele>
        <time>2020-10-22T08:17:44Z</time>
      </trkpt>
      <trkpt lat="43.01604" lon="0.78352">
        <ele>542.64001465</ele>
        <time>2020-10-22T08:17:45Z</time>
      </trkpt>
      <trkpt lat="43.01599" lon="0.78346">
        <ele>542.46002197</ele>
        <time>2020-10-22T08:17:46Z</time>
      </trkpt>
      <trkpt lat="43.01589" lon="0.78334">
        <ele>543.14001465</ele>
        <time>2020-10-22T08:17:48Z</time>
      </trkpt>
      <trkpt lat="43.01585" lon="0.7833">
        <ele>543.14001465</ele>
        <time>2020-10-22T08:17:49Z</time>
      </trkpt>
      <trkpt lat="43.0158" lon="0.78322">
        <ele>544.39001465</ele>
        <time>2020-10-22T08:17:50Z</time>
      </trkpt>
      <trkpt lat="43.01575" lon="0.78317">
        <ele>544.25</ele>
        <time>2020-10-22T08:17:51Z</time>
      </trkpt>
      <trkpt lat="43.0157" lon="0.78311">
        <ele>543.20001221</ele>
        <time>2020-10-22T08:17:53Z</time>
      </trkpt>
      <trkpt lat="43.01563" lon="0.78302">
        <ele>543.23999023</ele>
        <time>2020-10-22T08:17:55Z</time>
      </trkpt>
      <trkpt lat="43.01552" lon="0.78292">
        <ele>545.29998779</ele>
        <time>2020-10-22T08:17:57Z</time>
      </trkpt>
      <trkpt lat="43.01543" lon="0.78281">
        <ele>544.4699707</ele>
        <time>2020-10-22T08:17:59Z</time>
      </trkpt>
      <trkpt lat="43.01538" lon="0.78276">
        <ele>544.03997803</ele>
        <time>2020-10-22T08:18:00Z</time>
      </trkpt>
      <trkpt lat="43.01534" lon="0.78271">
        <ele>543.59997559</ele>
        <time>2020-10-22T08:18:01Z</time>
      </trkpt>
      <trkpt lat="43.01529" lon="0.78266">
        <ele>543.40997314</ele>
        <time>2020-10-22T08:18:02Z</time>
      </trkpt>
      <trkpt lat="43.01521" lon="0.78253">
        <ele>543.38000488</ele>
        <time>2020-10-22T08:18:04Z</time>
      </trkpt>
      <trkpt lat="43.01517" lon="0.78246">
        <ele>543.33001709</ele>
        <time>2020-10-22T08:18:05Z</time>
      </trkpt>
      <trkpt lat="43.01509" lon="0.78233">
        <ele>543.40997314</ele>
        <time>2020-10-22T08:18:07Z</time>
      </trkpt>
      <trkpt lat="43.01505" lon="0.78228">
        <ele>543.27001953</ele>
        <time>2020-10-22T08:18:08Z</time>
      </trkpt>
      <trkpt lat="43.01502" lon="0.78225">
        <ele>543.39001465</ele>
        <time>2020-10-22T08:18:09Z</time>
      </trkpt>
      <trkpt lat="43.01496" lon="0.78216">
        <ele>544.16998291</ele>
        <time>2020-10-22T08:18:11Z</time>
      </trkpt>
      <trkpt lat="43.0149" lon="0.78207">
        <ele>544.82000732</ele>
        <time>2020-10-22T08:18:13Z</time>
      </trkpt>
      <trkpt lat="43.01487" lon="0.78203">
        <ele>544.73999023</ele>
        <time>2020-10-22T08:18:14Z</time>
      </trkpt>
      <trkpt lat="43.01482" lon="0.78201">
        <ele>543.98999023</ele>
        <time>2020-10-22T08:18:15Z</time>
      </trkpt>
      <trkpt lat="43.01476" lon="0.78198">
        <ele>544.41998291</ele>
        <time>2020-10-22T08:18:17Z</time>
      </trkpt>
      <trkpt lat="43.0147" lon="0.78195">
        <ele>543.75</ele>
        <time>2020-10-22T08:18:18Z</time>
      </trkpt>
      <trkpt lat="43.01466" lon="0.78193">
        <ele>544.75</ele>
        <time>2020-10-22T08:18:19Z</time>
      </trkpt>
      <trkpt lat="43.01456" lon="0.78188">
        <ele>544.63000488</ele>
        <time>2020-10-22T08:18:21Z</time>
      </trkpt>
      <trkpt lat="43.01452" lon="0.78185">
        <ele>544.09002686</ele>
        <time>2020-10-22T08:18:22Z</time>
      </trkpt>
      <trkpt lat="43.01451" lon="0.78177">
        <ele>543.85998535</ele>
        <time>2020-10-22T08:18:24Z</time>
      </trkpt>
      <trkpt lat="43.01451" lon="0.78163">
        <ele>543.89001465</ele>
        <time>2020-10-22T08:18:25Z</time>
      </trkpt>
      <trkpt lat="43.0145" lon="0.78154">
        <ele>543.27001953</ele>
        <time>2020-10-22T08:18:26Z</time>
      </trkpt>
      <trkpt lat="43.01447" lon="0.78137">
        <ele>542.64001465</ele>
        <time>2020-10-22T08:18:28Z</time>
      </trkpt>
      <trkpt lat="43.01448" lon="0.78128">
        <ele>541.58001709</ele>
        <time>2020-10-22T08:18:29Z</time>
      </trkpt>
      <trkpt lat="43.01457" lon="0.78114">
        <ele>540.63000488</ele>
        <time>2020-10-22T08:18:31Z</time>
      </trkpt>
      <trkpt lat="43.01469" lon="0.781">
        <ele>539.83001709</ele>
        <time>2020-10-22T08:18:33Z</time>
      </trkpt>
      <trkpt lat="43.01481" lon="0.78084">
        <ele>539.28997803</ele>
        <time>2020-10-22T08:18:35Z</time>
      </trkpt>
      <trkpt lat="43.01486" lon="0.78076">
        <ele>538.77001953</ele>
        <time>2020-10-22T08:18:36Z</time>
      </trkpt>
      <trkpt lat="43.01491" lon="0.78068">
        <ele>538.53997803</ele>
        <time>2020-10-22T08:18:37Z</time>
      </trkpt>
      <trkpt lat="43.01496" lon="0.78059">
        <ele>538.5300293</ele>
        <time>2020-10-22T08:18:38Z</time>
      </trkpt>
      <trkpt lat="43.015" lon="0.7805">
        <ele>538.22998047</ele>
        <time>2020-10-22T08:18:39Z</time>
      </trkpt>
      <trkpt lat="43.01508" lon="0.78033">
        <ele>537.63000488</ele>
        <time>2020-10-22T08:18:41Z</time>
      </trkpt>
      <trkpt lat="43.01517" lon="0.78016">
        <ele>536.65997314</ele>
        <time>2020-10-22T08:18:43Z</time>
      </trkpt>
      <trkpt lat="43.01522" lon="0.78008">
        <ele>535.88000488</ele>
        <time>2020-10-22T08:18:44Z</time>
      </trkpt>
      <trkpt lat="43.01533" lon="0.77994">
        <ele>535.08001709</ele>
        <time>2020-10-22T08:18:46Z</time>
      </trkpt>
      <trkpt lat="43.01547" lon="0.77985">
        <ele>534.54998779</ele>
        <time>2020-10-22T08:18:48Z</time>
      </trkpt>
      <trkpt lat="43.01552" lon="0.77981">
        <ele>534.15002441</ele>
        <time>2020-10-22T08:18:49Z</time>
      </trkpt>
      <trkpt lat="43.01554" lon="0.77979">
        <ele>534.05999756</ele>
        <time>2020-10-22T08:18:50Z</time>
      </trkpt>
      <trkpt lat="43.01552" lon="0.77974">
        <ele>534.01000977</ele>
        <time>2020-10-22T08:18:52Z</time>
      </trkpt>
      <trkpt lat="43.01543" lon="0.77963">
        <ele>532.82000732</ele>
        <time>2020-10-22T08:18:54Z</time>
      </trkpt>
      <trkpt lat="43.01531" lon="0.77949">
        <ele>531.58001709</ele>
        <time>2020-10-22T08:18:56Z</time>
      </trkpt>
      <trkpt lat="43.01515" lon="0.77933">
        <ele>529.54998779</ele>
        <time>2020-10-22T08:18:58Z</time>
      </trkpt>
      <trkpt lat="43.01497" lon="0.77918">
        <ele>529.53997803</ele>
        <time>2020-10-22T08:19:00Z</time>
      </trkpt>
      <trkpt lat="43.01487" lon="0.77912">
        <ele>528.80999756</ele>
        <time>2020-10-22T08:19:01Z</time>
      </trkpt>
      <trkpt lat="43.01468" lon="0.77905">
        <ele>527.16998291</ele>
        <time>2020-10-22T08:19:03Z</time>
      </trkpt>
      <trkpt lat="43.01461" lon="0.77904">
        <ele>526.88000488</ele>
        <time>2020-10-22T08:19:04Z</time>
      </trkpt>
      <trkpt lat="43.01447" lon="0.77899">
        <ele>525.45001221</ele>
        <time>2020-10-22T08:19:06Z</time>
      </trkpt>
      <trkpt lat="43.0144" lon="0.77894">
        <ele>524.66998291</ele>
        <time>2020-10-22T08:19:07Z</time>
      </trkpt>
      <trkpt lat="43.01432" lon="0.77889">
        <ele>524.34997559</ele>
        <time>2020-10-22T08:19:08Z</time>
      </trkpt>
      <trkpt lat="43.01416" lon="0.77877">
        <ele>523.60998535</ele>
        <time>2020-10-22T08:19:10Z</time>
      </trkpt>
      <trkpt lat="43.01408" lon="0.77871">
        <ele>523.59002686</ele>
        <time>2020-10-22T08:19:11Z</time>
      </trkpt>
      <trkpt lat="43.014" lon="0.77866">
        <ele>523.60998535</ele>
        <time>2020-10-22T08:19:12Z</time>
      </trkpt>
      <trkpt lat="43.01393" lon="0.77861">
        <ele>523.65002441</ele>
        <time>2020-10-22T08:19:13Z</time>
      </trkpt>
      <trkpt lat="43.01387" lon="0.77856">
        <ele>523.61999512</ele>
        <time>2020-10-22T08:19:14Z</time>
      </trkpt>
      <trkpt lat="43.01381" lon="0.77851">
        <ele>523.78997803</ele>
        <time>2020-10-22T08:19:15Z</time>
      </trkpt>
      <trkpt lat="43.01368" lon="0.77844">
        <ele>523.7199707</ele>
        <time>2020-10-22T08:19:17Z</time>
      </trkpt>
      <trkpt lat="43.01357" lon="0.77839">
        <ele>523.65997314</ele>
        <time>2020-10-22T08:19:19Z</time>
      </trkpt>
      <trkpt lat="43.01346" lon="0.77835">
        <ele>523.09002686</ele>
        <time>2020-10-22T08:19:21Z</time>
      </trkpt>
      <trkpt lat="43.01335" lon="0.77831">
        <ele>524.23999023</ele>
        <time>2020-10-22T08:19:23Z</time>
      </trkpt>
      <trkpt lat="43.01325" lon="0.77828">
        <ele>526.7800293</ele>
        <time>2020-10-22T08:19:25Z</time>
      </trkpt>
      <trkpt lat="43.01318" lon="0.77826">
        <ele>526.2800293</ele>
        <time>2020-10-22T08:19:27Z</time>
      </trkpt>
      <trkpt lat="43.0131" lon="0.77824">
        <ele>525.7199707</ele>
        <time>2020-10-22T08:19:29Z</time>
      </trkpt>
      <trkpt lat="43.013" lon="0.77818">
        <ele>525.89001465</ele>
        <time>2020-10-22T08:19:31Z</time>
      </trkpt>
      <trkpt lat="43.01296" lon="0.77814">
        <ele>525.5300293</ele>
        <time>2020-10-22T08:19:32Z</time>
      </trkpt>
      <trkpt lat="43.01289" lon="0.77805">
        <ele>524.73999023</ele>
        <time>2020-10-22T08:19:34Z</time>
      </trkpt>
      <trkpt lat="43.01281" lon="0.77792">
        <ele>525.08001709</ele>
        <time>2020-10-22T08:19:36Z</time>
      </trkpt>
      <trkpt lat="43.01274" lon="0.77777">
        <ele>524.85998535</ele>
        <time>2020-10-22T08:19:38Z</time>
      </trkpt>
      <trkpt lat="43.01274" lon="0.77769">
        <ele>524.41998291</ele>
        <time>2020-10-22T08:19:39Z</time>
      </trkpt>
      <trkpt lat="43.01274" lon="0.77759">
        <ele>523.59997559</ele>
        <time>2020-10-22T08:19:40Z</time>
      </trkpt>
      <trkpt lat="43.01276" lon="0.77738">
        <ele>522.88000488</ele>
        <time>2020-10-22T08:19:42Z</time>
      </trkpt>
      <trkpt lat="43.01276" lon="0.77717">
        <ele>522.32000732</ele>
        <time>2020-10-22T08:19:44Z</time>
      </trkpt>
      <trkpt lat="43.01273" lon="0.77706">
        <ele>522.45001221</ele>
        <time>2020-10-22T08:19:45Z</time>
      </trkpt>
      <trkpt lat="43.01262" lon="0.7769">
        <ele>520.59002686</ele>
        <time>2020-10-22T08:19:47Z</time>
      </trkpt>
      <trkpt lat="43.01258" lon="0.77685">
        <ele>519.2800293</ele>
        <time>2020-10-22T08:19:48Z</time>
      </trkpt>
      <trkpt lat="43.01258" lon="0.77678">
        <ele>519.66998291</ele>
        <time>2020-10-22T08:19:50Z</time>
      </trkpt>
      <trkpt lat="43.01261" lon="0.77673">
        <ele>517.7800293</ele>
        <time>2020-10-22T08:19:51Z</time>
      </trkpt>
      <trkpt lat="43.01273" lon="0.77665">
        <ele>515.86999512</ele>
        <time>2020-10-22T08:19:53Z</time>
      </trkpt>
      <trkpt lat="43.01283" lon="0.77651">
        <ele>515.17999268</ele>
        <time>2020-10-22T08:19:55Z</time>
      </trkpt>
      <trkpt lat="43.01285" lon="0.7764">
        <ele>514.69000244</ele>
        <time>2020-10-22T08:19:56Z</time>
      </trkpt>
      <trkpt lat="43.01281" lon="0.77616">
        <ele>513.52001953</ele>
        <time>2020-10-22T08:19:58Z</time>
      </trkpt>
      <trkpt lat="43.01276" lon="0.77588">
        <ele>511.92001343</ele>
        <time>2020-10-22T08:20:00Z</time>
      </trkpt>
      <trkpt lat="43.01271" lon="0.7756">
        <ele>509.72000122</ele>
        <time>2020-10-22T08:20:02Z</time>
      </trkpt>
      <trkpt lat="43.01265" lon="0.77531">
        <ele>508.30999756</ele>
        <time>2020-10-22T08:20:04Z</time>
      </trkpt>
      <trkpt lat="43.01259" lon="0.77499">
        <ele>505.60998535</ele>
        <time>2020-10-22T08:20:06Z</time>
      </trkpt>
      <trkpt lat="43.01252" lon="0.77465">
        <ele>504.17001343</ele>
        <time>2020-10-22T08:20:08Z</time>
      </trkpt>
      <trkpt lat="43.0124" lon="0.77434">
        <ele>502.26998901</ele>
        <time>2020-10-22T08:20:10Z</time>
      </trkpt>
      <trkpt lat="43.01227" lon="0.77406">
        <ele>500.82998657</ele>
        <time>2020-10-22T08:20:12Z</time>
      </trkpt>
      <trkpt lat="43.01215" lon="0.7738">
        <ele>499.38000488</ele>
        <time>2020-10-22T08:20:14Z</time>
      </trkpt>
      <trkpt lat="43.01204" lon="0.77357">
        <ele>499.29000854</ele>
        <time>2020-10-22T08:20:16Z</time>
      </trkpt>
      <trkpt lat="43.01194" lon="0.77338">
        <ele>499.23001099</ele>
        <time>2020-10-22T08:20:18Z</time>
      </trkpt>
      <trkpt lat="43.01191" lon="0.7733">
        <ele>500.07998657</ele>
        <time>2020-10-22T08:20:19Z</time>
      </trkpt>
      <trkpt lat="43.01186" lon="0.77322">
        <ele>499.73999023</ele>
        <time>2020-10-22T08:20:21Z</time>
      </trkpt>
      <trkpt lat="43.01183" lon="0.77316">
        <ele>500.35998535</ele>
        <time>2020-10-22T08:20:23Z</time>
      </trkpt>
      <trkpt lat="43.01181" lon="0.77312">
        <ele>500.51000977</ele>
        <time>2020-10-22T08:20:24Z</time>
      </trkpt>
      <trkpt lat="43.01176" lon="0.77306">
        <ele>500.82998657</ele>
        <time>2020-10-22T08:20:26Z</time>
      </trkpt>
      <trkpt lat="43.01173" lon="0.77303">
        <ele>500.77999878</ele>
        <time>2020-10-22T08:20:27Z</time>
      </trkpt>
      <trkpt lat="43.0117" lon="0.77299">
        <ele>500.72000122</ele>
        <time>2020-10-22T08:20:28Z</time>
      </trkpt>
      <trkpt lat="43.01168" lon="0.77295">
        <ele>501.16000366</ele>
        <time>2020-10-22T08:20:29Z</time>
      </trkpt>
      <trkpt lat="43.01164" lon="0.77292">
        <ele>501.6000061</ele>
        <time>2020-10-22T08:20:31Z</time>
      </trkpt>
      <trkpt lat="43.01161" lon="0.77287">
        <ele>502</ele>
        <time>2020-10-22T08:20:32Z</time>
      </trkpt>
      <trkpt lat="43.01157" lon="0.77279">
        <ele>502.73001099</ele>
        <time>2020-10-22T08:20:33Z</time>
      </trkpt>
      <trkpt lat="43.01153" lon="0.77274">
        <ele>502.60998535</ele>
        <time>2020-10-22T08:20:35Z</time>
      </trkpt>
      <trkpt lat="43.01144" lon="0.77261">
        <ele>502.6000061</ele>
        <time>2020-10-22T08:20:37Z</time>
      </trkpt>
      <trkpt lat="43.0114" lon="0.77256">
        <ele>502.29998779</ele>
        <time>2020-10-22T08:20:38Z</time>
      </trkpt>
      <trkpt lat="43.01136" lon="0.77251">
        <ele>502.16000366</ele>
        <time>2020-10-22T08:20:39Z</time>
      </trkpt>
      <trkpt lat="43.01132" lon="0.77245">
        <ele>502.16000366</ele>
        <time>2020-10-22T08:20:40Z</time>
      </trkpt>
      <trkpt lat="43.01123" lon="0.77234">
        <ele>501.11999512</ele>
        <time>2020-10-22T08:20:42Z</time>
      </trkpt>
      <trkpt lat="43.01113" lon="0.77221">
        <ele>500.97000122</ele>
        <time>2020-10-22T08:20:44Z</time>
      </trkpt>
      <trkpt lat="43.011" lon="0.77208">
        <ele>500.45999146</ele>
        <time>2020-10-22T08:20:46Z</time>
      </trkpt>
      <trkpt lat="43.01089" lon="0.77196">
        <ele>499.58999634</ele>
        <time>2020-10-22T08:20:48Z</time>
      </trkpt>
      <trkpt lat="43.01079" lon="0.77186">
        <ele>499.16000366</ele>
        <time>2020-10-22T08:20:50Z</time>
      </trkpt>
      <trkpt lat="43.01069" lon="0.77177">
        <ele>498.6499939</ele>
        <time>2020-10-22T08:20:52Z</time>
      </trkpt>
      <trkpt lat="43.01063" lon="0.77174">
        <ele>498.75</ele>
        <time>2020-10-22T08:20:53Z</time>
      </trkpt>
      <trkpt lat="43.01051" lon="0.77175">
        <ele>497.60998535</ele>
        <time>2020-10-22T08:20:55Z</time>
      </trkpt>
      <trkpt lat="43.01045" lon="0.77174">
        <ele>497.22000122</ele>
        <time>2020-10-22T08:20:56Z</time>
      </trkpt>
      <trkpt lat="43.01037" lon="0.77172">
        <ele>493.6499939</ele>
        <time>2020-10-22T08:20:58Z</time>
      </trkpt>
      <trkpt lat="43.01033" lon="0.77169">
        <ele>494.48999023</ele>
        <time>2020-10-22T08:20:59Z</time>
      </trkpt>
      <trkpt lat="43.01026" lon="0.77161">
        <ele>495.55999756</ele>
        <time>2020-10-22T08:21:01Z</time>
      </trkpt>
      <trkpt lat="43.0102" lon="0.77152">
        <ele>496.30999756</ele>
        <time>2020-10-22T08:21:03Z</time>
      </trkpt>
      <trkpt lat="43.01016" lon="0.77147">
        <ele>496.67999268</ele>
        <time>2020-10-22T08:21:05Z</time>
      </trkpt>
      <trkpt lat="43.01014" lon="0.77143">
        <ele>496.55999756</ele>
        <time>2020-10-22T08:21:06Z</time>
      </trkpt>
      <trkpt lat="43.01013" lon="0.77139">
        <ele>497.07000732</ele>
        <time>2020-10-22T08:21:07Z</time>
      </trkpt>
      <trkpt lat="43.01011" lon="0.77136">
        <ele>497.51000977</ele>
        <time>2020-10-22T08:21:08Z</time>
      </trkpt>
      <trkpt lat="43.01009" lon="0.7713">
        <ele>497.77999878</ele>
        <time>2020-10-22T08:21:09Z</time>
      </trkpt>
      <trkpt lat="43.01008" lon="0.77124">
        <ele>497.8999939</ele>
        <time>2020-10-22T08:21:10Z</time>
      </trkpt>
      <trkpt lat="43.01005" lon="0.77118">
        <ele>497.89001465</ele>
        <time>2020-10-22T08:21:12Z</time>
      </trkpt>
      <trkpt lat="43.01002" lon="0.77109">
        <ele>497.73999023</ele>
        <time>2020-10-22T08:21:14Z</time>
      </trkpt>
      <trkpt lat="43.00999" lon="0.77102">
        <ele>498.58999634</ele>
        <time>2020-10-22T08:21:15Z</time>
      </trkpt>
      <trkpt lat="43.00996" lon="0.77094">
        <ele>498.61999512</ele>
        <time>2020-10-22T08:21:17Z</time>
      </trkpt>
      <trkpt lat="43.00993" lon="0.77088">
        <ele>498.63000488</ele>
        <time>2020-10-22T08:21:18Z</time>
      </trkpt>
      <trkpt lat="43.00991" lon="0.77081">
        <ele>498.92999268</ele>
        <time>2020-10-22T08:21:19Z</time>
      </trkpt>
      <trkpt lat="43.00989" lon="0.77074">
        <ele>498.77999878</ele>
        <time>2020-10-22T08:21:20Z</time>
      </trkpt>
      <trkpt lat="43.00986" lon="0.77065">
        <ele>499.1000061</ele>
        <time>2020-10-22T08:21:22Z</time>
      </trkpt>
      <trkpt lat="43.00983" lon="0.77056">
        <ele>498.57998657</ele>
        <time>2020-10-22T08:21:23Z</time>
      </trkpt>
      <trkpt lat="43.00981" lon="0.77051">
        <ele>498.70001221</ele>
        <time>2020-10-22T08:21:25Z</time>
      </trkpt>
      <trkpt lat="43.00979" lon="0.77045">
        <ele>499.32000732</ele>
        <time>2020-10-22T08:21:26Z</time>
      </trkpt>
      <trkpt lat="43.00978" lon="0.77041">
        <ele>499.63000488</ele>
        <time>2020-10-22T08:21:27Z</time>
      </trkpt>
      <trkpt lat="43.00975" lon="0.77036">
        <ele>499.52999878</ele>
        <time>2020-10-22T08:21:29Z</time>
      </trkpt>
      <trkpt lat="43.00973" lon="0.77034">
        <ele>499.8999939</ele>
        <time>2020-10-22T08:21:31Z</time>
      </trkpt>
      <trkpt lat="43.00968" lon="0.77025">
        <ele>501.02999878</ele>
        <time>2020-10-22T08:21:47Z</time>
      </trkpt>
      <trkpt lat="43.00967" lon="0.77021">
        <ele>500.8999939</ele>
        <time>2020-10-22T08:21:48Z</time>
      </trkpt>
      <trkpt lat="43.00966" lon="0.77017">
        <ele>500.92001343</ele>
        <time>2020-10-22T08:21:50Z</time>
      </trkpt>
      <trkpt lat="43.00964" lon="0.77012">
        <ele>501.41000366</ele>
        <time>2020-10-22T08:21:51Z</time>
      </trkpt>
      <trkpt lat="43.00963" lon="0.77008">
        <ele>501.54998779</ele>
        <time>2020-10-22T08:21:52Z</time>
      </trkpt>
      <trkpt lat="43.00962" lon="0.77005">
        <ele>501.54998779</ele>
        <time>2020-10-22T08:21:53Z</time>
      </trkpt>
      <trkpt lat="43.00961" lon="0.77001">
        <ele>501.79000854</ele>
        <time>2020-10-22T08:21:54Z</time>
      </trkpt>
      <trkpt lat="43.0096" lon="0.76996">
        <ele>502.29000854</ele>
        <time>2020-10-22T08:21:55Z</time>
      </trkpt>
      <trkpt lat="43.00958" lon="0.76991">
        <ele>502.73999023</ele>
        <time>2020-10-22T08:21:57Z</time>
      </trkpt>
      <trkpt lat="43.00957" lon="0.76986">
        <ele>502.67999268</ele>
        <time>2020-10-22T08:21:58Z</time>
      </trkpt>
      <trkpt lat="43.00957" lon="0.7698">
        <ele>503.04998779</ele>
        <time>2020-10-22T08:21:59Z</time>
      </trkpt>
      <trkpt lat="43.00958" lon="0.76975">
        <ele>503.48001099</ele>
        <time>2020-10-22T08:22:01Z</time>
      </trkpt>
      <trkpt lat="43.00958" lon="0.76972">
        <ele>503.51000977</ele>
        <time>2020-10-22T08:22:02Z</time>
      </trkpt>
      <trkpt lat="43.00959" lon="0.76968">
        <ele>503.51000977</ele>
        <time>2020-10-22T08:22:03Z</time>
      </trkpt>
      <trkpt lat="43.0096" lon="0.76958">
        <ele>503.89001465</ele>
        <time>2020-10-22T08:22:05Z</time>
      </trkpt>
      <trkpt lat="43.00962" lon="0.76943">
        <ele>503.26000977</ele>
        <time>2020-10-22T08:22:06Z</time>
      </trkpt>
      <trkpt lat="43.00964" lon="0.76936">
        <ele>502.86999512</ele>
        <time>2020-10-22T08:22:07Z</time>
      </trkpt>
      <trkpt lat="43.00967" lon="0.76921">
        <ele>502.47000122</ele>
        <time>2020-10-22T08:22:09Z</time>
      </trkpt>
      <trkpt lat="43.0097" lon="0.76907">
        <ele>502.32998657</ele>
        <time>2020-10-22T08:22:11Z</time>
      </trkpt>
      <trkpt lat="43.00971" lon="0.76901">
        <ele>502.6000061</ele>
        <time>2020-10-22T08:22:12Z</time>
      </trkpt>
      <trkpt lat="43.00973" lon="0.76891">
        <ele>502.3999939</ele>
        <time>2020-10-22T08:22:14Z</time>
      </trkpt>
      <trkpt lat="43.00971" lon="0.7689">
        <ele>502.25</ele>
        <time>2020-10-22T08:22:15Z</time>
      </trkpt>
      <trkpt lat="43.00972" lon="0.76887">
        <ele>502.55999756</ele>
        <time>2020-10-22T08:22:16Z</time>
      </trkpt>
      <trkpt lat="43.00974" lon="0.76887">
        <ele>502.48001099</ele>
        <time>2020-10-22T08:22:18Z</time>
      </trkpt>
      <trkpt lat="43.00975" lon="0.76886">
        <ele>500.82000732</ele>
        <time>2020-10-22T08:22:36Z</time>
      </trkpt>
      <trkpt lat="43.00977" lon="0.76883">
        <ele>500.80999756</ele>
        <time>2020-10-22T08:22:37Z</time>
      </trkpt>
      <trkpt lat="43.00978" lon="0.7688">
        <ele>500.57998657</ele>
        <time>2020-10-22T08:22:39Z</time>
      </trkpt>
      <trkpt lat="43.00979" lon="0.76877">
        <ele>500.86999512</ele>
        <time>2020-10-22T08:22:40Z</time>
      </trkpt>
      <trkpt lat="43.00978" lon="0.76872">
        <ele>501.20999146</ele>
        <time>2020-10-22T08:22:41Z</time>
      </trkpt>
      <trkpt lat="43.00977" lon="0.76869">
        <ele>501.67001343</ele>
        <time>2020-10-22T08:22:43Z</time>
      </trkpt>
      <trkpt lat="43.00977" lon="0.76869">
        <ele>502.07998657</ele>
        <time>2020-10-22T08:22:44Z</time>
      </trkpt>
      <trkpt lat="43.00976" lon="0.7687">
        <ele>502.54998779</ele>
        <time>2020-10-22T08:22:46Z</time>
      </trkpt>
      <trkpt lat="43.00973" lon="0.76877">
        <ele>503.29998779</ele>
        <time>2020-10-22T08:22:48Z</time>
      </trkpt>
      <trkpt lat="43.00969" lon="0.76884">
        <ele>503.5</ele>
        <time>2020-10-22T08:22:50Z</time>
      </trkpt>
      <trkpt lat="43.00965" lon="0.7689">
        <ele>504.23001099</ele>
        <time>2020-10-22T08:22:51Z</time>
      </trkpt>
      <trkpt lat="43.00962" lon="0.76895">
        <ele>504.67001343</ele>
        <time>2020-10-22T08:22:53Z</time>
      </trkpt>
      <trkpt lat="43.00958" lon="0.76901">
        <ele>504.95001221</ele>
        <time>2020-10-22T08:22:54Z</time>
      </trkpt>
      <trkpt lat="43.00954" lon="0.76909">
        <ele>506.35998535</ele>
        <time>2020-10-22T08:22:56Z</time>
      </trkpt>
      <trkpt lat="43.00952" lon="0.76913">
        <ele>506.35998535</ele>
        <time>2020-10-22T08:22:57Z</time>
      </trkpt>
      <trkpt lat="43.0095" lon="0.76916">
        <ele>506.61999512</ele>
        <time>2020-10-22T08:22:58Z</time>
      </trkpt>
      <trkpt lat="43.00945" lon="0.76924">
        <ele>507.20999146</ele>
        <time>2020-10-22T08:23:00Z</time>
      </trkpt>
      <trkpt lat="43.00942" lon="0.7693">
        <ele>507.82998657</ele>
        <time>2020-10-22T08:23:01Z</time>
      </trkpt>
      <trkpt lat="43.0094" lon="0.76934">
        <ele>508.27999878</ele>
        <time>2020-10-22T08:23:02Z</time>
      </trkpt>
      <trkpt lat="43.00937" lon="0.76939">
        <ele>508.6499939</ele>
        <time>2020-10-22T08:23:03Z</time>
      </trkpt>
      <trkpt lat="43.00935" lon="0.76943">
        <ele>508.98999023</ele>
        <time>2020-10-22T08:23:04Z</time>
      </trkpt>
      <trkpt lat="43.00933" lon="0.76947">
        <ele>509.33999634</ele>
        <time>2020-10-22T08:23:06Z</time>
      </trkpt>
      <trkpt lat="43.00931" lon="0.76952">
        <ele>509.39001465</ele>
        <time>2020-10-22T08:23:07Z</time>
      </trkpt>
      <trkpt lat="43.00929" lon="0.76956">
        <ele>509.67999268</ele>
        <time>2020-10-22T08:23:08Z</time>
      </trkpt>
      <trkpt lat="43.00927" lon="0.76961">
        <ele>509.92001343</ele>
        <time>2020-10-22T08:23:09Z</time>
      </trkpt>
      <trkpt lat="43.00924" lon="0.76964">
        <ele>510.20999146</ele>
        <time>2020-10-22T08:23:11Z</time>
      </trkpt>
      <trkpt lat="43.00922" lon="0.76968">
        <ele>510.6000061</ele>
        <time>2020-10-22T08:23:12Z</time>
      </trkpt>
      <trkpt lat="43.00918" lon="0.76973">
        <ele>511.19000244</ele>
        <time>2020-10-22T08:23:14Z</time>
      </trkpt>
      <trkpt lat="43.00915" lon="0.76977">
        <ele>511.42001343</ele>
        <time>2020-10-22T08:23:15Z</time>
      </trkpt>
      <trkpt lat="43.0091" lon="0.76981">
        <ele>511.8999939</ele>
        <time>2020-10-22T08:23:17Z</time>
      </trkpt>
      <trkpt lat="43.00907" lon="0.76984">
        <ele>512.59997559</ele>
        <time>2020-10-22T08:23:18Z</time>
      </trkpt>
      <trkpt lat="43.00903" lon="0.76986">
        <ele>512.59997559</ele>
        <time>2020-10-22T08:23:19Z</time>
      </trkpt>
      <trkpt lat="43.00899" lon="0.76988">
        <ele>513.25</ele>
        <time>2020-10-22T08:23:20Z</time>
      </trkpt>
      <trkpt lat="43.00895" lon="0.76991">
        <ele>513.55999756</ele>
        <time>2020-10-22T08:23:21Z</time>
      </trkpt>
      <trkpt lat="43.00891" lon="0.76994">
        <ele>513.7199707</ele>
        <time>2020-10-22T08:23:23Z</time>
      </trkpt>
      <trkpt lat="43.00887" lon="0.76997">
        <ele>514.0300293</ele>
        <time>2020-10-22T08:23:24Z</time>
      </trkpt>
      <trkpt lat="43.00879" lon="0.77001">
        <ele>513.73999023</ele>
        <time>2020-10-22T08:23:26Z</time>
      </trkpt>
      <trkpt lat="43.00875" lon="0.77003">
        <ele>513.84997559</ele>
        <time>2020-10-22T08:23:27Z</time>
      </trkpt>
      <trkpt lat="43.00869" lon="0.77007">
        <ele>514.05999756</ele>
        <time>2020-10-22T08:23:29Z</time>
      </trkpt>
      <trkpt lat="43.00866" lon="0.77008">
        <ele>514.11999512</ele>
        <time>2020-10-22T08:23:30Z</time>
      </trkpt>
      <trkpt lat="43.00861" lon="0.7701">
        <ele>513.97998047</ele>
        <time>2020-10-22T08:23:32Z</time>
      </trkpt>
      <trkpt lat="43.00857" lon="0.77012">
        <ele>513.79998779</ele>
        <time>2020-10-22T08:23:33Z</time>
      </trkpt>
      <trkpt lat="43.00854" lon="0.77012">
        <ele>514.21002197</ele>
        <time>2020-10-22T08:23:34Z</time>
      </trkpt>
      <trkpt lat="43.0085" lon="0.77011">
        <ele>514.32000732</ele>
        <time>2020-10-22T08:23:35Z</time>
      </trkpt>
      <trkpt lat="43.00846" lon="0.77009">
        <ele>513.30999756</ele>
        <time>2020-10-22T08:23:36Z</time>
      </trkpt>
      <trkpt lat="43.0084" lon="0.77004">
        <ele>514.20001221</ele>
        <time>2020-10-22T08:23:38Z</time>
      </trkpt>
      <trkpt lat="43.00837" lon="0.77001">
        <ele>513.95001221</ele>
        <time>2020-10-22T08:23:39Z</time>
      </trkpt>
      <trkpt lat="43.00832" lon="0.76996">
        <ele>513.65002441</ele>
        <time>2020-10-22T08:23:41Z</time>
      </trkpt>
      <trkpt lat="43.00819" lon="0.76983">
        <ele>513.02001953</ele>
        <time>2020-10-22T08:23:43Z</time>
      </trkpt>
      <trkpt lat="43.00813" lon="0.76977">
        <ele>512.34002686</ele>
        <time>2020-10-22T08:23:44Z</time>
      </trkpt>
      <trkpt lat="43.0081" lon="0.76973">
        <ele>511.20999146</ele>
        <time>2020-10-22T08:23:45Z</time>
      </trkpt>
      <trkpt lat="43.00807" lon="0.7697">
        <ele>510.95999146</ele>
        <time>2020-10-22T08:23:46Z</time>
      </trkpt>
      <trkpt lat="43.00806" lon="0.76966">
        <ele>510.6499939</ele>
        <time>2020-10-22T08:23:48Z</time>
      </trkpt>
      <trkpt lat="43.00807" lon="0.76963">
        <ele>509.76998901</ele>
        <time>2020-10-22T08:23:49Z</time>
      </trkpt>
      <trkpt lat="43.0081" lon="0.76958">
        <ele>509.54000854</ele>
        <time>2020-10-22T08:23:50Z</time>
      </trkpt>
      <trkpt lat="43.00813" lon="0.76954">
        <ele>509.20001221</ele>
        <time>2020-10-22T08:23:51Z</time>
      </trkpt>
      <trkpt lat="43.00817" lon="0.76949">
        <ele>508.6000061</ele>
        <time>2020-10-22T08:23:53Z</time>
      </trkpt>
      <trkpt lat="43.00821" lon="0.76944">
        <ele>509.19000244</ele>
        <time>2020-10-22T08:23:54Z</time>
      </trkpt>
      <trkpt lat="43.00826" lon="0.76937">
        <ele>509.07998657</ele>
        <time>2020-10-22T08:23:56Z</time>
      </trkpt>
      <trkpt lat="43.0083" lon="0.76932">
        <ele>508.91000366</ele>
        <time>2020-10-22T08:23:57Z</time>
      </trkpt>
      <trkpt lat="43.00836" lon="0.76926">
        <ele>508.75</ele>
        <time>2020-10-22T08:23:59Z</time>
      </trkpt>
      <trkpt lat="43.00845" lon="0.76914">
        <ele>509.30999756</ele>
        <time>2020-10-22T08:24:01Z</time>
      </trkpt>
      <trkpt lat="43.00851" lon="0.7691">
        <ele>509.07000732</ele>
        <time>2020-10-22T08:24:02Z</time>
      </trkpt>
      <trkpt lat="43.00857" lon="0.76898">
        <ele>508.92999268</ele>
        <time>2020-10-22T08:24:04Z</time>
      </trkpt>
      <trkpt lat="43.00861" lon="0.76893">
        <ele>509.20999146</ele>
        <time>2020-10-22T08:24:05Z</time>
      </trkpt>
      <trkpt lat="43.00869" lon="0.76883">
        <ele>508.72000122</ele>
        <time>2020-10-22T08:24:07Z</time>
      </trkpt>
      <trkpt lat="43.00873" lon="0.76877">
        <ele>508.51000977</ele>
        <time>2020-10-22T08:24:08Z</time>
      </trkpt>
      <trkpt lat="43.00878" lon="0.76865">
        <ele>508.42001343</ele>
        <time>2020-10-22T08:24:10Z</time>
      </trkpt>
      <trkpt lat="43.00876" lon="0.76851">
        <ele>506.17999268</ele>
        <time>2020-10-22T08:24:12Z</time>
      </trkpt>
      <trkpt lat="43.00874" lon="0.76844">
        <ele>505.60998535</ele>
        <time>2020-10-22T08:24:13Z</time>
      </trkpt>
      <trkpt lat="43.00863" lon="0.76829">
        <ele>504.70001221</ele>
        <time>2020-10-22T08:24:15Z</time>
      </trkpt>
      <trkpt lat="43.00847" lon="0.76812">
        <ele>503.61999512</ele>
        <time>2020-10-22T08:24:17Z</time>
      </trkpt>
      <trkpt lat="43.00832" lon="0.76794">
        <ele>499.92001343</ele>
        <time>2020-10-22T08:24:19Z</time>
      </trkpt>
      <trkpt lat="43.00826" lon="0.76786">
        <ele>499.04998779</ele>
        <time>2020-10-22T08:24:20Z</time>
      </trkpt>
      <trkpt lat="43.0082" lon="0.76769">
        <ele>498.61999512</ele>
        <time>2020-10-22T08:24:22Z</time>
      </trkpt>
      <trkpt lat="43.00818" lon="0.76761">
        <ele>498.82000732</ele>
        <time>2020-10-22T08:24:23Z</time>
      </trkpt>
      <trkpt lat="43.00812" lon="0.76746">
        <ele>498.57000732</ele>
        <time>2020-10-22T08:24:25Z</time>
      </trkpt>
      <trkpt lat="43.00802" lon="0.76732">
        <ele>497.04998779</ele>
        <time>2020-10-22T08:24:27Z</time>
      </trkpt>
      <trkpt lat="43.00797" lon="0.76725">
        <ele>496.73001099</ele>
        <time>2020-10-22T08:24:28Z</time>
      </trkpt>
      <trkpt lat="43.00789" lon="0.76714">
        <ele>497.26000977</ele>
        <time>2020-10-22T08:24:30Z</time>
      </trkpt>
      <trkpt lat="43.00785" lon="0.76708">
        <ele>496.94000244</ele>
        <time>2020-10-22T08:24:31Z</time>
      </trkpt>
      <trkpt lat="43.00777" lon="0.76697">
        <ele>497.26000977</ele>
        <time>2020-10-22T08:24:33Z</time>
      </trkpt>
      <trkpt lat="43.00769" lon="0.76687">
        <ele>497.79000854</ele>
        <time>2020-10-22T08:24:35Z</time>
      </trkpt>
      <trkpt lat="43.00764" lon="0.7668">
        <ele>497.79000854</ele>
        <time>2020-10-22T08:24:37Z</time>
      </trkpt>
      <trkpt lat="43.00759" lon="0.76671">
        <ele>497.86999512</ele>
        <time>2020-10-22T08:24:39Z</time>
      </trkpt>
      <trkpt lat="43.00756" lon="0.76667">
        <ele>498.44000244</ele>
        <time>2020-10-22T08:24:40Z</time>
      </trkpt>
      <trkpt lat="43.00753" lon="0.76663">
        <ele>498.88000488</ele>
        <time>2020-10-22T08:24:41Z</time>
      </trkpt>
      <trkpt lat="43.0075" lon="0.76659">
        <ele>499.05999756</ele>
        <time>2020-10-22T08:24:42Z</time>
      </trkpt>
      <trkpt lat="43.00747" lon="0.76659">
        <ele>499.5</ele>
        <time>2020-10-22T08:24:43Z</time>
      </trkpt>
      <trkpt lat="43.00742" lon="0.76654">
        <ele>499.3500061</ele>
        <time>2020-10-22T08:24:45Z</time>
      </trkpt>
      <trkpt lat="43.00736" lon="0.76644">
        <ele>499.57998657</ele>
        <time>2020-10-22T08:24:47Z</time>
      </trkpt>
      <trkpt lat="43.00731" lon="0.76636">
        <ele>499.61999512</ele>
        <time>2020-10-22T08:24:49Z</time>
      </trkpt>
      <trkpt lat="43.00729" lon="0.76632">
        <ele>499.58999634</ele>
        <time>2020-10-22T08:24:50Z</time>
      </trkpt>
      <trkpt lat="43.00726" lon="0.76629">
        <ele>498.23001099</ele>
        <time>2020-10-22T08:24:51Z</time>
      </trkpt>
      <trkpt lat="43.00724" lon="0.76628">
        <ele>498.58999634</ele>
        <time>2020-10-22T08:24:52Z</time>
      </trkpt>
      <trkpt lat="43.00721" lon="0.76626">
        <ele>498.6000061</ele>
        <time>2020-10-22T08:24:53Z</time>
      </trkpt>
      <trkpt lat="43.00716" lon="0.76629">
        <ele>499.29000854</ele>
        <time>2020-10-22T08:24:55Z</time>
      </trkpt>
      <trkpt lat="43.00711" lon="0.76633">
        <ele>499.3999939</ele>
        <time>2020-10-22T08:24:56Z</time>
      </trkpt>
      <trkpt lat="43.00702" lon="0.76641">
        <ele>499.82998657</ele>
        <time>2020-10-22T08:24:58Z</time>
      </trkpt>
      <trkpt lat="43.00692" lon="0.76649">
        <ele>500.16000366</ele>
        <time>2020-10-22T08:25:00Z</time>
      </trkpt>
      <trkpt lat="43.00687" lon="0.76653">
        <ele>500.01998901</ele>
        <time>2020-10-22T08:25:01Z</time>
      </trkpt>
      <trkpt lat="43.00677" lon="0.76661">
        <ele>500.19000244</ele>
        <time>2020-10-22T08:25:03Z</time>
      </trkpt>
      <trkpt lat="43.00668" lon="0.76667">
        <ele>500.95001221</ele>
        <time>2020-10-22T08:25:05Z</time>
      </trkpt>
      <trkpt lat="43.00664" lon="0.76671">
        <ele>501.19000244</ele>
        <time>2020-10-22T08:25:06Z</time>
      </trkpt>
      <trkpt lat="43.00661" lon="0.76672">
        <ele>501.19000244</ele>
        <time>2020-10-22T08:25:07Z</time>
      </trkpt>
      <trkpt lat="43.00655" lon="0.76673">
        <ele>501.54998779</ele>
        <time>2020-10-22T08:25:09Z</time>
      </trkpt>
      <trkpt lat="43.00642" lon="0.76679">
        <ele>502.17001343</ele>
        <time>2020-10-22T08:25:11Z</time>
      </trkpt>
      <trkpt lat="43.00637" lon="0.76681">
        <ele>502.26998901</ele>
        <time>2020-10-22T08:25:12Z</time>
      </trkpt>
      <trkpt lat="43.00632" lon="0.76683">
        <ele>502.42001343</ele>
        <time>2020-10-22T08:25:13Z</time>
      </trkpt>
      <trkpt lat="43.00625" lon="0.76686">
        <ele>502.52999878</ele>
        <time>2020-10-22T08:25:15Z</time>
      </trkpt>
      <trkpt lat="43.00619" lon="0.76688">
        <ele>502.48999023</ele>
        <time>2020-10-22T08:25:16Z</time>
      </trkpt>
      <trkpt lat="43.00615" lon="0.76689">
        <ele>502.98999023</ele>
        <time>2020-10-22T08:25:17Z</time>
      </trkpt>
      <trkpt lat="43.0061" lon="0.76691">
        <ele>503.16000366</ele>
        <time>2020-10-22T08:25:18Z</time>
      </trkpt>
      <trkpt lat="43.00604" lon="0.76692">
        <ele>503.51000977</ele>
        <time>2020-10-22T08:25:19Z</time>
      </trkpt>
      <trkpt lat="43.00599" lon="0.76693">
        <ele>503.73999023</ele>
        <time>2020-10-22T08:25:20Z</time>
      </trkpt>
      <trkpt lat="43.00593" lon="0.76693">
        <ele>504.30999756</ele>
        <time>2020-10-22T08:25:22Z</time>
      </trkpt>
      <trkpt lat="43.00586" lon="0.76692">
        <ele>504.79000854</ele>
        <time>2020-10-22T08:25:23Z</time>
      </trkpt>
      <trkpt lat="43.00581" lon="0.76691">
        <ele>505.07000732</ele>
        <time>2020-10-22T08:25:25Z</time>
      </trkpt>
      <trkpt lat="43.00575" lon="0.7669">
        <ele>506.42001343</ele>
        <time>2020-10-22T08:25:26Z</time>
      </trkpt>
      <trkpt lat="43.0057" lon="0.7669">
        <ele>506.61999512</ele>
        <time>2020-10-22T08:25:27Z</time>
      </trkpt>
      <trkpt lat="43.00567" lon="0.76688">
        <ele>506.61999512</ele>
        <time>2020-10-22T08:25:28Z</time>
      </trkpt>
      <trkpt lat="43.0056" lon="0.76686">
        <ele>506.92999268</ele>
        <time>2020-10-22T08:25:29Z</time>
      </trkpt>
      <trkpt lat="43.00555" lon="0.76684">
        <ele>506.91000366</ele>
        <time>2020-10-22T08:25:31Z</time>
      </trkpt>
      <trkpt lat="43.00549" lon="0.76681">
        <ele>507.04998779</ele>
        <time>2020-10-22T08:25:32Z</time>
      </trkpt>
      <trkpt lat="43.00544" lon="0.7668">
        <ele>507.23999023</ele>
        <time>2020-10-22T08:25:33Z</time>
      </trkpt>
      <trkpt lat="43.00541" lon="0.76678">
        <ele>507.32000732</ele>
        <time>2020-10-22T08:25:34Z</time>
      </trkpt>
      <trkpt lat="43.00532" lon="0.76671">
        <ele>507.82000732</ele>
        <time>2020-10-22T08:25:36Z</time>
      </trkpt>
      <trkpt lat="43.00524" lon="0.76665">
        <ele>508.61999512</ele>
        <time>2020-10-22T08:25:38Z</time>
      </trkpt>
      <trkpt lat="43.00521" lon="0.76662">
        <ele>508.98999023</ele>
        <time>2020-10-22T08:25:39Z</time>
      </trkpt>
      <trkpt lat="43.00515" lon="0.76658">
        <ele>508.98999023</ele>
        <time>2020-10-22T08:25:40Z</time>
      </trkpt>
      <trkpt lat="43.00509" lon="0.76655">
        <ele>509.26998901</ele>
        <time>2020-10-22T08:25:42Z</time>
      </trkpt>
      <trkpt lat="43.00505" lon="0.76652">
        <ele>509.26000977</ele>
        <time>2020-10-22T08:25:43Z</time>
      </trkpt>
      <trkpt lat="43.00498" lon="0.76649">
        <ele>509.6499939</ele>
        <time>2020-10-22T08:25:44Z</time>
      </trkpt>
      <trkpt lat="43.00492" lon="0.76647">
        <ele>510.25</ele>
        <time>2020-10-22T08:25:46Z</time>
      </trkpt>
      <trkpt lat="43.00486" lon="0.76641">
        <ele>510.51000977</ele>
        <time>2020-10-22T08:25:48Z</time>
      </trkpt>
      <trkpt lat="43.00481" lon="0.7664">
        <ele>510.45999146</ele>
        <time>2020-10-22T08:25:49Z</time>
      </trkpt>
      <trkpt lat="43.00473" lon="0.76637">
        <ele>510.04998779</ele>
        <time>2020-10-22T08:25:51Z</time>
      </trkpt>
      <trkpt lat="43.0047" lon="0.76636">
        <ele>510.04998779</ele>
        <time>2020-10-22T08:25:52Z</time>
      </trkpt>
      <trkpt lat="43.00463" lon="0.76637">
        <ele>510.73999023</ele>
        <time>2020-10-22T08:25:53Z</time>
      </trkpt>
      <trkpt lat="43.00458" lon="0.76637">
        <ele>510.76998901</ele>
        <time>2020-10-22T08:25:55Z</time>
      </trkpt>
      <trkpt lat="43.00454" lon="0.76636">
        <ele>510.80999756</ele>
        <time>2020-10-22T08:25:56Z</time>
      </trkpt>
      <trkpt lat="43.00449" lon="0.76636">
        <ele>510.80999756</ele>
        <time>2020-10-22T08:25:57Z</time>
      </trkpt>
      <trkpt lat="43.00439" lon="0.76641">
        <ele>510.89001465</ele>
        <time>2020-10-22T08:25:59Z</time>
      </trkpt>
      <trkpt lat="43.00434" lon="0.76643">
        <ele>511.23999023</ele>
        <time>2020-10-22T08:26:00Z</time>
      </trkpt>
      <trkpt lat="43.00428" lon="0.76642">
        <ele>511.3500061</ele>
        <time>2020-10-22T08:26:01Z</time>
      </trkpt>
      <trkpt lat="43.00424" lon="0.76642">
        <ele>511.35998535</ele>
        <time>2020-10-22T08:26:02Z</time>
      </trkpt>
      <trkpt lat="43.00415" lon="0.7664">
        <ele>511.67999268</ele>
        <time>2020-10-22T08:26:04Z</time>
      </trkpt>
      <trkpt lat="43.0041" lon="0.76639">
        <ele>511.98001099</ele>
        <time>2020-10-22T08:26:05Z</time>
      </trkpt>
      <trkpt lat="43.00409" lon="0.76636">
        <ele>511.95001221</ele>
        <time>2020-10-22T08:26:07Z</time>
      </trkpt>
      <trkpt lat="43.00405" lon="0.76635">
        <ele>511.70001221</ele>
        <time>2020-10-22T08:26:08Z</time>
      </trkpt>
      <trkpt lat="43.00401" lon="0.76632">
        <ele>511.77999878</ele>
        <time>2020-10-22T08:26:09Z</time>
      </trkpt>
      <trkpt lat="43.00395" lon="0.76629">
        <ele>512.60998535</ele>
        <time>2020-10-22T08:26:10Z</time>
      </trkpt>
      <trkpt lat="43.00391" lon="0.76626">
        <ele>512.40997314</ele>
        <time>2020-10-22T08:26:12Z</time>
      </trkpt>
      <trkpt lat="43.00388" lon="0.76623">
        <ele>512.42999268</ele>
        <time>2020-10-22T08:26:13Z</time>
      </trkpt>
      <trkpt lat="43.00384" lon="0.76621">
        <ele>512.47998047</ele>
        <time>2020-10-22T08:26:14Z</time>
      </trkpt>
      <trkpt lat="43.00381" lon="0.76619">
        <ele>512.34002686</ele>
        <time>2020-10-22T08:26:16Z</time>
      </trkpt>
      <trkpt lat="43.00378" lon="0.76618">
        <ele>512.45001221</ele>
        <time>2020-10-22T08:26:17Z</time>
      </trkpt>
      <trkpt lat="43.00373" lon="0.76616">
        <ele>513.17999268</ele>
        <time>2020-10-22T08:26:18Z</time>
      </trkpt>
      <trkpt lat="43.00369" lon="0.76616">
        <ele>513.80999756</ele>
        <time>2020-10-22T08:26:19Z</time>
      </trkpt>
      <trkpt lat="43.00363" lon="0.76615">
        <ele>514.26000977</ele>
        <time>2020-10-22T08:26:21Z</time>
      </trkpt>
      <trkpt lat="43.00356" lon="0.76617">
        <ele>514.61999512</ele>
        <time>2020-10-22T08:26:22Z</time>
      </trkpt>
      <trkpt lat="43.00351" lon="0.76616">
        <ele>514.90002441</ele>
        <time>2020-10-22T08:26:24Z</time>
      </trkpt>
      <trkpt lat="43.00348" lon="0.76612">
        <ele>515.32000732</ele>
        <time>2020-10-22T08:26:25Z</time>
      </trkpt>
      <trkpt lat="43.00348" lon="0.76608">
        <ele>515.44000244</ele>
        <time>2020-10-22T08:26:26Z</time>
      </trkpt>
      <trkpt lat="43.0035" lon="0.76604">
        <ele>515.28997803</ele>
        <time>2020-10-22T08:26:28Z</time>
      </trkpt>
      <trkpt lat="43.00353" lon="0.76598">
        <ele>515.39001465</ele>
        <time>2020-10-22T08:26:29Z</time>
      </trkpt>
      <trkpt lat="43.00355" lon="0.76593">
        <ele>515.16998291</ele>
        <time>2020-10-22T08:26:31Z</time>
      </trkpt>
      <trkpt lat="43.00358" lon="0.76584">
        <ele>515.77001953</ele>
        <time>2020-10-22T08:26:32Z</time>
      </trkpt>
      <trkpt lat="43.0036" lon="0.76578">
        <ele>516.0300293</ele>
        <time>2020-10-22T08:26:33Z</time>
      </trkpt>
      <trkpt lat="43.00363" lon="0.7657">
        <ele>516.26000977</ele>
        <time>2020-10-22T08:26:35Z</time>
      </trkpt>
      <trkpt lat="43.00365" lon="0.76564">
        <ele>515.92999268</ele>
        <time>2020-10-22T08:26:36Z</time>
      </trkpt>
      <trkpt lat="43.00367" lon="0.76559">
        <ele>515.92999268</ele>
        <time>2020-10-22T08:26:37Z</time>
      </trkpt>
      <trkpt lat="43.00371" lon="0.76553">
        <ele>516.69000244</ele>
        <time>2020-10-22T08:26:38Z</time>
      </trkpt>
      <trkpt lat="43.00374" lon="0.76545">
        <ele>517.19000244</ele>
        <time>2020-10-22T08:26:39Z</time>
      </trkpt>
      <trkpt lat="43.00377" lon="0.76538">
        <ele>517.59002686</ele>
        <time>2020-10-22T08:26:41Z</time>
      </trkpt>
      <trkpt lat="43.00381" lon="0.7653">
        <ele>517.91998291</ele>
        <time>2020-10-22T08:26:42Z</time>
      </trkpt>
      <trkpt lat="43.00384" lon="0.76525">
        <ele>518.15002441</ele>
        <time>2020-10-22T08:26:43Z</time>
      </trkpt>
      <trkpt lat="43.00388" lon="0.76519">
        <ele>518.75</ele>
        <time>2020-10-22T08:26:45Z</time>
      </trkpt>
      <trkpt lat="43.00391" lon="0.76515">
        <ele>518.75</ele>
        <time>2020-10-22T08:26:46Z</time>
      </trkpt>
      <trkpt lat="43.00396" lon="0.76507">
        <ele>519.34997559</ele>
        <time>2020-10-22T08:26:48Z</time>
      </trkpt>
      <trkpt lat="43.00398" lon="0.76502">
        <ele>519.5</ele>
        <time>2020-10-22T08:26:49Z</time>
      </trkpt>
      <trkpt lat="43.00403" lon="0.76495">
        <ele>519.63000488</ele>
        <time>2020-10-22T08:26:50Z</time>
      </trkpt>
      <trkpt lat="43.00405" lon="0.76488">
        <ele>519.66998291</ele>
        <time>2020-10-22T08:26:52Z</time>
      </trkpt>
      <trkpt lat="43.00409" lon="0.76477">
        <ele>519.7800293</ele>
        <time>2020-10-22T08:26:54Z</time>
      </trkpt>
      <trkpt lat="43.00411" lon="0.76468">
        <ele>518.90002441</ele>
        <time>2020-10-22T08:26:55Z</time>
      </trkpt>
      <trkpt lat="43.00415" lon="0.76461">
        <ele>518.84997559</ele>
        <time>2020-10-22T08:26:56Z</time>
      </trkpt>
      <trkpt lat="43.0042" lon="0.76453">
        <ele>518.5300293</ele>
        <time>2020-10-22T08:26:57Z</time>
      </trkpt>
      <trkpt lat="43.0043" lon="0.76439">
        <ele>517.88000488</ele>
        <time>2020-10-22T08:26:59Z</time>
      </trkpt>
      <trkpt lat="43.00441" lon="0.76426">
        <ele>516.77001953</ele>
        <time>2020-10-22T08:27:01Z</time>
      </trkpt>
      <trkpt lat="43.00447" lon="0.76419">
        <ele>516.58001709</ele>
        <time>2020-10-22T08:27:02Z</time>
      </trkpt>
      <trkpt lat="43.00458" lon="0.76406">
        <ele>515.67999268</ele>
        <time>2020-10-22T08:27:04Z</time>
      </trkpt>
      <trkpt lat="43.00471" lon="0.76388">
        <ele>514.45001221</ele>
        <time>2020-10-22T08:27:06Z</time>
      </trkpt>
      <trkpt lat="43.00488" lon="0.7637">
        <ele>512.78997803</ele>
        <time>2020-10-22T08:27:08Z</time>
      </trkpt>
      <trkpt lat="43.00497" lon="0.76361">
        <ele>511.29998779</ele>
        <time>2020-10-22T08:27:09Z</time>
      </trkpt>
      <trkpt lat="43.00515" lon="0.76343">
        <ele>509.92999268</ele>
        <time>2020-10-22T08:27:11Z</time>
      </trkpt>
      <trkpt lat="43.00531" lon="0.76323">
        <ele>509.19000244</ele>
        <time>2020-10-22T08:27:13Z</time>
      </trkpt>
      <trkpt lat="43.00539" lon="0.763">
        <ele>508.6000061</ele>
        <time>2020-10-22T08:27:15Z</time>
      </trkpt>
      <trkpt lat="43.00543" lon="0.76284">
        <ele>507.51000977</ele>
        <time>2020-10-22T08:27:17Z</time>
      </trkpt>
      <trkpt lat="43.00547" lon="0.76278">
        <ele>506.95001221</ele>
        <time>2020-10-22T08:27:19Z</time>
      </trkpt>
      <trkpt lat="43.00554" lon="0.76275">
        <ele>506.14001465</ele>
        <time>2020-10-22T08:27:21Z</time>
      </trkpt>
      <trkpt lat="43.00562" lon="0.76276">
        <ele>505.47000122</ele>
        <time>2020-10-22T08:27:23Z</time>
      </trkpt>
      <trkpt lat="43.00566" lon="0.76276">
        <ele>504.69000244</ele>
        <time>2020-10-22T08:27:24Z</time>
      </trkpt>
      <trkpt lat="43.00571" lon="0.76276">
        <ele>504.77999878</ele>
        <time>2020-10-22T08:27:25Z</time>
      </trkpt>
      <trkpt lat="43.00583" lon="0.76275">
        <ele>503.98999023</ele>
        <time>2020-10-22T08:27:27Z</time>
      </trkpt>
      <trkpt lat="43.00597" lon="0.76268">
        <ele>502.95001221</ele>
        <time>2020-10-22T08:27:29Z</time>
      </trkpt>
      <trkpt lat="43.00604" lon="0.76263">
        <ele>503.04000854</ele>
        <time>2020-10-22T08:27:30Z</time>
      </trkpt>
      <trkpt lat="43.00611" lon="0.76256">
        <ele>502.54000854</ele>
        <time>2020-10-22T08:27:31Z</time>
      </trkpt>
      <trkpt lat="43.00618" lon="0.76249">
        <ele>502.57998657</ele>
        <time>2020-10-22T08:27:32Z</time>
      </trkpt>
      <trkpt lat="43.00631" lon="0.76231">
        <ele>501.54000854</ele>
        <time>2020-10-22T08:27:34Z</time>
      </trkpt>
      <trkpt lat="43.00643" lon="0.7621">
        <ele>501.42001343</ele>
        <time>2020-10-22T08:27:36Z</time>
      </trkpt>
      <trkpt lat="43.00654" lon="0.76187">
        <ele>500.51000977</ele>
        <time>2020-10-22T08:27:38Z</time>
      </trkpt>
      <trkpt lat="43.00665" lon="0.76164">
        <ele>499.8999939</ele>
        <time>2020-10-22T08:27:40Z</time>
      </trkpt>
      <trkpt lat="43.00669" lon="0.76153">
        <ele>499.1000061</ele>
        <time>2020-10-22T08:27:41Z</time>
      </trkpt>
      <trkpt lat="43.00674" lon="0.7613">
        <ele>498.77999878</ele>
        <time>2020-10-22T08:27:43Z</time>
      </trkpt>
      <trkpt lat="43.00679" lon="0.76108">
        <ele>497.79998779</ele>
        <time>2020-10-22T08:27:45Z</time>
      </trkpt>
      <trkpt lat="43.00681" lon="0.76097">
        <ele>497.75</ele>
        <time>2020-10-22T08:27:46Z</time>
      </trkpt>
      <trkpt lat="43.00684" lon="0.76076">
        <ele>497.73999023</ele>
        <time>2020-10-22T08:27:48Z</time>
      </trkpt>
      <trkpt lat="43.00685" lon="0.76066">
        <ele>497.77999878</ele>
        <time>2020-10-22T08:27:49Z</time>
      </trkpt>
      <trkpt lat="43.00686" lon="0.76055">
        <ele>497.70999146</ele>
        <time>2020-10-22T08:27:50Z</time>
      </trkpt>
      <trkpt lat="43.00688" lon="0.76036">
        <ele>497.6000061</ele>
        <time>2020-10-22T08:27:52Z</time>
      </trkpt>
      <trkpt lat="43.0069" lon="0.76026">
        <ele>497.45999146</ele>
        <time>2020-10-22T08:27:53Z</time>
      </trkpt>
      <trkpt lat="43.00692" lon="0.76016">
        <ele>497.3500061</ele>
        <time>2020-10-22T08:27:54Z</time>
      </trkpt>
      <trkpt lat="43.00696" lon="0.75998">
        <ele>497.05999756</ele>
        <time>2020-10-22T08:27:56Z</time>
      </trkpt>
      <trkpt lat="43.00699" lon="0.75989">
        <ele>496.98999023</ele>
        <time>2020-10-22T08:27:57Z</time>
      </trkpt>
      <trkpt lat="43.00706" lon="0.75974">
        <ele>496.98999023</ele>
        <time>2020-10-22T08:27:59Z</time>
      </trkpt>
      <trkpt lat="43.0071" lon="0.75966">
        <ele>497.01998901</ele>
        <time>2020-10-22T08:28:00Z</time>
      </trkpt>
      <trkpt lat="43.00714" lon="0.75959">
        <ele>497.02999878</ele>
        <time>2020-10-22T08:28:01Z</time>
      </trkpt>
      <trkpt lat="43.00723" lon="0.75945">
        <ele>496.94000244</ele>
        <time>2020-10-22T08:28:03Z</time>
      </trkpt>
      <trkpt lat="43.00731" lon="0.75932">
        <ele>496.92999268</ele>
        <time>2020-10-22T08:28:05Z</time>
      </trkpt>
      <trkpt lat="43.00735" lon="0.75925">
        <ele>496.76000977</ele>
        <time>2020-10-22T08:28:06Z</time>
      </trkpt>
      <trkpt lat="43.00744" lon="0.75912">
        <ele>496.60998535</ele>
        <time>2020-10-22T08:28:08Z</time>
      </trkpt>
      <trkpt lat="43.00748" lon="0.75905">
        <ele>496.45001221</ele>
        <time>2020-10-22T08:28:09Z</time>
      </trkpt>
      <trkpt lat="43.00758" lon="0.75893">
        <ele>496.02999878</ele>
        <time>2020-10-22T08:28:11Z</time>
      </trkpt>
      <trkpt lat="43.00768" lon="0.75881">
        <ele>495.6499939</ele>
        <time>2020-10-22T08:28:13Z</time>
      </trkpt>
      <trkpt lat="43.00778" lon="0.75869">
        <ele>495</ele>
        <time>2020-10-22T08:28:15Z</time>
      </trkpt>
      <trkpt lat="43.00783" lon="0.75862">
        <ele>494.73001099</ele>
        <time>2020-10-22T08:28:16Z</time>
      </trkpt>
      <trkpt lat="43.00789" lon="0.75855">
        <ele>494.60998535</ele>
        <time>2020-10-22T08:28:17Z</time>
      </trkpt>
      <trkpt lat="43.008" lon="0.7584">
        <ele>493.92999268</ele>
        <time>2020-10-22T08:28:19Z</time>
      </trkpt>
      <trkpt lat="43.0081" lon="0.75825">
        <ele>492.67001343</ele>
        <time>2020-10-22T08:28:21Z</time>
      </trkpt>
      <trkpt lat="43.00821" lon="0.75808">
        <ele>492.01998901</ele>
        <time>2020-10-22T08:28:23Z</time>
      </trkpt>
      <trkpt lat="43.00831" lon="0.75791">
        <ele>491.58999634</ele>
        <time>2020-10-22T08:28:25Z</time>
      </trkpt>
      <trkpt lat="43.00842" lon="0.75776">
        <ele>491.20001221</ele>
        <time>2020-10-22T08:28:27Z</time>
      </trkpt>
      <trkpt lat="43.00855" lon="0.75765">
        <ele>490.16000366</ele>
        <time>2020-10-22T08:28:29Z</time>
      </trkpt>
      <trkpt lat="43.00868" lon="0.75756">
        <ele>488.82998657</ele>
        <time>2020-10-22T08:28:31Z</time>
      </trkpt>
      <trkpt lat="43.00879" lon="0.75741">
        <ele>487.77999878</ele>
        <time>2020-10-22T08:28:33Z</time>
      </trkpt>
      <trkpt lat="43.00887" lon="0.75724">
        <ele>487.02999878</ele>
        <time>2020-10-22T08:28:35Z</time>
      </trkpt>
      <trkpt lat="43.00892" lon="0.75715">
        <ele>486.89001465</ele>
        <time>2020-10-22T08:28:36Z</time>
      </trkpt>
      <trkpt lat="43.00897" lon="0.75708">
        <ele>486.55999756</ele>
        <time>2020-10-22T08:28:37Z</time>
      </trkpt>
      <trkpt lat="43.0091" lon="0.75701">
        <ele>486.05999756</ele>
        <time>2020-10-22T08:28:39Z</time>
      </trkpt>
      <trkpt lat="43.00917" lon="0.75703">
        <ele>486.13000488</ele>
        <time>2020-10-22T08:28:40Z</time>
      </trkpt>
      <trkpt lat="43.00924" lon="0.75707">
        <ele>486.13000488</ele>
        <time>2020-10-22T08:28:41Z</time>
      </trkpt>
      <trkpt lat="43.00937" lon="0.75717">
        <ele>485.82998657</ele>
        <time>2020-10-22T08:28:43Z</time>
      </trkpt>
      <trkpt lat="43.00944" lon="0.75721">
        <ele>485.51998901</ele>
        <time>2020-10-22T08:28:44Z</time>
      </trkpt>
      <trkpt lat="43.00951" lon="0.75725">
        <ele>485.48999023</ele>
        <time>2020-10-22T08:28:45Z</time>
      </trkpt>
      <trkpt lat="43.00965" lon="0.7572">
        <ele>484.70999146</ele>
        <time>2020-10-22T08:28:47Z</time>
      </trkpt>
      <trkpt lat="43.00972" lon="0.75714">
        <ele>484.29998779</ele>
        <time>2020-10-22T08:28:48Z</time>
      </trkpt>
      <trkpt lat="43.00981" lon="0.75694">
        <ele>483.11999512</ele>
        <time>2020-10-22T08:28:50Z</time>
      </trkpt>
      <trkpt lat="43.00988" lon="0.7567">
        <ele>481.45999146</ele>
        <time>2020-10-22T08:28:52Z</time>
      </trkpt>
      <trkpt lat="43.00991" lon="0.75657">
        <ele>480.72000122</ele>
        <time>2020-10-22T08:28:53Z</time>
      </trkpt>
      <trkpt lat="43.00996" lon="0.7563">
        <ele>479.67001343</ele>
        <time>2020-10-22T08:28:55Z</time>
      </trkpt>
      <trkpt lat="43.00999" lon="0.75616">
        <ele>479.19000244</ele>
        <time>2020-10-22T08:28:56Z</time>
      </trkpt>
      <trkpt lat="43.01004" lon="0.75588">
        <ele>477.54000854</ele>
        <time>2020-10-22T08:28:58Z</time>
      </trkpt>
      <trkpt lat="43.01013" lon="0.75563">
        <ele>476.38000488</ele>
        <time>2020-10-22T08:29:00Z</time>
      </trkpt>
      <trkpt lat="43.01027" lon="0.75542">
        <ele>475.45001221</ele>
        <time>2020-10-22T08:29:02Z</time>
      </trkpt>
      <trkpt lat="43.01035" lon="0.75535">
        <ele>475.8999939</ele>
        <time>2020-10-22T08:29:03Z</time>
      </trkpt>
      <trkpt lat="43.01053" lon="0.75529">
        <ele>475.17001343</ele>
        <time>2020-10-22T08:29:05Z</time>
      </trkpt>
      <trkpt lat="43.01062" lon="0.75533">
        <ele>474.70001221</ele>
        <time>2020-10-22T08:29:06Z</time>
      </trkpt>
      <trkpt lat="43.01071" lon="0.75538">
        <ele>474.5</ele>
        <time>2020-10-22T08:29:07Z</time>
      </trkpt>
      <trkpt lat="43.0108" lon="0.75544">
        <ele>474.27999878</ele>
        <time>2020-10-22T08:29:08Z</time>
      </trkpt>
      <trkpt lat="43.01096" lon="0.75555">
        <ele>473.76000977</ele>
        <time>2020-10-22T08:29:10Z</time>
      </trkpt>
      <trkpt lat="43.01111" lon="0.75564">
        <ele>473.86999512</ele>
        <time>2020-10-22T08:29:12Z</time>
      </trkpt>
      <trkpt lat="43.01119" lon="0.75569">
        <ele>473.72000122</ele>
        <time>2020-10-22T08:29:13Z</time>
      </trkpt>
      <trkpt lat="43.01125" lon="0.75573">
        <ele>473.88000488</ele>
        <time>2020-10-22T08:29:14Z</time>
      </trkpt>
      <trkpt lat="43.0114" lon="0.75578">
        <ele>472.51000977</ele>
        <time>2020-10-22T08:29:16Z</time>
      </trkpt>
      <trkpt lat="43.01155" lon="0.75578">
        <ele>472.39001465</ele>
        <time>2020-10-22T08:29:18Z</time>
      </trkpt>
      <trkpt lat="43.01168" lon="0.75573">
        <ele>472.22000122</ele>
        <time>2020-10-22T08:29:20Z</time>
      </trkpt>
      <trkpt lat="43.01181" lon="0.75565">
        <ele>471.76000977</ele>
        <time>2020-10-22T08:29:22Z</time>
      </trkpt>
      <trkpt lat="43.01192" lon="0.75555">
        <ele>471.73999023</ele>
        <time>2020-10-22T08:29:24Z</time>
      </trkpt>
      <trkpt lat="43.01197" lon="0.75548">
        <ele>471.54000854</ele>
        <time>2020-10-22T08:29:25Z</time>
      </trkpt>
      <trkpt lat="43.01205" lon="0.75532">
        <ele>471.14001465</ele>
        <time>2020-10-22T08:29:27Z</time>
      </trkpt>
      <trkpt lat="43.01213" lon="0.75516">
        <ele>470.75</ele>
        <time>2020-10-22T08:29:29Z</time>
      </trkpt>
      <trkpt lat="43.01218" lon="0.75509">
        <ele>470.35998535</ele>
        <time>2020-10-22T08:29:30Z</time>
      </trkpt>
      <trkpt lat="43.01228" lon="0.75494">
        <ele>469.91000366</ele>
        <time>2020-10-22T08:29:32Z</time>
      </trkpt>
      <trkpt lat="43.01233" lon="0.75487">
        <ele>470.11999512</ele>
        <time>2020-10-22T08:29:33Z</time>
      </trkpt>
      <trkpt lat="43.01245" lon="0.75474">
        <ele>469.92001343</ele>
        <time>2020-10-22T08:29:35Z</time>
      </trkpt>
      <trkpt lat="43.01253" lon="0.75472">
        <ele>469.85998535</ele>
        <time>2020-10-22T08:29:36Z</time>
      </trkpt>
      <trkpt lat="43.01268" lon="0.75469">
        <ele>469.76998901</ele>
        <time>2020-10-22T08:29:38Z</time>
      </trkpt>
      <trkpt lat="43.01276" lon="0.75467">
        <ele>469.57998657</ele>
        <time>2020-10-22T08:29:39Z</time>
      </trkpt>
      <trkpt lat="43.01291" lon="0.75466">
        <ele>469.57998657</ele>
        <time>2020-10-22T08:29:41Z</time>
      </trkpt>
      <trkpt lat="43.01298" lon="0.75466">
        <ele>469.45999146</ele>
        <time>2020-10-22T08:29:42Z</time>
      </trkpt>
      <trkpt lat="43.01312" lon="0.7547">
        <ele>468.82000732</ele>
        <time>2020-10-22T08:29:44Z</time>
      </trkpt>
      <trkpt lat="43.01319" lon="0.75473">
        <ele>468.61999512</ele>
        <time>2020-10-22T08:29:45Z</time>
      </trkpt>
      <trkpt lat="43.01332" lon="0.75479">
        <ele>468.3999939</ele>
        <time>2020-10-22T08:29:47Z</time>
      </trkpt>
      <trkpt lat="43.01345" lon="0.75485">
        <ele>468.70999146</ele>
        <time>2020-10-22T08:29:49Z</time>
      </trkpt>
      <trkpt lat="43.01357" lon="0.7549">
        <ele>468.35998535</ele>
        <time>2020-10-22T08:29:51Z</time>
      </trkpt>
      <trkpt lat="43.01363" lon="0.75492">
        <ele>468.08999634</ele>
        <time>2020-10-22T08:29:52Z</time>
      </trkpt>
      <trkpt lat="43.0137" lon="0.75495">
        <ele>468</ele>
        <time>2020-10-22T08:29:53Z</time>
      </trkpt>
      <trkpt lat="43.01382" lon="0.75499">
        <ele>467.86999512</ele>
        <time>2020-10-22T08:29:55Z</time>
      </trkpt>
      <trkpt lat="43.01395" lon="0.75504">
        <ele>467.39001465</ele>
        <time>2020-10-22T08:29:57Z</time>
      </trkpt>
      <trkpt lat="43.01407" lon="0.75508">
        <ele>467.20001221</ele>
        <time>2020-10-22T08:29:59Z</time>
      </trkpt>
      <trkpt lat="43.01413" lon="0.75509">
        <ele>466.97000122</ele>
        <time>2020-10-22T08:30:00Z</time>
      </trkpt>
      <trkpt lat="43.0142" lon="0.75509">
        <ele>466.79998779</ele>
        <time>2020-10-22T08:30:01Z</time>
      </trkpt>
      <trkpt lat="43.01426" lon="0.7551">
        <ele>466.80999756</ele>
        <time>2020-10-22T08:30:02Z</time>
      </trkpt>
      <trkpt lat="43.01438" lon="0.75509">
        <ele>466.92999268</ele>
        <time>2020-10-22T08:30:04Z</time>
      </trkpt>
      <trkpt lat="43.0145" lon="0.75508">
        <ele>467.04000854</ele>
        <time>2020-10-22T08:30:06Z</time>
      </trkpt>
      <trkpt lat="43.01462" lon="0.75506">
        <ele>466.89001465</ele>
        <time>2020-10-22T08:30:08Z</time>
      </trkpt>
      <trkpt lat="43.01468" lon="0.75504">
        <ele>466.19000244</ele>
        <time>2020-10-22T08:30:09Z</time>
      </trkpt>
      <trkpt lat="43.01474" lon="0.75503">
        <ele>466.20001221</ele>
        <time>2020-10-22T08:30:10Z</time>
      </trkpt>
      <trkpt lat="43.01486" lon="0.75501">
        <ele>466.14001465</ele>
        <time>2020-10-22T08:30:12Z</time>
      </trkpt>
      <trkpt lat="43.01499" lon="0.75498">
        <ele>466.16000366</ele>
        <time>2020-10-22T08:30:14Z</time>
      </trkpt>
      <trkpt lat="43.01505" lon="0.75495">
        <ele>466.10998535</ele>
        <time>2020-10-22T08:30:15Z</time>
      </trkpt>
      <trkpt lat="43.01511" lon="0.75492">
        <ele>466.08999634</ele>
        <time>2020-10-22T08:30:16Z</time>
      </trkpt>
      <trkpt lat="43.01522" lon="0.75484">
        <ele>466.16000366</ele>
        <time>2020-10-22T08:30:18Z</time>
      </trkpt>
      <trkpt lat="43.01533" lon="0.75475">
        <ele>465.80999756</ele>
        <time>2020-10-22T08:30:20Z</time>
      </trkpt>
      <trkpt lat="43.01542" lon="0.75466">
        <ele>465.51998901</ele>
        <time>2020-10-22T08:30:22Z</time>
      </trkpt>
      <trkpt lat="43.01546" lon="0.75464">
        <ele>465.45001221</ele>
        <time>2020-10-22T08:30:24Z</time>
      </trkpt>
      <trkpt lat="43.01549" lon="0.75473">
        <ele>465.07998657</ele>
        <time>2020-10-22T08:30:26Z</time>
      </trkpt>
      <trkpt lat="43.0155" lon="0.75482">
        <ele>465.19000244</ele>
        <time>2020-10-22T08:30:27Z</time>
      </trkpt>
      <trkpt lat="43.01553" lon="0.75497">
        <ele>465.3999939</ele>
        <time>2020-10-22T08:30:29Z</time>
      </trkpt>
      <trkpt lat="43.01554" lon="0.75506">
        <ele>465.42001343</ele>
        <time>2020-10-22T08:30:30Z</time>
      </trkpt>
      <trkpt lat="43.01555" lon="0.7552">
        <ele>465.39001465</ele>
        <time>2020-10-22T08:30:32Z</time>
      </trkpt>
      <trkpt lat="43.01555" lon="0.75528">
        <ele>465.69000244</ele>
        <time>2020-10-22T08:30:33Z</time>
      </trkpt>
      <trkpt lat="43.01556" lon="0.75542">
        <ele>466.27999878</ele>
        <time>2020-10-22T08:30:35Z</time>
      </trkpt>
      <trkpt lat="43.01557" lon="0.75554">
        <ele>466.05999756</ele>
        <time>2020-10-22T08:30:37Z</time>
      </trkpt>
      <trkpt lat="43.0156" lon="0.75559">
        <ele>466.23999023</ele>
        <time>2020-10-22T08:30:38Z</time>
      </trkpt>
      <trkpt lat="43.01569" lon="0.75563">
        <ele>466.1499939</ele>
        <time>2020-10-22T08:30:40Z</time>
      </trkpt>
      <trkpt lat="43.0158" lon="0.75565">
        <ele>466.1499939</ele>
        <time>2020-10-22T08:30:42Z</time>
      </trkpt>
      <trkpt lat="43.01586" lon="0.75565">
        <ele>466.11999512</ele>
        <time>2020-10-22T08:30:43Z</time>
      </trkpt>
      <trkpt lat="43.01592" lon="0.75565">
        <ele>466.25</ele>
        <time>2020-10-22T08:30:44Z</time>
      </trkpt>
      <trkpt lat="43.01598" lon="0.75565">
        <ele>466.42001343</ele>
        <time>2020-10-22T08:30:45Z</time>
      </trkpt>
      <trkpt lat="43.0161" lon="0.75566">
        <ele>466.19000244</ele>
        <time>2020-10-22T08:30:47Z</time>
      </trkpt>
      <trkpt lat="43.01623" lon="0.75567">
        <ele>465.75</ele>
        <time>2020-10-22T08:30:49Z</time>
      </trkpt>
      <trkpt lat="43.01635" lon="0.75568">
        <ele>465.83999634</ele>
        <time>2020-10-22T08:30:51Z</time>
      </trkpt>
      <trkpt lat="43.01645" lon="0.75569">
        <ele>465.45001221</ele>
        <time>2020-10-22T08:30:53Z</time>
      </trkpt>
      <trkpt lat="43.0165" lon="0.7557">
        <ele>465.3999939</ele>
        <time>2020-10-22T08:30:54Z</time>
      </trkpt>
      <trkpt lat="43.01661" lon="0.75573">
        <ele>465.07000732</ele>
        <time>2020-10-22T08:30:56Z</time>
      </trkpt>
      <trkpt lat="43.01671" lon="0.75576">
        <ele>464.86999512</ele>
        <time>2020-10-22T08:30:58Z</time>
      </trkpt>
      <trkpt lat="43.01681" lon="0.75578">
        <ele>465.14001465</ele>
        <time>2020-10-22T08:31:00Z</time>
      </trkpt>
      <trkpt lat="43.01687" lon="0.75579">
        <ele>465.48001099</ele>
        <time>2020-10-22T08:31:01Z</time>
      </trkpt>
      <trkpt lat="43.01697" lon="0.75582">
        <ele>465.19000244</ele>
        <time>2020-10-22T08:31:03Z</time>
      </trkpt>
      <trkpt lat="43.01708" lon="0.75588">
        <ele>465.35998535</ele>
        <time>2020-10-22T08:31:05Z</time>
      </trkpt>
      <trkpt lat="43.01718" lon="0.75598">
        <ele>465.60998535</ele>
        <time>2020-10-22T08:31:07Z</time>
      </trkpt>
      <trkpt lat="43.01722" lon="0.75604">
        <ele>465.85998535</ele>
        <time>2020-10-22T08:31:08Z</time>
      </trkpt>
      <trkpt lat="43.01732" lon="0.75613">
        <ele>466.23001099</ele>
        <time>2020-10-22T08:31:10Z</time>
      </trkpt>
      <trkpt lat="43.01737" lon="0.75616">
        <ele>466.51998901</ele>
        <time>2020-10-22T08:31:11Z</time>
      </trkpt>
      <trkpt lat="43.01742" lon="0.75618">
        <ele>466.5</ele>
        <time>2020-10-22T08:31:12Z</time>
      </trkpt>
      <trkpt lat="43.01748" lon="0.75619">
        <ele>466.8999939</ele>
        <time>2020-10-22T08:31:14Z</time>
      </trkpt>
      <trkpt lat="43.01755" lon="0.75619">
        <ele>466.98999023</ele>
        <time>2020-10-22T08:31:16Z</time>
      </trkpt>
      <trkpt lat="43.01758" lon="0.75618">
        <ele>467.41000366</ele>
        <time>2020-10-22T08:31:17Z</time>
      </trkpt>
      <trkpt lat="43.01762" lon="0.75618">
        <ele>467.3500061</ele>
        <time>2020-10-22T08:31:18Z</time>
      </trkpt>
      <trkpt lat="43.01762" lon="0.75616">
        <ele>471.70001221</ele>
        <time>2020-10-22T08:31:20Z</time>
      </trkpt>
      <trkpt lat="43.01771" lon="0.75614">
        <ele>471.70001221</ele>
        <time>2020-10-22T08:31:22Z</time>
      </trkpt>
      <trkpt lat="43.01779" lon="0.75613">
        <ele>471.70001221</ele>
        <time>2020-10-22T08:31:23Z</time>
      </trkpt>
      <trkpt lat="43.01785" lon="0.75613">
        <ele>471.70001221</ele>
        <time>2020-10-22T08:31:24Z</time>
      </trkpt>
      <trkpt lat="43.01793" lon="0.75615">
        <ele>471.70001221</ele>
        <time>2020-10-22T08:31:26Z</time>
      </trkpt>
      <trkpt lat="43.01799" lon="0.75617">
        <ele>471.70001221</ele>
        <time>2020-10-22T08:31:27Z</time>
      </trkpt>
      <trkpt lat="43.01804" lon="0.75621">
        <ele>471.70001221</ele>
        <time>2020-10-22T08:31:29Z</time>
      </trkpt>
      <trkpt lat="43.01809" lon="0.75625">
        <ele>471.70001221</ele>
        <time>2020-10-22T08:31:30Z</time>
      </trkpt>
      <trkpt lat="43.01815" lon="0.75631">
        <ele>471.70001221</ele>
        <time>2020-10-22T08:31:31Z</time>
      </trkpt>
      <trkpt lat="43.0182" lon="0.75637">
        <ele>471.70001221</ele>
        <time>2020-10-22T08:31:33Z</time>
      </trkpt>
      <trkpt lat="43.01824" lon="0.75642">
        <ele>471.70001221</ele>
        <time>2020-10-22T08:31:35Z</time>
      </trkpt>
      <trkpt lat="43.01827" lon="0.75646">
        <ele>471.70001221</ele>
        <time>2020-10-22T08:31:36Z</time>
      </trkpt>
      <trkpt lat="43.0183" lon="0.75654">
        <ele>471.70001221</ele>
        <time>2020-10-22T08:31:37Z</time>
      </trkpt>
      <trkpt lat="43.01832" lon="0.75659">
        <ele>471.70001221</ele>
        <time>2020-10-22T08:31:39Z</time>
      </trkpt>
      <trkpt lat="43.01834" lon="0.75665">
        <ele>471.70001221</ele>
        <time>2020-10-22T08:31:40Z</time>
      </trkpt>
      <trkpt lat="43.01835" lon="0.7567">
        <ele>471.70001221</ele>
        <time>2020-10-22T08:31:41Z</time>
      </trkpt>
      <trkpt lat="43.01836" lon="0.75676">
        <ele>471.70001221</ele>
        <time>2020-10-22T08:31:43Z</time>
      </trkpt>
      <trkpt lat="43.01837" lon="0.75681">
        <ele>471.70001221</ele>
        <time>2020-10-22T08:31:44Z</time>
      </trkpt>
      <trkpt lat="43.01837" lon="0.75686">
        <ele>471.70001221</ele>
        <time>2020-10-22T08:31:45Z</time>
      </trkpt>
      <trkpt lat="43.01839" lon="0.75696">
        <ele>471.70001221</ele>
        <time>2020-10-22T08:31:47Z</time>
      </trkpt>
      <trkpt lat="43.01842" lon="0.75708">
        <ele>471.70001221</ele>
        <time>2020-10-22T08:31:49Z</time>
      </trkpt>
      <trkpt lat="43.01843" lon="0.75717">
        <ele>471.70001221</ele>
        <time>2020-10-22T08:31:50Z</time>
      </trkpt>
      <trkpt lat="43.01844" lon="0.75729">
        <ele>471.70001221</ele>
        <time>2020-10-22T08:31:52Z</time>
      </trkpt>
      <trkpt lat="43.01844" lon="0.75744">
        <ele>471.70001221</ele>
        <time>2020-10-22T08:31:54Z</time>
      </trkpt>
      <trkpt lat="43.01843" lon="0.75758">
        <ele>471.70001221</ele>
        <time>2020-10-22T08:31:56Z</time>
      </trkpt>
      <trkpt lat="43.0184" lon="0.75772">
        <ele>471.70001221</ele>
        <time>2020-10-22T08:31:58Z</time>
      </trkpt>
      <trkpt lat="43.01838" lon="0.75786">
        <ele>471.70001221</ele>
        <time>2020-10-22T08:32:00Z</time>
      </trkpt>
      <trkpt lat="43.01837" lon="0.75793">
        <ele>471.70001221</ele>
        <time>2020-10-22T08:32:01Z</time>
      </trkpt>
      <trkpt lat="43.01835" lon="0.75805">
        <ele>471.70001221</ele>
        <time>2020-10-22T08:32:03Z</time>
      </trkpt>
      <trkpt lat="43.01835" lon="0.75812">
        <ele>471.70001221</ele>
        <time>2020-10-22T08:32:04Z</time>
      </trkpt>
      <trkpt lat="43.01838" lon="0.75826">
        <ele>471.70001221</ele>
        <time>2020-10-22T08:32:06Z</time>
      </trkpt>
      <trkpt lat="43.01839" lon="0.75832">
        <ele>471.70001221</ele>
        <time>2020-10-22T08:32:07Z</time>
      </trkpt>
      <trkpt lat="43.01842" lon="0.75846">
        <ele>471.70001221</ele>
        <time>2020-10-22T08:32:09Z</time>
      </trkpt>
      <trkpt lat="43.01844" lon="0.75853">
        <ele>471.70001221</ele>
        <time>2020-10-22T08:32:10Z</time>
      </trkpt>
      <trkpt lat="43.01847" lon="0.75866">
        <ele>471.70001221</ele>
        <time>2020-10-22T08:32:12Z</time>
      </trkpt>
      <trkpt lat="43.01851" lon="0.7588">
        <ele>471.70001221</ele>
        <time>2020-10-22T08:32:14Z</time>
      </trkpt>
      <trkpt lat="43.01853" lon="0.75887">
        <ele>471.70001221</ele>
        <time>2020-10-22T08:32:15Z</time>
      </trkpt>
      <trkpt lat="43.01855" lon="0.75894">
        <ele>471.70001221</ele>
        <time>2020-10-22T08:32:16Z</time>
      </trkpt>
      <trkpt lat="43.01859" lon="0.75908">
        <ele>471.70001221</ele>
        <time>2020-10-22T08:32:18Z</time>
      </trkpt>
      <trkpt lat="43.0186" lon="0.75914">
        <ele>479.04998779</ele>
        <time>2020-10-22T08:32:19Z</time>
      </trkpt>
      <trkpt lat="43.01862" lon="0.75921">
        <ele>479.89001465</ele>
        <time>2020-10-22T08:32:20Z</time>
      </trkpt>
      <trkpt lat="43.01864" lon="0.75927">
        <ele>480.14001465</ele>
        <time>2020-10-22T08:32:21Z</time>
      </trkpt>
      <trkpt lat="43.01866" lon="0.75934">
        <ele>480.14001465</ele>
        <time>2020-10-22T08:32:22Z</time>
      </trkpt>
      <trkpt lat="43.01869" lon="0.75947">
        <ele>479.82998657</ele>
        <time>2020-10-22T08:32:24Z</time>
      </trkpt>
      <trkpt lat="43.01871" lon="0.75954">
        <ele>479.76998901</ele>
        <time>2020-10-22T08:32:25Z</time>
      </trkpt>
      <trkpt lat="43.01873" lon="0.75968">
        <ele>479.8500061</ele>
        <time>2020-10-22T08:32:27Z</time>
      </trkpt>
      <trkpt lat="43.01875" lon="0.75975">
        <ele>479.98001099</ele>
        <time>2020-10-22T08:32:28Z</time>
      </trkpt>
      <trkpt lat="43.01876" lon="0.75982">
        <ele>480.04000854</ele>
        <time>2020-10-22T08:32:29Z</time>
      </trkpt>
      <trkpt lat="43.01879" lon="0.75995">
        <ele>480</ele>
        <time>2020-10-22T08:32:31Z</time>
      </trkpt>
      <trkpt lat="43.0188" lon="0.76002">
        <ele>480.17001343</ele>
        <time>2020-10-22T08:32:32Z</time>
      </trkpt>
      <trkpt lat="43.01881" lon="0.76008">
        <ele>480.20001221</ele>
        <time>2020-10-22T08:32:33Z</time>
      </trkpt>
      <trkpt lat="43.01883" lon="0.7602">
        <ele>480.30999756</ele>
        <time>2020-10-22T08:32:35Z</time>
      </trkpt>
      <trkpt lat="43.01885" lon="0.76031">
        <ele>480.42999268</ele>
        <time>2020-10-22T08:32:37Z</time>
      </trkpt>
      <trkpt lat="43.01885" lon="0.76036">
        <ele>480.48001099</ele>
        <time>2020-10-22T08:32:38Z</time>
      </trkpt>
      <trkpt lat="43.01887" lon="0.76047">
        <ele>480.60998535</ele>
        <time>2020-10-22T08:32:40Z</time>
      </trkpt>
      <trkpt lat="43.01888" lon="0.76053">
        <ele>480.70999146</ele>
        <time>2020-10-22T08:32:41Z</time>
      </trkpt>
      <trkpt lat="43.01888" lon="0.7606">
        <ele>480.80999756</ele>
        <time>2020-10-22T08:32:42Z</time>
      </trkpt>
      <trkpt lat="43.01891" lon="0.76065">
        <ele>480.77999878</ele>
        <time>2020-10-22T08:32:44Z</time>
      </trkpt>
      <trkpt lat="43.01892" lon="0.7607">
        <ele>480.70001221</ele>
        <time>2020-10-22T08:32:45Z</time>
      </trkpt>
      <trkpt lat="43.01893" lon="0.76079">
        <ele>481.29998779</ele>
        <time>2020-10-22T08:32:47Z</time>
      </trkpt>
      <trkpt lat="43.01893" lon="0.76086">
        <ele>482.23999023</ele>
        <time>2020-10-22T08:32:48Z</time>
      </trkpt>
      <trkpt lat="43.01893" lon="0.76094">
        <ele>482.44000244</ele>
        <time>2020-10-22T08:32:50Z</time>
      </trkpt>
      <trkpt lat="43.01893" lon="0.761">
        <ele>481.66000366</ele>
        <time>2020-10-22T08:32:51Z</time>
      </trkpt>
      <trkpt lat="43.01894" lon="0.76103">
        <ele>482.38000488</ele>
        <time>2020-10-22T08:32:53Z</time>
      </trkpt>
      <trkpt lat="43.01894" lon="0.76106">
        <ele>482.45999146</ele>
        <time>2020-10-22T08:32:54Z</time>
      </trkpt>
      <trkpt lat="43.01894" lon="0.76109">
        <ele>482.88000488</ele>
        <time>2020-10-22T08:32:55Z</time>
      </trkpt>
      <trkpt lat="43.01893" lon="0.76114">
        <ele>482.95001221</ele>
        <time>2020-10-22T08:32:56Z</time>
      </trkpt>
      <trkpt lat="43.01893" lon="0.76117">
        <ele>483.3999939</ele>
        <time>2020-10-22T08:32:57Z</time>
      </trkpt>
      <trkpt lat="43.01894" lon="0.76122">
        <ele>483.20001221</ele>
        <time>2020-10-22T08:32:58Z</time>
      </trkpt>
      <trkpt lat="43.01895" lon="0.76127">
        <ele>483.70001221</ele>
        <time>2020-10-22T08:33:00Z</time>
      </trkpt>
      <trkpt lat="43.01895" lon="0.7613">
        <ele>484.1000061</ele>
        <time>2020-10-22T08:33:01Z</time>
      </trkpt>
      <trkpt lat="43.01896" lon="0.76135">
        <ele>484.70999146</ele>
        <time>2020-10-22T08:33:02Z</time>
      </trkpt>
      <trkpt lat="43.01897" lon="0.76138">
        <ele>484.86999512</ele>
        <time>2020-10-22T08:33:04Z</time>
      </trkpt>
      <trkpt lat="43.01898" lon="0.76144">
        <ele>485.66000366</ele>
        <time>2020-10-22T08:33:06Z</time>
      </trkpt>
      <trkpt lat="43.019" lon="0.76149">
        <ele>486.42999268</ele>
        <time>2020-10-22T08:33:07Z</time>
      </trkpt>
      <trkpt lat="43.019" lon="0.76154">
        <ele>486.98999023</ele>
        <time>2020-10-22T08:33:09Z</time>
      </trkpt>
      <trkpt lat="43.01901" lon="0.76158">
        <ele>487.30999756</ele>
        <time>2020-10-22T08:33:10Z</time>
      </trkpt>
      <trkpt lat="43.01903" lon="0.76163">
        <ele>487.8500061</ele>
        <time>2020-10-22T08:33:11Z</time>
      </trkpt>
      <trkpt lat="43.01904" lon="0.76167">
        <ele>487.8500061</ele>
        <time>2020-10-22T08:33:12Z</time>
      </trkpt>
      <trkpt lat="43.01905" lon="0.7617">
        <ele>487.83999634</ele>
        <time>2020-10-22T08:33:13Z</time>
      </trkpt>
      <trkpt lat="43.01906" lon="0.76171">
        <ele>487.27999878</ele>
        <time>2020-10-22T08:33:15Z</time>
      </trkpt>
      <trkpt lat="43.01906" lon="0.76171">
        <ele>487.27999878</ele>
        <time>2020-10-22T08:33:16Z</time>
      </trkpt>
      <trkpt lat="43.01909" lon="0.76171">
        <ele>487.51000977</ele>
        <time>2020-10-22T08:33:17Z</time>
      </trkpt>
      <trkpt lat="43.01911" lon="0.7617">
        <ele>487.97000122</ele>
        <time>2020-10-22T08:33:18Z</time>
      </trkpt>
      <trkpt lat="43.01914" lon="0.76169">
        <ele>488.23999023</ele>
        <time>2020-10-22T08:33:20Z</time>
      </trkpt>
      <trkpt lat="43.01917" lon="0.76168">
        <ele>489.60998535</ele>
        <time>2020-10-22T08:33:21Z</time>
      </trkpt>
      <trkpt lat="43.01919" lon="0.76167">
        <ele>490.08999634</ele>
        <time>2020-10-22T08:33:23Z</time>
      </trkpt>
      <trkpt lat="43.01922" lon="0.76166">
        <ele>490.88000488</ele>
        <time>2020-10-22T08:33:24Z</time>
      </trkpt>
      <trkpt lat="43.01925" lon="0.76165">
        <ele>491.39001465</ele>
        <time>2020-10-22T08:33:25Z</time>
      </trkpt>
      <trkpt lat="43.01927" lon="0.76165">
        <ele>491.98999023</ele>
        <time>2020-10-22T08:33:27Z</time>
      </trkpt>
      <trkpt lat="43.0193" lon="0.76165">
        <ele>492.60998535</ele>
        <time>2020-10-22T08:33:28Z</time>
      </trkpt>
      <trkpt lat="43.01931" lon="0.76165">
        <ele>492.60998535</ele>
        <time>2020-10-22T08:33:29Z</time>
      </trkpt>
      <trkpt lat="43.01932" lon="0.76167">
        <ele>492.73999023</ele>
        <time>2020-10-22T08:33:30Z</time>
      </trkpt>
      <trkpt lat="43.01934" lon="0.76168">
        <ele>493</ele>
        <time>2020-10-22T08:33:32Z</time>
      </trkpt>
      <trkpt lat="43.01936" lon="0.7617">
        <ele>494.07000732</ele>
        <time>2020-10-22T08:33:33Z</time>
      </trkpt>
      <trkpt lat="43.01938" lon="0.76174">
        <ele>494.36999512</ele>
        <time>2020-10-22T08:33:35Z</time>
      </trkpt>
      <trkpt lat="43.01938" lon="0.76176">
        <ele>494.92999268</ele>
        <time>2020-10-22T08:33:36Z</time>
      </trkpt>
      <trkpt lat="43.0194" lon="0.76179">
        <ele>495.47000122</ele>
        <time>2020-10-22T08:33:37Z</time>
      </trkpt>
      <trkpt lat="43.01942" lon="0.76182">
        <ele>495.95001221</ele>
        <time>2020-10-22T08:33:39Z</time>
      </trkpt>
      <trkpt lat="43.01945" lon="0.76185">
        <ele>497.02999878</ele>
        <time>2020-10-22T08:33:40Z</time>
      </trkpt>
      <trkpt lat="43.01947" lon="0.76186">
        <ele>497.23999023</ele>
        <time>2020-10-22T08:33:41Z</time>
      </trkpt>
      <trkpt lat="43.01948" lon="0.76188">
        <ele>497.77999878</ele>
        <time>2020-10-22T08:33:42Z</time>
      </trkpt>
      <trkpt lat="43.01951" lon="0.76191">
        <ele>498.38000488</ele>
        <time>2020-10-22T08:33:43Z</time>
      </trkpt>
      <trkpt lat="43.01952" lon="0.76192">
        <ele>499.3999939</ele>
        <time>2020-10-22T08:33:45Z</time>
      </trkpt>
      <trkpt lat="43.01953" lon="0.76194">
        <ele>499.75</ele>
        <time>2020-10-22T08:33:46Z</time>
      </trkpt>
      <trkpt lat="43.01955" lon="0.76196">
        <ele>500.26000977</ele>
        <time>2020-10-22T08:33:47Z</time>
      </trkpt>
      <trkpt lat="43.01959" lon="0.76199">
        <ele>502.60998535</ele>
        <time>2020-10-22T08:33:49Z</time>
      </trkpt>
      <trkpt lat="43.01961" lon="0.76201">
        <ele>502.82998657</ele>
        <time>2020-10-22T08:33:50Z</time>
      </trkpt>
      <trkpt lat="43.01963" lon="0.76202">
        <ele>503.23999023</ele>
        <time>2020-10-22T08:33:52Z</time>
      </trkpt>
      <trkpt lat="43.01964" lon="0.76203">
        <ele>503.86999512</ele>
        <time>2020-10-22T08:33:54Z</time>
      </trkpt>
      <trkpt lat="43.01964" lon="0.76204">
        <ele>504.11999512</ele>
        <time>2020-10-22T08:33:55Z</time>
      </trkpt>
      <trkpt lat="43.01965" lon="0.76204">
        <ele>504.58999634</ele>
        <time>2020-10-22T08:33:56Z</time>
      </trkpt>
      <trkpt lat="43.01965" lon="0.76205">
        <ele>505.1000061</ele>
        <time>2020-10-22T08:33:58Z</time>
      </trkpt>
      <trkpt lat="43.01966" lon="0.76207">
        <ele>505.10998535</ele>
        <time>2020-10-22T08:34:00Z</time>
      </trkpt>
      <trkpt lat="43.0197" lon="0.76212">
        <ele>505.27999878</ele>
        <time>2020-10-22T08:34:02Z</time>
      </trkpt>
      <trkpt lat="43.01973" lon="0.76217">
        <ele>505.47000122</ele>
        <time>2020-10-22T08:34:03Z</time>
      </trkpt>
      <trkpt lat="43.01978" lon="0.76222">
        <ele>505.60998535</ele>
        <time>2020-10-22T08:34:05Z</time>
      </trkpt>
      <trkpt lat="43.01981" lon="0.76226">
        <ele>505.89001465</ele>
        <time>2020-10-22T08:34:06Z</time>
      </trkpt>
      <trkpt lat="43.01983" lon="0.76228">
        <ele>507.32000732</ele>
        <time>2020-10-22T08:34:07Z</time>
      </trkpt>
      <trkpt lat="43.01985" lon="0.7623">
        <ele>507.32000732</ele>
        <time>2020-10-22T08:34:09Z</time>
      </trkpt>
      <trkpt lat="43.01986" lon="0.76232">
        <ele>507.20999146</ele>
        <time>2020-10-22T08:34:10Z</time>
      </trkpt>
      <trkpt lat="43.01988" lon="0.76235">
        <ele>507.33999634</ele>
        <time>2020-10-22T08:34:11Z</time>
      </trkpt>
      <trkpt lat="43.01989" lon="0.76237">
        <ele>507.6000061</ele>
        <time>2020-10-22T08:34:12Z</time>
      </trkpt>
      <trkpt lat="43.01991" lon="0.7624">
        <ele>507.66000366</ele>
        <time>2020-10-22T08:34:14Z</time>
      </trkpt>
      <trkpt lat="43.01994" lon="0.76244">
        <ele>508.10998535</ele>
        <time>2020-10-22T08:34:16Z</time>
      </trkpt>
      <trkpt lat="43.01997" lon="0.76248">
        <ele>508.69000244</ele>
        <time>2020-10-22T08:34:17Z</time>
      </trkpt>
      <trkpt lat="43.01999" lon="0.76251">
        <ele>508.79000854</ele>
        <time>2020-10-22T08:34:19Z</time>
      </trkpt>
      <trkpt lat="43.02001" lon="0.76254">
        <ele>508.91000366</ele>
        <time>2020-10-22T08:34:20Z</time>
      </trkpt>
      <trkpt lat="43.02004" lon="0.76258">
        <ele>508.83999634</ele>
        <time>2020-10-22T08:34:21Z</time>
      </trkpt>
      <trkpt lat="43.02006" lon="0.7626">
        <ele>510.3999939</ele>
        <time>2020-10-22T08:34:23Z</time>
      </trkpt>
      <trkpt lat="43.02009" lon="0.76264">
        <ele>510.02999878</ele>
        <time>2020-10-22T08:34:25Z</time>
      </trkpt>
      <trkpt lat="43.02011" lon="0.76267">
        <ele>509.41000366</ele>
        <time>2020-10-22T08:34:26Z</time>
      </trkpt>
      <trkpt lat="43.02013" lon="0.7627">
        <ele>509.1000061</ele>
        <time>2020-10-22T08:34:28Z</time>
      </trkpt>
      <trkpt lat="43.02017" lon="0.76276">
        <ele>509.45001221</ele>
        <time>2020-10-22T08:34:29Z</time>
      </trkpt>
      <trkpt lat="43.02021" lon="0.7628">
        <ele>508.86999512</ele>
        <time>2020-10-22T08:34:30Z</time>
      </trkpt>
      <trkpt lat="43.02024" lon="0.76283">
        <ele>508.05999756</ele>
        <time>2020-10-22T08:34:32Z</time>
      </trkpt>
      <trkpt lat="43.02028" lon="0.76288">
        <ele>508.72000122</ele>
        <time>2020-10-22T08:34:33Z</time>
      </trkpt>
      <trkpt lat="43.0203" lon="0.76291">
        <ele>507.58999634</ele>
        <time>2020-10-22T08:34:35Z</time>
      </trkpt>
      <trkpt lat="43.02032" lon="0.76293">
        <ele>507.58999634</ele>
        <time>2020-10-22T08:34:36Z</time>
      </trkpt>
      <trkpt lat="43.02035" lon="0.76296">
        <ele>507</ele>
        <time>2020-10-22T08:34:37Z</time>
      </trkpt>
      <trkpt lat="43.0204" lon="0.76301">
        <ele>507.29000854</ele>
        <time>2020-10-22T08:34:39Z</time>
      </trkpt>
      <trkpt lat="43.02045" lon="0.76305">
        <ele>506.61999512</ele>
        <time>2020-10-22T08:34:40Z</time>
      </trkpt>
      <trkpt lat="43.02047" lon="0.76307">
        <ele>507.27999878</ele>
        <time>2020-10-22T08:34:42Z</time>
      </trkpt>
      <trkpt lat="43.02049" lon="0.76309">
        <ele>507.76998901</ele>
        <time>2020-10-22T08:34:43Z</time>
      </trkpt>
      <trkpt lat="43.02051" lon="0.7631">
        <ele>507.6000061</ele>
        <time>2020-10-22T08:34:44Z</time>
      </trkpt>
      <trkpt lat="43.02056" lon="0.76312">
        <ele>508.07998657</ele>
        <time>2020-10-22T08:34:45Z</time>
      </trkpt>
      <trkpt lat="43.02059" lon="0.76313">
        <ele>508.1499939</ele>
        <time>2020-10-22T08:34:47Z</time>
      </trkpt>
      <trkpt lat="43.0206" lon="0.76315">
        <ele>507.26000977</ele>
        <time>2020-10-22T08:34:48Z</time>
      </trkpt>
      <trkpt lat="43.02062" lon="0.76316">
        <ele>507.94000244</ele>
        <time>2020-10-22T08:34:49Z</time>
      </trkpt>
      <trkpt lat="43.02064" lon="0.76318">
        <ele>508.04998779</ele>
        <time>2020-10-22T08:34:50Z</time>
      </trkpt>
      <trkpt lat="43.02067" lon="0.7632">
        <ele>508.48999023</ele>
        <time>2020-10-22T08:34:51Z</time>
      </trkpt>
      <trkpt lat="43.0207" lon="0.76321">
        <ele>509.17999268</ele>
        <time>2020-10-22T08:34:53Z</time>
      </trkpt>
      <trkpt lat="43.02073" lon="0.76321">
        <ele>509.54000854</ele>
        <time>2020-10-22T08:34:54Z</time>
      </trkpt>
      <trkpt lat="43.02076" lon="0.76321">
        <ele>510.29998779</ele>
        <time>2020-10-22T08:34:56Z</time>
      </trkpt>
      <trkpt lat="43.02078" lon="0.76321">
        <ele>510.07000732</ele>
        <time>2020-10-22T08:34:57Z</time>
      </trkpt>
      <trkpt lat="43.02081" lon="0.76321">
        <ele>510.08999634</ele>
        <time>2020-10-22T08:34:59Z</time>
      </trkpt>
      <trkpt lat="43.02083" lon="0.76322">
        <ele>510.77999878</ele>
        <time>2020-10-22T08:35:00Z</time>
      </trkpt>
      <trkpt lat="43.02085" lon="0.76321">
        <ele>511.77999878</ele>
        <time>2020-10-22T08:35:01Z</time>
      </trkpt>
      <trkpt lat="43.02089" lon="0.76322">
        <ele>511.19000244</ele>
        <time>2020-10-22T08:35:02Z</time>
      </trkpt>
      <trkpt lat="43.02093" lon="0.76325">
        <ele>512.63000488</ele>
        <time>2020-10-22T08:35:03Z</time>
      </trkpt>
      <trkpt lat="43.02101" lon="0.7633">
        <ele>512.89001465</ele>
        <time>2020-10-22T08:35:05Z</time>
      </trkpt>
      <trkpt lat="43.02103" lon="0.76332">
        <ele>512.91998291</ele>
        <time>2020-10-22T08:35:06Z</time>
      </trkpt>
      <trkpt lat="43.02106" lon="0.76334">
        <ele>512.85998535</ele>
        <time>2020-10-22T08:35:08Z</time>
      </trkpt>
      <trkpt lat="43.02112" lon="0.76338">
        <ele>513</ele>
        <time>2020-10-22T08:35:10Z</time>
      </trkpt>
      <trkpt lat="43.02121" lon="0.76343">
        <ele>513.52001953</ele>
        <time>2020-10-22T08:35:11Z</time>
      </trkpt>
      <trkpt lat="43.02126" lon="0.76345">
        <ele>513.53997803</ele>
        <time>2020-10-22T08:35:13Z</time>
      </trkpt>
      <trkpt lat="43.02129" lon="0.76346">
        <ele>513.10998535</ele>
        <time>2020-10-22T08:35:14Z</time>
      </trkpt>
      <trkpt lat="43.02131" lon="0.76348">
        <ele>513.2800293</ele>
        <time>2020-10-22T08:35:15Z</time>
      </trkpt>
      <trkpt lat="43.02133" lon="0.76351">
        <ele>514.08001709</ele>
        <time>2020-10-22T08:35:16Z</time>
      </trkpt>
      <trkpt lat="43.02135" lon="0.76352">
        <ele>513.59002686</ele>
        <time>2020-10-22T08:35:18Z</time>
      </trkpt>
      <trkpt lat="43.02139" lon="0.76355">
        <ele>513.82000732</ele>
        <time>2020-10-22T08:35:20Z</time>
      </trkpt>
      <trkpt lat="43.02142" lon="0.76356">
        <ele>513.71002197</ele>
        <time>2020-10-22T08:35:21Z</time>
      </trkpt>
      <trkpt lat="43.02146" lon="0.76359">
        <ele>513.9699707</ele>
        <time>2020-10-22T08:35:22Z</time>
      </trkpt>
      <trkpt lat="43.02152" lon="0.76361">
        <ele>514.2800293</ele>
        <time>2020-10-22T08:35:23Z</time>
      </trkpt>
      <trkpt lat="43.02155" lon="0.76363">
        <ele>513.14001465</ele>
        <time>2020-10-22T08:35:24Z</time>
      </trkpt>
      <trkpt lat="43.02158" lon="0.76365">
        <ele>513.17999268</ele>
        <time>2020-10-22T08:35:25Z</time>
      </trkpt>
      <trkpt lat="43.0216" lon="0.76367">
        <ele>513.21002197</ele>
        <time>2020-10-22T08:35:27Z</time>
      </trkpt>
      <trkpt lat="43.02164" lon="0.76369">
        <ele>513.90997314</ele>
        <time>2020-10-22T08:35:28Z</time>
      </trkpt>
      <trkpt lat="43.02169" lon="0.76371">
        <ele>512.77001953</ele>
        <time>2020-10-22T08:35:30Z</time>
      </trkpt>
      <trkpt lat="43.02178" lon="0.76375">
        <ele>512.52001953</ele>
        <time>2020-10-22T08:35:31Z</time>
      </trkpt>
      <trkpt lat="43.02182" lon="0.76377">
        <ele>512.40997314</ele>
        <time>2020-10-22T08:35:32Z</time>
      </trkpt>
      <trkpt lat="43.02186" lon="0.7638">
        <ele>511.86999512</ele>
        <time>2020-10-22T08:35:34Z</time>
      </trkpt>
      <trkpt lat="43.0219" lon="0.76384">
        <ele>510.66000366</ele>
        <time>2020-10-22T08:35:36Z</time>
      </trkpt>
      <trkpt lat="43.02196" lon="0.7639">
        <ele>510.6000061</ele>
        <time>2020-10-22T08:35:37Z</time>
      </trkpt>
      <trkpt lat="43.022" lon="0.76392">
        <ele>511.08999634</ele>
        <time>2020-10-22T08:35:38Z</time>
      </trkpt>
      <trkpt lat="43.02206" lon="0.76394">
        <ele>511.05999756</ele>
        <time>2020-10-22T08:35:40Z</time>
      </trkpt>
      <trkpt lat="43.02208" lon="0.76394">
        <ele>511.05999756</ele>
        <time>2020-10-22T08:35:41Z</time>
      </trkpt>
      <trkpt lat="43.02214" lon="0.76395">
        <ele>510.04998779</ele>
        <time>2020-10-22T08:35:43Z</time>
      </trkpt>
      <trkpt lat="43.02216" lon="0.76398">
        <ele>509.98001099</ele>
        <time>2020-10-22T08:35:44Z</time>
      </trkpt>
      <trkpt lat="43.02219" lon="0.76402">
        <ele>508.70001221</ele>
        <time>2020-10-22T08:35:46Z</time>
      </trkpt>
      <trkpt lat="43.02224" lon="0.76411">
        <ele>509.48999023</ele>
        <time>2020-10-22T08:35:47Z</time>
      </trkpt>
      <trkpt lat="43.02226" lon="0.76415">
        <ele>508.54998779</ele>
        <time>2020-10-22T08:35:49Z</time>
      </trkpt>
      <trkpt lat="43.0223" lon="0.76419">
        <ele>509.69000244</ele>
        <time>2020-10-22T08:35:50Z</time>
      </trkpt>
      <trkpt lat="43.02232" lon="0.76421">
        <ele>510.42999268</ele>
        <time>2020-10-22T08:35:51Z</time>
      </trkpt>
      <trkpt lat="43.02234" lon="0.76422">
        <ele>510.42999268</ele>
        <time>2020-10-22T08:35:52Z</time>
      </trkpt>
      <trkpt lat="43.02239" lon="0.76424">
        <ele>509</ele>
        <time>2020-10-22T08:35:54Z</time>
      </trkpt>
      <trkpt lat="43.02243" lon="0.76426">
        <ele>510.36999512</ele>
        <time>2020-10-22T08:35:55Z</time>
      </trkpt>
      <trkpt lat="43.0225" lon="0.76427">
        <ele>511.13000488</ele>
        <time>2020-10-22T08:35:57Z</time>
      </trkpt>
      <trkpt lat="43.02256" lon="0.76429">
        <ele>511.98001099</ele>
        <time>2020-10-22T08:35:59Z</time>
      </trkpt>
      <trkpt lat="43.02261" lon="0.76431">
        <ele>512.03997803</ele>
        <time>2020-10-22T08:36:00Z</time>
      </trkpt>
      <trkpt lat="43.02265" lon="0.76434">
        <ele>512.77001953</ele>
        <time>2020-10-22T08:36:02Z</time>
      </trkpt>
      <trkpt lat="43.02267" lon="0.76436">
        <ele>514.2199707</ele>
        <time>2020-10-22T08:36:03Z</time>
      </trkpt>
      <trkpt lat="43.02269" lon="0.76437">
        <ele>513.52001953</ele>
        <time>2020-10-22T08:36:04Z</time>
      </trkpt>
      <trkpt lat="43.02272" lon="0.76437">
        <ele>513.35998535</ele>
        <time>2020-10-22T08:36:06Z</time>
      </trkpt>
      <trkpt lat="43.02274" lon="0.76436">
        <ele>514.08001709</ele>
        <time>2020-10-22T08:36:07Z</time>
      </trkpt>
      <trkpt lat="43.02279" lon="0.76435">
        <ele>514.59997559</ele>
        <time>2020-10-22T08:36:09Z</time>
      </trkpt>
      <trkpt lat="43.02281" lon="0.76434">
        <ele>514.96002197</ele>
        <time>2020-10-22T08:36:10Z</time>
      </trkpt>
      <trkpt lat="43.02284" lon="0.76433">
        <ele>515.35998535</ele>
        <time>2020-10-22T08:36:11Z</time>
      </trkpt>
      <trkpt lat="43.02288" lon="0.76432">
        <ele>515.64001465</ele>
        <time>2020-10-22T08:36:12Z</time>
      </trkpt>
      <trkpt lat="43.02294" lon="0.76431">
        <ele>516.23999023</ele>
        <time>2020-10-22T08:36:14Z</time>
      </trkpt>
      <trkpt lat="43.02299" lon="0.76431">
        <ele>516.30999756</ele>
        <time>2020-10-22T08:36:15Z</time>
      </trkpt>
      <trkpt lat="43.02302" lon="0.7643">
        <ele>516.30999756</ele>
        <time>2020-10-22T08:36:16Z</time>
      </trkpt>
      <trkpt lat="43.02305" lon="0.76429">
        <ele>516.19000244</ele>
        <time>2020-10-22T08:36:17Z</time>
      </trkpt>
      <trkpt lat="43.02309" lon="0.76427">
        <ele>516.63000488</ele>
        <time>2020-10-22T08:36:19Z</time>
      </trkpt>
      <trkpt lat="43.02311" lon="0.76426">
        <ele>518.10998535</ele>
        <time>2020-10-22T08:36:20Z</time>
      </trkpt>
      <trkpt lat="43.02314" lon="0.76425">
        <ele>517.94000244</ele>
        <time>2020-10-22T08:36:21Z</time>
      </trkpt>
      <trkpt lat="43.02317" lon="0.76424">
        <ele>517.84002686</ele>
        <time>2020-10-22T08:36:23Z</time>
      </trkpt>
      <trkpt lat="43.02319" lon="0.76423">
        <ele>517.80999756</ele>
        <time>2020-10-22T08:36:24Z</time>
      </trkpt>
      <trkpt lat="43.02323" lon="0.76423">
        <ele>517.88000488</ele>
        <time>2020-10-22T08:36:25Z</time>
      </trkpt>
      <trkpt lat="43.02327" lon="0.76422">
        <ele>518.26000977</ele>
        <time>2020-10-22T08:36:26Z</time>
      </trkpt>
      <trkpt lat="43.0233" lon="0.7642">
        <ele>518.52001953</ele>
        <time>2020-10-22T08:36:28Z</time>
      </trkpt>
      <trkpt lat="43.02336" lon="0.76418">
        <ele>518.41998291</ele>
        <time>2020-10-22T08:36:30Z</time>
      </trkpt>
      <trkpt lat="43.02339" lon="0.76417">
        <ele>518.52001953</ele>
        <time>2020-10-22T08:36:31Z</time>
      </trkpt>
      <trkpt lat="43.02342" lon="0.76415">
        <ele>519.34002686</ele>
        <time>2020-10-22T08:36:32Z</time>
      </trkpt>
      <trkpt lat="43.02348" lon="0.76413">
        <ele>519.44000244</ele>
        <time>2020-10-22T08:36:34Z</time>
      </trkpt>
      <trkpt lat="43.02351" lon="0.76411">
        <ele>520.13000488</ele>
        <time>2020-10-22T08:36:35Z</time>
      </trkpt>
      <trkpt lat="43.02356" lon="0.7641">
        <ele>519.84002686</ele>
        <time>2020-10-22T08:36:36Z</time>
      </trkpt>
      <trkpt lat="43.02362" lon="0.76407">
        <ele>520.17999268</ele>
        <time>2020-10-22T08:36:37Z</time>
      </trkpt>
      <trkpt lat="43.0237" lon="0.76403">
        <ele>519.94000244</ele>
        <time>2020-10-22T08:36:39Z</time>
      </trkpt>
      <trkpt lat="43.02376" lon="0.764">
        <ele>518.91998291</ele>
        <time>2020-10-22T08:36:40Z</time>
      </trkpt>
      <trkpt lat="43.02378" lon="0.76398">
        <ele>518.9699707</ele>
        <time>2020-10-22T08:36:41Z</time>
      </trkpt>
      <trkpt lat="43.02381" lon="0.76394">
        <ele>519.44000244</ele>
        <time>2020-10-22T08:36:43Z</time>
      </trkpt>
      <trkpt lat="43.02383" lon="0.76392">
        <ele>520.03997803</ele>
        <time>2020-10-22T08:36:44Z</time>
      </trkpt>
      <trkpt lat="43.02387" lon="0.7639">
        <ele>521.98999023</ele>
        <time>2020-10-22T08:36:45Z</time>
      </trkpt>
      <trkpt lat="43.02389" lon="0.76388">
        <ele>521.42999268</ele>
        <time>2020-10-22T08:36:46Z</time>
      </trkpt>
      <trkpt lat="43.02396" lon="0.76384">
        <ele>521.77001953</ele>
        <time>2020-10-22T08:36:47Z</time>
      </trkpt>
      <trkpt lat="43.02407" lon="0.76377">
        <ele>522.29998779</ele>
        <time>2020-10-22T08:36:49Z</time>
      </trkpt>
      <trkpt lat="43.0241" lon="0.76375">
        <ele>522.29998779</ele>
        <time>2020-10-22T08:36:50Z</time>
      </trkpt>
      <trkpt lat="43.02414" lon="0.76373">
        <ele>522.27001953</ele>
        <time>2020-10-22T08:36:51Z</time>
      </trkpt>
      <trkpt lat="43.02416" lon="0.76372">
        <ele>521.91998291</ele>
        <time>2020-10-22T08:36:53Z</time>
      </trkpt>
      <trkpt lat="43.02418" lon="0.76372">
        <ele>521.58001709</ele>
        <time>2020-10-22T08:36:54Z</time>
      </trkpt>
      <trkpt lat="43.02422" lon="0.76373">
        <ele>521.0300293</ele>
        <time>2020-10-22T08:36:56Z</time>
      </trkpt>
      <trkpt lat="43.02427" lon="0.76373">
        <ele>520.78997803</ele>
        <time>2020-10-22T08:36:57Z</time>
      </trkpt>
      <trkpt lat="43.0243" lon="0.76373">
        <ele>520.08001709</ele>
        <time>2020-10-22T08:36:59Z</time>
      </trkpt>
      <trkpt lat="43.02431" lon="0.76373">
        <ele>520.02001953</ele>
        <time>2020-10-22T08:37:00Z</time>
      </trkpt>
      <trkpt lat="43.02436" lon="0.76375">
        <ele>519.10998535</ele>
        <time>2020-10-22T08:37:01Z</time>
      </trkpt>
      <trkpt lat="43.02439" lon="0.76377">
        <ele>517.83001709</ele>
        <time>2020-10-22T08:37:03Z</time>
      </trkpt>
      <trkpt lat="43.02452" lon="0.76386">
        <ele>515.79998779</ele>
        <time>2020-10-22T08:37:05Z</time>
      </trkpt>
      <trkpt lat="43.02456" lon="0.76392">
        <ele>514.77001953</ele>
        <time>2020-10-22T08:37:06Z</time>
      </trkpt>
      <trkpt lat="43.02466" lon="0.76402">
        <ele>514.59002686</ele>
        <time>2020-10-22T08:37:08Z</time>
      </trkpt>
      <trkpt lat="43.02476" lon="0.76412">
        <ele>515.10998535</ele>
        <time>2020-10-22T08:37:10Z</time>
      </trkpt>
      <trkpt lat="43.02483" lon="0.76418">
        <ele>514.84002686</ele>
        <time>2020-10-22T08:37:12Z</time>
      </trkpt>
      <trkpt lat="43.02488" lon="0.76422">
        <ele>512.57000732</ele>
        <time>2020-10-22T08:37:14Z</time>
      </trkpt>
      <trkpt lat="43.02501" lon="0.76432">
        <ele>512.84997559</ele>
        <time>2020-10-22T08:37:15Z</time>
      </trkpt>
      <trkpt lat="43.02509" lon="0.76438">
        <ele>511.57998657</ele>
        <time>2020-10-22T08:37:16Z</time>
      </trkpt>
      <trkpt lat="43.02522" lon="0.76448">
        <ele>512.27001953</ele>
        <time>2020-10-22T08:37:18Z</time>
      </trkpt>
      <trkpt lat="43.02527" lon="0.76452">
        <ele>512.04998779</ele>
        <time>2020-10-22T08:37:19Z</time>
      </trkpt>
      <trkpt lat="43.02533" lon="0.76456">
        <ele>511.69000244</ele>
        <time>2020-10-22T08:37:20Z</time>
      </trkpt>
      <trkpt lat="43.02544" lon="0.76462">
        <ele>512.03997803</ele>
        <time>2020-10-22T08:37:22Z</time>
      </trkpt>
      <trkpt lat="43.02552" lon="0.76468">
        <ele>512.42999268</ele>
        <time>2020-10-22T08:37:24Z</time>
      </trkpt>
      <trkpt lat="43.02557" lon="0.76469">
        <ele>512.82000732</ele>
        <time>2020-10-22T08:37:25Z</time>
      </trkpt>
      <trkpt lat="43.02565" lon="0.76475">
        <ele>512.86999512</ele>
        <time>2020-10-22T08:37:27Z</time>
      </trkpt>
      <trkpt lat="43.02572" lon="0.7648">
        <ele>512.95001221</ele>
        <time>2020-10-22T08:37:28Z</time>
      </trkpt>
      <trkpt lat="43.02578" lon="0.76484">
        <ele>513.09002686</ele>
        <time>2020-10-22T08:37:29Z</time>
      </trkpt>
      <trkpt lat="43.02584" lon="0.76488">
        <ele>513.15997314</ele>
        <time>2020-10-22T08:37:31Z</time>
      </trkpt>
      <trkpt lat="43.02589" lon="0.76489">
        <ele>513.38000488</ele>
        <time>2020-10-22T08:37:32Z</time>
      </trkpt>
      <trkpt lat="43.02593" lon="0.76489">
        <ele>514.09997559</ele>
        <time>2020-10-22T08:37:33Z</time>
      </trkpt>
      <trkpt lat="43.02602" lon="0.76486">
        <ele>514.39001465</ele>
        <time>2020-10-22T08:37:34Z</time>
      </trkpt>
      <trkpt lat="43.02608" lon="0.76483">
        <ele>515.09997559</ele>
        <time>2020-10-22T08:37:36Z</time>
      </trkpt>
      <trkpt lat="43.02613" lon="0.76481">
        <ele>515.48999023</ele>
        <time>2020-10-22T08:37:37Z</time>
      </trkpt>
      <trkpt lat="43.02619" lon="0.76478">
        <ele>516.14001465</ele>
        <time>2020-10-22T08:37:38Z</time>
      </trkpt>
      <trkpt lat="43.02626" lon="0.76475">
        <ele>517.01000977</ele>
        <time>2020-10-22T08:37:39Z</time>
      </trkpt>
      <trkpt lat="43.0263" lon="0.76472">
        <ele>517.11999512</ele>
        <time>2020-10-22T08:37:41Z</time>
      </trkpt>
      <trkpt lat="43.02635" lon="0.76469">
        <ele>517.22998047</ele>
        <time>2020-10-22T08:37:42Z</time>
      </trkpt>
      <trkpt lat="43.0264" lon="0.76466">
        <ele>517.84997559</ele>
        <time>2020-10-22T08:37:43Z</time>
      </trkpt>
      <trkpt lat="43.02644" lon="0.76463">
        <ele>519.04998779</ele>
        <time>2020-10-22T08:37:45Z</time>
      </trkpt>
      <trkpt lat="43.02648" lon="0.7646">
        <ele>519.59002686</ele>
        <time>2020-10-22T08:37:46Z</time>
      </trkpt>
      <trkpt lat="43.02651" lon="0.76458">
        <ele>519.80999756</ele>
        <time>2020-10-22T08:37:47Z</time>
      </trkpt>
      <trkpt lat="43.02655" lon="0.76454">
        <ele>520.40002441</ele>
        <time>2020-10-22T08:37:49Z</time>
      </trkpt>
      <trkpt lat="43.02659" lon="0.7645">
        <ele>520.7199707</ele>
        <time>2020-10-22T08:37:50Z</time>
      </trkpt>
      <trkpt lat="43.02663" lon="0.76446">
        <ele>520.5300293</ele>
        <time>2020-10-22T08:37:52Z</time>
      </trkpt>
      <trkpt lat="43.02667" lon="0.76442">
        <ele>521.34002686</ele>
        <time>2020-10-22T08:37:54Z</time>
      </trkpt>
      <trkpt lat="43.02671" lon="0.7644">
        <ele>522.66998291</ele>
        <time>2020-10-22T08:37:55Z</time>
      </trkpt>
      <trkpt lat="43.02673" lon="0.76438">
        <ele>522.73999023</ele>
        <time>2020-10-22T08:37:57Z</time>
      </trkpt>
      <trkpt lat="43.02678" lon="0.76436">
        <ele>523.28997803</ele>
        <time>2020-10-22T08:37:59Z</time>
      </trkpt>
      <trkpt lat="43.02683" lon="0.76436">
        <ele>523.42999268</ele>
        <time>2020-10-22T08:38:00Z</time>
      </trkpt>
      <trkpt lat="43.02686" lon="0.76436">
        <ele>523.28997803</ele>
        <time>2020-10-22T08:38:01Z</time>
      </trkpt>
      <trkpt lat="43.0269" lon="0.76435">
        <ele>523.59997559</ele>
        <time>2020-10-22T08:38:02Z</time>
      </trkpt>
      <trkpt lat="43.02694" lon="0.76434">
        <ele>524.09997559</ele>
        <time>2020-10-22T08:38:04Z</time>
      </trkpt>
      <trkpt lat="43.02698" lon="0.76434">
        <ele>524.90002441</ele>
        <time>2020-10-22T08:38:05Z</time>
      </trkpt>
      <trkpt lat="43.02701" lon="0.76433">
        <ele>525.13000488</ele>
        <time>2020-10-22T08:38:06Z</time>
      </trkpt>
      <trkpt lat="43.02704" lon="0.76432">
        <ele>525.2199707</ele>
        <time>2020-10-22T08:38:07Z</time>
      </trkpt>
      <trkpt lat="43.02707" lon="0.76431">
        <ele>525.40997314</ele>
        <time>2020-10-22T08:38:08Z</time>
      </trkpt>
      <trkpt lat="43.0271" lon="0.7643">
        <ele>525.60998535</ele>
        <time>2020-10-22T08:38:10Z</time>
      </trkpt>
      <trkpt lat="43.02713" lon="0.76429">
        <ele>527.5300293</ele>
        <time>2020-10-22T08:38:11Z</time>
      </trkpt>
      <trkpt lat="43.02718" lon="0.76427">
        <ele>527.85998535</ele>
        <time>2020-10-22T08:38:13Z</time>
      </trkpt>
      <trkpt lat="43.0272" lon="0.76424">
        <ele>528.16998291</ele>
        <time>2020-10-22T08:38:14Z</time>
      </trkpt>
      <trkpt lat="43.02721" lon="0.76421">
        <ele>527.77001953</ele>
        <time>2020-10-22T08:38:15Z</time>
      </trkpt>
      <trkpt lat="43.02721" lon="0.76416">
        <ele>528.36999512</ele>
        <time>2020-10-22T08:38:17Z</time>
      </trkpt>
      <trkpt lat="43.02722" lon="0.76413">
        <ele>528.55999756</ele>
        <time>2020-10-22T08:38:18Z</time>
      </trkpt>
      <trkpt lat="43.02722" lon="0.76409">
        <ele>528.94000244</ele>
        <time>2020-10-22T08:38:19Z</time>
      </trkpt>
      <trkpt lat="43.02722" lon="0.76404">
        <ele>529.90997314</ele>
        <time>2020-10-22T08:38:21Z</time>
      </trkpt>
      <trkpt lat="43.02724" lon="0.76399">
        <ele>529.96002197</ele>
        <time>2020-10-22T08:38:23Z</time>
      </trkpt>
      <trkpt lat="43.02724" lon="0.76395">
        <ele>529.84002686</ele>
        <time>2020-10-22T08:38:24Z</time>
      </trkpt>
      <trkpt lat="43.02726" lon="0.7639">
        <ele>530.19000244</ele>
        <time>2020-10-22T08:38:25Z</time>
      </trkpt>
      <trkpt lat="43.02727" lon="0.76386">
        <ele>530.60998535</ele>
        <time>2020-10-22T08:38:27Z</time>
      </trkpt>
      <trkpt lat="43.02728" lon="0.76381">
        <ele>531.03997803</ele>
        <time>2020-10-22T08:38:28Z</time>
      </trkpt>
      <trkpt lat="43.02729" lon="0.76378">
        <ele>531.33001709</ele>
        <time>2020-10-22T08:38:29Z</time>
      </trkpt>
      <trkpt lat="43.0273" lon="0.76375">
        <ele>531.57000732</ele>
        <time>2020-10-22T08:38:31Z</time>
      </trkpt>
      <trkpt lat="43.02731" lon="0.76371">
        <ele>532.04998779</ele>
        <time>2020-10-22T08:38:32Z</time>
      </trkpt>
      <trkpt lat="43.02733" lon="0.76365">
        <ele>532.95001221</ele>
        <time>2020-10-22T08:38:34Z</time>
      </trkpt>
      <trkpt lat="43.02734" lon="0.76361">
        <ele>533.86999512</ele>
        <time>2020-10-22T08:38:35Z</time>
      </trkpt>
      <trkpt lat="43.02736" lon="0.76353">
        <ele>534.47998047</ele>
        <time>2020-10-22T08:38:37Z</time>
      </trkpt>
      <trkpt lat="43.02737" lon="0.76345">
        <ele>534.20001221</ele>
        <time>2020-10-22T08:38:39Z</time>
      </trkpt>
      <trkpt lat="43.02738" lon="0.76338">
        <ele>534.7199707</ele>
        <time>2020-10-22T08:38:40Z</time>
      </trkpt>
      <trkpt lat="43.0274" lon="0.76333">
        <ele>534.84997559</ele>
        <time>2020-10-22T08:38:41Z</time>
      </trkpt>
      <trkpt lat="43.02742" lon="0.76329">
        <ele>535.41998291</ele>
        <time>2020-10-22T08:38:43Z</time>
      </trkpt>
      <trkpt lat="43.02745" lon="0.76323">
        <ele>535.94000244</ele>
        <time>2020-10-22T08:38:44Z</time>
      </trkpt>
      <trkpt lat="43.02747" lon="0.76319">
        <ele>537.01000977</ele>
        <time>2020-10-22T08:38:46Z</time>
      </trkpt>
      <trkpt lat="43.02748" lon="0.76315">
        <ele>537.53997803</ele>
        <time>2020-10-22T08:38:47Z</time>
      </trkpt>
      <trkpt lat="43.02749" lon="0.76309">
        <ele>537.86999512</ele>
        <time>2020-10-22T08:38:48Z</time>
      </trkpt>
      <trkpt lat="43.02751" lon="0.76305">
        <ele>537.9699707</ele>
        <time>2020-10-22T08:38:50Z</time>
      </trkpt>
      <trkpt lat="43.02752" lon="0.763">
        <ele>538.35998535</ele>
        <time>2020-10-22T08:38:51Z</time>
      </trkpt>
      <trkpt lat="43.02753" lon="0.76292">
        <ele>539.89001465</ele>
        <time>2020-10-22T08:38:53Z</time>
      </trkpt>
      <trkpt lat="43.02754" lon="0.76287">
        <ele>539.89001465</ele>
        <time>2020-10-22T08:38:54Z</time>
      </trkpt>
      <trkpt lat="43.02755" lon="0.76282">
        <ele>540.30999756</ele>
        <time>2020-10-22T08:38:55Z</time>
      </trkpt>
      <trkpt lat="43.02756" lon="0.76275">
        <ele>540.60998535</ele>
        <time>2020-10-22T08:38:56Z</time>
      </trkpt>
      <trkpt lat="43.02757" lon="0.76269">
        <ele>540.90002441</ele>
        <time>2020-10-22T08:38:58Z</time>
      </trkpt>
      <trkpt lat="43.02758" lon="0.76264">
        <ele>541.76000977</ele>
        <time>2020-10-22T08:38:59Z</time>
      </trkpt>
      <trkpt lat="43.02758" lon="0.7626">
        <ele>541.97998047</ele>
        <time>2020-10-22T08:39:00Z</time>
      </trkpt>
      <trkpt lat="43.02759" lon="0.76255">
        <ele>542.73999023</ele>
        <time>2020-10-22T08:39:02Z</time>
      </trkpt>
      <trkpt lat="43.0276" lon="0.76249">
        <ele>543.16998291</ele>
        <time>2020-10-22T08:39:03Z</time>
      </trkpt>
      <trkpt lat="43.02761" lon="0.76245">
        <ele>543.84997559</ele>
        <time>2020-10-22T08:39:05Z</time>
      </trkpt>
      <trkpt lat="43.02762" lon="0.76241">
        <ele>544.55999756</ele>
        <time>2020-10-22T08:39:06Z</time>
      </trkpt>
      <trkpt lat="43.02763" lon="0.76237">
        <ele>545.23999023</ele>
        <time>2020-10-22T08:39:07Z</time>
      </trkpt>
      <trkpt lat="43.02763" lon="0.7623">
        <ele>546.5</ele>
        <time>2020-10-22T08:39:09Z</time>
      </trkpt>
      <trkpt lat="43.02764" lon="0.76226">
        <ele>546.64001465</ele>
        <time>2020-10-22T08:39:10Z</time>
      </trkpt>
      <trkpt lat="43.02766" lon="0.76221">
        <ele>547.13000488</ele>
        <time>2020-10-22T08:39:11Z</time>
      </trkpt>
      <trkpt lat="43.02767" lon="0.76218">
        <ele>547.41998291</ele>
        <time>2020-10-22T08:39:13Z</time>
      </trkpt>
      <trkpt lat="43.02768" lon="0.76214">
        <ele>547.41998291</ele>
        <time>2020-10-22T08:39:14Z</time>
      </trkpt>
      <trkpt lat="43.02769" lon="0.7621">
        <ele>548.17999268</ele>
        <time>2020-10-22T08:39:15Z</time>
      </trkpt>
      <trkpt lat="43.02769" lon="0.76207">
        <ele>548.71002197</ele>
        <time>2020-10-22T08:39:16Z</time>
      </trkpt>
      <trkpt lat="43.02771" lon="0.76203">
        <ele>548.82000732</ele>
        <time>2020-10-22T08:39:17Z</time>
      </trkpt>
      <trkpt lat="43.02771" lon="0.762">
        <ele>548.85998535</ele>
        <time>2020-10-22T08:39:18Z</time>
      </trkpt>
      <trkpt lat="43.02772" lon="0.76196">
        <ele>549.42999268</ele>
        <time>2020-10-22T08:39:20Z</time>
      </trkpt>
      <trkpt lat="43.02772" lon="0.76193">
        <ele>549.42999268</ele>
        <time>2020-10-22T08:39:21Z</time>
      </trkpt>
      <trkpt lat="43.02773" lon="0.76188">
        <ele>550.45001221</ele>
        <time>2020-10-22T08:39:22Z</time>
      </trkpt>
      <trkpt lat="43.02774" lon="0.76184">
        <ele>550.69000244</ele>
        <time>2020-10-22T08:39:23Z</time>
      </trkpt>
      <trkpt lat="43.02775" lon="0.76181">
        <ele>551.21002197</ele>
        <time>2020-10-22T08:39:25Z</time>
      </trkpt>
      <trkpt lat="43.02775" lon="0.76177">
        <ele>551.42999268</ele>
        <time>2020-10-22T08:39:26Z</time>
      </trkpt>
      <trkpt lat="43.02776" lon="0.76172">
        <ele>551.54998779</ele>
        <time>2020-10-22T08:39:27Z</time>
      </trkpt>
      <trkpt lat="43.02776" lon="0.7617">
        <ele>551.45001221</ele>
        <time>2020-10-22T08:39:28Z</time>
      </trkpt>
      <trkpt lat="43.02777" lon="0.76166">
        <ele>552.16998291</ele>
        <time>2020-10-22T08:39:30Z</time>
      </trkpt>
      <trkpt lat="43.02777" lon="0.76161">
        <ele>552.28997803</ele>
        <time>2020-10-22T08:39:31Z</time>
      </trkpt>
      <trkpt lat="43.02778" lon="0.76157">
        <ele>553.01000977</ele>
        <time>2020-10-22T08:39:33Z</time>
      </trkpt>
      <trkpt lat="43.02777" lon="0.76154">
        <ele>553.29998779</ele>
        <time>2020-10-22T08:39:34Z</time>
      </trkpt>
      <trkpt lat="43.02777" lon="0.76148">
        <ele>553.75</ele>
        <time>2020-10-22T08:39:36Z</time>
      </trkpt>
      <trkpt lat="43.02777" lon="0.76145">
        <ele>554.41998291</ele>
        <time>2020-10-22T08:39:37Z</time>
      </trkpt>
      <trkpt lat="43.02777" lon="0.76142">
        <ele>554.40997314</ele>
        <time>2020-10-22T08:39:38Z</time>
      </trkpt>
      <trkpt lat="43.02777" lon="0.7614">
        <ele>554.92999268</ele>
        <time>2020-10-22T08:39:39Z</time>
      </trkpt>
      <trkpt lat="43.02777" lon="0.76137">
        <ele>555.5</ele>
        <time>2020-10-22T08:39:40Z</time>
      </trkpt>
      <trkpt lat="43.02776" lon="0.76132">
        <ele>556.5</ele>
        <time>2020-10-22T08:39:42Z</time>
      </trkpt>
      <trkpt lat="43.02776" lon="0.76128">
        <ele>557.07000732</ele>
        <time>2020-10-22T08:39:43Z</time>
      </trkpt>
      <trkpt lat="43.02776" lon="0.76124">
        <ele>557.82000732</ele>
        <time>2020-10-22T08:39:45Z</time>
      </trkpt>
      <trkpt lat="43.02775" lon="0.76118">
        <ele>558.26000977</ele>
        <time>2020-10-22T08:39:46Z</time>
      </trkpt>
      <trkpt lat="43.02775" lon="0.76115">
        <ele>558.5300293</ele>
        <time>2020-10-22T08:39:47Z</time>
      </trkpt>
      <trkpt lat="43.02775" lon="0.76111">
        <ele>559.10998535</ele>
        <time>2020-10-22T08:39:48Z</time>
      </trkpt>
      <trkpt lat="43.02774" lon="0.76105">
        <ele>560.23999023</ele>
        <time>2020-10-22T08:39:50Z</time>
      </trkpt>
      <trkpt lat="43.02773" lon="0.76101">
        <ele>560.5</ele>
        <time>2020-10-22T08:39:51Z</time>
      </trkpt>
      <trkpt lat="43.02772" lon="0.76096">
        <ele>560.91998291</ele>
        <time>2020-10-22T08:39:53Z</time>
      </trkpt>
      <trkpt lat="43.02771" lon="0.76091">
        <ele>561.34997559</ele>
        <time>2020-10-22T08:39:54Z</time>
      </trkpt>
      <trkpt lat="43.02771" lon="0.76084">
        <ele>561.61999512</ele>
        <time>2020-10-22T08:39:55Z</time>
      </trkpt>
      <trkpt lat="43.0277" lon="0.76078">
        <ele>561.92999268</ele>
        <time>2020-10-22T08:39:57Z</time>
      </trkpt>
      <trkpt lat="43.0277" lon="0.76072">
        <ele>562.29998779</ele>
        <time>2020-10-22T08:39:58Z</time>
      </trkpt>
      <trkpt lat="43.0277" lon="0.76069">
        <ele>562.70001221</ele>
        <time>2020-10-22T08:39:59Z</time>
      </trkpt>
      <trkpt lat="43.0277" lon="0.76064">
        <ele>563.57000732</ele>
        <time>2020-10-22T08:40:01Z</time>
      </trkpt>
      <trkpt lat="43.02769" lon="0.76061">
        <ele>563.57000732</ele>
        <time>2020-10-22T08:40:02Z</time>
      </trkpt>
      <trkpt lat="43.02767" lon="0.76056">
        <ele>564.72998047</ele>
        <time>2020-10-22T08:40:03Z</time>
      </trkpt>
      <trkpt lat="43.02765" lon="0.76052">
        <ele>564.7199707</ele>
        <time>2020-10-22T08:40:05Z</time>
      </trkpt>
      <trkpt lat="43.02765" lon="0.76049">
        <ele>565.53997803</ele>
        <time>2020-10-22T08:40:06Z</time>
      </trkpt>
      <trkpt lat="43.02764" lon="0.76046">
        <ele>565.83001709</ele>
        <time>2020-10-22T08:40:07Z</time>
      </trkpt>
      <trkpt lat="43.02764" lon="0.76042">
        <ele>566.5300293</ele>
        <time>2020-10-22T08:40:08Z</time>
      </trkpt>
      <trkpt lat="43.02763" lon="0.76038">
        <ele>567.26000977</ele>
        <time>2020-10-22T08:40:10Z</time>
      </trkpt>
      <trkpt lat="43.02763" lon="0.76035">
        <ele>567.64001465</ele>
        <time>2020-10-22T08:40:11Z</time>
      </trkpt>
      <trkpt lat="43.02763" lon="0.76029">
        <ele>568.07000732</ele>
        <time>2020-10-22T08:40:12Z</time>
      </trkpt>
      <trkpt lat="43.02762" lon="0.76024">
        <ele>568.36999512</ele>
        <time>2020-10-22T08:40:13Z</time>
      </trkpt>
      <trkpt lat="43.02762" lon="0.76021">
        <ele>568.78997803</ele>
        <time>2020-10-22T08:40:15Z</time>
      </trkpt>
      <trkpt lat="43.02762" lon="0.76017">
        <ele>569.7800293</ele>
        <time>2020-10-22T08:40:16Z</time>
      </trkpt>
      <trkpt lat="43.02762" lon="0.76014">
        <ele>569.89001465</ele>
        <time>2020-10-22T08:40:17Z</time>
      </trkpt>
      <trkpt lat="43.02763" lon="0.76011">
        <ele>570.29998779</ele>
        <time>2020-10-22T08:40:19Z</time>
      </trkpt>
      <trkpt lat="43.02763" lon="0.7601">
        <ele>570.82000732</ele>
        <time>2020-10-22T08:40:20Z</time>
      </trkpt>
      <trkpt lat="43.02764" lon="0.76007">
        <ele>570.82000732</ele>
        <time>2020-10-22T08:40:21Z</time>
      </trkpt>
      <trkpt lat="43.02765" lon="0.76003">
        <ele>572.14001465</ele>
        <time>2020-10-22T08:40:23Z</time>
      </trkpt>
      <trkpt lat="43.02765" lon="0.75996">
        <ele>573</ele>
        <time>2020-10-22T08:40:25Z</time>
      </trkpt>
      <trkpt lat="43.02766" lon="0.7599">
        <ele>573.5300293</ele>
        <time>2020-10-22T08:40:27Z</time>
      </trkpt>
      <trkpt lat="43.02766" lon="0.75985">
        <ele>573.2800293</ele>
        <time>2020-10-22T08:40:28Z</time>
      </trkpt>
      <trkpt lat="43.02766" lon="0.75981">
        <ele>573.35998535</ele>
        <time>2020-10-22T08:40:29Z</time>
      </trkpt>
      <trkpt lat="43.02765" lon="0.75976">
        <ele>573.97998047</ele>
        <time>2020-10-22T08:40:30Z</time>
      </trkpt>
      <trkpt lat="43.02764" lon="0.75969">
        <ele>574.70001221</ele>
        <time>2020-10-22T08:40:32Z</time>
      </trkpt>
      <trkpt lat="43.02763" lon="0.75966">
        <ele>575.19000244</ele>
        <time>2020-10-22T08:40:33Z</time>
      </trkpt>
      <trkpt lat="43.02761" lon="0.75962">
        <ele>575.40002441</ele>
        <time>2020-10-22T08:40:34Z</time>
      </trkpt>
      <trkpt lat="43.0276" lon="0.75955">
        <ele>575.21002197</ele>
        <time>2020-10-22T08:40:36Z</time>
      </trkpt>
      <trkpt lat="43.02756" lon="0.75944">
        <ele>573.64001465</ele>
        <time>2020-10-22T08:40:38Z</time>
      </trkpt>
      <trkpt lat="43.02747" lon="0.75927">
        <ele>573.20001221</ele>
        <time>2020-10-22T08:40:40Z</time>
      </trkpt>
      <trkpt lat="43.02744" lon="0.75919">
        <ele>572.54998779</ele>
        <time>2020-10-22T08:40:41Z</time>
      </trkpt>
      <trkpt lat="43.02736" lon="0.75902">
        <ele>570.36999512</ele>
        <time>2020-10-22T08:40:43Z</time>
      </trkpt>
      <trkpt lat="43.02732" lon="0.75894">
        <ele>569.57000732</ele>
        <time>2020-10-22T08:40:44Z</time>
      </trkpt>
      <trkpt lat="43.02724" lon="0.75877">
        <ele>566.90997314</ele>
        <time>2020-10-22T08:40:46Z</time>
      </trkpt>
      <trkpt lat="43.02721" lon="0.7587">
        <ele>565.86999512</ele>
        <time>2020-10-22T08:40:47Z</time>
      </trkpt>
      <trkpt lat="43.02714" lon="0.75854">
        <ele>563.40997314</ele>
        <time>2020-10-22T08:40:49Z</time>
      </trkpt>
      <trkpt lat="43.02712" lon="0.75845">
        <ele>562.73999023</ele>
        <time>2020-10-22T08:40:50Z</time>
      </trkpt>
      <trkpt lat="43.02709" lon="0.75837">
        <ele>560.63000488</ele>
        <time>2020-10-22T08:40:51Z</time>
      </trkpt>
      <trkpt lat="43.02704" lon="0.7582">
        <ele>556.36999512</ele>
        <time>2020-10-22T08:40:53Z</time>
      </trkpt>
      <trkpt lat="43.02699" lon="0.7581">
        <ele>554.79998779</ele>
        <time>2020-10-22T08:40:54Z</time>
      </trkpt>
      <trkpt lat="43.02689" lon="0.75794">
        <ele>552.26000977</ele>
        <time>2020-10-22T08:40:56Z</time>
      </trkpt>
      <trkpt lat="43.0268" lon="0.75782">
        <ele>553.60998535</ele>
        <time>2020-10-22T08:40:58Z</time>
      </trkpt>
      <trkpt lat="43.02675" lon="0.75773">
        <ele>551.01000977</ele>
        <time>2020-10-22T08:40:59Z</time>
      </trkpt>
      <trkpt lat="43.0267" lon="0.75755">
        <ele>547.25</ele>
        <time>2020-10-22T08:41:01Z</time>
      </trkpt>
      <trkpt lat="43.02665" lon="0.75735">
        <ele>547.04998779</ele>
        <time>2020-10-22T08:41:03Z</time>
      </trkpt>
      <trkpt lat="43.02659" lon="0.7571">
        <ele>543.64001465</ele>
        <time>2020-10-22T08:41:05Z</time>
      </trkpt>
      <trkpt lat="43.02655" lon="0.75699">
        <ele>542.29998779</ele>
        <time>2020-10-22T08:41:06Z</time>
      </trkpt>
      <trkpt lat="43.02647" lon="0.7568">
        <ele>542.82000732</ele>
        <time>2020-10-22T08:41:08Z</time>
      </trkpt>
      <trkpt lat="43.02643" lon="0.75672">
        <ele>541.13000488</ele>
        <time>2020-10-22T08:41:09Z</time>
      </trkpt>
      <trkpt lat="43.02638" lon="0.75654">
        <ele>541.0300293</ele>
        <time>2020-10-22T08:41:11Z</time>
      </trkpt>
      <trkpt lat="43.02633" lon="0.75639">
        <ele>541.75</ele>
        <time>2020-10-22T08:41:13Z</time>
      </trkpt>
      <trkpt lat="43.0263" lon="0.75633">
        <ele>542.48999023</ele>
        <time>2020-10-22T08:41:14Z</time>
      </trkpt>
      <trkpt lat="43.02628" lon="0.75627">
        <ele>543.19000244</ele>
        <time>2020-10-22T08:41:16Z</time>
      </trkpt>
      <trkpt lat="43.02626" lon="0.75629">
        <ele>543.11999512</ele>
        <time>2020-10-22T08:41:17Z</time>
      </trkpt>
      <trkpt lat="43.02612" lon="0.75603">
        <ele>543.63000488</ele>
        <time>2020-10-22T08:41:34Z</time>
      </trkpt>
      <trkpt lat="43.02612" lon="0.75603">
        <ele>543.77001953</ele>
        <time>2020-10-22T08:41:36Z</time>
      </trkpt>
      <trkpt lat="43.02612" lon="0.75603">
        <ele>544.57000732</ele>
        <time>2020-10-22T08:41:38Z</time>
      </trkpt>
      <trkpt lat="43.02613" lon="0.75601">
        <ele>544.63000488</ele>
        <time>2020-10-22T08:41:43Z</time>
      </trkpt>
      <trkpt lat="43.02613" lon="0.75601">
        <ele>544.60998535</ele>
        <time>2020-10-22T08:41:44Z</time>
      </trkpt>
      <trkpt lat="43.02615" lon="0.75599">
        <ele>544.08001709</ele>
        <time>2020-10-22T08:41:47Z</time>
      </trkpt>
      <trkpt lat="43.02615" lon="0.75599">
        <ele>544.54998779</ele>
        <time>2020-10-22T08:41:49Z</time>
      </trkpt>
      <trkpt lat="43.02615" lon="0.75598">
        <ele>546.09997559</ele>
        <time>2020-10-22T08:41:50Z</time>
      </trkpt>
      <trkpt lat="43.02615" lon="0.75597">
        <ele>546.10998535</ele>
        <time>2020-10-22T08:41:52Z</time>
      </trkpt>
      <trkpt lat="43.02616" lon="0.75597">
        <ele>546.36999512</ele>
        <time>2020-10-22T08:41:53Z</time>
      </trkpt>
      <trkpt lat="43.02616" lon="0.75596">
        <ele>547.27001953</ele>
        <time>2020-10-22T08:41:54Z</time>
      </trkpt>
      <trkpt lat="43.02618" lon="0.7559">
        <ele>549.53997803</ele>
        <time>2020-10-22T08:42:04Z</time>
      </trkpt>
      <trkpt lat="43.02618" lon="0.7559">
        <ele>549.7800293</ele>
        <time>2020-10-22T08:42:06Z</time>
      </trkpt>
      <trkpt lat="43.02618" lon="0.7559">
        <ele>550.05999756</ele>
        <time>2020-10-22T08:42:07Z</time>
      </trkpt>
      <trkpt lat="43.02618" lon="0.7559">
        <ele>550.63000488</ele>
        <time>2020-10-22T08:42:11Z</time>
      </trkpt>
      <trkpt lat="43.02618" lon="0.7559">
        <ele>550.67999268</ele>
        <time>2020-10-22T08:42:12Z</time>
      </trkpt>
      <trkpt lat="43.02618" lon="0.75591">
        <ele>550.76000977</ele>
        <time>2020-10-22T08:42:13Z</time>
      </trkpt>
      <trkpt lat="43.02618" lon="0.75591">
        <ele>550.78997803</ele>
        <time>2020-10-22T08:42:14Z</time>
      </trkpt>
      <trkpt lat="43.02618" lon="0.7559">
        <ele>550.77001953</ele>
        <time>2020-10-22T08:42:15Z</time>
      </trkpt>
      <trkpt lat="43.02618" lon="0.75589">
        <ele>549.96002197</ele>
        <time>2020-10-22T08:42:17Z</time>
      </trkpt>
      <trkpt lat="43.02618" lon="0.75587">
        <ele>550.21002197</ele>
        <time>2020-10-22T08:42:18Z</time>
      </trkpt>
      <trkpt lat="43.02618" lon="0.75582">
        <ele>550.44000244</ele>
        <time>2020-10-22T08:42:19Z</time>
      </trkpt>
      <trkpt lat="43.02618" lon="0.75577">
        <ele>550.21002197</ele>
        <time>2020-10-22T08:42:21Z</time>
      </trkpt>
      <trkpt lat="43.02618" lon="0.75573">
        <ele>551.15997314</ele>
        <time>2020-10-22T08:42:22Z</time>
      </trkpt>
      <trkpt lat="43.02619" lon="0.75568">
        <ele>551.28997803</ele>
        <time>2020-10-22T08:42:23Z</time>
      </trkpt>
      <trkpt lat="43.02619" lon="0.75562">
        <ele>552.45001221</ele>
        <time>2020-10-22T08:42:25Z</time>
      </trkpt>
      <trkpt lat="43.02619" lon="0.75557">
        <ele>553.26000977</ele>
        <time>2020-10-22T08:42:26Z</time>
      </trkpt>
      <trkpt lat="43.0262" lon="0.75552">
        <ele>553.48999023</ele>
        <time>2020-10-22T08:42:27Z</time>
      </trkpt>
      <trkpt lat="43.0262" lon="0.7555">
        <ele>553.82000732</ele>
        <time>2020-10-22T08:42:29Z</time>
      </trkpt>
      <trkpt lat="43.02621" lon="0.75549">
        <ele>553.55999756</ele>
        <time>2020-10-22T08:42:30Z</time>
      </trkpt>
      <trkpt lat="43.02621" lon="0.75548">
        <ele>553.78997803</ele>
        <time>2020-10-22T08:42:32Z</time>
      </trkpt>
      <trkpt lat="43.02621" lon="0.75545">
        <ele>554.66998291</ele>
        <time>2020-10-22T08:42:33Z</time>
      </trkpt>
      <trkpt lat="43.02621" lon="0.75541">
        <ele>554.71002197</ele>
        <time>2020-10-22T08:42:35Z</time>
      </trkpt>
      <trkpt lat="43.02621" lon="0.75537">
        <ele>553.96002197</ele>
        <time>2020-10-22T08:42:36Z</time>
      </trkpt>
      <trkpt lat="43.02616" lon="0.75525">
        <ele>553.89001465</ele>
        <time>2020-10-22T08:42:38Z</time>
      </trkpt>
      <trkpt lat="43.02611" lon="0.75512">
        <ele>554.2800293</ele>
        <time>2020-10-22T08:42:39Z</time>
      </trkpt>
      <trkpt lat="43.02606" lon="0.75505">
        <ele>553.5</ele>
        <time>2020-10-22T08:42:40Z</time>
      </trkpt>
      <trkpt lat="43.02601" lon="0.75497">
        <ele>550.66998291</ele>
        <time>2020-10-22T08:42:42Z</time>
      </trkpt>
      <trkpt lat="43.02598" lon="0.75491">
        <ele>550.80999756</ele>
        <time>2020-10-22T08:42:43Z</time>
      </trkpt>
      <trkpt lat="43.02588" lon="0.75473">
        <ele>549.33001709</ele>
        <time>2020-10-22T08:42:45Z</time>
      </trkpt>
      <trkpt lat="43.02579" lon="0.75459">
        <ele>543.53997803</ele>
        <time>2020-10-22T08:42:47Z</time>
      </trkpt>
      <trkpt lat="43.02571" lon="0.75438">
        <ele>542.77001953</ele>
        <time>2020-10-22T08:42:49Z</time>
      </trkpt>
      <trkpt lat="43.02563" lon="0.75415">
        <ele>539.79998779</ele>
        <time>2020-10-22T08:42:51Z</time>
      </trkpt>
      <trkpt lat="43.0256" lon="0.75404">
        <ele>538.09997559</ele>
        <time>2020-10-22T08:42:52Z</time>
      </trkpt>
      <trkpt lat="43.02557" lon="0.75386">
        <ele>535.67999268</ele>
        <time>2020-10-22T08:42:54Z</time>
      </trkpt>
      <trkpt lat="43.02553" lon="0.75367">
        <ele>533.10998535</ele>
        <time>2020-10-22T08:42:56Z</time>
      </trkpt>
      <trkpt lat="43.02551" lon="0.75354">
        <ele>532.09002686</ele>
        <time>2020-10-22T08:42:58Z</time>
      </trkpt>
      <trkpt lat="43.02549" lon="0.75349">
        <ele>531.72998047</ele>
        <time>2020-10-22T08:42:59Z</time>
      </trkpt>
      <trkpt lat="43.02547" lon="0.75344">
        <ele>530.9699707</ele>
        <time>2020-10-22T08:43:00Z</time>
      </trkpt>
      <trkpt lat="43.02546" lon="0.75338">
        <ele>530.07000732</ele>
        <time>2020-10-22T08:43:01Z</time>
      </trkpt>
      <trkpt lat="43.02542" lon="0.75333">
        <ele>530.60998535</ele>
        <time>2020-10-22T08:43:04Z</time>
      </trkpt>
      <trkpt lat="43.02541" lon="0.75329">
        <ele>529.77001953</ele>
        <time>2020-10-22T08:43:05Z</time>
      </trkpt>
      <trkpt lat="43.02539" lon="0.75321">
        <ele>528.92999268</ele>
        <time>2020-10-22T08:43:07Z</time>
      </trkpt>
      <trkpt lat="43.02539" lon="0.75319">
        <ele>528.23999023</ele>
        <time>2020-10-22T08:43:08Z</time>
      </trkpt>
      <trkpt lat="43.02539" lon="0.75313">
        <ele>527.4699707</ele>
        <time>2020-10-22T08:43:09Z</time>
      </trkpt>
      <trkpt lat="43.02538" lon="0.75307">
        <ele>527.2199707</ele>
        <time>2020-10-22T08:43:11Z</time>
      </trkpt>
      <trkpt lat="43.02537" lon="0.75302">
        <ele>527.69000244</ele>
        <time>2020-10-22T08:43:12Z</time>
      </trkpt>
      <trkpt lat="43.02537" lon="0.75299">
        <ele>527.15997314</ele>
        <time>2020-10-22T08:43:14Z</time>
      </trkpt>
      <trkpt lat="43.02536" lon="0.75296">
        <ele>528.5</ele>
        <time>2020-10-22T08:43:15Z</time>
      </trkpt>
      <trkpt lat="43.02536" lon="0.75293">
        <ele>528.29998779</ele>
        <time>2020-10-22T08:43:16Z</time>
      </trkpt>
      <trkpt lat="43.02536" lon="0.75291">
        <ele>526.73999023</ele>
        <time>2020-10-22T08:43:17Z</time>
      </trkpt>
      <trkpt lat="43.02537" lon="0.75287">
        <ele>526.73999023</ele>
        <time>2020-10-22T08:43:18Z</time>
      </trkpt>
      <trkpt lat="43.02537" lon="0.75277">
        <ele>527.66998291</ele>
        <time>2020-10-22T08:43:20Z</time>
      </trkpt>
      <trkpt lat="43.02537" lon="0.75273">
        <ele>526.95001221</ele>
        <time>2020-10-22T08:43:21Z</time>
      </trkpt>
      <trkpt lat="43.02539" lon="0.75262">
        <ele>526.21002197</ele>
        <time>2020-10-22T08:43:23Z</time>
      </trkpt>
      <trkpt lat="43.02543" lon="0.7522">
        <ele>525.55999756</ele>
        <time>2020-10-22T08:43:26Z</time>
      </trkpt>
      <trkpt lat="43.02545" lon="0.75209">
        <ele>524.73999023</ele>
        <time>2020-10-22T08:43:28Z</time>
      </trkpt>
      <trkpt lat="43.02544" lon="0.75214">
        <ele>524.73999023</ele>
        <time>2020-10-22T08:43:29Z</time>
      </trkpt>
      <trkpt lat="43.02543" lon="0.75218">
        <ele>524.19000244</ele>
        <time>2020-10-22T08:43:30Z</time>
      </trkpt>
      <trkpt lat="43.02539" lon="0.75212">
        <ele>524.19000244</ele>
        <time>2020-10-22T08:43:31Z</time>
      </trkpt>
      <trkpt lat="43.02536" lon="0.75185">
        <ele>524.59997559</ele>
        <time>2020-10-22T08:43:32Z</time>
      </trkpt>
      <trkpt lat="43.02534" lon="0.75156">
        <ele>523.46002197</ele>
        <time>2020-10-22T08:43:34Z</time>
      </trkpt>
      <trkpt lat="43.02534" lon="0.75142">
        <ele>524.2199707</ele>
        <time>2020-10-22T08:43:35Z</time>
      </trkpt>
      <trkpt lat="43.02534" lon="0.75114">
        <ele>521.84997559</ele>
        <time>2020-10-22T08:43:37Z</time>
      </trkpt>
      <trkpt lat="43.02534" lon="0.75094">
        <ele>520.41998291</ele>
        <time>2020-10-22T08:43:38Z</time>
      </trkpt>
      <trkpt lat="43.02537" lon="0.75059">
        <ele>519.76000977</ele>
        <time>2020-10-22T08:43:40Z</time>
      </trkpt>
      <trkpt lat="43.02538" lon="0.7504">
        <ele>519.67999268</ele>
        <time>2020-10-22T08:43:41Z</time>
      </trkpt>
      <trkpt lat="43.02536" lon="0.74997">
        <ele>516.88000488</ele>
        <time>2020-10-22T08:43:43Z</time>
      </trkpt>
      <trkpt lat="43.02536" lon="0.74982">
        <ele>517.30999756</ele>
        <time>2020-10-22T08:43:44Z</time>
      </trkpt>
      <trkpt lat="43.02534" lon="0.74951">
        <ele>513.02001953</ele>
        <time>2020-10-22T08:43:46Z</time>
      </trkpt>
      <trkpt lat="43.0253" lon="0.74909">
        <ele>510.97000122</ele>
        <time>2020-10-22T08:43:48Z</time>
      </trkpt>
      <trkpt lat="43.02525" lon="0.74868">
        <ele>507.73001099</ele>
        <time>2020-10-22T08:43:50Z</time>
      </trkpt>
      <trkpt lat="43.02522" lon="0.74849">
        <ele>505.75</ele>
        <time>2020-10-22T08:43:51Z</time>
      </trkpt>
      <trkpt lat="43.02522" lon="0.74814">
        <ele>502.20001221</ele>
        <time>2020-10-22T08:43:53Z</time>
      </trkpt>
      <trkpt lat="43.02522" lon="0.74795">
        <ele>500.36999512</ele>
        <time>2020-10-22T08:43:54Z</time>
      </trkpt>
      <trkpt lat="43.02519" lon="0.74754">
        <ele>497.13000488</ele>
        <time>2020-10-22T08:43:56Z</time>
      </trkpt>
      <trkpt lat="43.02519" lon="0.7472">
        <ele>494.38000488</ele>
        <time>2020-10-22T08:43:58Z</time>
      </trkpt>
      <trkpt lat="43.02519" lon="0.74701">
        <ele>492.70999146</ele>
        <time>2020-10-22T08:43:59Z</time>
      </trkpt>
      <trkpt lat="43.0252" lon="0.74662">
        <ele>490.66000366</ele>
        <time>2020-10-22T08:44:01Z</time>
      </trkpt>
      <trkpt lat="43.02521" lon="0.74644">
        <ele>489.08999634</ele>
        <time>2020-10-22T08:44:02Z</time>
      </trkpt>
      <trkpt lat="43.02523" lon="0.74627">
        <ele>487.95999146</ele>
        <time>2020-10-22T08:44:03Z</time>
      </trkpt>
      <trkpt lat="43.02522" lon="0.746">
        <ele>484.57000732</ele>
        <time>2020-10-22T08:44:05Z</time>
      </trkpt>
      <trkpt lat="43.02523" lon="0.7459">
        <ele>482.73001099</ele>
        <time>2020-10-22T08:44:06Z</time>
      </trkpt>
      <trkpt lat="43.02524" lon="0.7458">
        <ele>481.67999268</ele>
        <time>2020-10-22T08:44:07Z</time>
      </trkpt>
      <trkpt lat="43.02525" lon="0.74562">
        <ele>479.23001099</ele>
        <time>2020-10-22T08:44:09Z</time>
      </trkpt>
      <trkpt lat="43.02526" lon="0.74552">
        <ele>476.70999146</ele>
        <time>2020-10-22T08:44:10Z</time>
      </trkpt>
      <trkpt lat="43.02533" lon="0.74536">
        <ele>474.67001343</ele>
        <time>2020-10-22T08:44:12Z</time>
      </trkpt>
      <trkpt lat="43.02538" lon="0.74528">
        <ele>474.30999756</ele>
        <time>2020-10-22T08:44:13Z</time>
      </trkpt>
      <trkpt lat="43.02542" lon="0.74518">
        <ele>473.60998535</ele>
        <time>2020-10-22T08:44:14Z</time>
      </trkpt>
      <trkpt lat="43.02547" lon="0.7451">
        <ele>471.48001099</ele>
        <time>2020-10-22T08:44:15Z</time>
      </trkpt>
      <trkpt lat="43.02558" lon="0.74493">
        <ele>470.5</ele>
        <time>2020-10-22T08:44:17Z</time>
      </trkpt>
      <trkpt lat="43.02564" lon="0.74484">
        <ele>470.58999634</ele>
        <time>2020-10-22T08:44:18Z</time>
      </trkpt>
      <trkpt lat="43.02579" lon="0.74472">
        <ele>469.76998901</ele>
        <time>2020-10-22T08:44:20Z</time>
      </trkpt>
      <trkpt lat="43.02586" lon="0.74466">
        <ele>468.48999023</ele>
        <time>2020-10-22T08:44:21Z</time>
      </trkpt>
      <trkpt lat="43.02599" lon="0.74453">
        <ele>467.5</ele>
        <time>2020-10-22T08:44:23Z</time>
      </trkpt>
      <trkpt lat="43.02612" lon="0.74437">
        <ele>467.48999023</ele>
        <time>2020-10-22T08:44:25Z</time>
      </trkpt>
      <trkpt lat="43.02623" lon="0.74421">
        <ele>466.98999023</ele>
        <time>2020-10-22T08:44:27Z</time>
      </trkpt>
      <trkpt lat="43.02629" lon="0.74414">
        <ele>466.25</ele>
        <time>2020-10-22T08:44:28Z</time>
      </trkpt>
      <trkpt lat="43.02639" lon="0.74398">
        <ele>466.04000854</ele>
        <time>2020-10-22T08:44:30Z</time>
      </trkpt>
      <trkpt lat="43.02651" lon="0.74382">
        <ele>464.83999634</ele>
        <time>2020-10-22T08:44:32Z</time>
      </trkpt>
      <trkpt lat="43.02664" lon="0.74368">
        <ele>464.05999756</ele>
        <time>2020-10-22T08:44:34Z</time>
      </trkpt>
      <trkpt lat="43.0267" lon="0.74362">
        <ele>463.73999023</ele>
        <time>2020-10-22T08:44:35Z</time>
      </trkpt>
      <trkpt lat="43.02677" lon="0.74357">
        <ele>463.70999146</ele>
        <time>2020-10-22T08:44:36Z</time>
      </trkpt>
      <trkpt lat="43.0269" lon="0.74347">
        <ele>462.98999023</ele>
        <time>2020-10-22T08:44:38Z</time>
      </trkpt>
      <trkpt lat="43.02704" lon="0.7434">
        <ele>462.76998901</ele>
        <time>2020-10-22T08:44:40Z</time>
      </trkpt>
      <trkpt lat="43.02718" lon="0.74333">
        <ele>462.29998779</ele>
        <time>2020-10-22T08:44:42Z</time>
      </trkpt>
      <trkpt lat="43.02732" lon="0.74328">
        <ele>462.19000244</ele>
        <time>2020-10-22T08:44:44Z</time>
      </trkpt>
      <trkpt lat="43.0274" lon="0.74326">
        <ele>462.10998535</ele>
        <time>2020-10-22T08:44:45Z</time>
      </trkpt>
      <trkpt lat="43.02754" lon="0.74323">
        <ele>462.13000488</ele>
        <time>2020-10-22T08:44:47Z</time>
      </trkpt>
      <trkpt lat="43.02761" lon="0.74322">
        <ele>462.36999512</ele>
        <time>2020-10-22T08:44:48Z</time>
      </trkpt>
      <trkpt lat="43.02775" lon="0.74319">
        <ele>462.32000732</ele>
        <time>2020-10-22T08:44:50Z</time>
      </trkpt>
      <trkpt lat="43.02789" lon="0.74316">
        <ele>462.36999512</ele>
        <time>2020-10-22T08:44:52Z</time>
      </trkpt>
      <trkpt lat="43.02803" lon="0.74314">
        <ele>462.36999512</ele>
        <time>2020-10-22T08:44:54Z</time>
      </trkpt>
      <trkpt lat="43.02817" lon="0.74311">
        <ele>462.3999939</ele>
        <time>2020-10-22T08:44:56Z</time>
      </trkpt>
      <trkpt lat="43.0283" lon="0.7431">
        <ele>462.17001343</ele>
        <time>2020-10-22T08:44:58Z</time>
      </trkpt>
      <trkpt lat="43.02844" lon="0.74309">
        <ele>461.64001465</ele>
        <time>2020-10-22T08:45:00Z</time>
      </trkpt>
      <trkpt lat="43.02851" lon="0.74308">
        <ele>461.20001221</ele>
        <time>2020-10-22T08:45:01Z</time>
      </trkpt>
      <trkpt lat="43.02863" lon="0.74305">
        <ele>461.23999023</ele>
        <time>2020-10-22T08:45:03Z</time>
      </trkpt>
      <trkpt lat="43.02875" lon="0.74302">
        <ele>460.6499939</ele>
        <time>2020-10-22T08:45:05Z</time>
      </trkpt>
      <trkpt lat="43.0288" lon="0.743">
        <ele>460.13000488</ele>
        <time>2020-10-22T08:45:06Z</time>
      </trkpt>
      <trkpt lat="43.02886" lon="0.74298">
        <ele>460.1499939</ele>
        <time>2020-10-22T08:45:07Z</time>
      </trkpt>
      <trkpt lat="43.02898" lon="0.74294">
        <ele>460.75</ele>
        <time>2020-10-22T08:45:09Z</time>
      </trkpt>
      <trkpt lat="43.02905" lon="0.74293">
        <ele>460.57000732</ele>
        <time>2020-10-22T08:45:10Z</time>
      </trkpt>
      <trkpt lat="43.02912" lon="0.74292">
        <ele>460.38000488</ele>
        <time>2020-10-22T08:45:11Z</time>
      </trkpt>
      <trkpt lat="43.02926" lon="0.74289">
        <ele>459.94000244</ele>
        <time>2020-10-22T08:45:13Z</time>
      </trkpt>
      <trkpt lat="43.02938" lon="0.74287">
        <ele>459.48001099</ele>
        <time>2020-10-22T08:45:15Z</time>
      </trkpt>
      <trkpt lat="43.0295" lon="0.74278">
        <ele>458.41000366</ele>
        <time>2020-10-22T08:45:17Z</time>
      </trkpt>
      <trkpt lat="43.02954" lon="0.74268">
        <ele>458.25</ele>
        <time>2020-10-22T08:45:18Z</time>
      </trkpt>
      <trkpt lat="43.02959" lon="0.74255">
        <ele>455.57000732</ele>
        <time>2020-10-22T08:45:19Z</time>
      </trkpt>
      <trkpt lat="43.02971" lon="0.74228">
        <ele>451.89001465</ele>
        <time>2020-10-22T08:45:21Z</time>
      </trkpt>
      <trkpt lat="43.02978" lon="0.74214">
        <ele>450.98001099</ele>
        <time>2020-10-22T08:45:22Z</time>
      </trkpt>
      <trkpt lat="43.02991" lon="0.74197">
        <ele>449.8500061</ele>
        <time>2020-10-22T08:45:24Z</time>
      </trkpt>
      <trkpt lat="43.03" lon="0.74194">
        <ele>449.75</ele>
        <time>2020-10-22T08:45:25Z</time>
      </trkpt>
      <trkpt lat="43.03009" lon="0.74194">
        <ele>449.52999878</ele>
        <time>2020-10-22T08:45:26Z</time>
      </trkpt>
      <trkpt lat="43.03017" lon="0.74195">
        <ele>449.92999268</ele>
        <time>2020-10-22T08:45:27Z</time>
      </trkpt>
      <trkpt lat="43.03034" lon="0.74196">
        <ele>449.64001465</ele>
        <time>2020-10-22T08:45:29Z</time>
      </trkpt>
      <trkpt lat="43.03042" lon="0.74197">
        <ele>449.08999634</ele>
        <time>2020-10-22T08:45:30Z</time>
      </trkpt>
      <trkpt lat="43.03058" lon="0.74201">
        <ele>448.33999634</ele>
        <time>2020-10-22T08:45:32Z</time>
      </trkpt>
      <trkpt lat="43.03074" lon="0.74206">
        <ele>447.79000854</ele>
        <time>2020-10-22T08:45:34Z</time>
      </trkpt>
      <trkpt lat="43.03089" lon="0.7421">
        <ele>447.04998779</ele>
        <time>2020-10-22T08:45:36Z</time>
      </trkpt>
      <trkpt lat="43.03105" lon="0.74212">
        <ele>446.17999268</ele>
        <time>2020-10-22T08:45:38Z</time>
      </trkpt>
      <trkpt lat="43.03122" lon="0.74212">
        <ele>445.94000244</ele>
        <time>2020-10-22T08:45:40Z</time>
      </trkpt>
      <trkpt lat="43.03138" lon="0.74212">
        <ele>444.98999023</ele>
        <time>2020-10-22T08:45:42Z</time>
      </trkpt>
      <trkpt lat="43.03154" lon="0.74213">
        <ele>444.55999756</ele>
        <time>2020-10-22T08:45:44Z</time>
      </trkpt>
      <trkpt lat="43.03162" lon="0.74213">
        <ele>444.32998657</ele>
        <time>2020-10-22T08:45:45Z</time>
      </trkpt>
      <trkpt lat="43.0317" lon="0.74212">
        <ele>444.27999878</ele>
        <time>2020-10-22T08:45:46Z</time>
      </trkpt>
      <trkpt lat="43.03184" lon="0.7421">
        <ele>443.07000732</ele>
        <time>2020-10-22T08:45:48Z</time>
      </trkpt>
      <trkpt lat="43.03192" lon="0.74209">
        <ele>442.8999939</ele>
        <time>2020-10-22T08:45:49Z</time>
      </trkpt>
      <trkpt lat="43.032" lon="0.74208">
        <ele>442.76000977</ele>
        <time>2020-10-22T08:45:50Z</time>
      </trkpt>
      <trkpt lat="43.03215" lon="0.74207">
        <ele>442.69000244</ele>
        <time>2020-10-22T08:45:52Z</time>
      </trkpt>
      <trkpt lat="43.03229" lon="0.74207">
        <ele>442.48001099</ele>
        <time>2020-10-22T08:45:54Z</time>
      </trkpt>
      <trkpt lat="43.03242" lon="0.74207">
        <ele>442.6000061</ele>
        <time>2020-10-22T08:45:56Z</time>
      </trkpt>
      <trkpt lat="43.03256" lon="0.74208">
        <ele>442.86999512</ele>
        <time>2020-10-22T08:45:58Z</time>
      </trkpt>
      <trkpt lat="43.03262" lon="0.74208">
        <ele>442.94000244</ele>
        <time>2020-10-22T08:45:59Z</time>
      </trkpt>
      <trkpt lat="43.03274" lon="0.74207">
        <ele>442.77999878</ele>
        <time>2020-10-22T08:46:01Z</time>
      </trkpt>
      <trkpt lat="43.03285" lon="0.74206">
        <ele>443.07998657</ele>
        <time>2020-10-22T08:46:03Z</time>
      </trkpt>
      <trkpt lat="43.03295" lon="0.74204">
        <ele>443.29000854</ele>
        <time>2020-10-22T08:46:05Z</time>
      </trkpt>
      <trkpt lat="43.03304" lon="0.74203">
        <ele>443.6000061</ele>
        <time>2020-10-22T08:46:07Z</time>
      </trkpt>
      <trkpt lat="43.03313" lon="0.74201">
        <ele>444.05999756</ele>
        <time>2020-10-22T08:46:09Z</time>
      </trkpt>
      <trkpt lat="43.03318" lon="0.742">
        <ele>444.29998779</ele>
        <time>2020-10-22T08:46:10Z</time>
      </trkpt>
      <trkpt lat="43.03325" lon="0.74201">
        <ele>444.23999023</ele>
        <time>2020-10-22T08:46:12Z</time>
      </trkpt>
      <trkpt lat="43.03331" lon="0.74207">
        <ele>445.11999512</ele>
        <time>2020-10-22T08:46:14Z</time>
      </trkpt>
      <trkpt lat="43.03329" lon="0.74219">
        <ele>444.76000977</ele>
        <time>2020-10-22T08:46:16Z</time>
      </trkpt>
      <trkpt lat="43.03326" lon="0.74229">
        <ele>444.55999756</ele>
        <time>2020-10-22T08:46:17Z</time>
      </trkpt>
      <trkpt lat="43.0332" lon="0.74248">
        <ele>444.92999268</ele>
        <time>2020-10-22T08:46:19Z</time>
      </trkpt>
      <trkpt lat="43.03317" lon="0.74257">
        <ele>444.91000366</ele>
        <time>2020-10-22T08:46:20Z</time>
      </trkpt>
      <trkpt lat="43.03315" lon="0.74266">
        <ele>444.88000488</ele>
        <time>2020-10-22T08:46:21Z</time>
      </trkpt>
      <trkpt lat="43.0331" lon="0.74282">
        <ele>444.8999939</ele>
        <time>2020-10-22T08:46:23Z</time>
      </trkpt>
      <trkpt lat="43.03308" lon="0.7429">
        <ele>444.92999268</ele>
        <time>2020-10-22T08:46:24Z</time>
      </trkpt>
      <trkpt lat="43.03306" lon="0.74297">
        <ele>445.05999756</ele>
        <time>2020-10-22T08:46:25Z</time>
      </trkpt>
      <trkpt lat="43.03304" lon="0.74305">
        <ele>445.17001343</ele>
        <time>2020-10-22T08:46:26Z</time>
      </trkpt>
      <trkpt lat="43.03302" lon="0.74312">
        <ele>445.38000488</ele>
        <time>2020-10-22T08:46:27Z</time>
      </trkpt>
      <trkpt lat="43.03298" lon="0.74326">
        <ele>445.67001343</ele>
        <time>2020-10-22T08:46:29Z</time>
      </trkpt>
      <trkpt lat="43.03296" lon="0.74333">
        <ele>445.83999634</ele>
        <time>2020-10-22T08:46:30Z</time>
      </trkpt>
      <trkpt lat="43.03292" lon="0.74345">
        <ele>446.05999756</ele>
        <time>2020-10-22T08:46:32Z</time>
      </trkpt>
      <trkpt lat="43.03289" lon="0.74358">
        <ele>446.44000244</ele>
        <time>2020-10-22T08:46:34Z</time>
      </trkpt>
      <trkpt lat="43.03289" lon="0.74371">
        <ele>446.57998657</ele>
        <time>2020-10-22T08:46:36Z</time>
      </trkpt>
      <trkpt lat="43.03291" lon="0.74376">
        <ele>446.73001099</ele>
        <time>2020-10-22T08:46:37Z</time>
      </trkpt>
      <trkpt lat="43.03296" lon="0.74384">
        <ele>446.44000244</ele>
        <time>2020-10-22T08:46:39Z</time>
      </trkpt>
      <trkpt lat="43.03303" lon="0.74391">
        <ele>446.85998535</ele>
        <time>2020-10-22T08:46:41Z</time>
      </trkpt>
      <trkpt lat="43.03307" lon="0.74394">
        <ele>447.1000061</ele>
        <time>2020-10-22T08:46:42Z</time>
      </trkpt>
      <trkpt lat="43.03309" lon="0.74388">
        <ele>447.25</ele>
        <time>2020-10-22T08:46:43Z</time>
      </trkpt>
      <trkpt lat="43.0332" lon="0.74392">
        <ele>447.6499939</ele>
        <time>2020-10-22T08:46:45Z</time>
      </trkpt>
      <trkpt lat="43.03326" lon="0.74399">
        <ele>447.94000244</ele>
        <time>2020-10-22T08:46:46Z</time>
      </trkpt>
      <trkpt lat="43.03331" lon="0.74401">
        <ele>448.20999146</ele>
        <time>2020-10-22T08:46:47Z</time>
      </trkpt>
      <trkpt lat="43.03337" lon="0.74405">
        <ele>448.44000244</ele>
        <time>2020-10-22T08:46:49Z</time>
      </trkpt>
      <trkpt lat="43.03343" lon="0.74408">
        <ele>449.48001099</ele>
        <time>2020-10-22T08:46:50Z</time>
      </trkpt>
      <trkpt lat="43.03347" lon="0.7441">
        <ele>449.07998657</ele>
        <time>2020-10-22T08:46:51Z</time>
      </trkpt>
      <trkpt lat="43.03351" lon="0.74412">
        <ele>449.07998657</ele>
        <time>2020-10-22T08:46:52Z</time>
      </trkpt>
      <trkpt lat="43.03355" lon="0.74414">
        <ele>449.10998535</ele>
        <time>2020-10-22T08:46:53Z</time>
      </trkpt>
      <trkpt lat="43.03361" lon="0.74416">
        <ele>449.69000244</ele>
        <time>2020-10-22T08:46:54Z</time>
      </trkpt>
      <trkpt lat="43.03365" lon="0.74418">
        <ele>450.04998779</ele>
        <time>2020-10-22T08:46:55Z</time>
      </trkpt>
      <trkpt lat="43.03369" lon="0.7442">
        <ele>450.64001465</ele>
        <time>2020-10-22T08:46:57Z</time>
      </trkpt>
      <trkpt lat="43.03374" lon="0.74421">
        <ele>451.57000732</ele>
        <time>2020-10-22T08:46:58Z</time>
      </trkpt>
      <trkpt lat="43.03378" lon="0.74423">
        <ele>451.57000732</ele>
        <time>2020-10-22T08:46:59Z</time>
      </trkpt>
      <trkpt lat="43.03383" lon="0.74425">
        <ele>451.8500061</ele>
        <time>2020-10-22T08:47:00Z</time>
      </trkpt>
      <trkpt lat="43.03387" lon="0.74426">
        <ele>452.41000366</ele>
        <time>2020-10-22T08:47:01Z</time>
      </trkpt>
      <trkpt lat="43.03391" lon="0.74429">
        <ele>452.55999756</ele>
        <time>2020-10-22T08:47:03Z</time>
      </trkpt>
      <trkpt lat="43.03395" lon="0.7443">
        <ele>452.82998657</ele>
        <time>2020-10-22T08:47:04Z</time>
      </trkpt>
      <trkpt lat="43.03399" lon="0.74432">
        <ele>452.95999146</ele>
        <time>2020-10-22T08:47:05Z</time>
      </trkpt>
      <trkpt lat="43.03403" lon="0.74434">
        <ele>453.3500061</ele>
        <time>2020-10-22T08:47:06Z</time>
      </trkpt>
      <trkpt lat="43.03408" lon="0.74436">
        <ele>453.32000732</ele>
        <time>2020-10-22T08:47:08Z</time>
      </trkpt>
      <trkpt lat="43.03411" lon="0.74438">
        <ele>453.30999756</ele>
        <time>2020-10-22T08:47:09Z</time>
      </trkpt>
      <trkpt lat="43.03414" lon="0.7444">
        <ele>453.3999939</ele>
        <time>2020-10-22T08:47:10Z</time>
      </trkpt>
      <trkpt lat="43.0342" lon="0.74443">
        <ele>454.26998901</ele>
        <time>2020-10-22T08:47:12Z</time>
      </trkpt>
      <trkpt lat="43.03424" lon="0.74446">
        <ele>454.41000366</ele>
        <time>2020-10-22T08:47:13Z</time>
      </trkpt>
      <trkpt lat="43.03428" lon="0.74447">
        <ele>454.82000732</ele>
        <time>2020-10-22T08:47:15Z</time>
      </trkpt>
      <trkpt lat="43.03433" lon="0.74451">
        <ele>454.83999634</ele>
        <time>2020-10-22T08:47:17Z</time>
      </trkpt>
      <trkpt lat="43.03436" lon="0.74453">
        <ele>454.72000122</ele>
        <time>2020-10-22T08:47:18Z</time>
      </trkpt>
      <trkpt lat="43.0344" lon="0.74455">
        <ele>455.20999146</ele>
        <time>2020-10-22T08:47:19Z</time>
      </trkpt>
      <trkpt lat="43.03443" lon="0.74457">
        <ele>455.63000488</ele>
        <time>2020-10-22T08:47:21Z</time>
      </trkpt>
      <trkpt lat="43.0345" lon="0.7446">
        <ele>456.54000854</ele>
        <time>2020-10-22T08:47:22Z</time>
      </trkpt>
      <trkpt lat="43.03455" lon="0.74463">
        <ele>456.70001221</ele>
        <time>2020-10-22T08:47:24Z</time>
      </trkpt>
      <trkpt lat="43.03459" lon="0.74465">
        <ele>456.8999939</ele>
        <time>2020-10-22T08:47:25Z</time>
      </trkpt>
      <trkpt lat="43.03462" lon="0.74466">
        <ele>457.01000977</ele>
        <time>2020-10-22T08:47:26Z</time>
      </trkpt>
      <trkpt lat="43.03465" lon="0.74469">
        <ele>457.85998535</ele>
        <time>2020-10-22T08:47:27Z</time>
      </trkpt>
      <trkpt lat="43.03466" lon="0.74471">
        <ele>458.30999756</ele>
        <time>2020-10-22T08:47:28Z</time>
      </trkpt>
      <trkpt lat="43.03465" lon="0.74473">
        <ele>458.36999512</ele>
        <time>2020-10-22T08:47:30Z</time>
      </trkpt>
      <trkpt lat="43.03463" lon="0.74473">
        <ele>458.3500061</ele>
        <time>2020-10-22T08:47:31Z</time>
      </trkpt>
      <trkpt lat="43.0346" lon="0.74473">
        <ele>458.39001465</ele>
        <time>2020-10-22T08:47:33Z</time>
      </trkpt>
      <trkpt lat="43.03457" lon="0.74474">
        <ele>457.80999756</ele>
        <time>2020-10-22T08:47:34Z</time>
      </trkpt>
      <trkpt lat="43.03454" lon="0.74473">
        <ele>457.79998779</ele>
        <time>2020-10-22T08:47:36Z</time>
      </trkpt>
      <trkpt lat="43.03452" lon="0.74473">
        <ele>458.64001465</ele>
        <time>2020-10-22T08:47:37Z</time>
      </trkpt>
      <trkpt lat="43.03446" lon="0.74474">
        <ele>458.32000732</ele>
        <time>2020-10-22T08:47:39Z</time>
      </trkpt>
      <trkpt lat="43.03441" lon="0.74476">
        <ele>459.60998535</ele>
        <time>2020-10-22T08:47:40Z</time>
      </trkpt>
      <trkpt lat="43.03436" lon="0.74477">
        <ele>459.73999023</ele>
        <time>2020-10-22T08:47:42Z</time>
      </trkpt>
      <trkpt lat="43.03432" lon="0.7448">
        <ele>458.98999023</ele>
        <time>2020-10-22T08:47:43Z</time>
      </trkpt>
      <trkpt lat="43.0343" lon="0.7448">
        <ele>458.77999878</ele>
        <time>2020-10-22T08:47:44Z</time>
      </trkpt>
      <trkpt lat="43.03426" lon="0.74481">
        <ele>458.63000488</ele>
        <time>2020-10-22T08:47:46Z</time>
      </trkpt>
      <trkpt lat="43.03423" lon="0.74482">
        <ele>458.41000366</ele>
        <time>2020-10-22T08:47:48Z</time>
      </trkpt>
      <trkpt lat="43.03421" lon="0.74482">
        <ele>459.08999634</ele>
        <time>2020-10-22T08:47:49Z</time>
      </trkpt>
      <trkpt lat="43.03419" lon="0.74483">
        <ele>458.85998535</ele>
        <time>2020-10-22T08:47:50Z</time>
      </trkpt>
      <trkpt lat="43.03417" lon="0.74483">
        <ele>458.79000854</ele>
        <time>2020-10-22T08:47:51Z</time>
      </trkpt>
      <trkpt lat="43.03413" lon="0.74484">
        <ele>459</ele>
        <time>2020-10-22T08:47:53Z</time>
      </trkpt>
      <trkpt lat="43.0341" lon="0.74485">
        <ele>458.97000122</ele>
        <time>2020-10-22T08:47:54Z</time>
      </trkpt>
      <trkpt lat="43.03406" lon="0.74487">
        <ele>459.23001099</ele>
        <time>2020-10-22T08:47:56Z</time>
      </trkpt>
      <trkpt lat="43.03403" lon="0.74488">
        <ele>459.32000732</ele>
        <time>2020-10-22T08:47:57Z</time>
      </trkpt>
      <trkpt lat="43.03399" lon="0.74489">
        <ele>459.25</ele>
        <time>2020-10-22T08:47:59Z</time>
      </trkpt>
      <trkpt lat="43.03397" lon="0.7449">
        <ele>459.47000122</ele>
        <time>2020-10-22T08:48:00Z</time>
      </trkpt>
      <trkpt lat="43.03394" lon="0.74492">
        <ele>460.08999634</ele>
        <time>2020-10-22T08:48:01Z</time>
      </trkpt>
      <trkpt lat="43.03392" lon="0.74493">
        <ele>460.20999146</ele>
        <time>2020-10-22T08:48:02Z</time>
      </trkpt>
      <trkpt lat="43.03388" lon="0.74495">
        <ele>460.10998535</ele>
        <time>2020-10-22T08:48:04Z</time>
      </trkpt>
      <trkpt lat="43.03384" lon="0.74497">
        <ele>460.23001099</ele>
        <time>2020-10-22T08:48:05Z</time>
      </trkpt>
      <trkpt lat="43.03382" lon="0.74498">
        <ele>460.42999268</ele>
        <time>2020-10-22T08:48:06Z</time>
      </trkpt>
      <trkpt lat="43.03381" lon="0.74499">
        <ele>461</ele>
        <time>2020-10-22T08:48:07Z</time>
      </trkpt>
      <trkpt lat="43.03379" lon="0.745">
        <ele>460.94000244</ele>
        <time>2020-10-22T08:48:08Z</time>
      </trkpt>
      <trkpt lat="43.03376" lon="0.74502">
        <ele>461.13000488</ele>
        <time>2020-10-22T08:48:10Z</time>
      </trkpt>
      <trkpt lat="43.03375" lon="0.74505">
        <ele>460.97000122</ele>
        <time>2020-10-22T08:48:11Z</time>
      </trkpt>
      <trkpt lat="43.03374" lon="0.74509">
        <ele>461.63000488</ele>
        <time>2020-10-22T08:48:12Z</time>
      </trkpt>
      <trkpt lat="43.03375" lon="0.74512">
        <ele>461.92999268</ele>
        <time>2020-10-22T08:48:14Z</time>
      </trkpt>
      <trkpt lat="43.03376" lon="0.74515">
        <ele>462.32998657</ele>
        <time>2020-10-22T08:48:15Z</time>
      </trkpt>
      <trkpt lat="43.03376" lon="0.74519">
        <ele>462.73999023</ele>
        <time>2020-10-22T08:48:16Z</time>
      </trkpt>
      <trkpt lat="43.03376" lon="0.74524">
        <ele>462.82000732</ele>
        <time>2020-10-22T08:48:18Z</time>
      </trkpt>
      <trkpt lat="43.03376" lon="0.74531">
        <ele>463.16000366</ele>
        <time>2020-10-22T08:48:19Z</time>
      </trkpt>
      <trkpt lat="43.03376" lon="0.74535">
        <ele>463.76000977</ele>
        <time>2020-10-22T08:48:20Z</time>
      </trkpt>
      <trkpt lat="43.03377" lon="0.74538">
        <ele>464.92999268</ele>
        <time>2020-10-22T08:48:21Z</time>
      </trkpt>
      <trkpt lat="43.03378" lon="0.74542">
        <ele>465.54000854</ele>
        <time>2020-10-22T08:48:22Z</time>
      </trkpt>
      <trkpt lat="43.03378" lon="0.74545">
        <ele>466.48001099</ele>
        <time>2020-10-22T08:48:23Z</time>
      </trkpt>
      <trkpt lat="43.03379" lon="0.74549">
        <ele>467.20999146</ele>
        <time>2020-10-22T08:48:25Z</time>
      </trkpt>
      <trkpt lat="43.0338" lon="0.74551">
        <ele>467.54000854</ele>
        <time>2020-10-22T08:48:26Z</time>
      </trkpt>
      <trkpt lat="43.0338" lon="0.74555">
        <ele>469.70001221</ele>
        <time>2020-10-22T08:48:27Z</time>
      </trkpt>
      <trkpt lat="43.03381" lon="0.74557">
        <ele>470.32998657</ele>
        <time>2020-10-22T08:48:28Z</time>
      </trkpt>
      <trkpt lat="43.03382" lon="0.7456">
        <ele>471.23999023</ele>
        <time>2020-10-22T08:48:30Z</time>
      </trkpt>
      <trkpt lat="43.03383" lon="0.74562">
        <ele>472.29998779</ele>
        <time>2020-10-22T08:48:31Z</time>
      </trkpt>
      <trkpt lat="43.03384" lon="0.74563">
        <ele>472.45999146</ele>
        <time>2020-10-22T08:48:32Z</time>
      </trkpt>
      <trkpt lat="43.03385" lon="0.74565">
        <ele>472.8999939</ele>
        <time>2020-10-22T08:48:33Z</time>
      </trkpt>
      <trkpt lat="43.03388" lon="0.74568">
        <ele>473.10998535</ele>
        <time>2020-10-22T08:48:35Z</time>
      </trkpt>
      <trkpt lat="43.0339" lon="0.74571">
        <ele>474.42999268</ele>
        <time>2020-10-22T08:48:36Z</time>
      </trkpt>
      <trkpt lat="43.03392" lon="0.74573">
        <ele>475</ele>
        <time>2020-10-22T08:48:37Z</time>
      </trkpt>
      <trkpt lat="43.03393" lon="0.74573">
        <ele>475.23999023</ele>
        <time>2020-10-22T08:48:39Z</time>
      </trkpt>
      <trkpt lat="43.03395" lon="0.74575">
        <ele>476.17999268</ele>
        <time>2020-10-22T08:48:40Z</time>
      </trkpt>
      <trkpt lat="43.03396" lon="0.74576">
        <ele>476.88000488</ele>
        <time>2020-10-22T08:48:41Z</time>
      </trkpt>
      <trkpt lat="43.03398" lon="0.74577">
        <ele>476.88000488</ele>
        <time>2020-10-22T08:48:42Z</time>
      </trkpt>
      <trkpt lat="43.03399" lon="0.74577">
        <ele>477.35998535</ele>
        <time>2020-10-22T08:48:43Z</time>
      </trkpt>
      <trkpt lat="43.03403" lon="0.74579">
        <ele>476.95001221</ele>
        <time>2020-10-22T08:48:45Z</time>
      </trkpt>
      <trkpt lat="43.03407" lon="0.7458">
        <ele>478.91000366</ele>
        <time>2020-10-22T08:48:47Z</time>
      </trkpt>
      <trkpt lat="43.03411" lon="0.74581">
        <ele>478.8500061</ele>
        <time>2020-10-22T08:48:49Z</time>
      </trkpt>
      <trkpt lat="43.03415" lon="0.74582">
        <ele>479.48001099</ele>
        <time>2020-10-22T08:48:50Z</time>
      </trkpt>
      <trkpt lat="43.03418" lon="0.74582">
        <ele>480.01000977</ele>
        <time>2020-10-22T08:48:51Z</time>
      </trkpt>
      <trkpt lat="43.03422" lon="0.74583">
        <ele>480.54000854</ele>
        <time>2020-10-22T08:48:53Z</time>
      </trkpt>
      <trkpt lat="43.03424" lon="0.74583">
        <ele>480.3500061</ele>
        <time>2020-10-22T08:48:54Z</time>
      </trkpt>
      <trkpt lat="43.03429" lon="0.74584">
        <ele>480.66000366</ele>
        <time>2020-10-22T08:48:56Z</time>
      </trkpt>
      <trkpt lat="43.03432" lon="0.74585">
        <ele>480.98001099</ele>
        <time>2020-10-22T08:48:57Z</time>
      </trkpt>
      <trkpt lat="43.03434" lon="0.74585">
        <ele>481.04000854</ele>
        <time>2020-10-22T08:48:59Z</time>
      </trkpt>
      <trkpt lat="43.03435" lon="0.74586">
        <ele>481.61999512</ele>
        <time>2020-10-22T08:49:00Z</time>
      </trkpt>
      <trkpt lat="43.03438" lon="0.74588">
        <ele>482.30999756</ele>
        <time>2020-10-22T08:49:02Z</time>
      </trkpt>
      <trkpt lat="43.03438" lon="0.74588">
        <ele>482.30999756</ele>
        <time>2020-10-22T08:49:03Z</time>
      </trkpt>
      <trkpt lat="43.03439" lon="0.74588">
        <ele>483.01998901</ele>
        <time>2020-10-22T08:49:05Z</time>
      </trkpt>
      <trkpt lat="43.03441" lon="0.74589">
        <ele>483.20001221</ele>
        <time>2020-10-22T08:49:07Z</time>
      </trkpt>
      <trkpt lat="43.03443" lon="0.74589">
        <ele>483.08999634</ele>
        <time>2020-10-22T08:49:08Z</time>
      </trkpt>
      <trkpt lat="43.03444" lon="0.7459">
        <ele>483.3500061</ele>
        <time>2020-10-22T08:49:10Z</time>
      </trkpt>
      <trkpt lat="43.03445" lon="0.7459">
        <ele>482.75</ele>
        <time>2020-10-22T08:49:11Z</time>
      </trkpt>
      <trkpt lat="43.03447" lon="0.74591">
        <ele>482.85998535</ele>
        <time>2020-10-22T08:49:12Z</time>
      </trkpt>
      <trkpt lat="43.03449" lon="0.74591">
        <ele>483.48999023</ele>
        <time>2020-10-22T08:49:13Z</time>
      </trkpt>
      <trkpt lat="43.03453" lon="0.74592">
        <ele>483.95999146</ele>
        <time>2020-10-22T08:49:15Z</time>
      </trkpt>
      <trkpt lat="43.03455" lon="0.74592">
        <ele>484.67999268</ele>
        <time>2020-10-22T08:49:16Z</time>
      </trkpt>
      <trkpt lat="43.03458" lon="0.74593">
        <ele>484.82998657</ele>
        <time>2020-10-22T08:49:17Z</time>
      </trkpt>
      <trkpt lat="43.03461" lon="0.74594">
        <ele>485.41000366</ele>
        <time>2020-10-22T08:49:18Z</time>
      </trkpt>
      <trkpt lat="43.03464" lon="0.74596">
        <ele>485.6000061</ele>
        <time>2020-10-22T08:49:20Z</time>
      </trkpt>
      <trkpt lat="43.03466" lon="0.74598">
        <ele>485.32998657</ele>
        <time>2020-10-22T08:49:21Z</time>
      </trkpt>
      <trkpt lat="43.03469" lon="0.74599">
        <ele>484.97000122</ele>
        <time>2020-10-22T08:49:22Z</time>
      </trkpt>
      <trkpt lat="43.03472" lon="0.74602">
        <ele>485.13000488</ele>
        <time>2020-10-22T08:49:24Z</time>
      </trkpt>
      <trkpt lat="43.03474" lon="0.74604">
        <ele>485.35998535</ele>
        <time>2020-10-22T08:49:25Z</time>
      </trkpt>
      <trkpt lat="43.03478" lon="0.74607">
        <ele>486.73999023</ele>
        <time>2020-10-22T08:49:26Z</time>
      </trkpt>
      <trkpt lat="43.0348" lon="0.7461">
        <ele>486.88000488</ele>
        <time>2020-10-22T08:49:28Z</time>
      </trkpt>
      <trkpt lat="43.03485" lon="0.74613">
        <ele>487.45001221</ele>
        <time>2020-10-22T08:49:29Z</time>
      </trkpt>
      <trkpt lat="43.03488" lon="0.74617">
        <ele>487.92001343</ele>
        <time>2020-10-22T08:49:30Z</time>
      </trkpt>
      <trkpt lat="43.03492" lon="0.7462">
        <ele>488.1499939</ele>
        <time>2020-10-22T08:49:31Z</time>
      </trkpt>
      <trkpt lat="43.03495" lon="0.74624">
        <ele>488.8999939</ele>
        <time>2020-10-22T08:49:33Z</time>
      </trkpt>
      <trkpt lat="43.03497" lon="0.74629">
        <ele>489.45001221</ele>
        <time>2020-10-22T08:49:35Z</time>
      </trkpt>
      <trkpt lat="43.035" lon="0.74632">
        <ele>489.20999146</ele>
        <time>2020-10-22T08:49:36Z</time>
      </trkpt>
      <trkpt lat="43.03504" lon="0.74636">
        <ele>489.61999512</ele>
        <time>2020-10-22T08:49:38Z</time>
      </trkpt>
      <trkpt lat="43.03507" lon="0.7464">
        <ele>490.39001465</ele>
        <time>2020-10-22T08:49:39Z</time>
      </trkpt>
      <trkpt lat="43.0351" lon="0.74644">
        <ele>491.13000488</ele>
        <time>2020-10-22T08:49:40Z</time>
      </trkpt>
      <trkpt lat="43.03511" lon="0.74646">
        <ele>491.3500061</ele>
        <time>2020-10-22T08:49:41Z</time>
      </trkpt>
      <trkpt lat="43.03513" lon="0.74649">
        <ele>491.3999939</ele>
        <time>2020-10-22T08:49:43Z</time>
      </trkpt>
      <trkpt lat="43.03514" lon="0.74652">
        <ele>491.5</ele>
        <time>2020-10-22T08:49:44Z</time>
      </trkpt>
      <trkpt lat="43.03517" lon="0.74658">
        <ele>491.39001465</ele>
        <time>2020-10-22T08:49:46Z</time>
      </trkpt>
      <trkpt lat="43.03519" lon="0.74663">
        <ele>491.51000977</ele>
        <time>2020-10-22T08:49:47Z</time>
      </trkpt>
      <trkpt lat="43.03522" lon="0.7467">
        <ele>491.76000977</ele>
        <time>2020-10-22T08:49:48Z</time>
      </trkpt>
      <trkpt lat="43.03525" lon="0.74677">
        <ele>491.38000488</ele>
        <time>2020-10-22T08:49:50Z</time>
      </trkpt>
      <trkpt lat="43.03529" lon="0.74685">
        <ele>491.08999634</ele>
        <time>2020-10-22T08:49:51Z</time>
      </trkpt>
      <trkpt lat="43.03531" lon="0.7469">
        <ele>491.07000732</ele>
        <time>2020-10-22T08:49:53Z</time>
      </trkpt>
      <trkpt lat="43.03532" lon="0.74695">
        <ele>491.07000732</ele>
        <time>2020-10-22T08:49:54Z</time>
      </trkpt>
      <trkpt lat="43.03535" lon="0.747">
        <ele>491.45999146</ele>
        <time>2020-10-22T08:49:55Z</time>
      </trkpt>
      <trkpt lat="43.03537" lon="0.74705">
        <ele>492.29000854</ele>
        <time>2020-10-22T08:49:57Z</time>
      </trkpt>
      <trkpt lat="43.03539" lon="0.74709">
        <ele>492.73999023</ele>
        <time>2020-10-22T08:49:58Z</time>
      </trkpt>
      <trkpt lat="43.03542" lon="0.74713">
        <ele>492.63000488</ele>
        <time>2020-10-22T08:50:00Z</time>
      </trkpt>
      <trkpt lat="43.03543" lon="0.74717">
        <ele>493.05999756</ele>
        <time>2020-10-22T08:50:01Z</time>
      </trkpt>
      <trkpt lat="43.03544" lon="0.74724">
        <ele>493.92999268</ele>
        <time>2020-10-22T08:50:02Z</time>
      </trkpt>
      <trkpt lat="43.03543" lon="0.74727">
        <ele>494.41000366</ele>
        <time>2020-10-22T08:50:04Z</time>
      </trkpt>
      <trkpt lat="43.03543" lon="0.7473">
        <ele>495.10998535</ele>
        <time>2020-10-22T08:50:05Z</time>
      </trkpt>
      <trkpt lat="43.03543" lon="0.74736">
        <ele>496.16000366</ele>
        <time>2020-10-22T08:50:06Z</time>
      </trkpt>
      <trkpt lat="43.03542" lon="0.7474">
        <ele>496.67999268</ele>
        <time>2020-10-22T08:50:08Z</time>
      </trkpt>
      <trkpt lat="43.03541" lon="0.74744">
        <ele>497.26998901</ele>
        <time>2020-10-22T08:50:09Z</time>
      </trkpt>
      <trkpt lat="43.0354" lon="0.74749">
        <ele>498.04000854</ele>
        <time>2020-10-22T08:50:11Z</time>
      </trkpt>
      <trkpt lat="43.03539" lon="0.74756">
        <ele>498.76998901</ele>
        <time>2020-10-22T08:50:13Z</time>
      </trkpt>
      <trkpt lat="43.03538" lon="0.74762">
        <ele>499.98999023</ele>
        <time>2020-10-22T08:50:15Z</time>
      </trkpt>
      <trkpt lat="43.03538" lon="0.74767">
        <ele>501.01000977</ele>
        <time>2020-10-22T08:50:16Z</time>
      </trkpt>
      <trkpt lat="43.03538" lon="0.74772">
        <ele>501.72000122</ele>
        <time>2020-10-22T08:50:18Z</time>
      </trkpt>
      <trkpt lat="43.03537" lon="0.74775">
        <ele>501.85998535</ele>
        <time>2020-10-22T08:50:19Z</time>
      </trkpt>
      <trkpt lat="43.03537" lon="0.74782">
        <ele>502.44000244</ele>
        <time>2020-10-22T08:50:21Z</time>
      </trkpt>
      <trkpt lat="43.03536" lon="0.74786">
        <ele>502.79998779</ele>
        <time>2020-10-22T08:50:22Z</time>
      </trkpt>
      <trkpt lat="43.03536" lon="0.74791">
        <ele>503.23001099</ele>
        <time>2020-10-22T08:50:23Z</time>
      </trkpt>
      <trkpt lat="43.03535" lon="0.74796">
        <ele>504.11999512</ele>
        <time>2020-10-22T08:50:25Z</time>
      </trkpt>
      <trkpt lat="43.03534" lon="0.74801">
        <ele>505.17999268</ele>
        <time>2020-10-22T08:50:26Z</time>
      </trkpt>
      <trkpt lat="43.03533" lon="0.74805">
        <ele>505.20001221</ele>
        <time>2020-10-22T08:50:28Z</time>
      </trkpt>
      <trkpt lat="43.03532" lon="0.7481">
        <ele>505.23001099</ele>
        <time>2020-10-22T08:50:29Z</time>
      </trkpt>
      <trkpt lat="43.0353" lon="0.74814">
        <ele>505.30999756</ele>
        <time>2020-10-22T08:50:30Z</time>
      </trkpt>
      <trkpt lat="43.03529" lon="0.74819">
        <ele>505.73001099</ele>
        <time>2020-10-22T08:50:32Z</time>
      </trkpt>
      <trkpt lat="43.03528" lon="0.74823">
        <ele>506.33999634</ele>
        <time>2020-10-22T08:50:33Z</time>
      </trkpt>
      <trkpt lat="43.03527" lon="0.74827">
        <ele>507.16000366</ele>
        <time>2020-10-22T08:50:34Z</time>
      </trkpt>
      <trkpt lat="43.03526" lon="0.74833">
        <ele>507.67001343</ele>
        <time>2020-10-22T08:50:36Z</time>
      </trkpt>
      <trkpt lat="43.03525" lon="0.74837">
        <ele>508.39001465</ele>
        <time>2020-10-22T08:50:37Z</time>
      </trkpt>
      <trkpt lat="43.03525" lon="0.7484">
        <ele>508.66000366</ele>
        <time>2020-10-22T08:50:38Z</time>
      </trkpt>
      <trkpt lat="43.03525" lon="0.74843">
        <ele>508.8500061</ele>
        <time>2020-10-22T08:50:39Z</time>
      </trkpt>
      <trkpt lat="43.03525" lon="0.74848">
        <ele>509.92001343</ele>
        <time>2020-10-22T08:50:40Z</time>
      </trkpt>
      <trkpt lat="43.03525" lon="0.74852">
        <ele>511.08999634</ele>
        <time>2020-10-22T08:50:42Z</time>
      </trkpt>
      <trkpt lat="43.03526" lon="0.74856">
        <ele>511.08999634</ele>
        <time>2020-10-22T08:50:43Z</time>
      </trkpt>
      <trkpt lat="43.03526" lon="0.7486">
        <ele>511.70999146</ele>
        <time>2020-10-22T08:50:44Z</time>
      </trkpt>
      <trkpt lat="43.03526" lon="0.74864">
        <ele>512</ele>
        <time>2020-10-22T08:50:46Z</time>
      </trkpt>
      <trkpt lat="43.03526" lon="0.74869">
        <ele>512.65997314</ele>
        <time>2020-10-22T08:50:47Z</time>
      </trkpt>
      <trkpt lat="43.03526" lon="0.74872">
        <ele>513.0300293</ele>
        <time>2020-10-22T08:50:48Z</time>
      </trkpt>
      <trkpt lat="43.03526" lon="0.74877">
        <ele>513.52001953</ele>
        <time>2020-10-22T08:50:50Z</time>
      </trkpt>
      <trkpt lat="43.03526" lon="0.74883">
        <ele>513.60998535</ele>
        <time>2020-10-22T08:50:51Z</time>
      </trkpt>
      <trkpt lat="43.03525" lon="0.74886">
        <ele>514.2800293</ele>
        <time>2020-10-22T08:50:53Z</time>
      </trkpt>
      <trkpt lat="43.03525" lon="0.74889">
        <ele>515.25</ele>
        <time>2020-10-22T08:50:54Z</time>
      </trkpt>
      <trkpt lat="43.03525" lon="0.74892">
        <ele>515.73999023</ele>
        <time>2020-10-22T08:50:55Z</time>
      </trkpt>
      <trkpt lat="43.03526" lon="0.74898">
        <ele>516.04998779</ele>
        <time>2020-10-22T08:50:57Z</time>
      </trkpt>
      <trkpt lat="43.03526" lon="0.74902">
        <ele>516.4699707</ele>
        <time>2020-10-22T08:50:58Z</time>
      </trkpt>
      <trkpt lat="43.03527" lon="0.74907">
        <ele>517.57000732</ele>
        <time>2020-10-22T08:51:00Z</time>
      </trkpt>
      <trkpt lat="43.03527" lon="0.74911">
        <ele>518.22998047</ele>
        <time>2020-10-22T08:51:01Z</time>
      </trkpt>
      <trkpt lat="43.03528" lon="0.74919">
        <ele>518.84997559</ele>
        <time>2020-10-22T08:51:03Z</time>
      </trkpt>
      <trkpt lat="43.03529" lon="0.74924">
        <ele>519.15002441</ele>
        <time>2020-10-22T08:51:05Z</time>
      </trkpt>
      <trkpt lat="43.03529" lon="0.74926">
        <ele>519.79998779</ele>
        <time>2020-10-22T08:51:06Z</time>
      </trkpt>
      <trkpt lat="43.03529" lon="0.74929">
        <ele>520.05999756</ele>
        <time>2020-10-22T08:51:07Z</time>
      </trkpt>
      <trkpt lat="43.0353" lon="0.74933">
        <ele>520.41998291</ele>
        <time>2020-10-22T08:51:08Z</time>
      </trkpt>
      <trkpt lat="43.03531" lon="0.74936">
        <ele>521.01000977</ele>
        <time>2020-10-22T08:51:09Z</time>
      </trkpt>
      <trkpt lat="43.03532" lon="0.74939">
        <ele>520.98999023</ele>
        <time>2020-10-22T08:51:11Z</time>
      </trkpt>
      <trkpt lat="43.03532" lon="0.74942">
        <ele>521.41998291</ele>
        <time>2020-10-22T08:51:12Z</time>
      </trkpt>
      <trkpt lat="43.03533" lon="0.74948">
        <ele>521.9699707</ele>
        <time>2020-10-22T08:51:14Z</time>
      </trkpt>
      <trkpt lat="43.03534" lon="0.74951">
        <ele>522.19000244</ele>
        <time>2020-10-22T08:51:15Z</time>
      </trkpt>
      <trkpt lat="43.03536" lon="0.74955">
        <ele>522.91998291</ele>
        <time>2020-10-22T08:51:17Z</time>
      </trkpt>
      <trkpt lat="43.03537" lon="0.74959">
        <ele>523.29998779</ele>
        <time>2020-10-22T08:51:18Z</time>
      </trkpt>
      <trkpt lat="43.03539" lon="0.74962">
        <ele>523.84002686</ele>
        <time>2020-10-22T08:51:19Z</time>
      </trkpt>
      <trkpt lat="43.03542" lon="0.74968">
        <ele>523.59997559</ele>
        <time>2020-10-22T08:51:20Z</time>
      </trkpt>
      <trkpt lat="43.03545" lon="0.74974">
        <ele>523.77001953</ele>
        <time>2020-10-22T08:51:22Z</time>
      </trkpt>
      <trkpt lat="43.03547" lon="0.7498">
        <ele>523.80999756</ele>
        <time>2020-10-22T08:51:23Z</time>
      </trkpt>
      <trkpt lat="43.03549" lon="0.74985">
        <ele>523.39001465</ele>
        <time>2020-10-22T08:51:25Z</time>
      </trkpt>
      <trkpt lat="43.03553" lon="0.74994">
        <ele>523.63000488</ele>
        <time>2020-10-22T08:51:27Z</time>
      </trkpt>
      <trkpt lat="43.03556" lon="0.75001">
        <ele>524.15002441</ele>
        <time>2020-10-22T08:51:29Z</time>
      </trkpt>
      <trkpt lat="43.03557" lon="0.75006">
        <ele>524.15997314</ele>
        <time>2020-10-22T08:51:30Z</time>
      </trkpt>
      <trkpt lat="43.0356" lon="0.75011">
        <ele>524.48999023</ele>
        <time>2020-10-22T08:51:32Z</time>
      </trkpt>
      <trkpt lat="43.03563" lon="0.75016">
        <ele>524.20001221</ele>
        <time>2020-10-22T08:51:33Z</time>
      </trkpt>
      <trkpt lat="43.03566" lon="0.75021">
        <ele>523.75</ele>
        <time>2020-10-22T08:51:34Z</time>
      </trkpt>
      <trkpt lat="43.03568" lon="0.75024">
        <ele>523.58001709</ele>
        <time>2020-10-22T08:51:35Z</time>
      </trkpt>
      <trkpt lat="43.03571" lon="0.75029">
        <ele>523.96002197</ele>
        <time>2020-10-22T08:51:37Z</time>
      </trkpt>
      <trkpt lat="43.03573" lon="0.75033">
        <ele>523.78997803</ele>
        <time>2020-10-22T08:51:38Z</time>
      </trkpt>
      <trkpt lat="43.03575" lon="0.75037">
        <ele>522.98999023</ele>
        <time>2020-10-22T08:51:39Z</time>
      </trkpt>
      <trkpt lat="43.03577" lon="0.75041">
        <ele>522.78997803</ele>
        <time>2020-10-22T08:51:41Z</time>
      </trkpt>
      <trkpt lat="43.0358" lon="0.75046">
        <ele>522.76000977</ele>
        <time>2020-10-22T08:51:42Z</time>
      </trkpt>
      <trkpt lat="43.03584" lon="0.7505">
        <ele>522.67999268</ele>
        <time>2020-10-22T08:51:43Z</time>
      </trkpt>
      <trkpt lat="43.0359" lon="0.75056">
        <ele>522.83001709</ele>
        <time>2020-10-22T08:51:44Z</time>
      </trkpt>
      <trkpt lat="43.03594" lon="0.75061">
        <ele>522.40002441</ele>
        <time>2020-10-22T08:51:46Z</time>
      </trkpt>
      <trkpt lat="43.03599" lon="0.75064">
        <ele>521.65002441</ele>
        <time>2020-10-22T08:51:47Z</time>
      </trkpt>
      <trkpt lat="43.03614" lon="0.75065">
        <ele>521.28997803</ele>
        <time>2020-10-22T08:51:49Z</time>
      </trkpt>
      <trkpt lat="43.0363" lon="0.75063">
        <ele>522.23999023</ele>
        <time>2020-10-22T08:51:51Z</time>
      </trkpt>
      <trkpt lat="43.03643" lon="0.75063">
        <ele>520.26000977</ele>
        <time>2020-10-22T08:51:53Z</time>
      </trkpt>
      <trkpt lat="43.03651" lon="0.75064">
        <ele>517.69000244</ele>
        <time>2020-10-22T08:51:55Z</time>
      </trkpt>
      <trkpt lat="43.03654" lon="0.75063">
        <ele>519.89001465</ele>
        <time>2020-10-22T08:51:56Z</time>
      </trkpt>
      <trkpt lat="43.03659" lon="0.75063">
        <ele>520.20001221</ele>
        <time>2020-10-22T08:51:57Z</time>
      </trkpt>
      <trkpt lat="43.03662" lon="0.75063">
        <ele>519.96002197</ele>
        <time>2020-10-22T08:51:58Z</time>
      </trkpt>
      <trkpt lat="43.03666" lon="0.75063">
        <ele>520.22998047</ele>
        <time>2020-10-22T08:52:00Z</time>
      </trkpt>
      <trkpt lat="43.03672" lon="0.75062">
        <ele>520.04998779</ele>
        <time>2020-10-22T08:52:01Z</time>
      </trkpt>
      <trkpt lat="43.03679" lon="0.75062">
        <ele>520.63000488</ele>
        <time>2020-10-22T08:52:03Z</time>
      </trkpt>
      <trkpt lat="43.03685" lon="0.75063">
        <ele>521.32000732</ele>
        <time>2020-10-22T08:52:04Z</time>
      </trkpt>
      <trkpt lat="43.03691" lon="0.75064">
        <ele>520.95001221</ele>
        <time>2020-10-22T08:52:05Z</time>
      </trkpt>
      <trkpt lat="43.03695" lon="0.75065">
        <ele>521.47998047</ele>
        <time>2020-10-22T08:52:06Z</time>
      </trkpt>
      <trkpt lat="43.037" lon="0.75066">
        <ele>522.42999268</ele>
        <time>2020-10-22T08:52:07Z</time>
      </trkpt>
      <trkpt lat="43.03704" lon="0.75067">
        <ele>522.55999756</ele>
        <time>2020-10-22T08:52:08Z</time>
      </trkpt>
      <trkpt lat="43.03709" lon="0.75068">
        <ele>523.25</ele>
        <time>2020-10-22T08:52:10Z</time>
      </trkpt>
      <trkpt lat="43.03715" lon="0.75069">
        <ele>524.0300293</ele>
        <time>2020-10-22T08:52:11Z</time>
      </trkpt>
      <trkpt lat="43.0372" lon="0.7507">
        <ele>524.90997314</ele>
        <time>2020-10-22T08:52:13Z</time>
      </trkpt>
      <trkpt lat="43.03722" lon="0.75071">
        <ele>525.61999512</ele>
        <time>2020-10-22T08:52:14Z</time>
      </trkpt>
      <trkpt lat="43.03725" lon="0.75071">
        <ele>525.42999268</ele>
        <time>2020-10-22T08:52:15Z</time>
      </trkpt>
      <trkpt lat="43.0373" lon="0.75071">
        <ele>526.01000977</ele>
        <time>2020-10-22T08:52:17Z</time>
      </trkpt>
      <trkpt lat="43.03733" lon="0.75072">
        <ele>526.40997314</ele>
        <time>2020-10-22T08:52:18Z</time>
      </trkpt>
      <trkpt lat="43.03735" lon="0.75072">
        <ele>526.66998291</ele>
        <time>2020-10-22T08:52:19Z</time>
      </trkpt>
      <trkpt lat="43.03739" lon="0.75071">
        <ele>526.38000488</ele>
        <time>2020-10-22T08:52:20Z</time>
      </trkpt>
      <trkpt lat="43.03742" lon="0.75071">
        <ele>526.53997803</ele>
        <time>2020-10-22T08:52:21Z</time>
      </trkpt>
      <trkpt lat="43.03746" lon="0.7507">
        <ele>526.55999756</ele>
        <time>2020-10-22T08:52:22Z</time>
      </trkpt>
      <trkpt lat="43.03753" lon="0.75069">
        <ele>526.04998779</ele>
        <time>2020-10-22T08:52:24Z</time>
      </trkpt>
      <trkpt lat="43.03772" lon="0.75063">
        <ele>525.33001709</ele>
        <time>2020-10-22T08:52:26Z</time>
      </trkpt>
      <trkpt lat="43.03779" lon="0.7506">
        <ele>525.11999512</ele>
        <time>2020-10-22T08:52:27Z</time>
      </trkpt>
      <trkpt lat="43.03791" lon="0.75056">
        <ele>525.96002197</ele>
        <time>2020-10-22T08:52:29Z</time>
      </trkpt>
      <trkpt lat="43.03804" lon="0.75051">
        <ele>523.55999756</ele>
        <time>2020-10-22T08:52:31Z</time>
      </trkpt>
      <trkpt lat="43.03811" lon="0.75049">
        <ele>523.77001953</ele>
        <time>2020-10-22T08:52:32Z</time>
      </trkpt>
      <trkpt lat="43.03825" lon="0.75044">
        <ele>521.65997314</ele>
        <time>2020-10-22T08:52:34Z</time>
      </trkpt>
      <trkpt lat="43.03835" lon="0.75041">
        <ele>520.73999023</ele>
        <time>2020-10-22T08:52:35Z</time>
      </trkpt>
      <trkpt lat="43.03858" lon="0.75039">
        <ele>518.63000488</ele>
        <time>2020-10-22T08:52:37Z</time>
      </trkpt>
      <trkpt lat="43.03877" lon="0.75042">
        <ele>517.17999268</ele>
        <time>2020-10-22T08:52:39Z</time>
      </trkpt>
      <trkpt lat="43.03894" lon="0.75046">
        <ele>515.97998047</ele>
        <time>2020-10-22T08:52:41Z</time>
      </trkpt>
      <trkpt lat="43.03909" lon="0.75048">
        <ele>514.55999756</ele>
        <time>2020-10-22T08:52:43Z</time>
      </trkpt>
      <trkpt lat="43.03916" lon="0.7505">
        <ele>513.84002686</ele>
        <time>2020-10-22T08:52:44Z</time>
      </trkpt>
      <trkpt lat="43.0393" lon="0.75056">
        <ele>512.40997314</ele>
        <time>2020-10-22T08:52:46Z</time>
      </trkpt>
      <trkpt lat="43.03941" lon="0.7506">
        <ele>511</ele>
        <time>2020-10-22T08:52:48Z</time>
      </trkpt>
      <trkpt lat="43.03948" lon="0.7506">
        <ele>509.67999268</ele>
        <time>2020-10-22T08:52:50Z</time>
      </trkpt>
      <trkpt lat="43.03953" lon="0.75061">
        <ele>508.26000977</ele>
        <time>2020-10-22T08:52:52Z</time>
      </trkpt>
      <trkpt lat="43.03955" lon="0.75061">
        <ele>506.38000488</ele>
        <time>2020-10-22T08:52:53Z</time>
      </trkpt>
      <trkpt lat="43.03959" lon="0.75062">
        <ele>506.1000061</ele>
        <time>2020-10-22T08:52:55Z</time>
      </trkpt>
      <trkpt lat="43.03963" lon="0.75064">
        <ele>506.42999268</ele>
        <time>2020-10-22T08:52:57Z</time>
      </trkpt>
      <trkpt lat="43.03965" lon="0.75066">
        <ele>506.8500061</ele>
        <time>2020-10-22T08:52:58Z</time>
      </trkpt>
      <trkpt lat="43.03967" lon="0.75068">
        <ele>507.1499939</ele>
        <time>2020-10-22T08:52:59Z</time>
      </trkpt>
      <trkpt lat="43.03969" lon="0.75071">
        <ele>507.32000732</ele>
        <time>2020-10-22T08:53:01Z</time>
      </trkpt>
      <trkpt lat="43.03971" lon="0.75073">
        <ele>508.3500061</ele>
        <time>2020-10-22T08:53:02Z</time>
      </trkpt>
      <trkpt lat="43.03974" lon="0.75075">
        <ele>508.92001343</ele>
        <time>2020-10-22T08:53:03Z</time>
      </trkpt>
      <trkpt lat="43.03978" lon="0.75077">
        <ele>509.54000854</ele>
        <time>2020-10-22T08:53:04Z</time>
      </trkpt>
      <trkpt lat="43.03982" lon="0.7508">
        <ele>509.79998779</ele>
        <time>2020-10-22T08:53:06Z</time>
      </trkpt>
      <trkpt lat="43.03985" lon="0.75081">
        <ele>510.26000977</ele>
        <time>2020-10-22T08:53:07Z</time>
      </trkpt>
      <trkpt lat="43.03989" lon="0.75084">
        <ele>510.83999634</ele>
        <time>2020-10-22T08:53:08Z</time>
      </trkpt>
      <trkpt lat="43.03992" lon="0.75087">
        <ele>511.51000977</ele>
        <time>2020-10-22T08:53:09Z</time>
      </trkpt>
      <trkpt lat="43.03999" lon="0.75092">
        <ele>513.02001953</ele>
        <time>2020-10-22T08:53:11Z</time>
      </trkpt>
      <trkpt lat="43.04002" lon="0.75095">
        <ele>514.44000244</ele>
        <time>2020-10-22T08:53:13Z</time>
      </trkpt>
      <trkpt lat="43.04006" lon="0.75097">
        <ele>515.33001709</ele>
        <time>2020-10-22T08:53:14Z</time>
      </trkpt>
      <trkpt lat="43.0401" lon="0.751">
        <ele>516.01000977</ele>
        <time>2020-10-22T08:53:16Z</time>
      </trkpt>
      <trkpt lat="43.04015" lon="0.75104">
        <ele>516.94000244</ele>
        <time>2020-10-22T08:53:18Z</time>
      </trkpt>
      <trkpt lat="43.04019" lon="0.75105">
        <ele>518.46002197</ele>
        <time>2020-10-22T08:53:19Z</time>
      </trkpt>
      <trkpt lat="43.04023" lon="0.75107">
        <ele>518.46002197</ele>
        <time>2020-10-22T08:53:20Z</time>
      </trkpt>
      <trkpt lat="43.04028" lon="0.75109">
        <ele>519.86999512</ele>
        <time>2020-10-22T08:53:21Z</time>
      </trkpt>
      <trkpt lat="43.04033" lon="0.75111">
        <ele>520.38000488</ele>
        <time>2020-10-22T08:53:22Z</time>
      </trkpt>
      <trkpt lat="43.04038" lon="0.75113">
        <ele>521.21002197</ele>
        <time>2020-10-22T08:53:24Z</time>
      </trkpt>
      <trkpt lat="43.04043" lon="0.75115">
        <ele>522.65997314</ele>
        <time>2020-10-22T08:53:25Z</time>
      </trkpt>
      <trkpt lat="43.04047" lon="0.75117">
        <ele>523.82000732</ele>
        <time>2020-10-22T08:53:27Z</time>
      </trkpt>
      <trkpt lat="43.0405" lon="0.75118">
        <ele>523.82000732</ele>
        <time>2020-10-22T08:53:28Z</time>
      </trkpt>
      <trkpt lat="43.04054" lon="0.7512">
        <ele>525.2199707</ele>
        <time>2020-10-22T08:53:29Z</time>
      </trkpt>
      <trkpt lat="43.04057" lon="0.75122">
        <ele>526.38000488</ele>
        <time>2020-10-22T08:53:30Z</time>
      </trkpt>
      <trkpt lat="43.04061" lon="0.75125">
        <ele>526.73999023</ele>
        <time>2020-10-22T08:53:32Z</time>
      </trkpt>
      <trkpt lat="43.04064" lon="0.75127">
        <ele>527.01000977</ele>
        <time>2020-10-22T08:53:33Z</time>
      </trkpt>
      <trkpt lat="43.04069" lon="0.7513">
        <ele>527.90002441</ele>
        <time>2020-10-22T08:53:34Z</time>
      </trkpt>
      <trkpt lat="43.04072" lon="0.75133">
        <ele>528.77001953</ele>
        <time>2020-10-22T08:53:36Z</time>
      </trkpt>
      <trkpt lat="43.04076" lon="0.75137">
        <ele>529.38000488</ele>
        <time>2020-10-22T08:53:37Z</time>
      </trkpt>
      <trkpt lat="43.0408" lon="0.75141">
        <ele>530.60998535</ele>
        <time>2020-10-22T08:53:39Z</time>
      </trkpt>
      <trkpt lat="43.04082" lon="0.75144">
        <ele>530.60998535</ele>
        <time>2020-10-22T08:53:40Z</time>
      </trkpt>
      <trkpt lat="43.04088" lon="0.75148">
        <ele>531.80999756</ele>
        <time>2020-10-22T08:53:41Z</time>
      </trkpt>
      <trkpt lat="43.04093" lon="0.7515">
        <ele>532.08001709</ele>
        <time>2020-10-22T08:53:43Z</time>
      </trkpt>
      <trkpt lat="43.04096" lon="0.75151">
        <ele>532.57000732</ele>
        <time>2020-10-22T08:53:44Z</time>
      </trkpt>
      <trkpt lat="43.04098" lon="0.75153">
        <ele>533.15997314</ele>
        <time>2020-10-22T08:53:45Z</time>
      </trkpt>
      <trkpt lat="43.04101" lon="0.75155">
        <ele>533.63000488</ele>
        <time>2020-10-22T08:53:47Z</time>
      </trkpt>
      <trkpt lat="43.04102" lon="0.75157">
        <ele>534.34997559</ele>
        <time>2020-10-22T08:53:48Z</time>
      </trkpt>
      <trkpt lat="43.04104" lon="0.75159">
        <ele>534.95001221</ele>
        <time>2020-10-22T08:53:49Z</time>
      </trkpt>
      <trkpt lat="43.04107" lon="0.75163">
        <ele>535.54998779</ele>
        <time>2020-10-22T08:53:51Z</time>
      </trkpt>
      <trkpt lat="43.0411" lon="0.75166">
        <ele>536.09997559</ele>
        <time>2020-10-22T08:53:52Z</time>
      </trkpt>
      <trkpt lat="43.04112" lon="0.75169">
        <ele>536.72998047</ele>
        <time>2020-10-22T08:53:54Z</time>
      </trkpt>
      <trkpt lat="43.04114" lon="0.75172">
        <ele>537.73999023</ele>
        <time>2020-10-22T08:53:56Z</time>
      </trkpt>
      <trkpt lat="43.04117" lon="0.75177">
        <ele>538.17999268</ele>
        <time>2020-10-22T08:53:57Z</time>
      </trkpt>
      <trkpt lat="43.04119" lon="0.7518">
        <ele>538.39001465</ele>
        <time>2020-10-22T08:53:59Z</time>
      </trkpt>
      <trkpt lat="43.04121" lon="0.75183">
        <ele>539.48999023</ele>
        <time>2020-10-22T08:54:00Z</time>
      </trkpt>
      <trkpt lat="43.04123" lon="0.75185">
        <ele>540.0300293</ele>
        <time>2020-10-22T08:54:02Z</time>
      </trkpt>
      <trkpt lat="43.04127" lon="0.75189">
        <ele>541.05999756</ele>
        <time>2020-10-22T08:54:04Z</time>
      </trkpt>
      <trkpt lat="43.04137" lon="0.75195">
        <ele>541.39001465</ele>
        <time>2020-10-22T08:54:05Z</time>
      </trkpt>
      <trkpt lat="43.04139" lon="0.75196">
        <ele>542.21002197</ele>
        <time>2020-10-22T08:54:06Z</time>
      </trkpt>
      <trkpt lat="43.0414" lon="0.75197">
        <ele>543.28997803</ele>
        <time>2020-10-22T08:54:08Z</time>
      </trkpt>
      <trkpt lat="43.04142" lon="0.75198">
        <ele>543.65002441</ele>
        <time>2020-10-22T08:54:09Z</time>
      </trkpt>
      <trkpt lat="43.04145" lon="0.75199">
        <ele>544.72998047</ele>
        <time>2020-10-22T08:54:11Z</time>
      </trkpt>
      <trkpt lat="43.04147" lon="0.75201">
        <ele>545.60998535</ele>
        <time>2020-10-22T08:54:12Z</time>
      </trkpt>
      <trkpt lat="43.04149" lon="0.75202">
        <ele>545.91998291</ele>
        <time>2020-10-22T08:54:13Z</time>
      </trkpt>
      <trkpt lat="43.0415" lon="0.75206">
        <ele>547.23999023</ele>
        <time>2020-10-22T08:54:15Z</time>
      </trkpt>
      <trkpt lat="43.04151" lon="0.75208">
        <ele>547.20001221</ele>
        <time>2020-10-22T08:54:16Z</time>
      </trkpt>
      <trkpt lat="43.04151" lon="0.7521">
        <ele>547.60998535</ele>
        <time>2020-10-22T08:54:17Z</time>
      </trkpt>
      <trkpt lat="43.0415" lon="0.75214">
        <ele>547.5300293</ele>
        <time>2020-10-22T08:54:19Z</time>
      </trkpt>
      <trkpt lat="43.0415" lon="0.75216">
        <ele>548.16998291</ele>
        <time>2020-10-22T08:54:20Z</time>
      </trkpt>
      <trkpt lat="43.04151" lon="0.7522">
        <ele>548.61999512</ele>
        <time>2020-10-22T08:54:21Z</time>
      </trkpt>
      <trkpt lat="43.04151" lon="0.75223">
        <ele>548.91998291</ele>
        <time>2020-10-22T08:54:23Z</time>
      </trkpt>
      <trkpt lat="43.04151" lon="0.75225">
        <ele>548.98999023</ele>
        <time>2020-10-22T08:54:24Z</time>
      </trkpt>
      <trkpt lat="43.04151" lon="0.75228">
        <ele>550.32000732</ele>
        <time>2020-10-22T08:54:25Z</time>
      </trkpt>
      <trkpt lat="43.0415" lon="0.75232">
        <ele>551.05999756</ele>
        <time>2020-10-22T08:54:27Z</time>
      </trkpt>
      <trkpt lat="43.0415" lon="0.75235">
        <ele>551.16998291</ele>
        <time>2020-10-22T08:54:28Z</time>
      </trkpt>
      <trkpt lat="43.04149" lon="0.75239">
        <ele>551.14001465</ele>
        <time>2020-10-22T08:54:29Z</time>
      </trkpt>
      <trkpt lat="43.04149" lon="0.75242">
        <ele>551.5</ele>
        <time>2020-10-22T08:54:30Z</time>
      </trkpt>
      <trkpt lat="43.04148" lon="0.75245">
        <ele>551.90997314</ele>
        <time>2020-10-22T08:54:32Z</time>
      </trkpt>
      <trkpt lat="43.04148" lon="0.75249">
        <ele>552.75</ele>
        <time>2020-10-22T08:54:33Z</time>
      </trkpt>
      <trkpt lat="43.04148" lon="0.75253">
        <ele>553</ele>
        <time>2020-10-22T08:54:34Z</time>
      </trkpt>
      <trkpt lat="43.04148" lon="0.75257">
        <ele>554.0300293</ele>
        <time>2020-10-22T08:54:36Z</time>
      </trkpt>
      <trkpt lat="43.04149" lon="0.7526">
        <ele>553.84002686</ele>
        <time>2020-10-22T08:54:37Z</time>
      </trkpt>
      <trkpt lat="43.04149" lon="0.75262">
        <ele>553.92999268</ele>
        <time>2020-10-22T08:54:38Z</time>
      </trkpt>
      <trkpt lat="43.0415" lon="0.75265">
        <ele>555.29998779</ele>
        <time>2020-10-22T08:54:39Z</time>
      </trkpt>
      <trkpt lat="43.04152" lon="0.75266">
        <ele>555.42999268</ele>
        <time>2020-10-22T08:54:40Z</time>
      </trkpt>
      <trkpt lat="43.04154" lon="0.75268">
        <ele>555.57000732</ele>
        <time>2020-10-22T08:54:42Z</time>
      </trkpt>
      <trkpt lat="43.04156" lon="0.75269">
        <ele>555.45001221</ele>
        <time>2020-10-22T08:54:43Z</time>
      </trkpt>
      <trkpt lat="43.04158" lon="0.75269">
        <ele>555.45001221</ele>
        <time>2020-10-22T08:54:44Z</time>
      </trkpt>
      <trkpt lat="43.0416" lon="0.75269">
        <ele>556.41998291</ele>
        <time>2020-10-22T08:54:45Z</time>
      </trkpt>
      <trkpt lat="43.04162" lon="0.75269">
        <ele>556.76000977</ele>
        <time>2020-10-22T08:54:46Z</time>
      </trkpt>
      <trkpt lat="43.04164" lon="0.75268">
        <ele>557.16998291</ele>
        <time>2020-10-22T08:54:47Z</time>
      </trkpt>
      <trkpt lat="43.04167" lon="0.75266">
        <ele>557.15002441</ele>
        <time>2020-10-22T08:54:49Z</time>
      </trkpt>
      <trkpt lat="43.04169" lon="0.75265">
        <ele>558.17999268</ele>
        <time>2020-10-22T08:54:50Z</time>
      </trkpt>
      <trkpt lat="43.04172" lon="0.75263">
        <ele>557.53997803</ele>
        <time>2020-10-22T08:54:51Z</time>
      </trkpt>
      <trkpt lat="43.04175" lon="0.75262">
        <ele>556.95001221</ele>
        <time>2020-10-22T08:54:52Z</time>
      </trkpt>
      <trkpt lat="43.04177" lon="0.7526">
        <ele>557.63000488</ele>
        <time>2020-10-22T08:54:54Z</time>
      </trkpt>
      <trkpt lat="43.04179" lon="0.75258">
        <ele>557.45001221</ele>
        <time>2020-10-22T08:54:55Z</time>
      </trkpt>
      <trkpt lat="43.04183" lon="0.75254">
        <ele>557.30999756</ele>
        <time>2020-10-22T08:54:57Z</time>
      </trkpt>
      <trkpt lat="43.04185" lon="0.75251">
        <ele>558.59997559</ele>
        <time>2020-10-22T08:54:58Z</time>
      </trkpt>
      <trkpt lat="43.04188" lon="0.75246">
        <ele>559.10998535</ele>
        <time>2020-10-22T08:54:59Z</time>
      </trkpt>
      <trkpt lat="43.0419" lon="0.75242">
        <ele>558.75</ele>
        <time>2020-10-22T08:55:00Z</time>
      </trkpt>
      <trkpt lat="43.04192" lon="0.75238">
        <ele>559.05999756</ele>
        <time>2020-10-22T08:55:02Z</time>
      </trkpt>
      <trkpt lat="43.04194" lon="0.75235">
        <ele>558.85998535</ele>
        <time>2020-10-22T08:55:03Z</time>
      </trkpt>
      <trkpt lat="43.04198" lon="0.75229">
        <ele>558.90002441</ele>
        <time>2020-10-22T08:55:05Z</time>
      </trkpt>
      <trkpt lat="43.042" lon="0.75226">
        <ele>559.59002686</ele>
        <time>2020-10-22T08:55:06Z</time>
      </trkpt>
      <trkpt lat="43.04202" lon="0.7522">
        <ele>559.84997559</ele>
        <time>2020-10-22T08:55:08Z</time>
      </trkpt>
      <trkpt lat="43.04203" lon="0.75217">
        <ele>560.46002197</ele>
        <time>2020-10-22T08:55:09Z</time>
      </trkpt>
      <trkpt lat="43.04204" lon="0.7521">
        <ele>561.10998535</ele>
        <time>2020-10-22T08:55:11Z</time>
      </trkpt>
      <trkpt lat="43.04205" lon="0.75199">
        <ele>560.2800293</ele>
        <time>2020-10-22T08:55:12Z</time>
      </trkpt>
      <trkpt lat="43.04206" lon="0.75195">
        <ele>560.82000732</ele>
        <time>2020-10-22T08:55:13Z</time>
      </trkpt>
      <trkpt lat="43.04206" lon="0.75191">
        <ele>561.13000488</ele>
        <time>2020-10-22T08:55:14Z</time>
      </trkpt>
      <trkpt lat="43.04206" lon="0.75187">
        <ele>561.26000977</ele>
        <time>2020-10-22T08:55:15Z</time>
      </trkpt>
      <trkpt lat="43.04207" lon="0.75182">
        <ele>561.09002686</ele>
        <time>2020-10-22T08:55:17Z</time>
      </trkpt>
      <trkpt lat="43.04207" lon="0.75175">
        <ele>562.32000732</ele>
        <time>2020-10-22T08:55:19Z</time>
      </trkpt>
      <trkpt lat="43.04207" lon="0.75171">
        <ele>562.85998535</ele>
        <time>2020-10-22T08:55:20Z</time>
      </trkpt>
      <trkpt lat="43.04208" lon="0.75167">
        <ele>563.63000488</ele>
        <time>2020-10-22T08:55:21Z</time>
      </trkpt>
      <trkpt lat="43.04208" lon="0.75162">
        <ele>564.07000732</ele>
        <time>2020-10-22T08:55:22Z</time>
      </trkpt>
      <trkpt lat="43.04208" lon="0.75156">
        <ele>564.22998047</ele>
        <time>2020-10-22T08:55:23Z</time>
      </trkpt>
      <trkpt lat="43.04208" lon="0.75151">
        <ele>564.2800293</ele>
        <time>2020-10-22T08:55:25Z</time>
      </trkpt>
      <trkpt lat="43.04208" lon="0.75145">
        <ele>565.15997314</ele>
        <time>2020-10-22T08:55:26Z</time>
      </trkpt>
      <trkpt lat="43.04208" lon="0.75139">
        <ele>565.05999756</ele>
        <time>2020-10-22T08:55:27Z</time>
      </trkpt>
      <trkpt lat="43.04208" lon="0.75132">
        <ele>565.25</ele>
        <time>2020-10-22T08:55:29Z</time>
      </trkpt>
      <trkpt lat="43.04207" lon="0.75124">
        <ele>565.51000977</ele>
        <time>2020-10-22T08:55:30Z</time>
      </trkpt>
      <trkpt lat="43.04208" lon="0.75119">
        <ele>565.64001465</ele>
        <time>2020-10-22T08:55:32Z</time>
      </trkpt>
      <trkpt lat="43.04208" lon="0.75113">
        <ele>565.84997559</ele>
        <time>2020-10-22T08:55:33Z</time>
      </trkpt>
      <trkpt lat="43.04208" lon="0.75109">
        <ele>566.08001709</ele>
        <time>2020-10-22T08:55:34Z</time>
      </trkpt>
      <trkpt lat="43.04209" lon="0.75103">
        <ele>566.32000732</ele>
        <time>2020-10-22T08:55:36Z</time>
      </trkpt>
      <trkpt lat="43.0421" lon="0.75097">
        <ele>566.16998291</ele>
        <time>2020-10-22T08:55:37Z</time>
      </trkpt>
      <trkpt lat="43.0421" lon="0.75092">
        <ele>566.15002441</ele>
        <time>2020-10-22T08:55:38Z</time>
      </trkpt>
      <trkpt lat="43.04211" lon="0.75085">
        <ele>565.95001221</ele>
        <time>2020-10-22T08:55:40Z</time>
      </trkpt>
      <trkpt lat="43.04212" lon="0.7508">
        <ele>565.70001221</ele>
        <time>2020-10-22T08:55:41Z</time>
      </trkpt>
      <trkpt lat="43.04213" lon="0.75075">
        <ele>565.54998779</ele>
        <time>2020-10-22T08:55:43Z</time>
      </trkpt>
      <trkpt lat="43.04215" lon="0.75067">
        <ele>565.75</ele>
        <time>2020-10-22T08:55:44Z</time>
      </trkpt>
      <trkpt lat="43.04216" lon="0.75062">
        <ele>566.15997314</ele>
        <time>2020-10-22T08:55:46Z</time>
      </trkpt>
      <trkpt lat="43.04218" lon="0.75057">
        <ele>566.15997314</ele>
        <time>2020-10-22T08:55:47Z</time>
      </trkpt>
      <trkpt lat="43.0422" lon="0.7505">
        <ele>566.36999512</ele>
        <time>2020-10-22T08:55:48Z</time>
      </trkpt>
      <trkpt lat="43.04222" lon="0.75043">
        <ele>566.67999268</ele>
        <time>2020-10-22T08:55:50Z</time>
      </trkpt>
      <trkpt lat="43.04224" lon="0.75034">
        <ele>567.36999512</ele>
        <time>2020-10-22T08:55:51Z</time>
      </trkpt>
      <trkpt lat="43.04226" lon="0.75027">
        <ele>567.36999512</ele>
        <time>2020-10-22T08:55:53Z</time>
      </trkpt>
      <trkpt lat="43.04228" lon="0.75021">
        <ele>567.26000977</ele>
        <time>2020-10-22T08:55:54Z</time>
      </trkpt>
      <trkpt lat="43.0423" lon="0.75015">
        <ele>567.71002197</ele>
        <time>2020-10-22T08:55:55Z</time>
      </trkpt>
      <trkpt lat="43.04232" lon="0.75007">
        <ele>567.65002441</ele>
        <time>2020-10-22T08:55:56Z</time>
      </trkpt>
      <trkpt lat="43.04234" lon="0.75">
        <ele>567.44000244</ele>
        <time>2020-10-22T08:55:57Z</time>
      </trkpt>
      <trkpt lat="43.04236" lon="0.74992">
        <ele>566.66998291</ele>
        <time>2020-10-22T08:55:59Z</time>
      </trkpt>
      <trkpt lat="43.04239" lon="0.74984">
        <ele>567.69000244</ele>
        <time>2020-10-22T08:56:00Z</time>
      </trkpt>
      <trkpt lat="43.04242" lon="0.74977">
        <ele>567.48999023</ele>
        <time>2020-10-22T08:56:01Z</time>
      </trkpt>
      <trkpt lat="43.04243" lon="0.74967">
        <ele>567.14001465</ele>
        <time>2020-10-22T08:56:03Z</time>
      </trkpt>
      <trkpt lat="43.04245" lon="0.74959">
        <ele>566.70001221</ele>
        <time>2020-10-22T08:56:04Z</time>
      </trkpt>
      <trkpt lat="43.04246" lon="0.74952">
        <ele>566.64001465</ele>
        <time>2020-10-22T08:56:06Z</time>
      </trkpt>
      <trkpt lat="43.04248" lon="0.74945">
        <ele>566.48999023</ele>
        <time>2020-10-22T08:56:07Z</time>
      </trkpt>
      <trkpt lat="43.0425" lon="0.74938">
        <ele>566.59997559</ele>
        <time>2020-10-22T08:56:09Z</time>
      </trkpt>
      <trkpt lat="43.04252" lon="0.74931">
        <ele>566.44000244</ele>
        <time>2020-10-22T08:56:10Z</time>
      </trkpt>
      <trkpt lat="43.04255" lon="0.74923">
        <ele>566.98999023</ele>
        <time>2020-10-22T08:56:12Z</time>
      </trkpt>
      <trkpt lat="43.04258" lon="0.74913">
        <ele>566.01000977</ele>
        <time>2020-10-22T08:56:13Z</time>
      </trkpt>
      <trkpt lat="43.04261" lon="0.74906">
        <ele>565.42999268</ele>
        <time>2020-10-22T08:56:15Z</time>
      </trkpt>
      <trkpt lat="43.04262" lon="0.74901">
        <ele>565.77001953</ele>
        <time>2020-10-22T08:56:16Z</time>
      </trkpt>
      <trkpt lat="43.04264" lon="0.74896">
        <ele>565.77001953</ele>
        <time>2020-10-22T08:56:17Z</time>
      </trkpt>
      <trkpt lat="43.04268" lon="0.74888">
        <ele>565.85998535</ele>
        <time>2020-10-22T08:56:18Z</time>
      </trkpt>
      <trkpt lat="43.04271" lon="0.74881">
        <ele>566.20001221</ele>
        <time>2020-10-22T08:56:19Z</time>
      </trkpt>
      <trkpt lat="43.04274" lon="0.74874">
        <ele>565.90002441</ele>
        <time>2020-10-22T08:56:21Z</time>
      </trkpt>
      <trkpt lat="43.04278" lon="0.74862">
        <ele>563.7199707</ele>
        <time>2020-10-22T08:56:23Z</time>
      </trkpt>
      <trkpt lat="43.04281" lon="0.74857">
        <ele>563.77001953</ele>
        <time>2020-10-22T08:56:24Z</time>
      </trkpt>
      <trkpt lat="43.04286" lon="0.7485">
        <ele>563.09997559</ele>
        <time>2020-10-22T08:56:25Z</time>
      </trkpt>
      <trkpt lat="43.04292" lon="0.74836">
        <ele>563.82000732</ele>
        <time>2020-10-22T08:56:27Z</time>
      </trkpt>
      <trkpt lat="43.043" lon="0.7482">
        <ele>562.47998047</ele>
        <time>2020-10-22T08:56:29Z</time>
      </trkpt>
      <trkpt lat="43.04304" lon="0.74812">
        <ele>562.19000244</ele>
        <time>2020-10-22T08:56:30Z</time>
      </trkpt>
      <trkpt lat="43.04315" lon="0.74799">
        <ele>562.51000977</ele>
        <time>2020-10-22T08:56:32Z</time>
      </trkpt>
      <trkpt lat="43.04328" lon="0.74794">
        <ele>561.48999023</ele>
        <time>2020-10-22T08:56:34Z</time>
      </trkpt>
      <trkpt lat="43.04341" lon="0.7479">
        <ele>559.84002686</ele>
        <time>2020-10-22T08:56:36Z</time>
      </trkpt>
      <trkpt lat="43.04347" lon="0.74788">
        <ele>558.67999268</ele>
        <time>2020-10-22T08:56:37Z</time>
      </trkpt>
      <trkpt lat="43.04354" lon="0.74787">
        <ele>558.15997314</ele>
        <time>2020-10-22T08:56:38Z</time>
      </trkpt>
      <trkpt lat="43.04367" lon="0.74787">
        <ele>555.2800293</ele>
        <time>2020-10-22T08:56:40Z</time>
      </trkpt>
      <trkpt lat="43.04381" lon="0.74791">
        <ele>554.98999023</ele>
        <time>2020-10-22T08:56:42Z</time>
      </trkpt>
      <trkpt lat="43.04388" lon="0.74794">
        <ele>554.57000732</ele>
        <time>2020-10-22T08:56:43Z</time>
      </trkpt>
      <trkpt lat="43.04403" lon="0.748">
        <ele>553.84997559</ele>
        <time>2020-10-22T08:56:45Z</time>
      </trkpt>
      <trkpt lat="43.04418" lon="0.74807">
        <ele>551.61999512</ele>
        <time>2020-10-22T08:56:47Z</time>
      </trkpt>
      <trkpt lat="43.04431" lon="0.74809">
        <ele>547.52001953</ele>
        <time>2020-10-22T08:56:49Z</time>
      </trkpt>
      <trkpt lat="43.04446" lon="0.74795">
        <ele>545.34002686</ele>
        <time>2020-10-22T08:57:07Z</time>
      </trkpt>
      <trkpt lat="43.04446" lon="0.74795">
        <ele>545.19000244</ele>
        <time>2020-10-22T08:57:08Z</time>
      </trkpt>
      <trkpt lat="43.04447" lon="0.74795">
        <ele>545.01000977</ele>
        <time>2020-10-22T08:57:09Z</time>
      </trkpt>
      <trkpt lat="43.04449" lon="0.74794">
        <ele>544.21002197</ele>
        <time>2020-10-22T08:57:11Z</time>
      </trkpt>
      <trkpt lat="43.0445" lon="0.74794">
        <ele>544.21002197</ele>
        <time>2020-10-22T08:57:12Z</time>
      </trkpt>
      <trkpt lat="43.04455" lon="0.74793">
        <ele>541.44000244</ele>
        <time>2020-10-22T08:57:14Z</time>
      </trkpt>
      <trkpt lat="43.0446" lon="0.74793">
        <ele>540.10998535</ele>
        <time>2020-10-22T08:57:15Z</time>
      </trkpt>
      <trkpt lat="43.04463" lon="0.74792">
        <ele>538.63000488</ele>
        <time>2020-10-22T08:57:16Z</time>
      </trkpt>
      <trkpt lat="43.04468" lon="0.74791">
        <ele>539.10998535</ele>
        <time>2020-10-22T08:57:17Z</time>
      </trkpt>
      <trkpt lat="43.04475" lon="0.74791">
        <ele>539.02001953</ele>
        <time>2020-10-22T08:57:19Z</time>
      </trkpt>
      <trkpt lat="43.04481" lon="0.7479">
        <ele>537.7199707</ele>
        <time>2020-10-22T08:57:20Z</time>
      </trkpt>
      <trkpt lat="43.04487" lon="0.74789">
        <ele>538.5</ele>
        <time>2020-10-22T08:57:21Z</time>
      </trkpt>
      <trkpt lat="43.04495" lon="0.74786">
        <ele>536.32000732</ele>
        <time>2020-10-22T08:57:23Z</time>
      </trkpt>
      <trkpt lat="43.04499" lon="0.74785">
        <ele>534.98999023</ele>
        <time>2020-10-22T08:57:24Z</time>
      </trkpt>
      <trkpt lat="43.04506" lon="0.74782">
        <ele>532.34997559</ele>
        <time>2020-10-22T08:57:25Z</time>
      </trkpt>
      <trkpt lat="43.04514" lon="0.7478">
        <ele>533.63000488</ele>
        <time>2020-10-22T08:57:26Z</time>
      </trkpt>
      <trkpt lat="43.04522" lon="0.74777">
        <ele>532.84997559</ele>
        <time>2020-10-22T08:57:28Z</time>
      </trkpt>
      <trkpt lat="43.04537" lon="0.74774">
        <ele>530.85998535</ele>
        <time>2020-10-22T08:57:30Z</time>
      </trkpt>
      <trkpt lat="43.04542" lon="0.74774">
        <ele>528.92999268</ele>
        <time>2020-10-22T08:57:32Z</time>
      </trkpt>
      <trkpt lat="43.04544" lon="0.74773">
        <ele>528.48999023</ele>
        <time>2020-10-22T08:57:33Z</time>
      </trkpt>
      <trkpt lat="43.04547" lon="0.74772">
        <ele>527.66998291</ele>
        <time>2020-10-22T08:57:34Z</time>
      </trkpt>
      <trkpt lat="43.0455" lon="0.74771">
        <ele>528.9699707</ele>
        <time>2020-10-22T08:57:36Z</time>
      </trkpt>
      <trkpt lat="43.04554" lon="0.74772">
        <ele>529.57000732</ele>
        <time>2020-10-22T08:57:37Z</time>
      </trkpt>
      <trkpt lat="43.04559" lon="0.74774">
        <ele>528.41998291</ele>
        <time>2020-10-22T08:57:38Z</time>
      </trkpt>
      <trkpt lat="43.04565" lon="0.74778">
        <ele>527.98999023</ele>
        <time>2020-10-22T08:57:39Z</time>
      </trkpt>
      <trkpt lat="43.04576" lon="0.74783">
        <ele>532</ele>
        <time>2020-10-22T08:57:40Z</time>
      </trkpt>
      <trkpt lat="43.04614" lon="0.74795">
        <ele>525.90997314</ele>
        <time>2020-10-22T08:57:43Z</time>
      </trkpt>
      <trkpt lat="43.04626" lon="0.74799">
        <ele>524.17999268</ele>
        <time>2020-10-22T08:57:44Z</time>
      </trkpt>
      <trkpt lat="43.04644" lon="0.74808">
        <ele>523.17999268</ele>
        <time>2020-10-22T08:57:46Z</time>
      </trkpt>
      <trkpt lat="43.04652" lon="0.74812">
        <ele>522.59997559</ele>
        <time>2020-10-22T08:57:47Z</time>
      </trkpt>
      <trkpt lat="43.04665" lon="0.74823">
        <ele>519.76000977</ele>
        <time>2020-10-22T08:57:49Z</time>
      </trkpt>
      <trkpt lat="43.04671" lon="0.7483">
        <ele>518.59997559</ele>
        <time>2020-10-22T08:57:50Z</time>
      </trkpt>
      <trkpt lat="43.04683" lon="0.74842">
        <ele>518.46002197</ele>
        <time>2020-10-22T08:57:52Z</time>
      </trkpt>
      <trkpt lat="43.04691" lon="0.74848">
        <ele>519</ele>
        <time>2020-10-22T08:57:53Z</time>
      </trkpt>
      <trkpt lat="43.04706" lon="0.74863">
        <ele>516.29998779</ele>
        <time>2020-10-22T08:57:55Z</time>
      </trkpt>
      <trkpt lat="43.04722" lon="0.74881">
        <ele>514.41998291</ele>
        <time>2020-10-22T08:57:57Z</time>
      </trkpt>
      <trkpt lat="43.04735" lon="0.74901">
        <ele>512.39001465</ele>
        <time>2020-10-22T08:57:59Z</time>
      </trkpt>
      <trkpt lat="43.04743" lon="0.74911">
        <ele>512.34002686</ele>
        <time>2020-10-22T08:58:00Z</time>
      </trkpt>
      <trkpt lat="43.04749" lon="0.74922">
        <ele>511.77999878</ele>
        <time>2020-10-22T08:58:01Z</time>
      </trkpt>
      <trkpt lat="43.04761" lon="0.74943">
        <ele>510.33999634</ele>
        <time>2020-10-22T08:58:03Z</time>
      </trkpt>
      <trkpt lat="43.0477" lon="0.74966">
        <ele>506.52999878</ele>
        <time>2020-10-22T08:58:05Z</time>
      </trkpt>
      <trkpt lat="43.04778" lon="0.74988">
        <ele>506.3999939</ele>
        <time>2020-10-22T08:58:07Z</time>
      </trkpt>
      <trkpt lat="43.04784" lon="0.75002">
        <ele>504.14001465</ele>
        <time>2020-10-22T08:58:09Z</time>
      </trkpt>
      <trkpt lat="43.04785" lon="0.75003">
        <ele>503.1499939</ele>
        <time>2020-10-22T08:58:10Z</time>
      </trkpt>
      <trkpt lat="43.04787" lon="0.75003">
        <ele>502.04998779</ele>
        <time>2020-10-22T08:58:11Z</time>
      </trkpt>
      <trkpt lat="43.04789" lon="0.75004">
        <ele>501.89001465</ele>
        <time>2020-10-22T08:58:12Z</time>
      </trkpt>
      <trkpt lat="43.04798" lon="0.75003">
        <ele>499.86999512</ele>
        <time>2020-10-22T08:58:14Z</time>
      </trkpt>
      <trkpt lat="43.04809" lon="0.74993">
        <ele>499.39001465</ele>
        <time>2020-10-22T08:58:16Z</time>
      </trkpt>
      <trkpt lat="43.04824" lon="0.74981">
        <ele>497.6000061</ele>
        <time>2020-10-22T08:58:18Z</time>
      </trkpt>
      <trkpt lat="43.04832" lon="0.74974">
        <ele>496.01000977</ele>
        <time>2020-10-22T08:58:19Z</time>
      </trkpt>
      <trkpt lat="43.04839" lon="0.74967">
        <ele>495.25</ele>
        <time>2020-10-22T08:58:20Z</time>
      </trkpt>
      <trkpt lat="43.04845" lon="0.74962">
        <ele>493.61999512</ele>
        <time>2020-10-22T08:58:21Z</time>
      </trkpt>
      <trkpt lat="43.04856" lon="0.74956">
        <ele>491.29000854</ele>
        <time>2020-10-22T08:58:23Z</time>
      </trkpt>
      <trkpt lat="43.04861" lon="0.74956">
        <ele>490.02999878</ele>
        <time>2020-10-22T08:58:24Z</time>
      </trkpt>
      <trkpt lat="43.04868" lon="0.7496">
        <ele>487.32000732</ele>
        <time>2020-10-22T08:58:26Z</time>
      </trkpt>
      <trkpt lat="43.04883" lon="0.74959">
        <ele>484.26998901</ele>
        <time>2020-10-22T08:58:28Z</time>
      </trkpt>
      <trkpt lat="43.0489" lon="0.74959">
        <ele>482.48999023</ele>
        <time>2020-10-22T08:58:29Z</time>
      </trkpt>
      <trkpt lat="43.04896" lon="0.7496">
        <ele>480.94000244</ele>
        <time>2020-10-22T08:58:30Z</time>
      </trkpt>
      <trkpt lat="43.04909" lon="0.74965">
        <ele>477.10998535</ele>
        <time>2020-10-22T08:58:32Z</time>
      </trkpt>
      <trkpt lat="43.04913" lon="0.74964">
        <ele>474.54000854</ele>
        <time>2020-10-22T08:58:33Z</time>
      </trkpt>
      <trkpt lat="43.04916" lon="0.7496">
        <ele>473.77999878</ele>
        <time>2020-10-22T08:58:34Z</time>
      </trkpt>
      <trkpt lat="43.04926" lon="0.7498">
        <ele>471.14001465</ele>
        <time>2020-10-22T08:58:36Z</time>
      </trkpt>
      <trkpt lat="43.04931" lon="0.74989">
        <ele>471.01000977</ele>
        <time>2020-10-22T08:58:37Z</time>
      </trkpt>
      <trkpt lat="43.04935" lon="0.74999">
        <ele>471.91000366</ele>
        <time>2020-10-22T08:58:38Z</time>
      </trkpt>
      <trkpt lat="43.04946" lon="0.75015">
        <ele>469.45999146</ele>
        <time>2020-10-22T08:58:40Z</time>
      </trkpt>
      <trkpt lat="43.04956" lon="0.75032">
        <ele>467.47000122</ele>
        <time>2020-10-22T08:58:42Z</time>
      </trkpt>
      <trkpt lat="43.04961" lon="0.75041">
        <ele>465.13000488</ele>
        <time>2020-10-22T08:58:43Z</time>
      </trkpt>
      <trkpt lat="43.04965" lon="0.75049">
        <ele>463.42999268</ele>
        <time>2020-10-22T08:58:44Z</time>
      </trkpt>
      <trkpt lat="43.04972" lon="0.75064">
        <ele>459.82000732</ele>
        <time>2020-10-22T08:58:46Z</time>
      </trkpt>
      <trkpt lat="43.04976" lon="0.75072">
        <ele>458.04000854</ele>
        <time>2020-10-22T08:58:47Z</time>
      </trkpt>
      <trkpt lat="43.04981" lon="0.7508">
        <ele>456.29000854</ele>
        <time>2020-10-22T08:58:48Z</time>
      </trkpt>
      <trkpt lat="43.04988" lon="0.75099">
        <ele>453.60998535</ele>
        <time>2020-10-22T08:58:50Z</time>
      </trkpt>
      <trkpt lat="43.04993" lon="0.75107">
        <ele>452.30999756</ele>
        <time>2020-10-22T08:58:51Z</time>
      </trkpt>
      <trkpt lat="43.05" lon="0.75123">
        <ele>449.94000244</ele>
        <time>2020-10-22T08:58:53Z</time>
      </trkpt>
      <trkpt lat="43.05006" lon="0.75133">
        <ele>447.3999939</ele>
        <time>2020-10-22T08:58:54Z</time>
      </trkpt>
      <trkpt lat="43.05023" lon="0.7515">
        <ele>443.07000732</ele>
        <time>2020-10-22T08:58:56Z</time>
      </trkpt>
      <trkpt lat="43.05033" lon="0.75166">
        <ele>441.92001343</ele>
        <time>2020-10-22T08:58:58Z</time>
      </trkpt>
      <trkpt lat="43.05036" lon="0.75175">
        <ele>441.26998901</ele>
        <time>2020-10-22T08:58:59Z</time>
      </trkpt>
      <trkpt lat="43.05038" lon="0.75182">
        <ele>440.72000122</ele>
        <time>2020-10-22T08:59:00Z</time>
      </trkpt>
      <trkpt lat="43.0504" lon="0.75191">
        <ele>439.55999756</ele>
        <time>2020-10-22T08:59:02Z</time>
      </trkpt>
      <trkpt lat="43.05038" lon="0.75199">
        <ele>438.88000488</ele>
        <time>2020-10-22T08:59:04Z</time>
      </trkpt>
      <trkpt lat="43.05036" lon="0.75202">
        <ele>438.73999023</ele>
        <time>2020-10-22T08:59:05Z</time>
      </trkpt>
      <trkpt lat="43.05033" lon="0.75204">
        <ele>439.07000732</ele>
        <time>2020-10-22T08:59:07Z</time>
      </trkpt>
      <trkpt lat="43.0503" lon="0.75206">
        <ele>439.17001343</ele>
        <time>2020-10-22T08:59:09Z</time>
      </trkpt>
      <trkpt lat="43.05027" lon="0.7521">
        <ele>439.36999512</ele>
        <time>2020-10-22T08:59:10Z</time>
      </trkpt>
      <trkpt lat="43.05023" lon="0.75215">
        <ele>439.6499939</ele>
        <time>2020-10-22T08:59:11Z</time>
      </trkpt>
      <trkpt lat="43.05019" lon="0.75219">
        <ele>440.07000732</ele>
        <time>2020-10-22T08:59:13Z</time>
      </trkpt>
      <trkpt lat="43.05016" lon="0.75223">
        <ele>441.14001465</ele>
        <time>2020-10-22T08:59:14Z</time>
      </trkpt>
      <trkpt lat="43.05012" lon="0.75228">
        <ele>441.3500061</ele>
        <time>2020-10-22T08:59:15Z</time>
      </trkpt>
      <trkpt lat="43.05009" lon="0.75233">
        <ele>441.94000244</ele>
        <time>2020-10-22T08:59:16Z</time>
      </trkpt>
      <trkpt lat="43.05006" lon="0.75238">
        <ele>442.07998657</ele>
        <time>2020-10-22T08:59:18Z</time>
      </trkpt>
      <trkpt lat="43.05003" lon="0.75243">
        <ele>442.26000977</ele>
        <time>2020-10-22T08:59:19Z</time>
      </trkpt>
      <trkpt lat="43.05" lon="0.75248">
        <ele>442.73999023</ele>
        <time>2020-10-22T08:59:20Z</time>
      </trkpt>
      <trkpt lat="43.04998" lon="0.75252">
        <ele>443.44000244</ele>
        <time>2020-10-22T08:59:22Z</time>
      </trkpt>
      <trkpt lat="43.04996" lon="0.75255">
        <ele>443.44000244</ele>
        <time>2020-10-22T08:59:23Z</time>
      </trkpt>
      <trkpt lat="43.04994" lon="0.75259">
        <ele>443.98001099</ele>
        <time>2020-10-22T08:59:24Z</time>
      </trkpt>
      <trkpt lat="43.04992" lon="0.75262">
        <ele>443.92999268</ele>
        <time>2020-10-22T08:59:25Z</time>
      </trkpt>
      <trkpt lat="43.0499" lon="0.75265">
        <ele>444.10998535</ele>
        <time>2020-10-22T08:59:26Z</time>
      </trkpt>
      <trkpt lat="43.04988" lon="0.7527">
        <ele>444.16000366</ele>
        <time>2020-10-22T08:59:28Z</time>
      </trkpt>
      <trkpt lat="43.04985" lon="0.75274">
        <ele>444.91000366</ele>
        <time>2020-10-22T08:59:29Z</time>
      </trkpt>
      <trkpt lat="43.04981" lon="0.75278">
        <ele>445.1499939</ele>
        <time>2020-10-22T08:59:30Z</time>
      </trkpt>
      <trkpt lat="43.04978" lon="0.75282">
        <ele>445.02999878</ele>
        <time>2020-10-22T08:59:32Z</time>
      </trkpt>
      <trkpt lat="43.04975" lon="0.75287">
        <ele>445.97000122</ele>
        <time>2020-10-22T08:59:33Z</time>
      </trkpt>
      <trkpt lat="43.04973" lon="0.7529">
        <ele>446.13000488</ele>
        <time>2020-10-22T08:59:35Z</time>
      </trkpt>
      <trkpt lat="43.04971" lon="0.75294">
        <ele>446.6000061</ele>
        <time>2020-10-22T08:59:36Z</time>
      </trkpt>
      <trkpt lat="43.04969" lon="0.75297">
        <ele>446.82998657</ele>
        <time>2020-10-22T08:59:37Z</time>
      </trkpt>
      <trkpt lat="43.04965" lon="0.75303">
        <ele>447.1499939</ele>
        <time>2020-10-22T08:59:39Z</time>
      </trkpt>
      <trkpt lat="43.04963" lon="0.75308">
        <ele>447.27999878</ele>
        <time>2020-10-22T08:59:40Z</time>
      </trkpt>
      <trkpt lat="43.04959" lon="0.75313">
        <ele>447.69000244</ele>
        <time>2020-10-22T08:59:42Z</time>
      </trkpt>
      <trkpt lat="43.04957" lon="0.75317">
        <ele>448.48001099</ele>
        <time>2020-10-22T08:59:43Z</time>
      </trkpt>
      <trkpt lat="43.04953" lon="0.75322">
        <ele>449.07000732</ele>
        <time>2020-10-22T08:59:45Z</time>
      </trkpt>
      <trkpt lat="43.04951" lon="0.75325">
        <ele>449.14001465</ele>
        <time>2020-10-22T08:59:46Z</time>
      </trkpt>
      <trkpt lat="43.04948" lon="0.7533">
        <ele>449.29998779</ele>
        <time>2020-10-22T08:59:48Z</time>
      </trkpt>
      <trkpt lat="43.04947" lon="0.75333">
        <ele>449.67001343</ele>
        <time>2020-10-22T08:59:49Z</time>
      </trkpt>
      <trkpt lat="43.04944" lon="0.75338">
        <ele>450.05999756</ele>
        <time>2020-10-22T08:59:50Z</time>
      </trkpt>
      <trkpt lat="43.04942" lon="0.75342">
        <ele>450.23999023</ele>
        <time>2020-10-22T08:59:51Z</time>
      </trkpt>
      <trkpt lat="43.0494" lon="0.75345">
        <ele>450.51000977</ele>
        <time>2020-10-22T08:59:53Z</time>
      </trkpt>
      <trkpt lat="43.04938" lon="0.75348">
        <ele>450.5</ele>
        <time>2020-10-22T08:59:54Z</time>
      </trkpt>
      <trkpt lat="43.04936" lon="0.75351">
        <ele>450.48999023</ele>
        <time>2020-10-22T08:59:55Z</time>
      </trkpt>
      <trkpt lat="43.04933" lon="0.75355">
        <ele>450.55999756</ele>
        <time>2020-10-22T08:59:57Z</time>
      </trkpt>
      <trkpt lat="43.04931" lon="0.75358">
        <ele>451.33999634</ele>
        <time>2020-10-22T08:59:58Z</time>
      </trkpt>
      <trkpt lat="43.04929" lon="0.75361">
        <ele>451.36999512</ele>
        <time>2020-10-22T08:59:59Z</time>
      </trkpt>
      <trkpt lat="43.04927" lon="0.75364">
        <ele>451.23999023</ele>
        <time>2020-10-22T09:00:00Z</time>
      </trkpt>
      <trkpt lat="43.04925" lon="0.75365">
        <ele>450.82000732</ele>
        <time>2020-10-22T09:00:02Z</time>
      </trkpt>
      <trkpt lat="43.04922" lon="0.75367">
        <ele>450.72000122</ele>
        <time>2020-10-22T09:00:03Z</time>
      </trkpt>
      <trkpt lat="43.0492" lon="0.75368">
        <ele>450.33999634</ele>
        <time>2020-10-22T09:00:05Z</time>
      </trkpt>
      <trkpt lat="43.04917" lon="0.75369">
        <ele>450.22000122</ele>
        <time>2020-10-22T09:00:06Z</time>
      </trkpt>
      <trkpt lat="43.04914" lon="0.75369">
        <ele>449.94000244</ele>
        <time>2020-10-22T09:00:07Z</time>
      </trkpt>
      <trkpt lat="43.04912" lon="0.7537">
        <ele>449.58999634</ele>
        <time>2020-10-22T09:00:08Z</time>
      </trkpt>
      <trkpt lat="43.04909" lon="0.75371">
        <ele>449.01998901</ele>
        <time>2020-10-22T09:00:09Z</time>
      </trkpt>
      <trkpt lat="43.04905" lon="0.75372">
        <ele>449.1499939</ele>
        <time>2020-10-22T09:00:10Z</time>
      </trkpt>
      <trkpt lat="43.049" lon="0.75375">
        <ele>448.60998535</ele>
        <time>2020-10-22T09:00:12Z</time>
      </trkpt>
      <trkpt lat="43.04897" lon="0.75377">
        <ele>448.82000732</ele>
        <time>2020-10-22T09:00:13Z</time>
      </trkpt>
      <trkpt lat="43.04893" lon="0.75378">
        <ele>449.42001343</ele>
        <time>2020-10-22T09:00:15Z</time>
      </trkpt>
      <trkpt lat="43.0489" lon="0.7538">
        <ele>449.64001465</ele>
        <time>2020-10-22T09:00:16Z</time>
      </trkpt>
      <trkpt lat="43.04887" lon="0.75381">
        <ele>449.64001465</ele>
        <time>2020-10-22T09:00:17Z</time>
      </trkpt>
      <trkpt lat="43.04884" lon="0.75383">
        <ele>449.88000488</ele>
        <time>2020-10-22T09:00:18Z</time>
      </trkpt>
      <trkpt lat="43.04882" lon="0.75385">
        <ele>449.69000244</ele>
        <time>2020-10-22T09:00:20Z</time>
      </trkpt>
      <trkpt lat="43.0488" lon="0.75388">
        <ele>449.69000244</ele>
        <time>2020-10-22T09:00:21Z</time>
      </trkpt>
      <trkpt lat="43.04878" lon="0.7539">
        <ele>449.22000122</ele>
        <time>2020-10-22T09:00:22Z</time>
      </trkpt>
      <trkpt lat="43.04876" lon="0.75395">
        <ele>448.3999939</ele>
        <time>2020-10-22T09:00:24Z</time>
      </trkpt>
      <trkpt lat="43.04874" lon="0.754">
        <ele>447.52999878</ele>
        <time>2020-10-22T09:00:25Z</time>
      </trkpt>
      <trkpt lat="43.04872" lon="0.75405">
        <ele>447.26998901</ele>
        <time>2020-10-22T09:00:26Z</time>
      </trkpt>
      <trkpt lat="43.04871" lon="0.7541">
        <ele>446.70999146</ele>
        <time>2020-10-22T09:00:28Z</time>
      </trkpt>
      <trkpt lat="43.0487" lon="0.75415">
        <ele>446.22000122</ele>
        <time>2020-10-22T09:00:29Z</time>
      </trkpt>
      <trkpt lat="43.04869" lon="0.7542">
        <ele>446.22000122</ele>
        <time>2020-10-22T09:00:30Z</time>
      </trkpt>
      <trkpt lat="43.04866" lon="0.75427">
        <ele>445.70999146</ele>
        <time>2020-10-22T09:00:31Z</time>
      </trkpt>
      <trkpt lat="43.04864" lon="0.75432">
        <ele>445.92001343</ele>
        <time>2020-10-22T09:00:33Z</time>
      </trkpt>
      <trkpt lat="43.04861" lon="0.75437">
        <ele>444.54998779</ele>
        <time>2020-10-22T09:00:34Z</time>
      </trkpt>
      <trkpt lat="43.04859" lon="0.75441">
        <ele>443.45999146</ele>
        <time>2020-10-22T09:00:35Z</time>
      </trkpt>
      <trkpt lat="43.04855" lon="0.75448">
        <ele>444.45999146</ele>
        <time>2020-10-22T09:00:36Z</time>
      </trkpt>
      <trkpt lat="43.0485" lon="0.75453">
        <ele>444.55999756</ele>
        <time>2020-10-22T09:00:37Z</time>
      </trkpt>
      <trkpt lat="43.04846" lon="0.75455">
        <ele>445.25</ele>
        <time>2020-10-22T09:00:38Z</time>
      </trkpt>
      <trkpt lat="43.04841" lon="0.75457">
        <ele>444.77999878</ele>
        <time>2020-10-22T09:00:40Z</time>
      </trkpt>
      <trkpt lat="43.04838" lon="0.75459">
        <ele>444.79998779</ele>
        <time>2020-10-22T09:00:41Z</time>
      </trkpt>
      <trkpt lat="43.04835" lon="0.75461">
        <ele>444.73001099</ele>
        <time>2020-10-22T09:00:42Z</time>
      </trkpt>
      <trkpt lat="43.0483" lon="0.75464">
        <ele>444.22000122</ele>
        <time>2020-10-22T09:00:43Z</time>
      </trkpt>
      <trkpt lat="43.04826" lon="0.75467">
        <ele>444.1499939</ele>
        <time>2020-10-22T09:00:44Z</time>
      </trkpt>
      <trkpt lat="43.04821" lon="0.75471">
        <ele>444.29998779</ele>
        <time>2020-10-22T09:00:46Z</time>
      </trkpt>
      <trkpt lat="43.04815" lon="0.75477">
        <ele>443.98001099</ele>
        <time>2020-10-22T09:00:47Z</time>
      </trkpt>
      <trkpt lat="43.04812" lon="0.75482">
        <ele>443.88000488</ele>
        <time>2020-10-22T09:00:48Z</time>
      </trkpt>
      <trkpt lat="43.0481" lon="0.75485">
        <ele>443.57000732</ele>
        <time>2020-10-22T09:00:50Z</time>
      </trkpt>
      <trkpt lat="43.04807" lon="0.75489">
        <ele>443.23001099</ele>
        <time>2020-10-22T09:00:51Z</time>
      </trkpt>
      <trkpt lat="43.04805" lon="0.75492">
        <ele>442.89001465</ele>
        <time>2020-10-22T09:00:52Z</time>
      </trkpt>
      <trkpt lat="43.04802" lon="0.75496">
        <ele>443.01000977</ele>
        <time>2020-10-22T09:00:54Z</time>
      </trkpt>
      <trkpt lat="43.04797" lon="0.75507">
        <ele>442.89001465</ele>
        <time>2020-10-22T09:00:56Z</time>
      </trkpt>
      <trkpt lat="43.04795" lon="0.75512">
        <ele>442.42001343</ele>
        <time>2020-10-22T09:00:57Z</time>
      </trkpt>
      <trkpt lat="43.04794" lon="0.75517">
        <ele>442.14001465</ele>
        <time>2020-10-22T09:00:58Z</time>
      </trkpt>
      <trkpt lat="43.04792" lon="0.75521">
        <ele>442</ele>
        <time>2020-10-22T09:00:59Z</time>
      </trkpt>
      <trkpt lat="43.04791" lon="0.75524">
        <ele>441.6000061</ele>
        <time>2020-10-22T09:01:00Z</time>
      </trkpt>
      <trkpt lat="43.04789" lon="0.75528">
        <ele>440.88000488</ele>
        <time>2020-10-22T09:01:02Z</time>
      </trkpt>
      <trkpt lat="43.04788" lon="0.75531">
        <ele>441.92999268</ele>
        <time>2020-10-22T09:01:03Z</time>
      </trkpt>
      <trkpt lat="43.04786" lon="0.75536">
        <ele>441.77999878</ele>
        <time>2020-10-22T09:01:04Z</time>
      </trkpt>
      <trkpt lat="43.04786" lon="0.75539">
        <ele>442.1499939</ele>
        <time>2020-10-22T09:01:05Z</time>
      </trkpt>
      <trkpt lat="43.04785" lon="0.75542">
        <ele>441.73999023</ele>
        <time>2020-10-22T09:01:06Z</time>
      </trkpt>
      <trkpt lat="43.04786" lon="0.75545">
        <ele>441.32000732</ele>
        <time>2020-10-22T09:01:08Z</time>
      </trkpt>
      <trkpt lat="43.04788" lon="0.7555">
        <ele>441.82000732</ele>
        <time>2020-10-22T09:01:09Z</time>
      </trkpt>
      <trkpt lat="43.0479" lon="0.75552">
        <ele>442.22000122</ele>
        <time>2020-10-22T09:01:11Z</time>
      </trkpt>
      <trkpt lat="43.04791" lon="0.75556">
        <ele>442.94000244</ele>
        <time>2020-10-22T09:01:12Z</time>
      </trkpt>
      <trkpt lat="43.04794" lon="0.75561">
        <ele>443.17001343</ele>
        <time>2020-10-22T09:01:13Z</time>
      </trkpt>
      <trkpt lat="43.04798" lon="0.7557">
        <ele>443.55999756</ele>
        <time>2020-10-22T09:01:15Z</time>
      </trkpt>
      <trkpt lat="43.04801" lon="0.75577">
        <ele>443.04000854</ele>
        <time>2020-10-22T09:01:16Z</time>
      </trkpt>
      <trkpt lat="43.04804" lon="0.75581">
        <ele>443.20001221</ele>
        <time>2020-10-22T09:01:17Z</time>
      </trkpt>
      <trkpt lat="43.04807" lon="0.75586">
        <ele>443.47000122</ele>
        <time>2020-10-22T09:01:19Z</time>
      </trkpt>
      <trkpt lat="43.04809" lon="0.75589">
        <ele>443.79000854</ele>
        <time>2020-10-22T09:01:20Z</time>
      </trkpt>
      <trkpt lat="43.04812" lon="0.75594">
        <ele>443.79000854</ele>
        <time>2020-10-22T09:01:21Z</time>
      </trkpt>
      <trkpt lat="43.04816" lon="0.756">
        <ele>443.51998901</ele>
        <time>2020-10-22T09:01:23Z</time>
      </trkpt>
      <trkpt lat="43.04819" lon="0.75605">
        <ele>443.73999023</ele>
        <time>2020-10-22T09:01:24Z</time>
      </trkpt>
      <trkpt lat="43.04824" lon="0.7561">
        <ele>443.8999939</ele>
        <time>2020-10-22T09:01:25Z</time>
      </trkpt>
      <trkpt lat="43.0483" lon="0.75613">
        <ele>443.92001343</ele>
        <time>2020-10-22T09:01:27Z</time>
      </trkpt>
      <trkpt lat="43.04835" lon="0.75616">
        <ele>443.94000244</ele>
        <time>2020-10-22T09:01:28Z</time>
      </trkpt>
      <trkpt lat="43.04844" lon="0.75621">
        <ele>444.48999023</ele>
        <time>2020-10-22T09:01:29Z</time>
      </trkpt>
      <trkpt lat="43.04854" lon="0.75626">
        <ele>444.02999878</ele>
        <time>2020-10-22T09:01:31Z</time>
      </trkpt>
      <trkpt lat="43.04859" lon="0.75629">
        <ele>443.82000732</ele>
        <time>2020-10-22T09:01:32Z</time>
      </trkpt>
      <trkpt lat="43.04871" lon="0.75631">
        <ele>444.1499939</ele>
        <time>2020-10-22T09:01:34Z</time>
      </trkpt>
      <trkpt lat="43.04878" lon="0.75632">
        <ele>443.94000244</ele>
        <time>2020-10-22T09:01:35Z</time>
      </trkpt>
      <trkpt lat="43.0489" lon="0.75632">
        <ele>443.54998779</ele>
        <time>2020-10-22T09:01:37Z</time>
      </trkpt>
      <trkpt lat="43.04897" lon="0.75633">
        <ele>443.17999268</ele>
        <time>2020-10-22T09:01:38Z</time>
      </trkpt>
      <trkpt lat="43.0491" lon="0.75634">
        <ele>442.73001099</ele>
        <time>2020-10-22T09:01:40Z</time>
      </trkpt>
      <trkpt lat="43.04917" lon="0.75634">
        <ele>442.39001465</ele>
        <time>2020-10-22T09:01:41Z</time>
      </trkpt>
      <trkpt lat="43.04924" lon="0.75634">
        <ele>442.01000977</ele>
        <time>2020-10-22T09:01:42Z</time>
      </trkpt>
      <trkpt lat="43.04939" lon="0.75634">
        <ele>442.10998535</ele>
        <time>2020-10-22T09:01:44Z</time>
      </trkpt>
      <trkpt lat="43.04954" lon="0.75634">
        <ele>440.98999023</ele>
        <time>2020-10-22T09:01:46Z</time>
      </trkpt>
      <trkpt lat="43.04969" lon="0.75634">
        <ele>440.10998535</ele>
        <time>2020-10-22T09:01:48Z</time>
      </trkpt>
      <trkpt lat="43.04985" lon="0.75636">
        <ele>439.48999023</ele>
        <time>2020-10-22T09:01:50Z</time>
      </trkpt>
      <trkpt lat="43.05" lon="0.7564">
        <ele>439</ele>
        <time>2020-10-22T09:01:52Z</time>
      </trkpt>
      <trkpt lat="43.05007" lon="0.75643">
        <ele>438.70999146</ele>
        <time>2020-10-22T09:01:53Z</time>
      </trkpt>
      <trkpt lat="43.05021" lon="0.75649">
        <ele>438.45001221</ele>
        <time>2020-10-22T09:01:55Z</time>
      </trkpt>
      <trkpt lat="43.05028" lon="0.75652">
        <ele>438.5</ele>
        <time>2020-10-22T09:01:56Z</time>
      </trkpt>
      <trkpt lat="43.05034" lon="0.75653">
        <ele>438.45999146</ele>
        <time>2020-10-22T09:01:57Z</time>
      </trkpt>
      <trkpt lat="43.05043" lon="0.75661">
        <ele>438.54000854</ele>
        <time>2020-10-22T09:01:59Z</time>
      </trkpt>
      <trkpt lat="43.05044" lon="0.75668">
        <ele>438.6000061</ele>
        <time>2020-10-22T09:02:00Z</time>
      </trkpt>
      <trkpt lat="43.0504" lon="0.7568">
        <ele>438.92001343</ele>
        <time>2020-10-22T09:02:02Z</time>
      </trkpt>
      <trkpt lat="43.05039" lon="0.75684">
        <ele>439.07998657</ele>
        <time>2020-10-22T09:02:03Z</time>
      </trkpt>
      <trkpt lat="43.05038" lon="0.75689">
        <ele>439.32998657</ele>
        <time>2020-10-22T09:02:04Z</time>
      </trkpt>
      <trkpt lat="43.05035" lon="0.75703">
        <ele>439.6499939</ele>
        <time>2020-10-22T09:02:06Z</time>
      </trkpt>
      <trkpt lat="43.05032" lon="0.75716">
        <ele>440.04000854</ele>
        <time>2020-10-22T09:02:08Z</time>
      </trkpt>
      <trkpt lat="43.05031" lon="0.75722">
        <ele>440.30999756</ele>
        <time>2020-10-22T09:02:09Z</time>
      </trkpt>
      <trkpt lat="43.05029" lon="0.75735">
        <ele>440.67999268</ele>
        <time>2020-10-22T09:02:11Z</time>
      </trkpt>
      <trkpt lat="43.05026" lon="0.75747">
        <ele>441.63000488</ele>
        <time>2020-10-22T09:02:13Z</time>
      </trkpt>
      <trkpt lat="43.05025" lon="0.7576">
        <ele>442.44000244</ele>
        <time>2020-10-22T09:02:15Z</time>
      </trkpt>
      <trkpt lat="43.05025" lon="0.75768">
        <ele>442.72000122</ele>
        <time>2020-10-22T09:02:16Z</time>
      </trkpt>
      <trkpt lat="43.05026" lon="0.75781">
        <ele>443.26998901</ele>
        <time>2020-10-22T09:02:18Z</time>
      </trkpt>
      <trkpt lat="43.05026" lon="0.75788">
        <ele>443.36999512</ele>
        <time>2020-10-22T09:02:19Z</time>
      </trkpt>
      <trkpt lat="43.05025" lon="0.75802">
        <ele>443.8500061</ele>
        <time>2020-10-22T09:02:21Z</time>
      </trkpt>
      <trkpt lat="43.05026" lon="0.75815">
        <ele>444.45001221</ele>
        <time>2020-10-22T09:02:23Z</time>
      </trkpt>
      <trkpt lat="43.05026" lon="0.75822">
        <ele>445.33999634</ele>
        <time>2020-10-22T09:02:24Z</time>
      </trkpt>
      <trkpt lat="43.05026" lon="0.75836">
        <ele>445.82998657</ele>
        <time>2020-10-22T09:02:26Z</time>
      </trkpt>
      <trkpt lat="43.05026" lon="0.7585">
        <ele>446.1000061</ele>
        <time>2020-10-22T09:02:28Z</time>
      </trkpt>
      <trkpt lat="43.05025" lon="0.75863">
        <ele>446.47000122</ele>
        <time>2020-10-22T09:02:30Z</time>
      </trkpt>
      <trkpt lat="43.05024" lon="0.7587">
        <ele>446.51998901</ele>
        <time>2020-10-22T09:02:31Z</time>
      </trkpt>
      <trkpt lat="43.05023" lon="0.75882">
        <ele>446.6000061</ele>
        <time>2020-10-22T09:02:33Z</time>
      </trkpt>
      <trkpt lat="43.05022" lon="0.75889">
        <ele>446.70001221</ele>
        <time>2020-10-22T09:02:34Z</time>
      </trkpt>
      <trkpt lat="43.05022" lon="0.75895">
        <ele>446.89001465</ele>
        <time>2020-10-22T09:02:35Z</time>
      </trkpt>
      <trkpt lat="43.0502" lon="0.75909">
        <ele>447.14001465</ele>
        <time>2020-10-22T09:02:37Z</time>
      </trkpt>
      <trkpt lat="43.05019" lon="0.75923">
        <ele>447.1499939</ele>
        <time>2020-10-22T09:02:39Z</time>
      </trkpt>
      <trkpt lat="43.05018" lon="0.75937">
        <ele>447.95999146</ele>
        <time>2020-10-22T09:02:41Z</time>
      </trkpt>
      <trkpt lat="43.05017" lon="0.75944">
        <ele>448.26000977</ele>
        <time>2020-10-22T09:02:42Z</time>
      </trkpt>
      <trkpt lat="43.05016" lon="0.7595">
        <ele>448.54998779</ele>
        <time>2020-10-22T09:02:43Z</time>
      </trkpt>
      <trkpt lat="43.05016" lon="0.75957">
        <ele>448.82000732</ele>
        <time>2020-10-22T09:02:44Z</time>
      </trkpt>
      <trkpt lat="43.05014" lon="0.75969">
        <ele>449.17001343</ele>
        <time>2020-10-22T09:02:46Z</time>
      </trkpt>
      <trkpt lat="43.05013" lon="0.75982">
        <ele>449.01000977</ele>
        <time>2020-10-22T09:02:48Z</time>
      </trkpt>
      <trkpt lat="43.05012" lon="0.75995">
        <ele>449.42999268</ele>
        <time>2020-10-22T09:02:50Z</time>
      </trkpt>
      <trkpt lat="43.05011" lon="0.76002">
        <ele>449.64001465</ele>
        <time>2020-10-22T09:02:51Z</time>
      </trkpt>
      <trkpt lat="43.05011" lon="0.76008">
        <ele>449.67999268</ele>
        <time>2020-10-22T09:02:52Z</time>
      </trkpt>
      <trkpt lat="43.0501" lon="0.76021">
        <ele>449.69000244</ele>
        <time>2020-10-22T09:02:54Z</time>
      </trkpt>
      <trkpt lat="43.05009" lon="0.76027">
        <ele>449.70001221</ele>
        <time>2020-10-22T09:02:55Z</time>
      </trkpt>
      <trkpt lat="43.05008" lon="0.7604">
        <ele>449.57000732</ele>
        <time>2020-10-22T09:02:57Z</time>
      </trkpt>
      <trkpt lat="43.05007" lon="0.76053">
        <ele>449.76000977</ele>
        <time>2020-10-22T09:02:59Z</time>
      </trkpt>
      <trkpt lat="43.05006" lon="0.76059">
        <ele>449.8500061</ele>
        <time>2020-10-22T09:03:00Z</time>
      </trkpt>
      <trkpt lat="43.05006" lon="0.76065">
        <ele>449.91000366</ele>
        <time>2020-10-22T09:03:01Z</time>
      </trkpt>
      <trkpt lat="43.05009" lon="0.76076">
        <ele>449.70999146</ele>
        <time>2020-10-22T09:03:03Z</time>
      </trkpt>
      <trkpt lat="43.05013" lon="0.76081">
        <ele>449.52999878</ele>
        <time>2020-10-22T09:03:04Z</time>
      </trkpt>
      <trkpt lat="43.05024" lon="0.76086">
        <ele>449.48001099</ele>
        <time>2020-10-22T09:03:06Z</time>
      </trkpt>
      <trkpt lat="43.05031" lon="0.76087">
        <ele>449.02999878</ele>
        <time>2020-10-22T09:03:07Z</time>
      </trkpt>
      <trkpt lat="43.05038" lon="0.76088">
        <ele>448.6000061</ele>
        <time>2020-10-22T09:03:08Z</time>
      </trkpt>
      <trkpt lat="43.05052" lon="0.76091">
        <ele>447.8999939</ele>
        <time>2020-10-22T09:03:10Z</time>
      </trkpt>
      <trkpt lat="43.05067" lon="0.76093">
        <ele>447.42001343</ele>
        <time>2020-10-22T09:03:12Z</time>
      </trkpt>
      <trkpt lat="43.05082" lon="0.76095">
        <ele>446.8500061</ele>
        <time>2020-10-22T09:03:14Z</time>
      </trkpt>
      <trkpt lat="43.0509" lon="0.76095">
        <ele>446.80999756</ele>
        <time>2020-10-22T09:03:15Z</time>
      </trkpt>
      <trkpt lat="43.05104" lon="0.76088">
        <ele>446.45999146</ele>
        <time>2020-10-22T09:03:17Z</time>
      </trkpt>
      <trkpt lat="43.05112" lon="0.76071">
        <ele>445.94000244</ele>
        <time>2020-10-22T09:03:19Z</time>
      </trkpt>
      <trkpt lat="43.05117" lon="0.76052">
        <ele>445.82000732</ele>
        <time>2020-10-22T09:03:21Z</time>
      </trkpt>
      <trkpt lat="43.05119" lon="0.76042">
        <ele>445.32998657</ele>
        <time>2020-10-22T09:03:22Z</time>
      </trkpt>
      <trkpt lat="43.05121" lon="0.76033">
        <ele>445.6000061</ele>
        <time>2020-10-22T09:03:23Z</time>
      </trkpt>
      <trkpt lat="43.05127" lon="0.76017">
        <ele>445.04000854</ele>
        <time>2020-10-22T09:03:25Z</time>
      </trkpt>
      <trkpt lat="43.05129" lon="0.7601">
        <ele>445.16000366</ele>
        <time>2020-10-22T09:03:26Z</time>
      </trkpt>
      <trkpt lat="43.05132" lon="0.76002">
        <ele>445.01000977</ele>
        <time>2020-10-22T09:03:27Z</time>
      </trkpt>
      <trkpt lat="43.05138" lon="0.75988">
        <ele>445.29998779</ele>
        <time>2020-10-22T09:03:29Z</time>
      </trkpt>
      <trkpt lat="43.05144" lon="0.75974">
        <ele>445.38000488</ele>
        <time>2020-10-22T09:03:31Z</time>
      </trkpt>
      <trkpt lat="43.05147" lon="0.75967">
        <ele>445.36999512</ele>
        <time>2020-10-22T09:03:32Z</time>
      </trkpt>
      <trkpt lat="43.05153" lon="0.75953">
        <ele>445.55999756</ele>
        <time>2020-10-22T09:03:34Z</time>
      </trkpt>
      <trkpt lat="43.05159" lon="0.75938">
        <ele>445.48999023</ele>
        <time>2020-10-22T09:03:36Z</time>
      </trkpt>
      <trkpt lat="43.05166" lon="0.75925">
        <ele>445.42999268</ele>
        <time>2020-10-22T09:03:38Z</time>
      </trkpt>
      <trkpt lat="43.05175" lon="0.75915">
        <ele>445.76000977</ele>
        <time>2020-10-22T09:03:40Z</time>
      </trkpt>
      <trkpt lat="43.05185" lon="0.75909">
        <ele>445.94000244</ele>
        <time>2020-10-22T09:03:42Z</time>
      </trkpt>
      <trkpt lat="43.05191" lon="0.75907">
        <ele>445.82998657</ele>
        <time>2020-10-22T09:03:43Z</time>
      </trkpt>
      <trkpt lat="43.05201" lon="0.75902">
        <ele>445.83999634</ele>
        <time>2020-10-22T09:03:45Z</time>
      </trkpt>
      <trkpt lat="43.05206" lon="0.759">
        <ele>445.94000244</ele>
        <time>2020-10-22T09:03:46Z</time>
      </trkpt>
      <trkpt lat="43.05216" lon="0.75895">
        <ele>445.86999512</ele>
        <time>2020-10-22T09:03:48Z</time>
      </trkpt>
      <trkpt lat="43.05225" lon="0.75891">
        <ele>445.66000366</ele>
        <time>2020-10-22T09:03:50Z</time>
      </trkpt>
      <trkpt lat="43.05232" lon="0.75885">
        <ele>445.8999939</ele>
        <time>2020-10-22T09:03:52Z</time>
      </trkpt>
      <trkpt lat="43.05239" lon="0.75879">
        <ele>446.20001221</ele>
        <time>2020-10-22T09:03:54Z</time>
      </trkpt>
      <trkpt lat="43.05248" lon="0.75873">
        <ele>446.01000977</ele>
        <time>2020-10-22T09:03:56Z</time>
      </trkpt>
      <trkpt lat="43.05253" lon="0.7587">
        <ele>445.92999268</ele>
        <time>2020-10-22T09:03:57Z</time>
      </trkpt>
      <trkpt lat="43.05264" lon="0.75864">
        <ele>445.80999756</ele>
        <time>2020-10-22T09:03:59Z</time>
      </trkpt>
      <trkpt lat="43.05271" lon="0.75858">
        <ele>445.61999512</ele>
        <time>2020-10-22T09:04:01Z</time>
      </trkpt>
      <trkpt lat="43.05279" lon="0.75851">
        <ele>445.42999268</ele>
        <time>2020-10-22T09:04:03Z</time>
      </trkpt>
      <trkpt lat="43.05289" lon="0.75841">
        <ele>445.73001099</ele>
        <time>2020-10-22T09:04:05Z</time>
      </trkpt>
      <trkpt lat="43.05293" lon="0.75836">
        <ele>445.70999146</ele>
        <time>2020-10-22T09:04:06Z</time>
      </trkpt>
      <trkpt lat="43.05298" lon="0.75831">
        <ele>445.69000244</ele>
        <time>2020-10-22T09:04:07Z</time>
      </trkpt>
      <trkpt lat="43.05306" lon="0.7582">
        <ele>445.77999878</ele>
        <time>2020-10-22T09:04:09Z</time>
      </trkpt>
      <trkpt lat="43.0531" lon="0.75815">
        <ele>445.52999878</ele>
        <time>2020-10-22T09:04:10Z</time>
      </trkpt>
      <trkpt lat="43.0532" lon="0.75805">
        <ele>444.95999146</ele>
        <time>2020-10-22T09:04:12Z</time>
      </trkpt>
      <trkpt lat="43.05325" lon="0.758">
        <ele>444.48999023</ele>
        <time>2020-10-22T09:04:13Z</time>
      </trkpt>
      <trkpt lat="43.05336" lon="0.75791">
        <ele>443.98999023</ele>
        <time>2020-10-22T09:04:15Z</time>
      </trkpt>
      <trkpt lat="43.05341" lon="0.75786">
        <ele>443.58999634</ele>
        <time>2020-10-22T09:04:16Z</time>
      </trkpt>
      <trkpt lat="43.05351" lon="0.75775">
        <ele>442.85998535</ele>
        <time>2020-10-22T09:04:18Z</time>
      </trkpt>
      <trkpt lat="43.05361" lon="0.75764">
        <ele>442.83999634</ele>
        <time>2020-10-22T09:04:20Z</time>
      </trkpt>
      <trkpt lat="43.05372" lon="0.75753">
        <ele>442.8500061</ele>
        <time>2020-10-22T09:04:22Z</time>
      </trkpt>
      <trkpt lat="43.05382" lon="0.75743">
        <ele>442.6000061</ele>
        <time>2020-10-22T09:04:24Z</time>
      </trkpt>
      <trkpt lat="43.05392" lon="0.75732">
        <ele>442.51000977</ele>
        <time>2020-10-22T09:04:26Z</time>
      </trkpt>
      <trkpt lat="43.05397" lon="0.75726">
        <ele>442.51000977</ele>
        <time>2020-10-22T09:04:27Z</time>
      </trkpt>
      <trkpt lat="43.05407" lon="0.75715">
        <ele>442.1000061</ele>
        <time>2020-10-22T09:04:29Z</time>
      </trkpt>
      <trkpt lat="43.05411" lon="0.7571">
        <ele>441.92001343</ele>
        <time>2020-10-22T09:04:30Z</time>
      </trkpt>
      <trkpt lat="43.05416" lon="0.75705">
        <ele>441.88000488</ele>
        <time>2020-10-22T09:04:31Z</time>
      </trkpt>
      <trkpt lat="43.05426" lon="0.75694">
        <ele>441.88000488</ele>
        <time>2020-10-22T09:04:33Z</time>
      </trkpt>
      <trkpt lat="43.05435" lon="0.75684">
        <ele>441.82000732</ele>
        <time>2020-10-22T09:04:35Z</time>
      </trkpt>
      <trkpt lat="43.05439" lon="0.75678">
        <ele>441.83999634</ele>
        <time>2020-10-22T09:04:36Z</time>
      </trkpt>
      <trkpt lat="43.05444" lon="0.75673">
        <ele>441.70001221</ele>
        <time>2020-10-22T09:04:37Z</time>
      </trkpt>
      <trkpt lat="43.05453" lon="0.75663">
        <ele>441.82998657</ele>
        <time>2020-10-22T09:04:39Z</time>
      </trkpt>
      <trkpt lat="43.05462" lon="0.75653">
        <ele>441.63000488</ele>
        <time>2020-10-22T09:04:41Z</time>
      </trkpt>
      <trkpt lat="43.05466" lon="0.75647">
        <ele>441.61999512</ele>
        <time>2020-10-22T09:04:42Z</time>
      </trkpt>
      <trkpt lat="43.05475" lon="0.75637">
        <ele>441.64001465</ele>
        <time>2020-10-22T09:04:44Z</time>
      </trkpt>
      <trkpt lat="43.05485" lon="0.75627">
        <ele>441.58999634</ele>
        <time>2020-10-22T09:04:46Z</time>
      </trkpt>
      <trkpt lat="43.05495" lon="0.75619">
        <ele>441.61999512</ele>
        <time>2020-10-22T09:04:48Z</time>
      </trkpt>
      <trkpt lat="43.05505" lon="0.7561">
        <ele>441.63000488</ele>
        <time>2020-10-22T09:04:50Z</time>
      </trkpt>
      <trkpt lat="43.05515" lon="0.75602">
        <ele>441.51998901</ele>
        <time>2020-10-22T09:04:52Z</time>
      </trkpt>
      <trkpt lat="43.05521" lon="0.75599">
        <ele>441.35998535</ele>
        <time>2020-10-22T09:04:53Z</time>
      </trkpt>
      <trkpt lat="43.05529" lon="0.7559">
        <ele>440.89001465</ele>
        <time>2020-10-22T09:04:55Z</time>
      </trkpt>
      <trkpt lat="43.05537" lon="0.75582">
        <ele>440.76998901</ele>
        <time>2020-10-22T09:04:57Z</time>
      </trkpt>
      <trkpt lat="43.05544" lon="0.75576">
        <ele>440.86999512</ele>
        <time>2020-10-22T09:04:59Z</time>
      </trkpt>
      <trkpt lat="43.05548" lon="0.75578">
        <ele>440.75</ele>
        <time>2020-10-22T09:05:00Z</time>
      </trkpt>
      <trkpt lat="43.05554" lon="0.75591">
        <ele>440.67001343</ele>
        <time>2020-10-22T09:05:02Z</time>
      </trkpt>
      <trkpt lat="43.05558" lon="0.75607">
        <ele>440.35998535</ele>
        <time>2020-10-22T09:05:04Z</time>
      </trkpt>
      <trkpt lat="43.05561" lon="0.75616">
        <ele>439.6000061</ele>
        <time>2020-10-22T09:05:05Z</time>
      </trkpt>
      <trkpt lat="43.05564" lon="0.75625">
        <ele>438.60998535</ele>
        <time>2020-10-22T09:05:06Z</time>
      </trkpt>
      <trkpt lat="43.05571" lon="0.75647">
        <ele>435.45999146</ele>
        <time>2020-10-22T09:05:08Z</time>
      </trkpt>
      <trkpt lat="43.05575" lon="0.75661">
        <ele>433.55999756</ele>
        <time>2020-10-22T09:05:09Z</time>
      </trkpt>
      <trkpt lat="43.05586" lon="0.7569">
        <ele>429.95001221</ele>
        <time>2020-10-22T09:05:11Z</time>
      </trkpt>
      <trkpt lat="43.05593" lon="0.75705">
        <ele>428.55999756</ele>
        <time>2020-10-22T09:05:12Z</time>
      </trkpt>
      <trkpt lat="43.05608" lon="0.75737">
        <ele>426.45001221</ele>
        <time>2020-10-22T09:05:14Z</time>
      </trkpt>
      <trkpt lat="43.05623" lon="0.75767">
        <ele>425.76000977</ele>
        <time>2020-10-22T09:05:16Z</time>
      </trkpt>
      <trkpt lat="43.0563" lon="0.75782">
        <ele>425.76998901</ele>
        <time>2020-10-22T09:05:17Z</time>
      </trkpt>
      <trkpt lat="43.05637" lon="0.75796">
        <ele>425.3999939</ele>
        <time>2020-10-22T09:05:18Z</time>
      </trkpt>
      <trkpt lat="43.0565" lon="0.75823">
        <ele>424.92999268</ele>
        <time>2020-10-22T09:05:20Z</time>
      </trkpt>
      <trkpt lat="43.05656" lon="0.75834">
        <ele>424.79000854</ele>
        <time>2020-10-22T09:05:21Z</time>
      </trkpt>
      <trkpt lat="43.05662" lon="0.7585">
        <ele>424.47000122</ele>
        <time>2020-10-22T09:05:23Z</time>
      </trkpt>
      <trkpt lat="43.05656" lon="0.75863">
        <ele>424.61999512</ele>
        <time>2020-10-22T09:05:25Z</time>
      </trkpt>
      <trkpt lat="43.05646" lon="0.75873">
        <ele>424.41000366</ele>
        <time>2020-10-22T09:05:27Z</time>
      </trkpt>
      <trkpt lat="43.05635" lon="0.75883">
        <ele>423.3999939</ele>
        <time>2020-10-22T09:05:29Z</time>
      </trkpt>
      <trkpt lat="43.05625" lon="0.7589">
        <ele>424</ele>
        <time>2020-10-22T09:05:31Z</time>
      </trkpt>
      <trkpt lat="43.0562" lon="0.75894">
        <ele>423.41000366</ele>
        <time>2020-10-22T09:05:32Z</time>
      </trkpt>
      <trkpt lat="43.05616" lon="0.75899">
        <ele>423.3500061</ele>
        <time>2020-10-22T09:05:33Z</time>
      </trkpt>
      <trkpt lat="43.05611" lon="0.75904">
        <ele>423.29000854</ele>
        <time>2020-10-22T09:05:34Z</time>
      </trkpt>
      <trkpt lat="43.05606" lon="0.75908">
        <ele>423.48999023</ele>
        <time>2020-10-22T09:05:35Z</time>
      </trkpt>
      <trkpt lat="43.05596" lon="0.75917">
        <ele>423.70001221</ele>
        <time>2020-10-22T09:05:37Z</time>
      </trkpt>
      <trkpt lat="43.05591" lon="0.75922">
        <ele>423.69000244</ele>
        <time>2020-10-22T09:05:38Z</time>
      </trkpt>
      <trkpt lat="43.05581" lon="0.75931">
        <ele>423.98999023</ele>
        <time>2020-10-22T09:05:40Z</time>
      </trkpt>
      <trkpt lat="43.05577" lon="0.75935">
        <ele>424.25</ele>
        <time>2020-10-22T09:05:41Z</time>
      </trkpt>
      <trkpt lat="43.05569" lon="0.75946">
        <ele>424.3999939</ele>
        <time>2020-10-22T09:05:43Z</time>
      </trkpt>
      <trkpt lat="43.05571" lon="0.75959">
        <ele>424.11999512</ele>
        <time>2020-10-22T09:05:45Z</time>
      </trkpt>
      <trkpt lat="43.05579" lon="0.75972">
        <ele>423.98999023</ele>
        <time>2020-10-22T09:05:47Z</time>
      </trkpt>
      <trkpt lat="43.05583" lon="0.75979">
        <ele>424.04000854</ele>
        <time>2020-10-22T09:05:48Z</time>
      </trkpt>
      <trkpt lat="43.05591" lon="0.75992">
        <ele>424.02999878</ele>
        <time>2020-10-22T09:05:50Z</time>
      </trkpt>
      <trkpt lat="43.05595" lon="0.75999">
        <ele>424.1499939</ele>
        <time>2020-10-22T09:05:51Z</time>
      </trkpt>
      <trkpt lat="43.05603" lon="0.76013">
        <ele>424.27999878</ele>
        <time>2020-10-22T09:05:53Z</time>
      </trkpt>
      <trkpt lat="43.05607" lon="0.76019">
        <ele>424.26000977</ele>
        <time>2020-10-22T09:05:54Z</time>
      </trkpt>
      <trkpt lat="43.05615" lon="0.76032">
        <ele>424.48999023</ele>
        <time>2020-10-22T09:05:56Z</time>
      </trkpt>
      <trkpt lat="43.05621" lon="0.76046">
        <ele>424.5</ele>
        <time>2020-10-22T09:05:58Z</time>
      </trkpt>
      <trkpt lat="43.05628" lon="0.76059">
        <ele>424.54998779</ele>
        <time>2020-10-22T09:06:00Z</time>
      </trkpt>
      <trkpt lat="43.05632" lon="0.76065">
        <ele>424.54998779</ele>
        <time>2020-10-22T09:06:01Z</time>
      </trkpt>
      <trkpt lat="43.05636" lon="0.76072">
        <ele>424.54000854</ele>
        <time>2020-10-22T09:06:02Z</time>
      </trkpt>
      <trkpt lat="43.05639" lon="0.76078">
        <ele>424.45001221</ele>
        <time>2020-10-22T09:06:03Z</time>
      </trkpt>
      <trkpt lat="43.05646" lon="0.76091">
        <ele>424.57000732</ele>
        <time>2020-10-22T09:06:05Z</time>
      </trkpt>
      <trkpt lat="43.0565" lon="0.76097">
        <ele>424.64001465</ele>
        <time>2020-10-22T09:06:06Z</time>
      </trkpt>
      <trkpt lat="43.05654" lon="0.76103">
        <ele>424.70999146</ele>
        <time>2020-10-22T09:06:07Z</time>
      </trkpt>
      <trkpt lat="43.05661" lon="0.76115">
        <ele>424.98999023</ele>
        <time>2020-10-22T09:06:09Z</time>
      </trkpt>
      <trkpt lat="43.05663" lon="0.76121">
        <ele>424.94000244</ele>
        <time>2020-10-22T09:06:10Z</time>
      </trkpt>
      <trkpt lat="43.05664" lon="0.76128">
        <ele>424.91000366</ele>
        <time>2020-10-22T09:06:11Z</time>
      </trkpt>
      <trkpt lat="43.05657" lon="0.7614">
        <ele>425.25</ele>
        <time>2020-10-22T09:06:13Z</time>
      </trkpt>
      <trkpt lat="43.05652" lon="0.76142">
        <ele>425.1000061</ele>
        <time>2020-10-22T09:06:14Z</time>
      </trkpt>
      <trkpt lat="43.05645" lon="0.76142">
        <ele>425.20999146</ele>
        <time>2020-10-22T09:06:15Z</time>
      </trkpt>
      <trkpt lat="43.05634" lon="0.76138">
        <ele>425.36999512</ele>
        <time>2020-10-22T09:06:17Z</time>
      </trkpt>
      <trkpt lat="43.05623" lon="0.76133">
        <ele>425.58999634</ele>
        <time>2020-10-22T09:06:19Z</time>
      </trkpt>
      <trkpt lat="43.05613" lon="0.76138">
        <ele>425.80999756</ele>
        <time>2020-10-22T09:06:21Z</time>
      </trkpt>
      <trkpt lat="43.05609" lon="0.76144">
        <ele>425.61999512</ele>
        <time>2020-10-22T09:06:22Z</time>
      </trkpt>
      <trkpt lat="43.05601" lon="0.76155">
        <ele>425.48001099</ele>
        <time>2020-10-22T09:06:24Z</time>
      </trkpt>
      <trkpt lat="43.05597" lon="0.76161">
        <ele>425.76000977</ele>
        <time>2020-10-22T09:06:25Z</time>
      </trkpt>
      <trkpt lat="43.05594" lon="0.76167">
        <ele>425.64001465</ele>
        <time>2020-10-22T09:06:26Z</time>
      </trkpt>
      <trkpt lat="43.0559" lon="0.76174">
        <ele>425.72000122</ele>
        <time>2020-10-22T09:06:27Z</time>
      </trkpt>
      <trkpt lat="43.05582" lon="0.76187">
        <ele>425.61999512</ele>
        <time>2020-10-22T09:06:29Z</time>
      </trkpt>
      <trkpt lat="43.05574" lon="0.762">
        <ele>426.19000244</ele>
        <time>2020-10-22T09:06:31Z</time>
      </trkpt>
      <trkpt lat="43.0557" lon="0.76206">
        <ele>426.3999939</ele>
        <time>2020-10-22T09:06:32Z</time>
      </trkpt>
      <trkpt lat="43.05563" lon="0.76219">
        <ele>426.33999634</ele>
        <time>2020-10-22T09:06:34Z</time>
      </trkpt>
      <trkpt lat="43.05559" lon="0.76224">
        <ele>426.51000977</ele>
        <time>2020-10-22T09:06:35Z</time>
      </trkpt>
      <trkpt lat="43.05552" lon="0.76236">
        <ele>426.64001465</ele>
        <time>2020-10-22T09:06:37Z</time>
      </trkpt>
      <trkpt lat="43.05548" lon="0.76242">
        <ele>426.95001221</ele>
        <time>2020-10-22T09:06:38Z</time>
      </trkpt>
      <trkpt lat="43.05544" lon="0.76248">
        <ele>426.95999146</ele>
        <time>2020-10-22T09:06:39Z</time>
      </trkpt>
      <trkpt lat="43.05536" lon="0.7626">
        <ele>426.92001343</ele>
        <time>2020-10-22T09:06:41Z</time>
      </trkpt>
      <trkpt lat="43.05528" lon="0.76269">
        <ele>426.82998657</ele>
        <time>2020-10-22T09:06:43Z</time>
      </trkpt>
      <trkpt lat="43.0552" lon="0.76271">
        <ele>427.10998535</ele>
        <time>2020-10-22T09:06:45Z</time>
      </trkpt>
      <trkpt lat="43.05513" lon="0.76264">
        <ele>427</ele>
        <time>2020-10-22T09:06:47Z</time>
      </trkpt>
      <trkpt lat="43.05508" lon="0.76257">
        <ele>427.54998779</ele>
        <time>2020-10-22T09:06:48Z</time>
      </trkpt>
      <trkpt lat="43.05504" lon="0.76251">
        <ele>427.22000122</ele>
        <time>2020-10-22T09:06:49Z</time>
      </trkpt>
      <trkpt lat="43.05499" lon="0.76245">
        <ele>427.20999146</ele>
        <time>2020-10-22T09:06:50Z</time>
      </trkpt>
      <trkpt lat="43.05495" lon="0.7624">
        <ele>426.98999023</ele>
        <time>2020-10-22T09:06:51Z</time>
      </trkpt>
      <trkpt lat="43.05491" lon="0.76234">
        <ele>427.04000854</ele>
        <time>2020-10-22T09:06:52Z</time>
      </trkpt>
      <trkpt lat="43.0548" lon="0.76233">
        <ele>427.58999634</ele>
        <time>2020-10-22T09:06:54Z</time>
      </trkpt>
      <trkpt lat="43.05475" lon="0.76237">
        <ele>427.57998657</ele>
        <time>2020-10-22T09:06:55Z</time>
      </trkpt>
      <trkpt lat="43.05466" lon="0.76244">
        <ele>427.42999268</ele>
        <time>2020-10-22T09:06:57Z</time>
      </trkpt>
      <trkpt lat="43.05461" lon="0.76249">
        <ele>427.48999023</ele>
        <time>2020-10-22T09:06:58Z</time>
      </trkpt>
      <trkpt lat="43.05452" lon="0.7626">
        <ele>428.14001465</ele>
        <time>2020-10-22T09:07:00Z</time>
      </trkpt>
      <trkpt lat="43.05448" lon="0.76265">
        <ele>428.17999268</ele>
        <time>2020-10-22T09:07:01Z</time>
      </trkpt>
      <trkpt lat="43.05439" lon="0.76275">
        <ele>428.54000854</ele>
        <time>2020-10-22T09:07:03Z</time>
      </trkpt>
      <trkpt lat="43.05435" lon="0.7628">
        <ele>428.66000366</ele>
        <time>2020-10-22T09:07:04Z</time>
      </trkpt>
      <trkpt lat="43.05431" lon="0.76285">
        <ele>428.79000854</ele>
        <time>2020-10-22T09:07:05Z</time>
      </trkpt>
      <trkpt lat="43.05423" lon="0.76295">
        <ele>428.76998901</ele>
        <time>2020-10-22T09:07:07Z</time>
      </trkpt>
      <trkpt lat="43.05419" lon="0.763">
        <ele>428.73999023</ele>
        <time>2020-10-22T09:07:08Z</time>
      </trkpt>
      <trkpt lat="43.0541" lon="0.7631">
        <ele>428.52999878</ele>
        <time>2020-10-22T09:07:10Z</time>
      </trkpt>
      <trkpt lat="43.05401" lon="0.76321">
        <ele>428.54000854</ele>
        <time>2020-10-22T09:07:12Z</time>
      </trkpt>
      <trkpt lat="43.05397" lon="0.76326">
        <ele>428.6499939</ele>
        <time>2020-10-22T09:07:13Z</time>
      </trkpt>
      <trkpt lat="43.05389" lon="0.76337">
        <ele>428.76000977</ele>
        <time>2020-10-22T09:07:15Z</time>
      </trkpt>
      <trkpt lat="43.0538" lon="0.76346">
        <ele>428.8500061</ele>
        <time>2020-10-22T09:07:17Z</time>
      </trkpt>
      <trkpt lat="43.05376" lon="0.76351">
        <ele>428.8999939</ele>
        <time>2020-10-22T09:07:18Z</time>
      </trkpt>
      <trkpt lat="43.05372" lon="0.76356">
        <ele>428.94000244</ele>
        <time>2020-10-22T09:07:19Z</time>
      </trkpt>
      <trkpt lat="43.05363" lon="0.76366">
        <ele>429.07998657</ele>
        <time>2020-10-22T09:07:21Z</time>
      </trkpt>
      <trkpt lat="43.05358" lon="0.7637">
        <ele>429.07000732</ele>
        <time>2020-10-22T09:07:22Z</time>
      </trkpt>
      <trkpt lat="43.05349" lon="0.76379">
        <ele>429.11999512</ele>
        <time>2020-10-22T09:07:24Z</time>
      </trkpt>
      <trkpt lat="43.05345" lon="0.76383">
        <ele>429.19000244</ele>
        <time>2020-10-22T09:07:25Z</time>
      </trkpt>
      <trkpt lat="43.0534" lon="0.76387">
        <ele>429.23001099</ele>
        <time>2020-10-22T09:07:26Z</time>
      </trkpt>
      <trkpt lat="43.05331" lon="0.76395">
        <ele>429.41000366</ele>
        <time>2020-10-22T09:07:28Z</time>
      </trkpt>
      <trkpt lat="43.05327" lon="0.76399">
        <ele>429.38000488</ele>
        <time>2020-10-22T09:07:29Z</time>
      </trkpt>
      <trkpt lat="43.05321" lon="0.76409">
        <ele>429.26000977</ele>
        <time>2020-10-22T09:07:31Z</time>
      </trkpt>
      <trkpt lat="43.05322" lon="0.76424">
        <ele>428.8500061</ele>
        <time>2020-10-22T09:07:33Z</time>
      </trkpt>
      <trkpt lat="43.05328" lon="0.76438">
        <ele>428.45999146</ele>
        <time>2020-10-22T09:07:35Z</time>
      </trkpt>
      <trkpt lat="43.05334" lon="0.76453">
        <ele>428.36999512</ele>
        <time>2020-10-22T09:07:37Z</time>
      </trkpt>
      <trkpt lat="43.05341" lon="0.76467">
        <ele>428.42999268</ele>
        <time>2020-10-22T09:07:39Z</time>
      </trkpt>
      <trkpt lat="43.05347" lon="0.76482">
        <ele>428.48001099</ele>
        <time>2020-10-22T09:07:41Z</time>
      </trkpt>
      <trkpt lat="43.0535" lon="0.76489">
        <ele>428.60998535</ele>
        <time>2020-10-22T09:07:42Z</time>
      </trkpt>
      <trkpt lat="43.05352" lon="0.76497">
        <ele>428.42999268</ele>
        <time>2020-10-22T09:07:43Z</time>
      </trkpt>
      <trkpt lat="43.05355" lon="0.76505">
        <ele>428.48001099</ele>
        <time>2020-10-22T09:07:44Z</time>
      </trkpt>
      <trkpt lat="43.05362" lon="0.7652">
        <ele>428.3999939</ele>
        <time>2020-10-22T09:07:46Z</time>
      </trkpt>
      <trkpt lat="43.05368" lon="0.76535">
        <ele>428.33999634</ele>
        <time>2020-10-22T09:07:48Z</time>
      </trkpt>
      <trkpt lat="43.05374" lon="0.76549">
        <ele>428.38000488</ele>
        <time>2020-10-22T09:07:50Z</time>
      </trkpt>
      <trkpt lat="43.05377" lon="0.76557">
        <ele>428.45001221</ele>
        <time>2020-10-22T09:07:51Z</time>
      </trkpt>
      <trkpt lat="43.05382" lon="0.76571">
        <ele>428.52999878</ele>
        <time>2020-10-22T09:07:53Z</time>
      </trkpt>
      <trkpt lat="43.05385" lon="0.76579">
        <ele>428.60998535</ele>
        <time>2020-10-22T09:07:54Z</time>
      </trkpt>
      <trkpt lat="43.05388" lon="0.76586">
        <ele>428.57998657</ele>
        <time>2020-10-22T09:07:55Z</time>
      </trkpt>
      <trkpt lat="43.05391" lon="0.76593">
        <ele>428.55999756</ele>
        <time>2020-10-22T09:07:56Z</time>
      </trkpt>
      <trkpt lat="43.05397" lon="0.76607">
        <ele>428.54998779</ele>
        <time>2020-10-22T09:07:58Z</time>
      </trkpt>
      <trkpt lat="43.05403" lon="0.76622">
        <ele>428.3999939</ele>
        <time>2020-10-22T09:08:00Z</time>
      </trkpt>
      <trkpt lat="43.05409" lon="0.76636">
        <ele>428.47000122</ele>
        <time>2020-10-22T09:08:02Z</time>
      </trkpt>
      <trkpt lat="43.05415" lon="0.76651">
        <ele>428.48999023</ele>
        <time>2020-10-22T09:08:04Z</time>
      </trkpt>
      <trkpt lat="43.05421" lon="0.76665">
        <ele>428.66000366</ele>
        <time>2020-10-22T09:08:06Z</time>
      </trkpt>
      <trkpt lat="43.05423" lon="0.76672">
        <ele>428.75</ele>
        <time>2020-10-22T09:08:07Z</time>
      </trkpt>
      <trkpt lat="43.05424" lon="0.7668">
        <ele>428.79998779</ele>
        <time>2020-10-22T09:08:08Z</time>
      </trkpt>
      <trkpt lat="43.05417" lon="0.76693">
        <ele>428.94000244</ele>
        <time>2020-10-22T09:08:10Z</time>
      </trkpt>
      <trkpt lat="43.05411" lon="0.76697">
        <ele>429.16000366</ele>
        <time>2020-10-22T09:08:11Z</time>
      </trkpt>
      <trkpt lat="43.05406" lon="0.76701">
        <ele>429.26998901</ele>
        <time>2020-10-22T09:08:12Z</time>
      </trkpt>
      <trkpt lat="43.05397" lon="0.76711">
        <ele>429.04998779</ele>
        <time>2020-10-22T09:08:14Z</time>
      </trkpt>
      <trkpt lat="43.05393" lon="0.76715">
        <ele>429.02999878</ele>
        <time>2020-10-22T09:08:15Z</time>
      </trkpt>
      <trkpt lat="43.05384" lon="0.76725">
        <ele>429.32000732</ele>
        <time>2020-10-22T09:08:17Z</time>
      </trkpt>
      <trkpt lat="43.05379" lon="0.76729">
        <ele>429.3999939</ele>
        <time>2020-10-22T09:08:18Z</time>
      </trkpt>
      <trkpt lat="43.05375" lon="0.76734">
        <ele>429.54000854</ele>
        <time>2020-10-22T09:08:19Z</time>
      </trkpt>
      <trkpt lat="43.05366" lon="0.76743">
        <ele>429.72000122</ele>
        <time>2020-10-22T09:08:21Z</time>
      </trkpt>
      <trkpt lat="43.05361" lon="0.76747">
        <ele>429.76998901</ele>
        <time>2020-10-22T09:08:22Z</time>
      </trkpt>
      <trkpt lat="43.05352" lon="0.76756">
        <ele>430.04998779</ele>
        <time>2020-10-22T09:08:24Z</time>
      </trkpt>
      <trkpt lat="43.05347" lon="0.76761">
        <ele>430.17999268</ele>
        <time>2020-10-22T09:08:25Z</time>
      </trkpt>
      <trkpt lat="43.05338" lon="0.76771">
        <ele>430.33999634</ele>
        <time>2020-10-22T09:08:27Z</time>
      </trkpt>
      <trkpt lat="43.05334" lon="0.76776">
        <ele>430.3999939</ele>
        <time>2020-10-22T09:08:28Z</time>
      </trkpt>
      <trkpt lat="43.05325" lon="0.76786">
        <ele>430.41000366</ele>
        <time>2020-10-22T09:08:30Z</time>
      </trkpt>
      <trkpt lat="43.05321" lon="0.7679">
        <ele>430.3999939</ele>
        <time>2020-10-22T09:08:31Z</time>
      </trkpt>
      <trkpt lat="43.05316" lon="0.76795">
        <ele>430.30999756</ele>
        <time>2020-10-22T09:08:32Z</time>
      </trkpt>
      <trkpt lat="43.05312" lon="0.76799">
        <ele>430.35998535</ele>
        <time>2020-10-22T09:08:33Z</time>
      </trkpt>
      <trkpt lat="43.05307" lon="0.76804">
        <ele>430.44000244</ele>
        <time>2020-10-22T09:08:34Z</time>
      </trkpt>
      <trkpt lat="43.05298" lon="0.76814">
        <ele>430.6499939</ele>
        <time>2020-10-22T09:08:36Z</time>
      </trkpt>
      <trkpt lat="43.05289" lon="0.76823">
        <ele>430.83999634</ele>
        <time>2020-10-22T09:08:38Z</time>
      </trkpt>
      <trkpt lat="43.0528" lon="0.76832">
        <ele>430.88000488</ele>
        <time>2020-10-22T09:08:40Z</time>
      </trkpt>
      <trkpt lat="43.05276" lon="0.76837">
        <ele>430.98001099</ele>
        <time>2020-10-22T09:08:41Z</time>
      </trkpt>
      <trkpt lat="43.05268" lon="0.76846">
        <ele>430.94000244</ele>
        <time>2020-10-22T09:08:43Z</time>
      </trkpt>
      <trkpt lat="43.05259" lon="0.76854">
        <ele>431.13000488</ele>
        <time>2020-10-22T09:08:45Z</time>
      </trkpt>
      <trkpt lat="43.05255" lon="0.76859">
        <ele>431.17999268</ele>
        <time>2020-10-22T09:08:46Z</time>
      </trkpt>
      <trkpt lat="43.05246" lon="0.76868">
        <ele>431.20999146</ele>
        <time>2020-10-22T09:08:48Z</time>
      </trkpt>
      <trkpt lat="43.05242" lon="0.76872">
        <ele>431.26000977</ele>
        <time>2020-10-22T09:08:49Z</time>
      </trkpt>
      <trkpt lat="43.05233" lon="0.76882">
        <ele>431.35998535</ele>
        <time>2020-10-22T09:08:51Z</time>
      </trkpt>
      <trkpt lat="43.05223" lon="0.76892">
        <ele>431.52999878</ele>
        <time>2020-10-22T09:08:53Z</time>
      </trkpt>
      <trkpt lat="43.05219" lon="0.76896">
        <ele>431.57000732</ele>
        <time>2020-10-22T09:08:54Z</time>
      </trkpt>
      <trkpt lat="43.05209" lon="0.76905">
        <ele>431.48999023</ele>
        <time>2020-10-22T09:08:56Z</time>
      </trkpt>
      <trkpt lat="43.05204" lon="0.7691">
        <ele>431.57000732</ele>
        <time>2020-10-22T09:08:57Z</time>
      </trkpt>
      <trkpt lat="43.05194" lon="0.76916">
        <ele>431.69000244</ele>
        <time>2020-10-22T09:08:59Z</time>
      </trkpt>
      <trkpt lat="43.05188" lon="0.76918">
        <ele>431.86999512</ele>
        <time>2020-10-22T09:09:00Z</time>
      </trkpt>
      <trkpt lat="43.05177" lon="0.76923">
        <ele>432.1000061</ele>
        <time>2020-10-22T09:09:02Z</time>
      </trkpt>
      <trkpt lat="43.05172" lon="0.76925">
        <ele>432.32000732</ele>
        <time>2020-10-22T09:09:03Z</time>
      </trkpt>
      <trkpt lat="43.0516" lon="0.7693">
        <ele>432.45999146</ele>
        <time>2020-10-22T09:09:05Z</time>
      </trkpt>
      <trkpt lat="43.05154" lon="0.76933">
        <ele>432.54998779</ele>
        <time>2020-10-22T09:09:06Z</time>
      </trkpt>
      <trkpt lat="43.05143" lon="0.76937">
        <ele>432.72000122</ele>
        <time>2020-10-22T09:09:08Z</time>
      </trkpt>
      <trkpt lat="43.05138" lon="0.7694">
        <ele>432.70999146</ele>
        <time>2020-10-22T09:09:09Z</time>
      </trkpt>
      <trkpt lat="43.05127" lon="0.76944">
        <ele>433.05999756</ele>
        <time>2020-10-22T09:09:11Z</time>
      </trkpt>
      <trkpt lat="43.05116" lon="0.76949">
        <ele>433.23001099</ele>
        <time>2020-10-22T09:09:13Z</time>
      </trkpt>
      <trkpt lat="43.05111" lon="0.76952">
        <ele>433.23001099</ele>
        <time>2020-10-22T09:09:14Z</time>
      </trkpt>
      <trkpt lat="43.05105" lon="0.76954">
        <ele>433.33999634</ele>
        <time>2020-10-22T09:09:15Z</time>
      </trkpt>
      <trkpt lat="43.05099" lon="0.76956">
        <ele>433.35998535</ele>
        <time>2020-10-22T09:09:16Z</time>
      </trkpt>
      <trkpt lat="43.05088" lon="0.7696">
        <ele>433.51998901</ele>
        <time>2020-10-22T09:09:18Z</time>
      </trkpt>
      <trkpt lat="43.05077" lon="0.76964">
        <ele>433.63000488</ele>
        <time>2020-10-22T09:09:20Z</time>
      </trkpt>
      <trkpt lat="43.05065" lon="0.76969">
        <ele>433.79998779</ele>
        <time>2020-10-22T09:09:22Z</time>
      </trkpt>
      <trkpt lat="43.05054" lon="0.76974">
        <ele>433.88000488</ele>
        <time>2020-10-22T09:09:24Z</time>
      </trkpt>
      <trkpt lat="43.05043" lon="0.76979">
        <ele>434.07000732</ele>
        <time>2020-10-22T09:09:26Z</time>
      </trkpt>
      <trkpt lat="43.05038" lon="0.76981">
        <ele>434.19000244</ele>
        <time>2020-10-22T09:09:27Z</time>
      </trkpt>
      <trkpt lat="43.05032" lon="0.76984">
        <ele>434.20999146</ele>
        <time>2020-10-22T09:09:28Z</time>
      </trkpt>
      <trkpt lat="43.05021" lon="0.76988">
        <ele>434.17001343</ele>
        <time>2020-10-22T09:09:30Z</time>
      </trkpt>
      <trkpt lat="43.0501" lon="0.76993">
        <ele>434.33999634</ele>
        <time>2020-10-22T09:09:32Z</time>
      </trkpt>
      <trkpt lat="43.04998" lon="0.76998">
        <ele>434.45001221</ele>
        <time>2020-10-22T09:09:34Z</time>
      </trkpt>
      <trkpt lat="43.04993" lon="0.77">
        <ele>434.47000122</ele>
        <time>2020-10-22T09:09:35Z</time>
      </trkpt>
      <trkpt lat="43.04982" lon="0.77005">
        <ele>434.86999512</ele>
        <time>2020-10-22T09:09:37Z</time>
      </trkpt>
      <trkpt lat="43.04971" lon="0.77009">
        <ele>434.98999023</ele>
        <time>2020-10-22T09:09:39Z</time>
      </trkpt>
      <trkpt lat="43.04966" lon="0.77012">
        <ele>435.01000977</ele>
        <time>2020-10-22T09:09:40Z</time>
      </trkpt>
      <trkpt lat="43.04955" lon="0.77016">
        <ele>435.29998779</ele>
        <time>2020-10-22T09:09:42Z</time>
      </trkpt>
      <trkpt lat="43.04945" lon="0.77021">
        <ele>435.42001343</ele>
        <time>2020-10-22T09:09:44Z</time>
      </trkpt>
      <trkpt lat="43.0494" lon="0.77022">
        <ele>435.57000732</ele>
        <time>2020-10-22T09:09:45Z</time>
      </trkpt>
      <trkpt lat="43.04929" lon="0.77027">
        <ele>435.83999634</ele>
        <time>2020-10-22T09:09:47Z</time>
      </trkpt>
      <trkpt lat="43.04924" lon="0.7703">
        <ele>435.98999023</ele>
        <time>2020-10-22T09:09:48Z</time>
      </trkpt>
      <trkpt lat="43.04919" lon="0.77032">
        <ele>436.1499939</ele>
        <time>2020-10-22T09:09:49Z</time>
      </trkpt>
      <trkpt lat="43.04913" lon="0.77035">
        <ele>436.32000732</ele>
        <time>2020-10-22T09:09:50Z</time>
      </trkpt>
      <trkpt lat="43.04903" lon="0.77039">
        <ele>436.36999512</ele>
        <time>2020-10-22T09:09:52Z</time>
      </trkpt>
      <trkpt lat="43.04891" lon="0.77044">
        <ele>436.48999023</ele>
        <time>2020-10-22T09:09:54Z</time>
      </trkpt>
      <trkpt lat="43.04886" lon="0.77046">
        <ele>436.5</ele>
        <time>2020-10-22T09:09:55Z</time>
      </trkpt>
      <trkpt lat="43.04875" lon="0.77051">
        <ele>436.73001099</ele>
        <time>2020-10-22T09:09:57Z</time>
      </trkpt>
      <trkpt lat="43.04864" lon="0.77055">
        <ele>436.79000854</ele>
        <time>2020-10-22T09:09:59Z</time>
      </trkpt>
      <trkpt lat="43.04853" lon="0.7706">
        <ele>437.1000061</ele>
        <time>2020-10-22T09:10:01Z</time>
      </trkpt>
      <trkpt lat="43.04842" lon="0.77064">
        <ele>437.16000366</ele>
        <time>2020-10-22T09:10:03Z</time>
      </trkpt>
      <trkpt lat="43.04837" lon="0.77066">
        <ele>437.20001221</ele>
        <time>2020-10-22T09:10:04Z</time>
      </trkpt>
      <trkpt lat="43.04831" lon="0.77069">
        <ele>437.1000061</ele>
        <time>2020-10-22T09:10:05Z</time>
      </trkpt>
      <trkpt lat="43.04825" lon="0.77071">
        <ele>437.23999023</ele>
        <time>2020-10-22T09:10:06Z</time>
      </trkpt>
      <trkpt lat="43.04814" lon="0.77076">
        <ele>437.22000122</ele>
        <time>2020-10-22T09:10:08Z</time>
      </trkpt>
      <trkpt lat="43.04809" lon="0.77078">
        <ele>437.29000854</ele>
        <time>2020-10-22T09:10:09Z</time>
      </trkpt>
      <trkpt lat="43.04797" lon="0.77081">
        <ele>437.52999878</ele>
        <time>2020-10-22T09:10:11Z</time>
      </trkpt>
      <trkpt lat="43.04786" lon="0.77084">
        <ele>437.63000488</ele>
        <time>2020-10-22T09:10:13Z</time>
      </trkpt>
      <trkpt lat="43.04776" lon="0.77086">
        <ele>437.80999756</ele>
        <time>2020-10-22T09:10:15Z</time>
      </trkpt>
      <trkpt lat="43.04767" lon="0.77086">
        <ele>437.77999878</ele>
        <time>2020-10-22T09:10:17Z</time>
      </trkpt>
      <trkpt lat="43.04764" lon="0.77087">
        <ele>437.6499939</ele>
        <time>2020-10-22T09:10:18Z</time>
      </trkpt>
      <trkpt lat="43.0476" lon="0.7709">
        <ele>437.51998901</ele>
        <time>2020-10-22T09:10:19Z</time>
      </trkpt>
      <trkpt lat="43.04756" lon="0.77102">
        <ele>437.63000488</ele>
        <time>2020-10-22T09:10:21Z</time>
      </trkpt>
      <trkpt lat="43.04756" lon="0.77118">
        <ele>437.61999512</ele>
        <time>2020-10-22T09:10:23Z</time>
      </trkpt>
      <trkpt lat="43.04755" lon="0.77127">
        <ele>437.67001343</ele>
        <time>2020-10-22T09:10:24Z</time>
      </trkpt>
      <trkpt lat="43.04754" lon="0.77144">
        <ele>437.79000854</ele>
        <time>2020-10-22T09:10:26Z</time>
      </trkpt>
      <trkpt lat="43.04753" lon="0.77153">
        <ele>437.70999146</ele>
        <time>2020-10-22T09:10:27Z</time>
      </trkpt>
      <trkpt lat="43.04752" lon="0.7717">
        <ele>437.58999634</ele>
        <time>2020-10-22T09:10:29Z</time>
      </trkpt>
      <trkpt lat="43.04751" lon="0.77178">
        <ele>437.6000061</ele>
        <time>2020-10-22T09:10:30Z</time>
      </trkpt>
      <trkpt lat="43.0475" lon="0.77195">
        <ele>437.44000244</ele>
        <time>2020-10-22T09:10:32Z</time>
      </trkpt>
      <trkpt lat="43.04749" lon="0.77203">
        <ele>437.48999023</ele>
        <time>2020-10-22T09:10:33Z</time>
      </trkpt>
      <trkpt lat="43.04749" lon="0.77212">
        <ele>437.45001221</ele>
        <time>2020-10-22T09:10:34Z</time>
      </trkpt>
      <trkpt lat="43.04748" lon="0.77229">
        <ele>437.54998779</ele>
        <time>2020-10-22T09:10:36Z</time>
      </trkpt>
      <trkpt lat="43.04747" lon="0.77237">
        <ele>437.23001099</ele>
        <time>2020-10-22T09:10:37Z</time>
      </trkpt>
      <trkpt lat="43.04746" lon="0.77254">
        <ele>437.26998901</ele>
        <time>2020-10-22T09:10:39Z</time>
      </trkpt>
      <trkpt lat="43.04745" lon="0.77271">
        <ele>437.22000122</ele>
        <time>2020-10-22T09:10:41Z</time>
      </trkpt>
      <trkpt lat="43.04745" lon="0.77279">
        <ele>437.22000122</ele>
        <time>2020-10-22T09:10:42Z</time>
      </trkpt>
      <trkpt lat="43.04744" lon="0.77287">
        <ele>437.23999023</ele>
        <time>2020-10-22T09:10:43Z</time>
      </trkpt>
      <trkpt lat="43.04743" lon="0.77296">
        <ele>437.38000488</ele>
        <time>2020-10-22T09:10:44Z</time>
      </trkpt>
      <trkpt lat="43.04743" lon="0.77304">
        <ele>437.33999634</ele>
        <time>2020-10-22T09:10:45Z</time>
      </trkpt>
      <trkpt lat="43.04742" lon="0.77312">
        <ele>437.39001465</ele>
        <time>2020-10-22T09:10:46Z</time>
      </trkpt>
      <trkpt lat="43.04742" lon="0.77321">
        <ele>437.33999634</ele>
        <time>2020-10-22T09:10:47Z</time>
      </trkpt>
      <trkpt lat="43.0474" lon="0.77337">
        <ele>437.67001343</ele>
        <time>2020-10-22T09:10:49Z</time>
      </trkpt>
      <trkpt lat="43.04739" lon="0.77345">
        <ele>437.75</ele>
        <time>2020-10-22T09:10:50Z</time>
      </trkpt>
      <trkpt lat="43.04737" lon="0.77361">
        <ele>437.79998779</ele>
        <time>2020-10-22T09:10:52Z</time>
      </trkpt>
      <trkpt lat="43.04734" lon="0.77376">
        <ele>437.88000488</ele>
        <time>2020-10-22T09:10:54Z</time>
      </trkpt>
      <trkpt lat="43.04732" lon="0.77383">
        <ele>437.94000244</ele>
        <time>2020-10-22T09:10:55Z</time>
      </trkpt>
      <trkpt lat="43.04729" lon="0.77398">
        <ele>438.14001465</ele>
        <time>2020-10-22T09:10:57Z</time>
      </trkpt>
      <trkpt lat="43.04727" lon="0.77405">
        <ele>438.17001343</ele>
        <time>2020-10-22T09:10:58Z</time>
      </trkpt>
      <trkpt lat="43.04726" lon="0.77413">
        <ele>438.25</ele>
        <time>2020-10-22T09:10:59Z</time>
      </trkpt>
      <trkpt lat="43.04722" lon="0.77427">
        <ele>438.23001099</ele>
        <time>2020-10-22T09:11:01Z</time>
      </trkpt>
      <trkpt lat="43.0472" lon="0.77433">
        <ele>438.16000366</ele>
        <time>2020-10-22T09:11:02Z</time>
      </trkpt>
      <trkpt lat="43.04717" lon="0.7744">
        <ele>438.11999512</ele>
        <time>2020-10-22T09:11:03Z</time>
      </trkpt>
      <trkpt lat="43.04713" lon="0.77445">
        <ele>438.26998901</ele>
        <time>2020-10-22T09:11:04Z</time>
      </trkpt>
      <trkpt lat="43.04701" lon="0.77448">
        <ele>438.23001099</ele>
        <time>2020-10-22T09:11:06Z</time>
      </trkpt>
      <trkpt lat="43.04689" lon="0.77449">
        <ele>438.35998535</ele>
        <time>2020-10-22T09:11:08Z</time>
      </trkpt>
      <trkpt lat="43.04678" lon="0.77443">
        <ele>438.5</ele>
        <time>2020-10-22T09:11:10Z</time>
      </trkpt>
      <trkpt lat="43.04674" lon="0.77436">
        <ele>438.48001099</ele>
        <time>2020-10-22T09:11:11Z</time>
      </trkpt>
      <trkpt lat="43.04669" lon="0.7742">
        <ele>438.39001465</ele>
        <time>2020-10-22T09:11:13Z</time>
      </trkpt>
      <trkpt lat="43.04664" lon="0.77405">
        <ele>438.61999512</ele>
        <time>2020-10-22T09:11:15Z</time>
      </trkpt>
      <trkpt lat="43.0466" lon="0.77391">
        <ele>437.79998779</ele>
        <time>2020-10-22T09:11:17Z</time>
      </trkpt>
      <trkpt lat="43.04658" lon="0.77384">
        <ele>438</ele>
        <time>2020-10-22T09:11:18Z</time>
      </trkpt>
      <trkpt lat="43.04653" lon="0.77368">
        <ele>438.23001099</ele>
        <time>2020-10-22T09:11:20Z</time>
      </trkpt>
      <trkpt lat="43.04648" lon="0.77353">
        <ele>438.32998657</ele>
        <time>2020-10-22T09:11:22Z</time>
      </trkpt>
      <trkpt lat="43.04644" lon="0.77338">
        <ele>438.04998779</ele>
        <time>2020-10-22T09:11:24Z</time>
      </trkpt>
      <trkpt lat="43.04639" lon="0.77323">
        <ele>438.23999023</ele>
        <time>2020-10-22T09:11:26Z</time>
      </trkpt>
      <trkpt lat="43.04635" lon="0.77309">
        <ele>438.17999268</ele>
        <time>2020-10-22T09:11:28Z</time>
      </trkpt>
      <trkpt lat="43.04632" lon="0.77301">
        <ele>438.17001343</ele>
        <time>2020-10-22T09:11:29Z</time>
      </trkpt>
      <trkpt lat="43.04628" lon="0.77285">
        <ele>438.55999756</ele>
        <time>2020-10-22T09:11:31Z</time>
      </trkpt>
      <trkpt lat="43.04623" lon="0.77271">
        <ele>438.67001343</ele>
        <time>2020-10-22T09:11:33Z</time>
      </trkpt>
      <trkpt lat="43.04618" lon="0.77257">
        <ele>438.75</ele>
        <time>2020-10-22T09:11:35Z</time>
      </trkpt>
      <trkpt lat="43.04616" lon="0.77249">
        <ele>439.54998779</ele>
        <time>2020-10-22T09:11:36Z</time>
      </trkpt>
      <trkpt lat="43.04611" lon="0.77235">
        <ele>439.23001099</ele>
        <time>2020-10-22T09:11:38Z</time>
      </trkpt>
      <trkpt lat="43.04609" lon="0.77227">
        <ele>439.1000061</ele>
        <time>2020-10-22T09:11:39Z</time>
      </trkpt>
      <trkpt lat="43.04604" lon="0.77213">
        <ele>439.25</ele>
        <time>2020-10-22T09:11:41Z</time>
      </trkpt>
      <trkpt lat="43.04602" lon="0.77207">
        <ele>439.07998657</ele>
        <time>2020-10-22T09:11:42Z</time>
      </trkpt>
      <trkpt lat="43.04597" lon="0.77196">
        <ele>439.61999512</ele>
        <time>2020-10-22T09:11:44Z</time>
      </trkpt>
      <trkpt lat="43.04594" lon="0.77191">
        <ele>439.54000854</ele>
        <time>2020-10-22T09:11:45Z</time>
      </trkpt>
      <trkpt lat="43.04591" lon="0.77186">
        <ele>440.26000977</ele>
        <time>2020-10-22T09:11:46Z</time>
      </trkpt>
      <trkpt lat="43.04585" lon="0.77178">
        <ele>439.70999146</ele>
        <time>2020-10-22T09:11:48Z</time>
      </trkpt>
      <trkpt lat="43.04582" lon="0.77173">
        <ele>439.92999268</ele>
        <time>2020-10-22T09:11:49Z</time>
      </trkpt>
      <trkpt lat="43.04577" lon="0.77163">
        <ele>440.38000488</ele>
        <time>2020-10-22T09:11:51Z</time>
      </trkpt>
      <trkpt lat="43.04575" lon="0.77158">
        <ele>440.88000488</ele>
        <time>2020-10-22T09:11:52Z</time>
      </trkpt>
      <trkpt lat="43.04571" lon="0.77143">
        <ele>440.76000977</ele>
        <time>2020-10-22T09:11:54Z</time>
      </trkpt>
      <trkpt lat="43.04572" lon="0.77137">
        <ele>440.42999268</ele>
        <time>2020-10-22T09:11:55Z</time>
      </trkpt>
      <trkpt lat="43.04571" lon="0.77132">
        <ele>441.19000244</ele>
        <time>2020-10-22T09:11:56Z</time>
      </trkpt>
      <trkpt lat="43.0457" lon="0.77125">
        <ele>441.42999268</ele>
        <time>2020-10-22T09:11:57Z</time>
      </trkpt>
      <trkpt lat="43.04568" lon="0.7712">
        <ele>440.91000366</ele>
        <time>2020-10-22T09:11:59Z</time>
      </trkpt>
      <trkpt lat="43.04566" lon="0.77115">
        <ele>441</ele>
        <time>2020-10-22T09:12:00Z</time>
      </trkpt>
      <trkpt lat="43.04564" lon="0.7711">
        <ele>440.88000488</ele>
        <time>2020-10-22T09:12:01Z</time>
      </trkpt>
      <trkpt lat="43.04563" lon="0.77105">
        <ele>440.69000244</ele>
        <time>2020-10-22T09:12:02Z</time>
      </trkpt>
      <trkpt lat="43.04561" lon="0.77094">
        <ele>440.79998779</ele>
        <time>2020-10-22T09:12:04Z</time>
      </trkpt>
      <trkpt lat="43.04559" lon="0.77086">
        <ele>440.51998901</ele>
        <time>2020-10-22T09:12:05Z</time>
      </trkpt>
      <trkpt lat="43.04555" lon="0.7707">
        <ele>440.17001343</ele>
        <time>2020-10-22T09:12:07Z</time>
      </trkpt>
      <trkpt lat="43.04553" lon="0.77062">
        <ele>440.66000366</ele>
        <time>2020-10-22T09:12:08Z</time>
      </trkpt>
      <trkpt lat="43.04547" lon="0.77046">
        <ele>441.19000244</ele>
        <time>2020-10-22T09:12:10Z</time>
      </trkpt>
      <trkpt lat="43.04545" lon="0.77038">
        <ele>441.10998535</ele>
        <time>2020-10-22T09:12:11Z</time>
      </trkpt>
      <trkpt lat="43.04539" lon="0.77023">
        <ele>441.23999023</ele>
        <time>2020-10-22T09:12:13Z</time>
      </trkpt>
      <trkpt lat="43.04537" lon="0.77015">
        <ele>440.88000488</ele>
        <time>2020-10-22T09:12:14Z</time>
      </trkpt>
      <trkpt lat="43.04533" lon="0.77001">
        <ele>440.54998779</ele>
        <time>2020-10-22T09:12:16Z</time>
      </trkpt>
      <trkpt lat="43.04532" lon="0.76995">
        <ele>441.05999756</ele>
        <time>2020-10-22T09:12:17Z</time>
      </trkpt>
      <trkpt lat="43.04531" lon="0.7698">
        <ele>441.79998779</ele>
        <time>2020-10-22T09:12:19Z</time>
      </trkpt>
      <trkpt lat="43.0453" lon="0.76965">
        <ele>442.05999756</ele>
        <time>2020-10-22T09:12:21Z</time>
      </trkpt>
      <trkpt lat="43.04529" lon="0.7695">
        <ele>442.61999512</ele>
        <time>2020-10-22T09:12:23Z</time>
      </trkpt>
      <trkpt lat="43.0453" lon="0.76937">
        <ele>442.77999878</ele>
        <time>2020-10-22T09:12:25Z</time>
      </trkpt>
      <trkpt lat="43.0453" lon="0.7693">
        <ele>443.30999756</ele>
        <time>2020-10-22T09:12:26Z</time>
      </trkpt>
      <trkpt lat="43.0453" lon="0.76923">
        <ele>443.77999878</ele>
        <time>2020-10-22T09:12:27Z</time>
      </trkpt>
      <trkpt lat="43.0453" lon="0.76916">
        <ele>444.25</ele>
        <time>2020-10-22T09:12:28Z</time>
      </trkpt>
      <trkpt lat="43.04528" lon="0.76904">
        <ele>445.11999512</ele>
        <time>2020-10-22T09:12:30Z</time>
      </trkpt>
      <trkpt lat="43.04527" lon="0.769">
        <ele>445.45999146</ele>
        <time>2020-10-22T09:12:31Z</time>
      </trkpt>
      <trkpt lat="43.04521" lon="0.76892">
        <ele>446.57998657</ele>
        <time>2020-10-22T09:12:33Z</time>
      </trkpt>
      <trkpt lat="43.04516" lon="0.76891">
        <ele>446.72000122</ele>
        <time>2020-10-22T09:12:34Z</time>
      </trkpt>
      <trkpt lat="43.04507" lon="0.76893">
        <ele>447.88000488</ele>
        <time>2020-10-22T09:12:36Z</time>
      </trkpt>
      <trkpt lat="43.04497" lon="0.76897">
        <ele>448.77999878</ele>
        <time>2020-10-22T09:12:38Z</time>
      </trkpt>
      <trkpt lat="43.04487" lon="0.769">
        <ele>449.42001343</ele>
        <time>2020-10-22T09:12:40Z</time>
      </trkpt>
      <trkpt lat="43.04482" lon="0.76902">
        <ele>449.66000366</ele>
        <time>2020-10-22T09:12:41Z</time>
      </trkpt>
      <trkpt lat="43.04478" lon="0.76904">
        <ele>450.01998901</ele>
        <time>2020-10-22T09:12:42Z</time>
      </trkpt>
      <trkpt lat="43.04473" lon="0.76906">
        <ele>450.32998657</ele>
        <time>2020-10-22T09:12:43Z</time>
      </trkpt>
      <trkpt lat="43.04469" lon="0.76908">
        <ele>450.6000061</ele>
        <time>2020-10-22T09:12:44Z</time>
      </trkpt>
      <trkpt lat="43.04458" lon="0.76912">
        <ele>451.16000366</ele>
        <time>2020-10-22T09:12:46Z</time>
      </trkpt>
      <trkpt lat="43.04448" lon="0.76916">
        <ele>451.54000854</ele>
        <time>2020-10-22T09:12:48Z</time>
      </trkpt>
      <trkpt lat="43.04438" lon="0.7692">
        <ele>451.8500061</ele>
        <time>2020-10-22T09:12:50Z</time>
      </trkpt>
      <trkpt lat="43.04433" lon="0.76922">
        <ele>452.07998657</ele>
        <time>2020-10-22T09:12:51Z</time>
      </trkpt>
      <trkpt lat="43.04424" lon="0.76926">
        <ele>452.33999634</ele>
        <time>2020-10-22T09:12:53Z</time>
      </trkpt>
      <trkpt lat="43.04419" lon="0.76928">
        <ele>452.54998779</ele>
        <time>2020-10-22T09:12:54Z</time>
      </trkpt>
      <trkpt lat="43.0441" lon="0.76932">
        <ele>452.70001221</ele>
        <time>2020-10-22T09:12:56Z</time>
      </trkpt>
      <trkpt lat="43.04405" lon="0.76934">
        <ele>452.75</ele>
        <time>2020-10-22T09:12:57Z</time>
      </trkpt>
      <trkpt lat="43.04395" lon="0.76938">
        <ele>452.97000122</ele>
        <time>2020-10-22T09:12:59Z</time>
      </trkpt>
      <trkpt lat="43.0439" lon="0.7694">
        <ele>453.20999146</ele>
        <time>2020-10-22T09:13:00Z</time>
      </trkpt>
      <trkpt lat="43.0438" lon="0.76942">
        <ele>453.54000854</ele>
        <time>2020-10-22T09:13:02Z</time>
      </trkpt>
      <trkpt lat="43.04376" lon="0.76943">
        <ele>453.8999939</ele>
        <time>2020-10-22T09:13:03Z</time>
      </trkpt>
      <trkpt lat="43.04369" lon="0.76943">
        <ele>454.20001221</ele>
        <time>2020-10-22T09:13:05Z</time>
      </trkpt>
      <trkpt lat="43.04365" lon="0.76943">
        <ele>454.55999756</ele>
        <time>2020-10-22T09:13:06Z</time>
      </trkpt>
      <trkpt lat="43.04362" lon="0.76943">
        <ele>454.86999512</ele>
        <time>2020-10-22T09:13:07Z</time>
      </trkpt>
      <trkpt lat="43.04353" lon="0.76941">
        <ele>455.54998779</ele>
        <time>2020-10-22T09:13:09Z</time>
      </trkpt>
      <trkpt lat="43.04341" lon="0.7694">
        <ele>456.45001221</ele>
        <time>2020-10-22T09:13:11Z</time>
      </trkpt>
      <trkpt lat="43.04336" lon="0.76939">
        <ele>456.60998535</ele>
        <time>2020-10-22T09:13:12Z</time>
      </trkpt>
      <trkpt lat="43.04331" lon="0.76939">
        <ele>456.92001343</ele>
        <time>2020-10-22T09:13:13Z</time>
      </trkpt>
      <trkpt lat="43.04321" lon="0.76937">
        <ele>457.16000366</ele>
        <time>2020-10-22T09:13:15Z</time>
      </trkpt>
      <trkpt lat="43.0431" lon="0.76936">
        <ele>457.30999756</ele>
        <time>2020-10-22T09:13:17Z</time>
      </trkpt>
      <trkpt lat="43.04304" lon="0.76936">
        <ele>457.23001099</ele>
        <time>2020-10-22T09:13:18Z</time>
      </trkpt>
      <trkpt lat="43.04293" lon="0.76934">
        <ele>457.04998779</ele>
        <time>2020-10-22T09:13:20Z</time>
      </trkpt>
      <trkpt lat="43.04281" lon="0.76934">
        <ele>456.72000122</ele>
        <time>2020-10-22T09:13:22Z</time>
      </trkpt>
      <trkpt lat="43.04268" lon="0.76935">
        <ele>456.92999268</ele>
        <time>2020-10-22T09:13:24Z</time>
      </trkpt>
      <trkpt lat="43.04255" lon="0.76938">
        <ele>456.92001343</ele>
        <time>2020-10-22T09:13:26Z</time>
      </trkpt>
      <trkpt lat="43.04249" lon="0.76939">
        <ele>456.94000244</ele>
        <time>2020-10-22T09:13:27Z</time>
      </trkpt>
      <trkpt lat="43.04237" lon="0.76942">
        <ele>456.95001221</ele>
        <time>2020-10-22T09:13:29Z</time>
      </trkpt>
      <trkpt lat="43.04225" lon="0.76945">
        <ele>457.20001221</ele>
        <time>2020-10-22T09:13:31Z</time>
      </trkpt>
      <trkpt lat="43.04219" lon="0.76946">
        <ele>457.04998779</ele>
        <time>2020-10-22T09:13:32Z</time>
      </trkpt>
      <trkpt lat="43.04213" lon="0.76947">
        <ele>457.17001343</ele>
        <time>2020-10-22T09:13:33Z</time>
      </trkpt>
      <trkpt lat="43.04208" lon="0.76948">
        <ele>457.17999268</ele>
        <time>2020-10-22T09:13:34Z</time>
      </trkpt>
      <trkpt lat="43.04197" lon="0.76951">
        <ele>457.11999512</ele>
        <time>2020-10-22T09:13:36Z</time>
      </trkpt>
      <trkpt lat="43.04191" lon="0.76952">
        <ele>457.16000366</ele>
        <time>2020-10-22T09:13:37Z</time>
      </trkpt>
      <trkpt lat="43.04185" lon="0.76954">
        <ele>457.08999634</ele>
        <time>2020-10-22T09:13:38Z</time>
      </trkpt>
      <trkpt lat="43.04174" lon="0.76957">
        <ele>456.98001099</ele>
        <time>2020-10-22T09:13:40Z</time>
      </trkpt>
      <trkpt lat="43.04168" lon="0.76958">
        <ele>456.98999023</ele>
        <time>2020-10-22T09:13:41Z</time>
      </trkpt>
      <trkpt lat="43.04156" lon="0.76961">
        <ele>457.19000244</ele>
        <time>2020-10-22T09:13:43Z</time>
      </trkpt>
      <trkpt lat="43.0415" lon="0.76962">
        <ele>457.08999634</ele>
        <time>2020-10-22T09:13:44Z</time>
      </trkpt>
      <trkpt lat="43.04144" lon="0.76964">
        <ele>457.1000061</ele>
        <time>2020-10-22T09:13:45Z</time>
      </trkpt>
      <trkpt lat="43.04132" lon="0.76967">
        <ele>457.29000854</ele>
        <time>2020-10-22T09:13:47Z</time>
      </trkpt>
      <trkpt lat="43.04121" lon="0.76969">
        <ele>457.16000366</ele>
        <time>2020-10-22T09:13:49Z</time>
      </trkpt>
      <trkpt lat="43.04115" lon="0.7697">
        <ele>457.35998535</ele>
        <time>2020-10-22T09:13:50Z</time>
      </trkpt>
      <trkpt lat="43.0411" lon="0.76972">
        <ele>457.35998535</ele>
        <time>2020-10-22T09:13:51Z</time>
      </trkpt>
      <trkpt lat="43.041" lon="0.76975">
        <ele>457.32000732</ele>
        <time>2020-10-22T09:13:53Z</time>
      </trkpt>
      <trkpt lat="43.04095" lon="0.76976">
        <ele>457.3500061</ele>
        <time>2020-10-22T09:13:54Z</time>
      </trkpt>
      <trkpt lat="43.04086" lon="0.76979">
        <ele>457.70999146</ele>
        <time>2020-10-22T09:13:56Z</time>
      </trkpt>
      <trkpt lat="43.04081" lon="0.7698">
        <ele>457.36999512</ele>
        <time>2020-10-22T09:13:57Z</time>
      </trkpt>
      <trkpt lat="43.04072" lon="0.76983">
        <ele>457.60998535</ele>
        <time>2020-10-22T09:13:59Z</time>
      </trkpt>
      <trkpt lat="43.04069" lon="0.76984">
        <ele>457.73001099</ele>
        <time>2020-10-22T09:14:00Z</time>
      </trkpt>
      <trkpt lat="43.04061" lon="0.76988">
        <ele>458.17001343</ele>
        <time>2020-10-22T09:14:02Z</time>
      </trkpt>
      <trkpt lat="43.04057" lon="0.7699">
        <ele>458.3500061</ele>
        <time>2020-10-22T09:14:03Z</time>
      </trkpt>
      <trkpt lat="43.04053" lon="0.76994">
        <ele>458.88000488</ele>
        <time>2020-10-22T09:14:04Z</time>
      </trkpt>
      <trkpt lat="43.04049" lon="0.76997">
        <ele>459.33999634</ele>
        <time>2020-10-22T09:14:05Z</time>
      </trkpt>
      <trkpt lat="43.04042" lon="0.77003">
        <ele>459.41000366</ele>
        <time>2020-10-22T09:14:06Z</time>
      </trkpt>
      <trkpt lat="43.04038" lon="0.77007">
        <ele>459.73999023</ele>
        <time>2020-10-22T09:14:08Z</time>
      </trkpt>
      <trkpt lat="43.04032" lon="0.77011">
        <ele>459.05999756</ele>
        <time>2020-10-22T09:14:10Z</time>
      </trkpt>
      <trkpt lat="43.04028" lon="0.77015">
        <ele>458.64001465</ele>
        <time>2020-10-22T09:14:11Z</time>
      </trkpt>
      <trkpt lat="43.04024" lon="0.77018">
        <ele>458.8999939</ele>
        <time>2020-10-22T09:14:13Z</time>
      </trkpt>
      <trkpt lat="43.04019" lon="0.77022">
        <ele>459.25</ele>
        <time>2020-10-22T09:14:14Z</time>
      </trkpt>
      <trkpt lat="43.04015" lon="0.77025">
        <ele>459.55999756</ele>
        <time>2020-10-22T09:14:16Z</time>
      </trkpt>
      <trkpt lat="43.04008" lon="0.7703">
        <ele>460.20001221</ele>
        <time>2020-10-22T09:14:17Z</time>
      </trkpt>
      <trkpt lat="43.04002" lon="0.77035">
        <ele>460.92001343</ele>
        <time>2020-10-22T09:14:19Z</time>
      </trkpt>
      <trkpt lat="43.03997" lon="0.77039">
        <ele>461.05999756</ele>
        <time>2020-10-22T09:14:20Z</time>
      </trkpt>
      <trkpt lat="43.0399" lon="0.77043">
        <ele>461.22000122</ele>
        <time>2020-10-22T09:14:21Z</time>
      </trkpt>
      <trkpt lat="43.03984" lon="0.77047">
        <ele>461.22000122</ele>
        <time>2020-10-22T09:14:23Z</time>
      </trkpt>
      <trkpt lat="43.03979" lon="0.77052">
        <ele>461.47000122</ele>
        <time>2020-10-22T09:14:24Z</time>
      </trkpt>
      <trkpt lat="43.03971" lon="0.77058">
        <ele>462.17001343</ele>
        <time>2020-10-22T09:14:26Z</time>
      </trkpt>
      <trkpt lat="43.03968" lon="0.77059">
        <ele>462.41000366</ele>
        <time>2020-10-22T09:14:27Z</time>
      </trkpt>
      <trkpt lat="43.03963" lon="0.77063">
        <ele>462.70999146</ele>
        <time>2020-10-22T09:14:28Z</time>
      </trkpt>
      <trkpt lat="43.03958" lon="0.77066">
        <ele>462.92001343</ele>
        <time>2020-10-22T09:14:29Z</time>
      </trkpt>
      <trkpt lat="43.03949" lon="0.77071">
        <ele>463.57998657</ele>
        <time>2020-10-22T09:14:31Z</time>
      </trkpt>
      <trkpt lat="43.03945" lon="0.77073">
        <ele>463.26000977</ele>
        <time>2020-10-22T09:14:32Z</time>
      </trkpt>
      <trkpt lat="43.03941" lon="0.77074">
        <ele>463.48999023</ele>
        <time>2020-10-22T09:14:33Z</time>
      </trkpt>
      <trkpt lat="43.03934" lon="0.77076">
        <ele>463.17999268</ele>
        <time>2020-10-22T09:14:35Z</time>
      </trkpt>
      <trkpt lat="43.03929" lon="0.77077">
        <ele>463.20001221</ele>
        <time>2020-10-22T09:14:36Z</time>
      </trkpt>
      <trkpt lat="43.03924" lon="0.77078">
        <ele>463.45999146</ele>
        <time>2020-10-22T09:14:37Z</time>
      </trkpt>
      <trkpt lat="43.0392" lon="0.77079">
        <ele>463.82998657</ele>
        <time>2020-10-22T09:14:39Z</time>
      </trkpt>
      <trkpt lat="43.03912" lon="0.77081">
        <ele>463.64001465</ele>
        <time>2020-10-22T09:14:41Z</time>
      </trkpt>
      <trkpt lat="43.03908" lon="0.77083">
        <ele>463.79000854</ele>
        <time>2020-10-22T09:14:42Z</time>
      </trkpt>
      <trkpt lat="43.03904" lon="0.77084">
        <ele>464.07000732</ele>
        <time>2020-10-22T09:14:43Z</time>
      </trkpt>
      <trkpt lat="43.03897" lon="0.77086">
        <ele>464.30999756</ele>
        <time>2020-10-22T09:14:44Z</time>
      </trkpt>
      <trkpt lat="43.03892" lon="0.77088">
        <ele>464.51000977</ele>
        <time>2020-10-22T09:14:46Z</time>
      </trkpt>
      <trkpt lat="43.03887" lon="0.77089">
        <ele>464.54000854</ele>
        <time>2020-10-22T09:14:47Z</time>
      </trkpt>
      <trkpt lat="43.03881" lon="0.77091">
        <ele>464.82000732</ele>
        <time>2020-10-22T09:14:49Z</time>
      </trkpt>
      <trkpt lat="43.03876" lon="0.77094">
        <ele>465.42999268</ele>
        <time>2020-10-22T09:14:50Z</time>
      </trkpt>
      <trkpt lat="43.03868" lon="0.77098">
        <ele>465.79000854</ele>
        <time>2020-10-22T09:14:52Z</time>
      </trkpt>
      <trkpt lat="43.03862" lon="0.77101">
        <ele>466.17001343</ele>
        <time>2020-10-22T09:14:53Z</time>
      </trkpt>
      <trkpt lat="43.03858" lon="0.77104">
        <ele>466.17001343</ele>
        <time>2020-10-22T09:14:54Z</time>
      </trkpt>
      <trkpt lat="43.0385" lon="0.77108">
        <ele>466.6499939</ele>
        <time>2020-10-22T09:14:55Z</time>
      </trkpt>
      <trkpt lat="43.03843" lon="0.77111">
        <ele>466.98001099</ele>
        <time>2020-10-22T09:14:56Z</time>
      </trkpt>
      <trkpt lat="43.03839" lon="0.77113">
        <ele>467.07000732</ele>
        <time>2020-10-22T09:14:58Z</time>
      </trkpt>
      <trkpt lat="43.03834" lon="0.77116">
        <ele>467.79000854</ele>
        <time>2020-10-22T09:14:59Z</time>
      </trkpt>
      <trkpt lat="43.03827" lon="0.77119">
        <ele>467.98999023</ele>
        <time>2020-10-22T09:15:00Z</time>
      </trkpt>
      <trkpt lat="43.03821" lon="0.77122">
        <ele>468.82000732</ele>
        <time>2020-10-22T09:15:02Z</time>
      </trkpt>
      <trkpt lat="43.03812" lon="0.77126">
        <ele>469.11999512</ele>
        <time>2020-10-22T09:15:04Z</time>
      </trkpt>
      <trkpt lat="43.03808" lon="0.77128">
        <ele>469.6499939</ele>
        <time>2020-10-22T09:15:05Z</time>
      </trkpt>
      <trkpt lat="43.03803" lon="0.7713">
        <ele>469.72000122</ele>
        <time>2020-10-22T09:15:06Z</time>
      </trkpt>
      <trkpt lat="43.03796" lon="0.77134">
        <ele>469.82998657</ele>
        <time>2020-10-22T09:15:08Z</time>
      </trkpt>
      <trkpt lat="43.03792" lon="0.77137">
        <ele>469.89001465</ele>
        <time>2020-10-22T09:15:09Z</time>
      </trkpt>
      <trkpt lat="43.0379" lon="0.77143">
        <ele>469.8500061</ele>
        <time>2020-10-22T09:15:10Z</time>
      </trkpt>
      <trkpt lat="43.0379" lon="0.77149">
        <ele>469.98001099</ele>
        <time>2020-10-22T09:15:12Z</time>
      </trkpt>
      <trkpt lat="43.03791" lon="0.77156">
        <ele>469.51998901</ele>
        <time>2020-10-22T09:15:13Z</time>
      </trkpt>
      <trkpt lat="43.03792" lon="0.77164">
        <ele>470.04998779</ele>
        <time>2020-10-22T09:15:14Z</time>
      </trkpt>
      <trkpt lat="43.03793" lon="0.7718">
        <ele>470.54000854</ele>
        <time>2020-10-22T09:15:16Z</time>
      </trkpt>
      <trkpt lat="43.03794" lon="0.77187">
        <ele>470.88000488</ele>
        <time>2020-10-22T09:15:17Z</time>
      </trkpt>
      <trkpt lat="43.03794" lon="0.77194">
        <ele>471.51998901</ele>
        <time>2020-10-22T09:15:18Z</time>
      </trkpt>
      <trkpt lat="43.03795" lon="0.77202">
        <ele>471.76998901</ele>
        <time>2020-10-22T09:15:19Z</time>
      </trkpt>
      <trkpt lat="43.03796" lon="0.77217">
        <ele>472.48999023</ele>
        <time>2020-10-22T09:15:21Z</time>
      </trkpt>
      <trkpt lat="43.03797" lon="0.77231">
        <ele>473.42001343</ele>
        <time>2020-10-22T09:15:23Z</time>
      </trkpt>
      <trkpt lat="43.03797" lon="0.77238">
        <ele>473.92999268</ele>
        <time>2020-10-22T09:15:24Z</time>
      </trkpt>
      <trkpt lat="43.03798" lon="0.77245">
        <ele>474.70001221</ele>
        <time>2020-10-22T09:15:25Z</time>
      </trkpt>
      <trkpt lat="43.03799" lon="0.77256">
        <ele>474.60998535</ele>
        <time>2020-10-22T09:15:27Z</time>
      </trkpt>
      <trkpt lat="43.03802" lon="0.77266">
        <ele>474.85998535</ele>
        <time>2020-10-22T09:15:29Z</time>
      </trkpt>
      <trkpt lat="43.03806" lon="0.77268">
        <ele>474.45001221</ele>
        <time>2020-10-22T09:15:30Z</time>
      </trkpt>
      <trkpt lat="43.03817" lon="0.7727">
        <ele>474.36999512</ele>
        <time>2020-10-22T09:15:32Z</time>
      </trkpt>
      <trkpt lat="43.03825" lon="0.77271">
        <ele>474.48001099</ele>
        <time>2020-10-22T09:15:34Z</time>
      </trkpt>
      <trkpt lat="43.03833" lon="0.77272">
        <ele>474.88000488</ele>
        <time>2020-10-22T09:15:36Z</time>
      </trkpt>
      <trkpt lat="43.03838" lon="0.77272">
        <ele>474.82000732</ele>
        <time>2020-10-22T09:15:37Z</time>
      </trkpt>
      <trkpt lat="43.03843" lon="0.77271">
        <ele>475.05999756</ele>
        <time>2020-10-22T09:15:38Z</time>
      </trkpt>
      <trkpt lat="43.0385" lon="0.77271">
        <ele>475.41000366</ele>
        <time>2020-10-22T09:15:40Z</time>
      </trkpt>
      <trkpt lat="43.03856" lon="0.7727">
        <ele>476</ele>
        <time>2020-10-22T09:15:41Z</time>
      </trkpt>
      <trkpt lat="43.03862" lon="0.7727">
        <ele>476.22000122</ele>
        <time>2020-10-22T09:15:42Z</time>
      </trkpt>
      <trkpt lat="43.0387" lon="0.7727">
        <ele>476.6000061</ele>
        <time>2020-10-22T09:15:44Z</time>
      </trkpt>
      <trkpt lat="43.03876" lon="0.7727">
        <ele>477.01998901</ele>
        <time>2020-10-22T09:15:45Z</time>
      </trkpt>
      <trkpt lat="43.03881" lon="0.77271">
        <ele>477.01998901</ele>
        <time>2020-10-22T09:15:46Z</time>
      </trkpt>
      <trkpt lat="43.03891" lon="0.77274">
        <ele>477.41000366</ele>
        <time>2020-10-22T09:15:48Z</time>
      </trkpt>
      <trkpt lat="43.03898" lon="0.77276">
        <ele>477.98001099</ele>
        <time>2020-10-22T09:15:49Z</time>
      </trkpt>
      <trkpt lat="43.03902" lon="0.77278">
        <ele>478.07000732</ele>
        <time>2020-10-22T09:15:51Z</time>
      </trkpt>
      <trkpt lat="43.03907" lon="0.77279">
        <ele>478.57000732</ele>
        <time>2020-10-22T09:15:52Z</time>
      </trkpt>
      <trkpt lat="43.03912" lon="0.77281">
        <ele>478.32000732</ele>
        <time>2020-10-22T09:15:53Z</time>
      </trkpt>
      <trkpt lat="43.03916" lon="0.77283">
        <ele>478.1000061</ele>
        <time>2020-10-22T09:15:54Z</time>
      </trkpt>
      <trkpt lat="43.0392" lon="0.77285">
        <ele>477.67999268</ele>
        <time>2020-10-22T09:15:55Z</time>
      </trkpt>
      <trkpt lat="43.03924" lon="0.77288">
        <ele>477.04000854</ele>
        <time>2020-10-22T09:15:56Z</time>
      </trkpt>
      <trkpt lat="43.03929" lon="0.77293">
        <ele>477.41000366</ele>
        <time>2020-10-22T09:15:58Z</time>
      </trkpt>
      <trkpt lat="43.03938" lon="0.77303">
        <ele>476.63000488</ele>
        <time>2020-10-22T09:16:00Z</time>
      </trkpt>
      <trkpt lat="43.03943" lon="0.77309">
        <ele>476.29998779</ele>
        <time>2020-10-22T09:16:01Z</time>
      </trkpt>
      <trkpt lat="43.03951" lon="0.77323">
        <ele>476.1499939</ele>
        <time>2020-10-22T09:16:03Z</time>
      </trkpt>
      <trkpt lat="43.03954" lon="0.7733">
        <ele>476.19000244</ele>
        <time>2020-10-22T09:16:04Z</time>
      </trkpt>
      <trkpt lat="43.03958" lon="0.77346">
        <ele>476.08999634</ele>
        <time>2020-10-22T09:16:06Z</time>
      </trkpt>
      <trkpt lat="43.0396" lon="0.77363">
        <ele>475.91000366</ele>
        <time>2020-10-22T09:16:08Z</time>
      </trkpt>
      <trkpt lat="43.03962" lon="0.77379">
        <ele>475.89001465</ele>
        <time>2020-10-22T09:16:10Z</time>
      </trkpt>
      <trkpt lat="43.03964" lon="0.77394">
        <ele>475.82998657</ele>
        <time>2020-10-22T09:16:12Z</time>
      </trkpt>
      <trkpt lat="43.03966" lon="0.774">
        <ele>475.79998779</ele>
        <time>2020-10-22T09:16:13Z</time>
      </trkpt>
      <trkpt lat="43.03969" lon="0.77406">
        <ele>475.86999512</ele>
        <time>2020-10-22T09:16:14Z</time>
      </trkpt>
      <trkpt lat="43.03973" lon="0.77417">
        <ele>475.77999878</ele>
        <time>2020-10-22T09:16:16Z</time>
      </trkpt>
      <trkpt lat="43.03972" lon="0.77422">
        <ele>476.13000488</ele>
        <time>2020-10-22T09:16:17Z</time>
      </trkpt>
      <trkpt lat="43.03968" lon="0.77425">
        <ele>475.08999634</ele>
        <time>2020-10-22T09:16:19Z</time>
      </trkpt>
      <trkpt lat="43.03963" lon="0.77424">
        <ele>476.04998779</ele>
        <time>2020-10-22T09:16:21Z</time>
      </trkpt>
      <trkpt lat="43.0396" lon="0.77424">
        <ele>476.52999878</ele>
        <time>2020-10-22T09:16:22Z</time>
      </trkpt>
      <trkpt lat="43.03959" lon="0.77425">
        <ele>476.70999146</ele>
        <time>2020-10-22T09:16:23Z</time>
      </trkpt>
      <trkpt lat="43.03956" lon="0.77426">
        <ele>476.70999146</ele>
        <time>2020-10-22T09:16:24Z</time>
      </trkpt>
      <trkpt lat="43.03952" lon="0.77428">
        <ele>477.30999756</ele>
        <time>2020-10-22T09:16:25Z</time>
      </trkpt>
      <trkpt lat="43.03949" lon="0.77431">
        <ele>477.80999756</ele>
        <time>2020-10-22T09:16:26Z</time>
      </trkpt>
      <trkpt lat="43.03946" lon="0.77437">
        <ele>478.17001343</ele>
        <time>2020-10-22T09:16:28Z</time>
      </trkpt>
      <trkpt lat="43.03942" lon="0.77442">
        <ele>478.3999939</ele>
        <time>2020-10-22T09:16:29Z</time>
      </trkpt>
      <trkpt lat="43.0394" lon="0.77447">
        <ele>478.72000122</ele>
        <time>2020-10-22T09:16:31Z</time>
      </trkpt>
      <trkpt lat="43.03936" lon="0.77454">
        <ele>479.76000977</ele>
        <time>2020-10-22T09:16:32Z</time>
      </trkpt>
      <trkpt lat="43.03934" lon="0.77459">
        <ele>479.95999146</ele>
        <time>2020-10-22T09:16:34Z</time>
      </trkpt>
      <trkpt lat="43.03931" lon="0.77466">
        <ele>480.25</ele>
        <time>2020-10-22T09:16:35Z</time>
      </trkpt>
      <trkpt lat="43.03928" lon="0.77476">
        <ele>481.13000488</ele>
        <time>2020-10-22T09:16:37Z</time>
      </trkpt>
      <trkpt lat="43.03926" lon="0.77484">
        <ele>481.42999268</ele>
        <time>2020-10-22T09:16:38Z</time>
      </trkpt>
      <trkpt lat="43.03923" lon="0.77493">
        <ele>481.77999878</ele>
        <time>2020-10-22T09:16:40Z</time>
      </trkpt>
      <trkpt lat="43.03918" lon="0.77501">
        <ele>482.32000732</ele>
        <time>2020-10-22T09:16:41Z</time>
      </trkpt>
      <trkpt lat="43.03911" lon="0.77512">
        <ele>483.95999146</ele>
        <time>2020-10-22T09:16:43Z</time>
      </trkpt>
      <trkpt lat="43.03906" lon="0.77515">
        <ele>484.6000061</ele>
        <time>2020-10-22T09:16:44Z</time>
      </trkpt>
      <trkpt lat="43.03901" lon="0.77518">
        <ele>485.17001343</ele>
        <time>2020-10-22T09:16:45Z</time>
      </trkpt>
      <trkpt lat="43.03891" lon="0.77524">
        <ele>486.1000061</ele>
        <time>2020-10-22T09:16:47Z</time>
      </trkpt>
      <trkpt lat="43.03882" lon="0.77531">
        <ele>486.61999512</ele>
        <time>2020-10-22T09:16:49Z</time>
      </trkpt>
      <trkpt lat="43.03876" lon="0.77534">
        <ele>486.72000122</ele>
        <time>2020-10-22T09:16:50Z</time>
      </trkpt>
      <trkpt lat="43.03871" lon="0.77538">
        <ele>486.66000366</ele>
        <time>2020-10-22T09:16:51Z</time>
      </trkpt>
      <trkpt lat="43.03865" lon="0.77542">
        <ele>486.52999878</ele>
        <time>2020-10-22T09:16:52Z</time>
      </trkpt>
      <trkpt lat="43.0386" lon="0.77546">
        <ele>486.41000366</ele>
        <time>2020-10-22T09:16:53Z</time>
      </trkpt>
      <trkpt lat="43.03854" lon="0.7755">
        <ele>486.38000488</ele>
        <time>2020-10-22T09:16:54Z</time>
      </trkpt>
      <trkpt lat="43.03843" lon="0.77557">
        <ele>486.57998657</ele>
        <time>2020-10-22T09:16:56Z</time>
      </trkpt>
      <trkpt lat="43.03838" lon="0.77561">
        <ele>486.36999512</ele>
        <time>2020-10-22T09:16:57Z</time>
      </trkpt>
      <trkpt lat="43.03833" lon="0.77565">
        <ele>486.10998535</ele>
        <time>2020-10-22T09:16:58Z</time>
      </trkpt>
      <trkpt lat="43.03828" lon="0.77575">
        <ele>486.04998779</ele>
        <time>2020-10-22T09:17:00Z</time>
      </trkpt>
      <trkpt lat="43.03829" lon="0.77584">
        <ele>485.70001221</ele>
        <time>2020-10-22T09:17:01Z</time>
      </trkpt>
      <trkpt lat="43.03831" lon="0.77594">
        <ele>485.70001221</ele>
        <time>2020-10-22T09:17:02Z</time>
      </trkpt>
      <trkpt lat="43.03822" lon="0.77604">
        <ele>486.29000854</ele>
        <time>2020-10-22T09:17:04Z</time>
      </trkpt>
      <trkpt lat="43.03817" lon="0.77606">
        <ele>486.6000061</ele>
        <time>2020-10-22T09:17:05Z</time>
      </trkpt>
      <trkpt lat="43.03807" lon="0.77613">
        <ele>486.58999634</ele>
        <time>2020-10-22T09:17:07Z</time>
      </trkpt>
      <trkpt lat="43.03797" lon="0.7762">
        <ele>487.17999268</ele>
        <time>2020-10-22T09:17:09Z</time>
      </trkpt>
      <trkpt lat="43.03789" lon="0.77627">
        <ele>487.82000732</ele>
        <time>2020-10-22T09:17:11Z</time>
      </trkpt>
      <trkpt lat="43.03785" lon="0.77631">
        <ele>488.05999756</ele>
        <time>2020-10-22T09:17:12Z</time>
      </trkpt>
      <trkpt lat="43.03776" lon="0.77637">
        <ele>488.38000488</ele>
        <time>2020-10-22T09:17:14Z</time>
      </trkpt>
      <trkpt lat="43.03772" lon="0.77641">
        <ele>488.47000122</ele>
        <time>2020-10-22T09:17:15Z</time>
      </trkpt>
      <trkpt lat="43.03764" lon="0.77648">
        <ele>488.5</ele>
        <time>2020-10-22T09:17:17Z</time>
      </trkpt>
      <trkpt lat="43.0376" lon="0.77652">
        <ele>488.88000488</ele>
        <time>2020-10-22T09:17:18Z</time>
      </trkpt>
      <trkpt lat="43.03752" lon="0.7766">
        <ele>489.20001221</ele>
        <time>2020-10-22T09:17:20Z</time>
      </trkpt>
      <trkpt lat="43.03747" lon="0.77665">
        <ele>490.51998901</ele>
        <time>2020-10-22T09:17:22Z</time>
      </trkpt>
      <trkpt lat="43.03743" lon="0.77668">
        <ele>490.88000488</ele>
        <time>2020-10-22T09:17:23Z</time>
      </trkpt>
      <trkpt lat="43.03737" lon="0.77674">
        <ele>491.01000977</ele>
        <time>2020-10-22T09:17:25Z</time>
      </trkpt>
      <trkpt lat="43.03728" lon="0.7768">
        <ele>489.95999146</ele>
        <time>2020-10-22T09:17:27Z</time>
      </trkpt>
      <trkpt lat="43.03726" lon="0.77684">
        <ele>490.44000244</ele>
        <time>2020-10-22T09:17:28Z</time>
      </trkpt>
      <trkpt lat="43.03722" lon="0.77685">
        <ele>490.70999146</ele>
        <time>2020-10-22T09:17:29Z</time>
      </trkpt>
      <trkpt lat="43.03716" lon="0.77687">
        <ele>490.67999268</ele>
        <time>2020-10-22T09:17:31Z</time>
      </trkpt>
      <trkpt lat="43.03712" lon="0.77688">
        <ele>491.52999878</ele>
        <time>2020-10-22T09:17:32Z</time>
      </trkpt>
      <trkpt lat="43.03707" lon="0.7769">
        <ele>492.1499939</ele>
        <time>2020-10-22T09:17:33Z</time>
      </trkpt>
      <trkpt lat="43.03702" lon="0.77693">
        <ele>492.3500061</ele>
        <time>2020-10-22T09:17:35Z</time>
      </trkpt>
      <trkpt lat="43.03696" lon="0.77696">
        <ele>493.19000244</ele>
        <time>2020-10-22T09:17:37Z</time>
      </trkpt>
      <trkpt lat="43.03692" lon="0.77698">
        <ele>493.57000732</ele>
        <time>2020-10-22T09:17:38Z</time>
      </trkpt>
      <trkpt lat="43.03689" lon="0.777">
        <ele>494.98001099</ele>
        <time>2020-10-22T09:17:39Z</time>
      </trkpt>
      <trkpt lat="43.03683" lon="0.77704">
        <ele>495.51000977</ele>
        <time>2020-10-22T09:17:41Z</time>
      </trkpt>
      <trkpt lat="43.0368" lon="0.77706">
        <ele>495.64001465</ele>
        <time>2020-10-22T09:17:42Z</time>
      </trkpt>
      <trkpt lat="43.03675" lon="0.77708">
        <ele>495.97000122</ele>
        <time>2020-10-22T09:17:43Z</time>
      </trkpt>
      <trkpt lat="43.03672" lon="0.77709">
        <ele>496.6499939</ele>
        <time>2020-10-22T09:17:45Z</time>
      </trkpt>
      <trkpt lat="43.0367" lon="0.77709">
        <ele>496.89001465</ele>
        <time>2020-10-22T09:17:46Z</time>
      </trkpt>
      <trkpt lat="43.03667" lon="0.7771">
        <ele>496.94000244</ele>
        <time>2020-10-22T09:17:47Z</time>
      </trkpt>
      <trkpt lat="43.03663" lon="0.7771">
        <ele>497.75</ele>
        <time>2020-10-22T09:17:48Z</time>
      </trkpt>
      <trkpt lat="43.03661" lon="0.7771">
        <ele>498.83999634</ele>
        <time>2020-10-22T09:17:49Z</time>
      </trkpt>
      <trkpt lat="43.03659" lon="0.7771">
        <ele>500.05999756</ele>
        <time>2020-10-22T09:17:50Z</time>
      </trkpt>
      <trkpt lat="43.03655" lon="0.7771">
        <ele>499.89001465</ele>
        <time>2020-10-22T09:17:52Z</time>
      </trkpt>
      <trkpt lat="43.03652" lon="0.7771">
        <ele>500.17001343</ele>
        <time>2020-10-22T09:17:53Z</time>
      </trkpt>
      <trkpt lat="43.03649" lon="0.7771">
        <ele>501.57998657</ele>
        <time>2020-10-22T09:17:55Z</time>
      </trkpt>
      <trkpt lat="43.03647" lon="0.7771">
        <ele>501.57998657</ele>
        <time>2020-10-22T09:17:56Z</time>
      </trkpt>
      <trkpt lat="43.03642" lon="0.77711">
        <ele>503.10998535</ele>
        <time>2020-10-22T09:17:57Z</time>
      </trkpt>
      <trkpt lat="43.03639" lon="0.77712">
        <ele>503.48999023</ele>
        <time>2020-10-22T09:17:59Z</time>
      </trkpt>
      <trkpt lat="43.03635" lon="0.77713">
        <ele>503.79998779</ele>
        <time>2020-10-22T09:18:00Z</time>
      </trkpt>
      <trkpt lat="43.03631" lon="0.77716">
        <ele>504.76000977</ele>
        <time>2020-10-22T09:18:02Z</time>
      </trkpt>
      <trkpt lat="43.03628" lon="0.77719">
        <ele>505.73999023</ele>
        <time>2020-10-22T09:18:03Z</time>
      </trkpt>
      <trkpt lat="43.03625" lon="0.77722">
        <ele>505.73999023</ele>
        <time>2020-10-22T09:18:04Z</time>
      </trkpt>
      <trkpt lat="43.0362" lon="0.77727">
        <ele>506.30999756</ele>
        <time>2020-10-22T09:18:05Z</time>
      </trkpt>
      <trkpt lat="43.03616" lon="0.77731">
        <ele>506.26998901</ele>
        <time>2020-10-22T09:18:07Z</time>
      </trkpt>
      <trkpt lat="43.03613" lon="0.77736">
        <ele>506.30999756</ele>
        <time>2020-10-22T09:18:08Z</time>
      </trkpt>
      <trkpt lat="43.03606" lon="0.77749">
        <ele>506.23999023</ele>
        <time>2020-10-22T09:18:10Z</time>
      </trkpt>
      <trkpt lat="43.03601" lon="0.77757">
        <ele>506.10998535</ele>
        <time>2020-10-22T09:18:11Z</time>
      </trkpt>
      <trkpt lat="43.0359" lon="0.7777">
        <ele>506.02999878</ele>
        <time>2020-10-22T09:18:13Z</time>
      </trkpt>
      <trkpt lat="43.03579" lon="0.77782">
        <ele>505.48001099</ele>
        <time>2020-10-22T09:18:15Z</time>
      </trkpt>
      <trkpt lat="43.03573" lon="0.7779">
        <ele>505.25</ele>
        <time>2020-10-22T09:18:16Z</time>
      </trkpt>
      <trkpt lat="43.03567" lon="0.77798">
        <ele>504.41000366</ele>
        <time>2020-10-22T09:18:17Z</time>
      </trkpt>
      <trkpt lat="43.0356" lon="0.77806">
        <ele>503.95999146</ele>
        <time>2020-10-22T09:18:18Z</time>
      </trkpt>
      <trkpt lat="43.03547" lon="0.77824">
        <ele>502.01000977</ele>
        <time>2020-10-22T09:18:20Z</time>
      </trkpt>
      <trkpt lat="43.03539" lon="0.77838">
        <ele>500.97000122</ele>
        <time>2020-10-22T09:18:22Z</time>
      </trkpt>
      <trkpt lat="43.03536" lon="0.77857">
        <ele>498.85998535</ele>
        <time>2020-10-22T09:18:24Z</time>
      </trkpt>
      <trkpt lat="43.03535" lon="0.77867">
        <ele>498.42999268</ele>
        <time>2020-10-22T09:18:25Z</time>
      </trkpt>
      <trkpt lat="43.03534" lon="0.77878">
        <ele>498.19000244</ele>
        <time>2020-10-22T09:18:26Z</time>
      </trkpt>
      <trkpt lat="43.03534" lon="0.779">
        <ele>497.92999268</ele>
        <time>2020-10-22T09:18:28Z</time>
      </trkpt>
      <trkpt lat="43.03537" lon="0.7792">
        <ele>496.82998657</ele>
        <time>2020-10-22T09:18:30Z</time>
      </trkpt>
      <trkpt lat="43.03541" lon="0.77927">
        <ele>496.02999878</ele>
        <time>2020-10-22T09:18:31Z</time>
      </trkpt>
      <trkpt lat="43.0355" lon="0.77936">
        <ele>496</ele>
        <time>2020-10-22T09:18:33Z</time>
      </trkpt>
      <trkpt lat="43.03556" lon="0.77936">
        <ele>495.69000244</ele>
        <time>2020-10-22T09:18:34Z</time>
      </trkpt>
      <trkpt lat="43.03568" lon="0.77934">
        <ele>494.61999512</ele>
        <time>2020-10-22T09:18:36Z</time>
      </trkpt>
      <trkpt lat="43.03581" lon="0.77932">
        <ele>493.76998901</ele>
        <time>2020-10-22T09:18:38Z</time>
      </trkpt>
      <trkpt lat="43.03594" lon="0.77929">
        <ele>492.38000488</ele>
        <time>2020-10-22T09:18:40Z</time>
      </trkpt>
      <trkpt lat="43.0361" lon="0.77925">
        <ele>490.8500061</ele>
        <time>2020-10-22T09:18:42Z</time>
      </trkpt>
      <trkpt lat="43.03618" lon="0.77924">
        <ele>490.22000122</ele>
        <time>2020-10-22T09:18:43Z</time>
      </trkpt>
      <trkpt lat="43.03636" lon="0.7792">
        <ele>488.26000977</ele>
        <time>2020-10-22T09:18:45Z</time>
      </trkpt>
      <trkpt lat="43.03645" lon="0.77918">
        <ele>488.26000977</ele>
        <time>2020-10-22T09:18:46Z</time>
      </trkpt>
      <trkpt lat="43.03665" lon="0.77914">
        <ele>487.33999634</ele>
        <time>2020-10-22T09:18:48Z</time>
      </trkpt>
      <trkpt lat="43.03675" lon="0.77912">
        <ele>485.95001221</ele>
        <time>2020-10-22T09:18:49Z</time>
      </trkpt>
      <trkpt lat="43.03691" lon="0.77911">
        <ele>484.29998779</ele>
        <time>2020-10-22T09:18:51Z</time>
      </trkpt>
      <trkpt lat="43.03702" lon="0.7792">
        <ele>482.61999512</ele>
        <time>2020-10-22T09:18:53Z</time>
      </trkpt>
      <trkpt lat="43.03712" lon="0.77935">
        <ele>481.25</ele>
        <time>2020-10-22T09:18:55Z</time>
      </trkpt>
      <trkpt lat="43.03715" lon="0.77945">
        <ele>480.86999512</ele>
        <time>2020-10-22T09:18:56Z</time>
      </trkpt>
      <trkpt lat="43.03718" lon="0.77954">
        <ele>480.51998901</ele>
        <time>2020-10-22T09:18:57Z</time>
      </trkpt>
      <trkpt lat="43.03728" lon="0.7797">
        <ele>479.58999634</ele>
        <time>2020-10-22T09:18:59Z</time>
      </trkpt>
      <trkpt lat="43.03733" lon="0.77977">
        <ele>479.32000732</ele>
        <time>2020-10-22T09:19:00Z</time>
      </trkpt>
      <trkpt lat="43.03744" lon="0.77992">
        <ele>477.47000122</ele>
        <time>2020-10-22T09:19:02Z</time>
      </trkpt>
      <trkpt lat="43.0376" lon="0.77999">
        <ele>476.91000366</ele>
        <time>2020-10-22T09:19:04Z</time>
      </trkpt>
      <trkpt lat="43.03769" lon="0.78">
        <ele>475.5</ele>
        <time>2020-10-22T09:19:05Z</time>
      </trkpt>
      <trkpt lat="43.03789" lon="0.77999">
        <ele>474.75</ele>
        <time>2020-10-22T09:19:07Z</time>
      </trkpt>
      <trkpt lat="43.038" lon="0.77995">
        <ele>473.3999939</ele>
        <time>2020-10-22T09:19:08Z</time>
      </trkpt>
      <trkpt lat="43.03812" lon="0.77991">
        <ele>472.75</ele>
        <time>2020-10-22T09:19:09Z</time>
      </trkpt>
      <trkpt lat="43.03837" lon="0.77982">
        <ele>470.82998657</ele>
        <time>2020-10-22T09:19:11Z</time>
      </trkpt>
      <trkpt lat="43.0385" lon="0.77977">
        <ele>471.01998901</ele>
        <time>2020-10-22T09:19:12Z</time>
      </trkpt>
      <trkpt lat="43.03876" lon="0.77967">
        <ele>468.14001465</ele>
        <time>2020-10-22T09:19:14Z</time>
      </trkpt>
      <trkpt lat="43.03888" lon="0.77962">
        <ele>467.29000854</ele>
        <time>2020-10-22T09:19:15Z</time>
      </trkpt>
      <trkpt lat="43.03912" lon="0.77961">
        <ele>465.05999756</ele>
        <time>2020-10-22T09:19:17Z</time>
      </trkpt>
      <trkpt lat="43.03923" lon="0.77963">
        <ele>463.72000122</ele>
        <time>2020-10-22T09:19:18Z</time>
      </trkpt>
      <trkpt lat="43.03931" lon="0.77965">
        <ele>461.57998657</ele>
        <time>2020-10-22T09:19:19Z</time>
      </trkpt>
      <trkpt lat="43.03938" lon="0.77974">
        <ele>458.67999268</ele>
        <time>2020-10-22T09:19:21Z</time>
      </trkpt>
      <trkpt lat="43.0394" lon="0.77985">
        <ele>457.39001465</ele>
        <time>2020-10-22T09:19:22Z</time>
      </trkpt>
      <trkpt lat="43.03939" lon="0.7801">
        <ele>455.17001343</ele>
        <time>2020-10-22T09:19:24Z</time>
      </trkpt>
      <trkpt lat="43.03943" lon="0.78035">
        <ele>453.76000977</ele>
        <time>2020-10-22T09:19:26Z</time>
      </trkpt>
      <trkpt lat="43.03952" lon="0.78059">
        <ele>451.82998657</ele>
        <time>2020-10-22T09:19:28Z</time>
      </trkpt>
      <trkpt lat="43.03957" lon="0.7807">
        <ele>451.07000732</ele>
        <time>2020-10-22T09:19:29Z</time>
      </trkpt>
      <trkpt lat="43.03965" lon="0.78086">
        <ele>449.48999023</ele>
        <time>2020-10-22T09:19:31Z</time>
      </trkpt>
      <trkpt lat="43.03968" lon="0.7809">
        <ele>449.33999634</ele>
        <time>2020-10-22T09:19:32Z</time>
      </trkpt>
      <trkpt lat="43.03973" lon="0.78092">
        <ele>448.67999268</ele>
        <time>2020-10-22T09:19:34Z</time>
      </trkpt>
      <trkpt lat="43.03973" lon="0.7809">
        <ele>448.25</ele>
        <time>2020-10-22T09:19:35Z</time>
      </trkpt>
      <trkpt lat="43.03976" lon="0.7809">
        <ele>447.36999512</ele>
        <time>2020-10-22T09:19:37Z</time>
      </trkpt>
      <trkpt lat="43.0398" lon="0.7809">
        <ele>446.76998901</ele>
        <time>2020-10-22T09:19:38Z</time>
      </trkpt>
      <trkpt lat="43.03981" lon="0.7809">
        <ele>450.1000061</ele>
        <time>2020-10-22T09:19:39Z</time>
      </trkpt>
      <trkpt lat="43.03992" lon="0.78085">
        <ele>450.1000061</ele>
        <time>2020-10-22T09:19:41Z</time>
      </trkpt>
      <trkpt lat="43.04003" lon="0.78075">
        <ele>450.1000061</ele>
        <time>2020-10-22T09:19:43Z</time>
      </trkpt>
      <trkpt lat="43.04008" lon="0.78071">
        <ele>450.1000061</ele>
        <time>2020-10-22T09:19:44Z</time>
      </trkpt>
      <trkpt lat="43.04019" lon="0.78063">
        <ele>450.1000061</ele>
        <time>2020-10-22T09:19:46Z</time>
      </trkpt>
      <trkpt lat="43.0403" lon="0.78057">
        <ele>450.1000061</ele>
        <time>2020-10-22T09:19:48Z</time>
      </trkpt>
      <trkpt lat="43.0404" lon="0.7805">
        <ele>450.1000061</ele>
        <time>2020-10-22T09:19:50Z</time>
      </trkpt>
      <trkpt lat="43.04045" lon="0.78048">
        <ele>450.1000061</ele>
        <time>2020-10-22T09:19:51Z</time>
      </trkpt>
      <trkpt lat="43.04051" lon="0.78046">
        <ele>450.1000061</ele>
        <time>2020-10-22T09:19:52Z</time>
      </trkpt>
      <trkpt lat="43.04061" lon="0.78041">
        <ele>450.1000061</ele>
        <time>2020-10-22T09:19:54Z</time>
      </trkpt>
      <trkpt lat="43.04067" lon="0.7804">
        <ele>450.1000061</ele>
        <time>2020-10-22T09:19:55Z</time>
      </trkpt>
      <trkpt lat="43.04079" lon="0.78036">
        <ele>450.1000061</ele>
        <time>2020-10-22T09:19:57Z</time>
      </trkpt>
      <trkpt lat="43.04091" lon="0.78033">
        <ele>450.1000061</ele>
        <time>2020-10-22T09:19:59Z</time>
      </trkpt>
      <trkpt lat="43.04097" lon="0.78031">
        <ele>450.1000061</ele>
        <time>2020-10-22T09:20:00Z</time>
      </trkpt>
      <trkpt lat="43.04103" lon="0.78029">
        <ele>450.1000061</ele>
        <time>2020-10-22T09:20:01Z</time>
      </trkpt>
      <trkpt lat="43.04115" lon="0.78026">
        <ele>450.1000061</ele>
        <time>2020-10-22T09:20:03Z</time>
      </trkpt>
      <trkpt lat="43.04127" lon="0.78022">
        <ele>450.1000061</ele>
        <time>2020-10-22T09:20:05Z</time>
      </trkpt>
      <trkpt lat="43.04138" lon="0.78019">
        <ele>450.1000061</ele>
        <time>2020-10-22T09:20:07Z</time>
      </trkpt>
      <trkpt lat="43.04144" lon="0.78017">
        <ele>450.1000061</ele>
        <time>2020-10-22T09:20:08Z</time>
      </trkpt>
      <trkpt lat="43.04149" lon="0.78016">
        <ele>450.1000061</ele>
        <time>2020-10-22T09:20:09Z</time>
      </trkpt>
      <trkpt lat="43.04155" lon="0.78014">
        <ele>450.1000061</ele>
        <time>2020-10-22T09:20:10Z</time>
      </trkpt>
      <trkpt lat="43.04166" lon="0.78011">
        <ele>450.1000061</ele>
        <time>2020-10-22T09:20:12Z</time>
      </trkpt>
      <trkpt lat="43.04178" lon="0.78008">
        <ele>450.1000061</ele>
        <time>2020-10-22T09:20:14Z</time>
      </trkpt>
      <trkpt lat="43.0419" lon="0.78005">
        <ele>450.1000061</ele>
        <time>2020-10-22T09:20:16Z</time>
      </trkpt>
      <trkpt lat="43.04203" lon="0.78002">
        <ele>450.1000061</ele>
        <time>2020-10-22T09:20:18Z</time>
      </trkpt>
      <trkpt lat="43.04218" lon="0.78">
        <ele>450.1000061</ele>
        <time>2020-10-22T09:20:20Z</time>
      </trkpt>
      <trkpt lat="43.04226" lon="0.78">
        <ele>450.1000061</ele>
        <time>2020-10-22T09:20:21Z</time>
      </trkpt>
      <trkpt lat="43.0424" lon="0.77998">
        <ele>450.1000061</ele>
        <time>2020-10-22T09:20:23Z</time>
      </trkpt>
      <trkpt lat="43.04248" lon="0.77997">
        <ele>450.1000061</ele>
        <time>2020-10-22T09:20:24Z</time>
      </trkpt>
      <trkpt lat="43.04255" lon="0.77997">
        <ele>450.1000061</ele>
        <time>2020-10-22T09:20:25Z</time>
      </trkpt>
      <trkpt lat="43.0427" lon="0.77994">
        <ele>450.1000061</ele>
        <time>2020-10-22T09:20:27Z</time>
      </trkpt>
      <trkpt lat="43.04283" lon="0.77993">
        <ele>450.1000061</ele>
        <time>2020-10-22T09:20:29Z</time>
      </trkpt>
      <trkpt lat="43.04297" lon="0.77991">
        <ele>450.1000061</ele>
        <time>2020-10-22T09:20:31Z</time>
      </trkpt>
      <trkpt lat="43.04311" lon="0.77988">
        <ele>450.1000061</ele>
        <time>2020-10-22T09:20:33Z</time>
      </trkpt>
      <trkpt lat="43.04318" lon="0.77987">
        <ele>450.1000061</ele>
        <time>2020-10-22T09:20:34Z</time>
      </trkpt>
      <trkpt lat="43.04324" lon="0.77987">
        <ele>450.1000061</ele>
        <time>2020-10-22T09:20:35Z</time>
      </trkpt>
      <trkpt lat="43.04331" lon="0.77987">
        <ele>450.1000061</ele>
        <time>2020-10-22T09:20:36Z</time>
      </trkpt>
      <trkpt lat="43.04343" lon="0.77987">
        <ele>450.1000061</ele>
        <time>2020-10-22T09:20:38Z</time>
      </trkpt>
      <trkpt lat="43.04355" lon="0.77985">
        <ele>441.10998535</ele>
        <time>2020-10-22T09:20:40Z</time>
      </trkpt>
      <trkpt lat="43.04367" lon="0.77982">
        <ele>440.85998535</ele>
        <time>2020-10-22T09:20:42Z</time>
      </trkpt>
      <trkpt lat="43.04373" lon="0.7798">
        <ele>440.80999756</ele>
        <time>2020-10-22T09:20:43Z</time>
      </trkpt>
      <trkpt lat="43.04379" lon="0.7798">
        <ele>440.82000732</ele>
        <time>2020-10-22T09:20:44Z</time>
      </trkpt>
      <trkpt lat="43.04392" lon="0.77979">
        <ele>440.66000366</ele>
        <time>2020-10-22T09:20:46Z</time>
      </trkpt>
      <trkpt lat="43.04398" lon="0.77979">
        <ele>440.67001343</ele>
        <time>2020-10-22T09:20:47Z</time>
      </trkpt>
      <trkpt lat="43.0441" lon="0.77978">
        <ele>440.48001099</ele>
        <time>2020-10-22T09:20:49Z</time>
      </trkpt>
      <trkpt lat="43.04416" lon="0.77978">
        <ele>440.02999878</ele>
        <time>2020-10-22T09:20:50Z</time>
      </trkpt>
      <trkpt lat="43.04422" lon="0.77978">
        <ele>439.98001099</ele>
        <time>2020-10-22T09:20:51Z</time>
      </trkpt>
      <trkpt lat="43.04434" lon="0.77977">
        <ele>439.70001221</ele>
        <time>2020-10-22T09:20:53Z</time>
      </trkpt>
      <trkpt lat="43.04446" lon="0.77976">
        <ele>439.73001099</ele>
        <time>2020-10-22T09:20:55Z</time>
      </trkpt>
      <trkpt lat="43.04452" lon="0.77975">
        <ele>440.02999878</ele>
        <time>2020-10-22T09:20:56Z</time>
      </trkpt>
      <trkpt lat="43.04464" lon="0.77973">
        <ele>440</ele>
        <time>2020-10-22T09:20:58Z</time>
      </trkpt>
      <trkpt lat="43.04477" lon="0.77972">
        <ele>439.70001221</ele>
        <time>2020-10-22T09:21:00Z</time>
      </trkpt>
      <trkpt lat="43.04483" lon="0.77971">
        <ele>439.42001343</ele>
        <time>2020-10-22T09:21:01Z</time>
      </trkpt>
      <trkpt lat="43.04489" lon="0.77971">
        <ele>439.13000488</ele>
        <time>2020-10-22T09:21:02Z</time>
      </trkpt>
      <trkpt lat="43.04496" lon="0.77972">
        <ele>439.20999146</ele>
        <time>2020-10-22T09:21:03Z</time>
      </trkpt>
      <trkpt lat="43.04508" lon="0.77974">
        <ele>438.92999268</ele>
        <time>2020-10-22T09:21:05Z</time>
      </trkpt>
      <trkpt lat="43.0452" lon="0.77976">
        <ele>438.23001099</ele>
        <time>2020-10-22T09:21:07Z</time>
      </trkpt>
      <trkpt lat="43.04532" lon="0.77977">
        <ele>438.19000244</ele>
        <time>2020-10-22T09:21:09Z</time>
      </trkpt>
      <trkpt lat="43.04544" lon="0.77978">
        <ele>438.30999756</ele>
        <time>2020-10-22T09:21:11Z</time>
      </trkpt>
      <trkpt lat="43.04556" lon="0.77977">
        <ele>438.19000244</ele>
        <time>2020-10-22T09:21:13Z</time>
      </trkpt>
      <trkpt lat="43.04562" lon="0.77974">
        <ele>438.14001465</ele>
        <time>2020-10-22T09:21:14Z</time>
      </trkpt>
      <trkpt lat="43.04568" lon="0.77971">
        <ele>438.13000488</ele>
        <time>2020-10-22T09:21:15Z</time>
      </trkpt>
      <trkpt lat="43.04578" lon="0.77962">
        <ele>437.92001343</ele>
        <time>2020-10-22T09:21:17Z</time>
      </trkpt>
      <trkpt lat="43.04588" lon="0.77952">
        <ele>437.73999023</ele>
        <time>2020-10-22T09:21:19Z</time>
      </trkpt>
      <trkpt lat="43.04598" lon="0.77942">
        <ele>437.76000977</ele>
        <time>2020-10-22T09:21:21Z</time>
      </trkpt>
      <trkpt lat="43.04604" lon="0.77937">
        <ele>437.88000488</ele>
        <time>2020-10-22T09:21:22Z</time>
      </trkpt>
      <trkpt lat="43.04615" lon="0.7793">
        <ele>437.42001343</ele>
        <time>2020-10-22T09:21:24Z</time>
      </trkpt>
      <trkpt lat="43.04621" lon="0.77927">
        <ele>437.35998535</ele>
        <time>2020-10-22T09:21:25Z</time>
      </trkpt>
      <trkpt lat="43.04634" lon="0.77923">
        <ele>437.20001221</ele>
        <time>2020-10-22T09:21:27Z</time>
      </trkpt>
      <trkpt lat="43.04646" lon="0.7792">
        <ele>437.1499939</ele>
        <time>2020-10-22T09:21:29Z</time>
      </trkpt>
      <trkpt lat="43.04657" lon="0.77913">
        <ele>436.95999146</ele>
        <time>2020-10-22T09:21:31Z</time>
      </trkpt>
      <trkpt lat="43.04668" lon="0.77904">
        <ele>436.98999023</ele>
        <time>2020-10-22T09:21:33Z</time>
      </trkpt>
      <trkpt lat="43.04678" lon="0.77893">
        <ele>436.85998535</ele>
        <time>2020-10-22T09:21:35Z</time>
      </trkpt>
      <trkpt lat="43.04688" lon="0.77883">
        <ele>436.73001099</ele>
        <time>2020-10-22T09:21:37Z</time>
      </trkpt>
      <trkpt lat="43.04697" lon="0.77872">
        <ele>436.67999268</ele>
        <time>2020-10-22T09:21:39Z</time>
      </trkpt>
      <trkpt lat="43.04707" lon="0.77862">
        <ele>436.33999634</ele>
        <time>2020-10-22T09:21:41Z</time>
      </trkpt>
      <trkpt lat="43.04717" lon="0.77854">
        <ele>436.07998657</ele>
        <time>2020-10-22T09:21:43Z</time>
      </trkpt>
      <trkpt lat="43.04728" lon="0.77845">
        <ele>436.19000244</ele>
        <time>2020-10-22T09:21:45Z</time>
      </trkpt>
      <trkpt lat="43.04734" lon="0.77842">
        <ele>436.04000854</ele>
        <time>2020-10-22T09:21:46Z</time>
      </trkpt>
      <trkpt lat="43.0474" lon="0.77843">
        <ele>436.1000061</ele>
        <time>2020-10-22T09:21:47Z</time>
      </trkpt>
      <trkpt lat="43.04745" lon="0.77856">
        <ele>436.32000732</ele>
        <time>2020-10-22T09:21:49Z</time>
      </trkpt>
      <trkpt lat="43.04745" lon="0.77875">
        <ele>435.72000122</ele>
        <time>2020-10-22T09:21:51Z</time>
      </trkpt>
      <trkpt lat="43.04745" lon="0.77885">
        <ele>435.72000122</ele>
        <time>2020-10-22T09:21:52Z</time>
      </trkpt>
      <trkpt lat="43.04745" lon="0.77894">
        <ele>435.55999756</ele>
        <time>2020-10-22T09:21:53Z</time>
      </trkpt>
      <trkpt lat="43.04745" lon="0.77912">
        <ele>435.36999512</ele>
        <time>2020-10-22T09:21:55Z</time>
      </trkpt>
      <trkpt lat="43.04746" lon="0.77921">
        <ele>435.45999146</ele>
        <time>2020-10-22T09:21:56Z</time>
      </trkpt>
      <trkpt lat="43.04748" lon="0.77937">
        <ele>435.97000122</ele>
        <time>2020-10-22T09:21:58Z</time>
      </trkpt>
      <trkpt lat="43.0475" lon="0.77945">
        <ele>436.20001221</ele>
        <time>2020-10-22T09:21:59Z</time>
      </trkpt>
      <trkpt lat="43.04752" lon="0.77961">
        <ele>436.20001221</ele>
        <time>2020-10-22T09:22:01Z</time>
      </trkpt>
      <trkpt lat="43.04754" lon="0.77978">
        <ele>435.97000122</ele>
        <time>2020-10-22T09:22:03Z</time>
      </trkpt>
      <trkpt lat="43.04755" lon="0.77986">
        <ele>435.82000732</ele>
        <time>2020-10-22T09:22:04Z</time>
      </trkpt>
      <trkpt lat="43.04757" lon="0.78002">
        <ele>435.76000977</ele>
        <time>2020-10-22T09:22:06Z</time>
      </trkpt>
      <trkpt lat="43.04759" lon="0.78017">
        <ele>435.83999634</ele>
        <time>2020-10-22T09:22:08Z</time>
      </trkpt>
      <trkpt lat="43.0476" lon="0.78024">
        <ele>436.1000061</ele>
        <time>2020-10-22T09:22:09Z</time>
      </trkpt>
      <trkpt lat="43.04761" lon="0.7803">
        <ele>436.17999268</ele>
        <time>2020-10-22T09:22:10Z</time>
      </trkpt>
      <trkpt lat="43.04761" lon="0.78035">
        <ele>436.05999756</ele>
        <time>2020-10-22T09:22:11Z</time>
      </trkpt>
      <trkpt lat="43.04764" lon="0.78046">
        <ele>436.01998901</ele>
        <time>2020-10-22T09:22:13Z</time>
      </trkpt>
      <trkpt lat="43.04767" lon="0.78052">
        <ele>435.73999023</ele>
        <time>2020-10-22T09:22:14Z</time>
      </trkpt>
      <trkpt lat="43.04774" lon="0.78058">
        <ele>436.1000061</ele>
        <time>2020-10-22T09:22:16Z</time>
      </trkpt>
      <trkpt lat="43.04779" lon="0.78061">
        <ele>435.85998535</ele>
        <time>2020-10-22T09:22:17Z</time>
      </trkpt>
      <trkpt lat="43.04785" lon="0.78063">
        <ele>435.89001465</ele>
        <time>2020-10-22T09:22:18Z</time>
      </trkpt>
      <trkpt lat="43.04794" lon="0.78069">
        <ele>436.27999878</ele>
        <time>2020-10-22T09:22:20Z</time>
      </trkpt>
      <trkpt lat="43.04796" lon="0.78064">
        <ele>436.67999268</ele>
        <time>2020-10-22T09:22:21Z</time>
      </trkpt>
      <trkpt lat="43.048" lon="0.7807">
        <ele>437.86999512</ele>
        <time>2020-10-22T09:22:23Z</time>
      </trkpt>
      <trkpt lat="43.04805" lon="0.78081">
        <ele>437.89001465</ele>
        <time>2020-10-22T09:22:25Z</time>
      </trkpt>
      <trkpt lat="43.04809" lon="0.78087">
        <ele>438.16000366</ele>
        <time>2020-10-22T09:22:26Z</time>
      </trkpt>
      <trkpt lat="43.04814" lon="0.78091">
        <ele>438.33999634</ele>
        <time>2020-10-22T09:22:28Z</time>
      </trkpt>
      <trkpt lat="43.04817" lon="0.78094">
        <ele>438.33999634</ele>
        <time>2020-10-22T09:22:29Z</time>
      </trkpt>
      <trkpt lat="43.04822" lon="0.78097">
        <ele>439.39001465</ele>
        <time>2020-10-22T09:22:30Z</time>
      </trkpt>
      <trkpt lat="43.04827" lon="0.78098">
        <ele>440.01998901</ele>
        <time>2020-10-22T09:22:32Z</time>
      </trkpt>
      <trkpt lat="43.0483" lon="0.78099">
        <ele>440.27999878</ele>
        <time>2020-10-22T09:22:33Z</time>
      </trkpt>
      <trkpt lat="43.04834" lon="0.781">
        <ele>440.27999878</ele>
        <time>2020-10-22T09:22:34Z</time>
      </trkpt>
      <trkpt lat="43.04838" lon="0.781">
        <ele>440.45001221</ele>
        <time>2020-10-22T09:22:35Z</time>
      </trkpt>
      <trkpt lat="43.04842" lon="0.78101">
        <ele>440.89001465</ele>
        <time>2020-10-22T09:22:36Z</time>
      </trkpt>
      <trkpt lat="43.04847" lon="0.78102">
        <ele>441.17001343</ele>
        <time>2020-10-22T09:22:38Z</time>
      </trkpt>
      <trkpt lat="43.0485" lon="0.78103">
        <ele>441.70001221</ele>
        <time>2020-10-22T09:22:39Z</time>
      </trkpt>
      <trkpt lat="43.04855" lon="0.78104">
        <ele>441.72000122</ele>
        <time>2020-10-22T09:22:41Z</time>
      </trkpt>
      <trkpt lat="43.04859" lon="0.78104">
        <ele>442.02999878</ele>
        <time>2020-10-22T09:22:42Z</time>
      </trkpt>
      <trkpt lat="43.04863" lon="0.78105">
        <ele>442.86999512</ele>
        <time>2020-10-22T09:22:43Z</time>
      </trkpt>
      <trkpt lat="43.04869" lon="0.78106">
        <ele>443.3999939</ele>
        <time>2020-10-22T09:22:44Z</time>
      </trkpt>
      <trkpt lat="43.04873" lon="0.78107">
        <ele>443.47000122</ele>
        <time>2020-10-22T09:22:45Z</time>
      </trkpt>
      <trkpt lat="43.04878" lon="0.78109">
        <ele>443.89001465</ele>
        <time>2020-10-22T09:22:47Z</time>
      </trkpt>
      <trkpt lat="43.04887" lon="0.78111">
        <ele>444.8500061</ele>
        <time>2020-10-22T09:22:49Z</time>
      </trkpt>
      <trkpt lat="43.04891" lon="0.78114">
        <ele>445.75</ele>
        <time>2020-10-22T09:22:50Z</time>
      </trkpt>
      <trkpt lat="43.04895" lon="0.78116">
        <ele>446.20999146</ele>
        <time>2020-10-22T09:22:51Z</time>
      </trkpt>
      <trkpt lat="43.04899" lon="0.78118">
        <ele>446.20999146</ele>
        <time>2020-10-22T09:22:52Z</time>
      </trkpt>
      <trkpt lat="43.04904" lon="0.78122">
        <ele>446.91000366</ele>
        <time>2020-10-22T09:22:53Z</time>
      </trkpt>
      <trkpt lat="43.04909" lon="0.78125">
        <ele>447.32000732</ele>
        <time>2020-10-22T09:22:55Z</time>
      </trkpt>
      <trkpt lat="43.04912" lon="0.78127">
        <ele>448.29000854</ele>
        <time>2020-10-22T09:22:56Z</time>
      </trkpt>
      <trkpt lat="43.04919" lon="0.78134">
        <ele>448.67999268</ele>
        <time>2020-10-22T09:22:58Z</time>
      </trkpt>
      <trkpt lat="43.04927" lon="0.78142">
        <ele>449.3999939</ele>
        <time>2020-10-22T09:23:00Z</time>
      </trkpt>
      <trkpt lat="43.04931" lon="0.78146">
        <ele>449.92001343</ele>
        <time>2020-10-22T09:23:01Z</time>
      </trkpt>
      <trkpt lat="43.04935" lon="0.78149">
        <ele>450.39001465</ele>
        <time>2020-10-22T09:23:02Z</time>
      </trkpt>
      <trkpt lat="43.04943" lon="0.78156">
        <ele>451.45001221</ele>
        <time>2020-10-22T09:23:04Z</time>
      </trkpt>
      <trkpt lat="43.04951" lon="0.78163">
        <ele>452.32998657</ele>
        <time>2020-10-22T09:23:06Z</time>
      </trkpt>
      <trkpt lat="43.04958" lon="0.78169">
        <ele>453.42001343</ele>
        <time>2020-10-22T09:23:08Z</time>
      </trkpt>
      <trkpt lat="43.04964" lon="0.78169">
        <ele>453.80999756</ele>
        <time>2020-10-22T09:23:10Z</time>
      </trkpt>
      <trkpt lat="43.04969" lon="0.78174">
        <ele>454.23001099</ele>
        <time>2020-10-22T09:23:11Z</time>
      </trkpt>
      <trkpt lat="43.04975" lon="0.78182">
        <ele>455.01998901</ele>
        <time>2020-10-22T09:23:13Z</time>
      </trkpt>
      <trkpt lat="43.04979" lon="0.78185">
        <ele>455.70999146</ele>
        <time>2020-10-22T09:23:14Z</time>
      </trkpt>
      <trkpt lat="43.04982" lon="0.78189">
        <ele>455.70999146</ele>
        <time>2020-10-22T09:23:15Z</time>
      </trkpt>
      <trkpt lat="43.04986" lon="0.78193">
        <ele>455.76998901</ele>
        <time>2020-10-22T09:23:16Z</time>
      </trkpt>
      <trkpt lat="43.04994" lon="0.782">
        <ele>457.01000977</ele>
        <time>2020-10-22T09:23:18Z</time>
      </trkpt>
      <trkpt lat="43.04997" lon="0.78205">
        <ele>457.01000977</ele>
        <time>2020-10-22T09:23:19Z</time>
      </trkpt>
      <trkpt lat="43.05002" lon="0.78214">
        <ele>458.1000061</ele>
        <time>2020-10-22T09:23:21Z</time>
      </trkpt>
      <trkpt lat="43.05004" lon="0.78219">
        <ele>458.45999146</ele>
        <time>2020-10-22T09:23:22Z</time>
      </trkpt>
      <trkpt lat="43.05007" lon="0.78224">
        <ele>458.45999146</ele>
        <time>2020-10-22T09:23:23Z</time>
      </trkpt>
      <trkpt lat="43.0501" lon="0.78235">
        <ele>459.01000977</ele>
        <time>2020-10-22T09:23:25Z</time>
      </trkpt>
      <trkpt lat="43.05012" lon="0.78243">
        <ele>459.73001099</ele>
        <time>2020-10-22T09:23:26Z</time>
      </trkpt>
      <trkpt lat="43.05014" lon="0.78249">
        <ele>459.95001221</ele>
        <time>2020-10-22T09:23:27Z</time>
      </trkpt>
      <trkpt lat="43.05016" lon="0.78256">
        <ele>460.11999512</ele>
        <time>2020-10-22T09:23:29Z</time>
      </trkpt>
      <trkpt lat="43.05016" lon="0.78266">
        <ele>460.98999023</ele>
        <time>2020-10-22T09:23:31Z</time>
      </trkpt>
      <trkpt lat="43.05013" lon="0.78275">
        <ele>461.58999634</ele>
        <time>2020-10-22T09:23:32Z</time>
      </trkpt>
      <trkpt lat="43.05012" lon="0.78281">
        <ele>462.05999756</ele>
        <time>2020-10-22T09:23:34Z</time>
      </trkpt>
      <trkpt lat="43.05009" lon="0.78288">
        <ele>462.48001099</ele>
        <time>2020-10-22T09:23:35Z</time>
      </trkpt>
      <trkpt lat="43.05003" lon="0.783">
        <ele>463.35998535</ele>
        <time>2020-10-22T09:23:37Z</time>
      </trkpt>
      <trkpt lat="43.04995" lon="0.78308">
        <ele>463.98999023</ele>
        <time>2020-10-22T09:23:39Z</time>
      </trkpt>
      <trkpt lat="43.04991" lon="0.78311">
        <ele>464.33999634</ele>
        <time>2020-10-22T09:23:40Z</time>
      </trkpt>
      <trkpt lat="43.04986" lon="0.78314">
        <ele>464.67001343</ele>
        <time>2020-10-22T09:23:41Z</time>
      </trkpt>
      <trkpt lat="43.04977" lon="0.7832">
        <ele>465.1000061</ele>
        <time>2020-10-22T09:23:43Z</time>
      </trkpt>
      <trkpt lat="43.04967" lon="0.78327">
        <ele>465.54998779</ele>
        <time>2020-10-22T09:23:45Z</time>
      </trkpt>
      <trkpt lat="43.04963" lon="0.78332">
        <ele>465.79000854</ele>
        <time>2020-10-22T09:23:46Z</time>
      </trkpt>
      <trkpt lat="43.04958" lon="0.78336">
        <ele>466.01000977</ele>
        <time>2020-10-22T09:23:47Z</time>
      </trkpt>
      <trkpt lat="43.04954" lon="0.7834">
        <ele>466.14001465</ele>
        <time>2020-10-22T09:23:48Z</time>
      </trkpt>
      <trkpt lat="43.04945" lon="0.78345">
        <ele>466.30999756</ele>
        <time>2020-10-22T09:23:50Z</time>
      </trkpt>
      <trkpt lat="43.04936" lon="0.78347">
        <ele>466.76998901</ele>
        <time>2020-10-22T09:23:52Z</time>
      </trkpt>
      <trkpt lat="43.04932" lon="0.78348">
        <ele>466.92999268</ele>
        <time>2020-10-22T09:23:53Z</time>
      </trkpt>
      <trkpt lat="43.04927" lon="0.78349">
        <ele>467.07998657</ele>
        <time>2020-10-22T09:23:54Z</time>
      </trkpt>
      <trkpt lat="43.04918" lon="0.78349">
        <ele>467.48001099</ele>
        <time>2020-10-22T09:23:56Z</time>
      </trkpt>
      <trkpt lat="43.04909" lon="0.7835">
        <ele>467.75</ele>
        <time>2020-10-22T09:23:58Z</time>
      </trkpt>
      <trkpt lat="43.04904" lon="0.7835">
        <ele>467.92999268</ele>
        <time>2020-10-22T09:23:59Z</time>
      </trkpt>
      <trkpt lat="43.04895" lon="0.78351">
        <ele>467.95001221</ele>
        <time>2020-10-22T09:24:01Z</time>
      </trkpt>
      <trkpt lat="43.04891" lon="0.78351">
        <ele>468.23001099</ele>
        <time>2020-10-22T09:24:02Z</time>
      </trkpt>
      <trkpt lat="43.04882" lon="0.78352">
        <ele>468.54000854</ele>
        <time>2020-10-22T09:24:04Z</time>
      </trkpt>
      <trkpt lat="43.04872" lon="0.78352">
        <ele>468.61999512</ele>
        <time>2020-10-22T09:24:06Z</time>
      </trkpt>
      <trkpt lat="43.04867" lon="0.78352">
        <ele>468.91000366</ele>
        <time>2020-10-22T09:24:07Z</time>
      </trkpt>
      <trkpt lat="43.04857" lon="0.78353">
        <ele>469.23999023</ele>
        <time>2020-10-22T09:24:09Z</time>
      </trkpt>
      <trkpt lat="43.04847" lon="0.78352">
        <ele>469.23001099</ele>
        <time>2020-10-22T09:24:11Z</time>
      </trkpt>
      <trkpt lat="43.04837" lon="0.7835">
        <ele>469.11999512</ele>
        <time>2020-10-22T09:24:13Z</time>
      </trkpt>
      <trkpt lat="43.04832" lon="0.78348">
        <ele>469.29998779</ele>
        <time>2020-10-22T09:24:14Z</time>
      </trkpt>
      <trkpt lat="43.04822" lon="0.78342">
        <ele>469.57000732</ele>
        <time>2020-10-22T09:24:16Z</time>
      </trkpt>
      <trkpt lat="43.04817" lon="0.78339">
        <ele>469.66000366</ele>
        <time>2020-10-22T09:24:17Z</time>
      </trkpt>
      <trkpt lat="43.04813" lon="0.78336">
        <ele>469.55999756</ele>
        <time>2020-10-22T09:24:18Z</time>
      </trkpt>
      <trkpt lat="43.04808" lon="0.78334">
        <ele>469.57000732</ele>
        <time>2020-10-22T09:24:19Z</time>
      </trkpt>
      <trkpt lat="43.04799" lon="0.78328">
        <ele>469.73999023</ele>
        <time>2020-10-22T09:24:21Z</time>
      </trkpt>
      <trkpt lat="43.04795" lon="0.78325">
        <ele>469.80999756</ele>
        <time>2020-10-22T09:24:22Z</time>
      </trkpt>
      <trkpt lat="43.04786" lon="0.7832">
        <ele>470.22000122</ele>
        <time>2020-10-22T09:24:24Z</time>
      </trkpt>
      <trkpt lat="43.04781" lon="0.78318">
        <ele>470.32000732</ele>
        <time>2020-10-22T09:24:25Z</time>
      </trkpt>
      <trkpt lat="43.04772" lon="0.78313">
        <ele>470.48001099</ele>
        <time>2020-10-22T09:24:27Z</time>
      </trkpt>
      <trkpt lat="43.04762" lon="0.78308">
        <ele>469.8500061</ele>
        <time>2020-10-22T09:24:29Z</time>
      </trkpt>
      <trkpt lat="43.04757" lon="0.78307">
        <ele>470.23001099</ele>
        <time>2020-10-22T09:24:30Z</time>
      </trkpt>
      <trkpt lat="43.04747" lon="0.78313">
        <ele>469.91000366</ele>
        <time>2020-10-22T09:24:32Z</time>
      </trkpt>
      <trkpt lat="43.04741" lon="0.78328">
        <ele>469.6499939</ele>
        <time>2020-10-22T09:24:34Z</time>
      </trkpt>
      <trkpt lat="43.0474" lon="0.78335">
        <ele>469.41000366</ele>
        <time>2020-10-22T09:24:35Z</time>
      </trkpt>
      <trkpt lat="43.04738" lon="0.78342">
        <ele>469.55999756</ele>
        <time>2020-10-22T09:24:36Z</time>
      </trkpt>
      <trkpt lat="43.04734" lon="0.78356">
        <ele>469.77999878</ele>
        <time>2020-10-22T09:24:38Z</time>
      </trkpt>
      <trkpt lat="43.0473" lon="0.78369">
        <ele>470.17999268</ele>
        <time>2020-10-22T09:24:40Z</time>
      </trkpt>
      <trkpt lat="43.04726" lon="0.78381">
        <ele>470.54000854</ele>
        <time>2020-10-22T09:24:42Z</time>
      </trkpt>
      <trkpt lat="43.04724" lon="0.78387">
        <ele>470.82000732</ele>
        <time>2020-10-22T09:24:43Z</time>
      </trkpt>
      <trkpt lat="43.04721" lon="0.78392">
        <ele>470.98001099</ele>
        <time>2020-10-22T09:24:44Z</time>
      </trkpt>
      <trkpt lat="43.04718" lon="0.78402">
        <ele>471.44000244</ele>
        <time>2020-10-22T09:24:46Z</time>
      </trkpt>
      <trkpt lat="43.04716" lon="0.78406">
        <ele>471.67001343</ele>
        <time>2020-10-22T09:24:47Z</time>
      </trkpt>
      <trkpt lat="43.04711" lon="0.78417">
        <ele>471.92001343</ele>
        <time>2020-10-22T09:24:49Z</time>
      </trkpt>
      <trkpt lat="43.04705" lon="0.78429">
        <ele>472.58999634</ele>
        <time>2020-10-22T09:24:51Z</time>
      </trkpt>
      <trkpt lat="43.04699" lon="0.7844">
        <ele>472.92999268</ele>
        <time>2020-10-22T09:24:53Z</time>
      </trkpt>
      <trkpt lat="43.04697" lon="0.78445">
        <ele>473.29998779</ele>
        <time>2020-10-22T09:24:54Z</time>
      </trkpt>
      <trkpt lat="43.04692" lon="0.78443">
        <ele>473.61999512</ele>
        <time>2020-10-22T09:24:55Z</time>
      </trkpt>
      <trkpt lat="43.04688" lon="0.7845">
        <ele>473.95001221</ele>
        <time>2020-10-22T09:24:57Z</time>
      </trkpt>
      <trkpt lat="43.04683" lon="0.78457">
        <ele>474.07000732</ele>
        <time>2020-10-22T09:24:58Z</time>
      </trkpt>
      <trkpt lat="43.04677" lon="0.78466">
        <ele>474.3500061</ele>
        <time>2020-10-22T09:25:00Z</time>
      </trkpt>
      <trkpt lat="43.04674" lon="0.78469">
        <ele>474.3500061</ele>
        <time>2020-10-22T09:25:01Z</time>
      </trkpt>
      <trkpt lat="43.04666" lon="0.78481">
        <ele>475.26000977</ele>
        <time>2020-10-22T09:25:03Z</time>
      </trkpt>
      <trkpt lat="43.04663" lon="0.78486">
        <ele>475.23001099</ele>
        <time>2020-10-22T09:25:04Z</time>
      </trkpt>
      <trkpt lat="43.04657" lon="0.78495">
        <ele>475.52999878</ele>
        <time>2020-10-22T09:25:06Z</time>
      </trkpt>
      <trkpt lat="43.04657" lon="0.78498">
        <ele>475.89001465</ele>
        <time>2020-10-22T09:25:07Z</time>
      </trkpt>
      <trkpt lat="43.04657" lon="0.78501">
        <ele>476.45001221</ele>
        <time>2020-10-22T09:25:08Z</time>
      </trkpt>
      <trkpt lat="43.04653" lon="0.78508">
        <ele>476.70001221</ele>
        <time>2020-10-22T09:25:09Z</time>
      </trkpt>
      <trkpt lat="43.04648" lon="0.78515">
        <ele>477.27999878</ele>
        <time>2020-10-22T09:25:11Z</time>
      </trkpt>
      <trkpt lat="43.04644" lon="0.78522">
        <ele>477.30999756</ele>
        <time>2020-10-22T09:25:12Z</time>
      </trkpt>
      <trkpt lat="43.0464" lon="0.78528">
        <ele>477.39001465</ele>
        <time>2020-10-22T09:25:13Z</time>
      </trkpt>
      <trkpt lat="43.04635" lon="0.78534">
        <ele>477.63000488</ele>
        <time>2020-10-22T09:25:15Z</time>
      </trkpt>
      <trkpt lat="43.04631" lon="0.78543">
        <ele>478.02999878</ele>
        <time>2020-10-22T09:25:16Z</time>
      </trkpt>
      <trkpt lat="43.04627" lon="0.78549">
        <ele>478.20999146</ele>
        <time>2020-10-22T09:25:18Z</time>
      </trkpt>
      <trkpt lat="43.04624" lon="0.78554">
        <ele>478.20999146</ele>
        <time>2020-10-22T09:25:19Z</time>
      </trkpt>
      <trkpt lat="43.0462" lon="0.7856">
        <ele>478.54998779</ele>
        <time>2020-10-22T09:25:20Z</time>
      </trkpt>
      <trkpt lat="43.04615" lon="0.78567">
        <ele>478.8500061</ele>
        <time>2020-10-22T09:25:22Z</time>
      </trkpt>
      <trkpt lat="43.04613" lon="0.78572">
        <ele>478.8500061</ele>
        <time>2020-10-22T09:25:23Z</time>
      </trkpt>
      <trkpt lat="43.04609" lon="0.78581">
        <ele>479.17001343</ele>
        <time>2020-10-22T09:25:25Z</time>
      </trkpt>
      <trkpt lat="43.04607" lon="0.78588">
        <ele>479.55999756</ele>
        <time>2020-10-22T09:25:26Z</time>
      </trkpt>
      <trkpt lat="43.04605" lon="0.78602">
        <ele>480.48001099</ele>
        <time>2020-10-22T09:25:28Z</time>
      </trkpt>
      <trkpt lat="43.04604" lon="0.78608">
        <ele>480.85998535</ele>
        <time>2020-10-22T09:25:29Z</time>
      </trkpt>
      <trkpt lat="43.04605" lon="0.7862">
        <ele>483.07998657</ele>
        <time>2020-10-22T09:25:31Z</time>
      </trkpt>
      <trkpt lat="43.04605" lon="0.78633">
        <ele>482.92999268</ele>
        <time>2020-10-22T09:25:33Z</time>
      </trkpt>
      <trkpt lat="43.04605" lon="0.7864">
        <ele>482.88000488</ele>
        <time>2020-10-22T09:25:34Z</time>
      </trkpt>
      <trkpt lat="43.04605" lon="0.78647">
        <ele>483.39001465</ele>
        <time>2020-10-22T09:25:35Z</time>
      </trkpt>
      <trkpt lat="43.04598" lon="0.7866">
        <ele>485.13000488</ele>
        <time>2020-10-22T09:25:37Z</time>
      </trkpt>
      <trkpt lat="43.04591" lon="0.78668">
        <ele>484.51998901</ele>
        <time>2020-10-22T09:25:39Z</time>
      </trkpt>
      <trkpt lat="43.04587" lon="0.78669">
        <ele>484.47000122</ele>
        <time>2020-10-22T09:25:40Z</time>
      </trkpt>
      <trkpt lat="43.04577" lon="0.78674">
        <ele>484.36999512</ele>
        <time>2020-10-22T09:25:42Z</time>
      </trkpt>
      <trkpt lat="43.04572" lon="0.78676">
        <ele>484.45001221</ele>
        <time>2020-10-22T09:25:43Z</time>
      </trkpt>
      <trkpt lat="43.04567" lon="0.78678">
        <ele>484.66000366</ele>
        <time>2020-10-22T09:25:44Z</time>
      </trkpt>
      <trkpt lat="43.04558" lon="0.78682">
        <ele>485.11999512</ele>
        <time>2020-10-22T09:25:46Z</time>
      </trkpt>
      <trkpt lat="43.04554" lon="0.78684">
        <ele>485.39001465</ele>
        <time>2020-10-22T09:25:47Z</time>
      </trkpt>
      <trkpt lat="43.04546" lon="0.78689">
        <ele>485.42001343</ele>
        <time>2020-10-22T09:25:49Z</time>
      </trkpt>
      <trkpt lat="43.04542" lon="0.78692">
        <ele>485.42001343</ele>
        <time>2020-10-22T09:25:50Z</time>
      </trkpt>
      <trkpt lat="43.04536" lon="0.78698">
        <ele>485.45999146</ele>
        <time>2020-10-22T09:25:52Z</time>
      </trkpt>
      <trkpt lat="43.04533" lon="0.78702">
        <ele>485.30999756</ele>
        <time>2020-10-22T09:25:53Z</time>
      </trkpt>
      <trkpt lat="43.0453" lon="0.78705">
        <ele>485.3999939</ele>
        <time>2020-10-22T09:25:54Z</time>
      </trkpt>
      <trkpt lat="43.04524" lon="0.78712">
        <ele>485.42999268</ele>
        <time>2020-10-22T09:25:56Z</time>
      </trkpt>
      <trkpt lat="43.04521" lon="0.78716">
        <ele>485.01998901</ele>
        <time>2020-10-22T09:25:57Z</time>
      </trkpt>
      <trkpt lat="43.04518" lon="0.78719">
        <ele>485.29998779</ele>
        <time>2020-10-22T09:25:58Z</time>
      </trkpt>
      <trkpt lat="43.04514" lon="0.78727">
        <ele>485.54998779</ele>
        <time>2020-10-22T09:26:00Z</time>
      </trkpt>
      <trkpt lat="43.04511" lon="0.78733">
        <ele>486.19000244</ele>
        <time>2020-10-22T09:26:01Z</time>
      </trkpt>
      <trkpt lat="43.04508" lon="0.78738">
        <ele>486.35998535</ele>
        <time>2020-10-22T09:26:02Z</time>
      </trkpt>
      <trkpt lat="43.04504" lon="0.78745">
        <ele>486.55999756</ele>
        <time>2020-10-22T09:26:04Z</time>
      </trkpt>
      <trkpt lat="43.04502" lon="0.78752">
        <ele>486.72000122</ele>
        <time>2020-10-22T09:26:05Z</time>
      </trkpt>
      <trkpt lat="43.04497" lon="0.7876">
        <ele>487.04000854</ele>
        <time>2020-10-22T09:26:07Z</time>
      </trkpt>
      <trkpt lat="43.04494" lon="0.78766">
        <ele>487.08999634</ele>
        <time>2020-10-22T09:26:08Z</time>
      </trkpt>
      <trkpt lat="43.0449" lon="0.78776">
        <ele>487.58999634</ele>
        <time>2020-10-22T09:26:10Z</time>
      </trkpt>
      <trkpt lat="43.04487" lon="0.78787">
        <ele>488.01998901</ele>
        <time>2020-10-22T09:26:12Z</time>
      </trkpt>
      <trkpt lat="43.04485" lon="0.78794">
        <ele>488.16000366</ele>
        <time>2020-10-22T09:26:13Z</time>
      </trkpt>
      <trkpt lat="43.04482" lon="0.78801">
        <ele>488.47000122</ele>
        <time>2020-10-22T09:26:14Z</time>
      </trkpt>
      <trkpt lat="43.04479" lon="0.78808">
        <ele>488.60998535</ele>
        <time>2020-10-22T09:26:16Z</time>
      </trkpt>
      <trkpt lat="43.04477" lon="0.78814">
        <ele>488.86999512</ele>
        <time>2020-10-22T09:26:17Z</time>
      </trkpt>
      <trkpt lat="43.04475" lon="0.7882">
        <ele>489.20999146</ele>
        <time>2020-10-22T09:26:18Z</time>
      </trkpt>
      <trkpt lat="43.04472" lon="0.78828">
        <ele>489.51998901</ele>
        <time>2020-10-22T09:26:20Z</time>
      </trkpt>
      <trkpt lat="43.0447" lon="0.78833">
        <ele>489.66000366</ele>
        <time>2020-10-22T09:26:21Z</time>
      </trkpt>
      <trkpt lat="43.04468" lon="0.7884">
        <ele>489.79000854</ele>
        <time>2020-10-22T09:26:22Z</time>
      </trkpt>
      <trkpt lat="43.04465" lon="0.78847">
        <ele>490.01000977</ele>
        <time>2020-10-22T09:26:24Z</time>
      </trkpt>
      <trkpt lat="43.04464" lon="0.78853">
        <ele>490.48999023</ele>
        <time>2020-10-22T09:26:25Z</time>
      </trkpt>
      <trkpt lat="43.04462" lon="0.78858">
        <ele>490.6499939</ele>
        <time>2020-10-22T09:26:26Z</time>
      </trkpt>
      <trkpt lat="43.0446" lon="0.78864">
        <ele>490.91000366</ele>
        <time>2020-10-22T09:26:28Z</time>
      </trkpt>
      <trkpt lat="43.04458" lon="0.78872">
        <ele>491.23999023</ele>
        <time>2020-10-22T09:26:30Z</time>
      </trkpt>
      <trkpt lat="43.04456" lon="0.78876">
        <ele>491.45001221</ele>
        <time>2020-10-22T09:26:31Z</time>
      </trkpt>
      <trkpt lat="43.04455" lon="0.78881">
        <ele>491.41000366</ele>
        <time>2020-10-22T09:26:32Z</time>
      </trkpt>
      <trkpt lat="43.04453" lon="0.78887">
        <ele>491.25</ele>
        <time>2020-10-22T09:26:33Z</time>
      </trkpt>
      <trkpt lat="43.04452" lon="0.78894">
        <ele>491.57000732</ele>
        <time>2020-10-22T09:26:35Z</time>
      </trkpt>
      <trkpt lat="43.04451" lon="0.789">
        <ele>492.42999268</ele>
        <time>2020-10-22T09:26:36Z</time>
      </trkpt>
      <trkpt lat="43.0445" lon="0.78907">
        <ele>492.89001465</ele>
        <time>2020-10-22T09:26:38Z</time>
      </trkpt>
      <trkpt lat="43.04448" lon="0.78915">
        <ele>492.98999023</ele>
        <time>2020-10-22T09:26:39Z</time>
      </trkpt>
      <trkpt lat="43.04447" lon="0.78921">
        <ele>493.20999146</ele>
        <time>2020-10-22T09:26:40Z</time>
      </trkpt>
      <trkpt lat="43.04445" lon="0.78929">
        <ele>493.3999939</ele>
        <time>2020-10-22T09:26:42Z</time>
      </trkpt>
      <trkpt lat="43.04444" lon="0.78935">
        <ele>493.57998657</ele>
        <time>2020-10-22T09:26:43Z</time>
      </trkpt>
      <trkpt lat="43.04442" lon="0.78943">
        <ele>493.5</ele>
        <time>2020-10-22T09:26:44Z</time>
      </trkpt>
      <trkpt lat="43.04441" lon="0.7895">
        <ele>493.61999512</ele>
        <time>2020-10-22T09:26:46Z</time>
      </trkpt>
      <trkpt lat="43.04439" lon="0.78957">
        <ele>493.67999268</ele>
        <time>2020-10-22T09:26:47Z</time>
      </trkpt>
      <trkpt lat="43.04437" lon="0.78965">
        <ele>494.47000122</ele>
        <time>2020-10-22T09:26:49Z</time>
      </trkpt>
      <trkpt lat="43.04435" lon="0.78973">
        <ele>494.36999512</ele>
        <time>2020-10-22T09:26:50Z</time>
      </trkpt>
      <trkpt lat="43.04433" lon="0.78979">
        <ele>494.54000854</ele>
        <time>2020-10-22T09:26:51Z</time>
      </trkpt>
      <trkpt lat="43.04431" lon="0.78986">
        <ele>494.82998657</ele>
        <time>2020-10-22T09:26:53Z</time>
      </trkpt>
      <trkpt lat="43.04429" lon="0.78992">
        <ele>495.20001221</ele>
        <time>2020-10-22T09:26:54Z</time>
      </trkpt>
      <trkpt lat="43.04427" lon="0.78997">
        <ele>495.51000977</ele>
        <time>2020-10-22T09:26:55Z</time>
      </trkpt>
      <trkpt lat="43.04425" lon="0.79003">
        <ele>495.51000977</ele>
        <time>2020-10-22T09:26:56Z</time>
      </trkpt>
      <trkpt lat="43.04423" lon="0.79008">
        <ele>495.8999939</ele>
        <time>2020-10-22T09:26:57Z</time>
      </trkpt>
      <trkpt lat="43.0442" lon="0.79015">
        <ele>496</ele>
        <time>2020-10-22T09:26:59Z</time>
      </trkpt>
      <trkpt lat="43.04418" lon="0.79021">
        <ele>496.33999634</ele>
        <time>2020-10-22T09:27:00Z</time>
      </trkpt>
      <trkpt lat="43.04416" lon="0.79027">
        <ele>496.70999146</ele>
        <time>2020-10-22T09:27:02Z</time>
      </trkpt>
      <trkpt lat="43.04414" lon="0.79031">
        <ele>496.94000244</ele>
        <time>2020-10-22T09:27:03Z</time>
      </trkpt>
      <trkpt lat="43.04413" lon="0.79036">
        <ele>497.04000854</ele>
        <time>2020-10-22T09:27:04Z</time>
      </trkpt>
      <trkpt lat="43.04412" lon="0.79041">
        <ele>497.26000977</ele>
        <time>2020-10-22T09:27:05Z</time>
      </trkpt>
      <trkpt lat="43.04411" lon="0.79045">
        <ele>497.48001099</ele>
        <time>2020-10-22T09:27:07Z</time>
      </trkpt>
      <trkpt lat="43.04411" lon="0.79048">
        <ele>497.6000061</ele>
        <time>2020-10-22T09:27:08Z</time>
      </trkpt>
      <trkpt lat="43.0441" lon="0.79052">
        <ele>497.55999756</ele>
        <time>2020-10-22T09:27:09Z</time>
      </trkpt>
      <trkpt lat="43.04409" lon="0.79059">
        <ele>497.82000732</ele>
        <time>2020-10-22T09:27:11Z</time>
      </trkpt>
      <trkpt lat="43.04408" lon="0.79063">
        <ele>498.07998657</ele>
        <time>2020-10-22T09:27:12Z</time>
      </trkpt>
      <trkpt lat="43.04406" lon="0.7907">
        <ele>497.79000854</ele>
        <time>2020-10-22T09:27:14Z</time>
      </trkpt>
      <trkpt lat="43.04403" lon="0.79077">
        <ele>498.27999878</ele>
        <time>2020-10-22T09:27:16Z</time>
      </trkpt>
      <trkpt lat="43.04401" lon="0.79082">
        <ele>498.80999756</ele>
        <time>2020-10-22T09:27:17Z</time>
      </trkpt>
      <trkpt lat="43.04398" lon="0.79089">
        <ele>498.72000122</ele>
        <time>2020-10-22T09:27:19Z</time>
      </trkpt>
      <trkpt lat="43.04395" lon="0.79094">
        <ele>499.16000366</ele>
        <time>2020-10-22T09:27:20Z</time>
      </trkpt>
      <trkpt lat="43.04394" lon="0.791">
        <ele>499.54998779</ele>
        <time>2020-10-22T09:27:21Z</time>
      </trkpt>
      <trkpt lat="43.04391" lon="0.79108">
        <ele>500.19000244</ele>
        <time>2020-10-22T09:27:23Z</time>
      </trkpt>
      <trkpt lat="43.04388" lon="0.79116">
        <ele>500.75</ele>
        <time>2020-10-22T09:27:25Z</time>
      </trkpt>
      <trkpt lat="43.04385" lon="0.79125">
        <ele>501.01000977</ele>
        <time>2020-10-22T09:27:27Z</time>
      </trkpt>
      <trkpt lat="43.04383" lon="0.7913">
        <ele>501.13000488</ele>
        <time>2020-10-22T09:27:28Z</time>
      </trkpt>
      <trkpt lat="43.04382" lon="0.79134">
        <ele>501.02999878</ele>
        <time>2020-10-22T09:27:29Z</time>
      </trkpt>
      <trkpt lat="43.04379" lon="0.79139">
        <ele>501.26998901</ele>
        <time>2020-10-22T09:27:30Z</time>
      </trkpt>
      <trkpt lat="43.04377" lon="0.79144">
        <ele>501.32998657</ele>
        <time>2020-10-22T09:27:32Z</time>
      </trkpt>
      <trkpt lat="43.04375" lon="0.79149">
        <ele>501.55999756</ele>
        <time>2020-10-22T09:27:33Z</time>
      </trkpt>
      <trkpt lat="43.04373" lon="0.79153">
        <ele>501.55999756</ele>
        <time>2020-10-22T09:27:34Z</time>
      </trkpt>
      <trkpt lat="43.04371" lon="0.79158">
        <ele>501.82000732</ele>
        <time>2020-10-22T09:27:35Z</time>
      </trkpt>
      <trkpt lat="43.04368" lon="0.79163">
        <ele>501.01000977</ele>
        <time>2020-10-22T09:27:37Z</time>
      </trkpt>
      <trkpt lat="43.04366" lon="0.79167">
        <ele>501.72000122</ele>
        <time>2020-10-22T09:27:38Z</time>
      </trkpt>
      <trkpt lat="43.04364" lon="0.79171">
        <ele>501.72000122</ele>
        <time>2020-10-22T09:27:39Z</time>
      </trkpt>
      <trkpt lat="43.04361" lon="0.79177">
        <ele>502.08999634</ele>
        <time>2020-10-22T09:27:40Z</time>
      </trkpt>
      <trkpt lat="43.04358" lon="0.79182">
        <ele>502.76998901</ele>
        <time>2020-10-22T09:27:42Z</time>
      </trkpt>
      <trkpt lat="43.04354" lon="0.79188">
        <ele>502.92001343</ele>
        <time>2020-10-22T09:27:43Z</time>
      </trkpt>
      <trkpt lat="43.04352" lon="0.79193">
        <ele>502.76998901</ele>
        <time>2020-10-22T09:27:45Z</time>
      </trkpt>
      <trkpt lat="43.04349" lon="0.79196">
        <ele>502.89001465</ele>
        <time>2020-10-22T09:27:46Z</time>
      </trkpt>
      <trkpt lat="43.04345" lon="0.79204">
        <ele>504.57000732</ele>
        <time>2020-10-22T09:27:48Z</time>
      </trkpt>
      <trkpt lat="43.04341" lon="0.79211">
        <ele>504.35998535</ele>
        <time>2020-10-22T09:27:50Z</time>
      </trkpt>
      <trkpt lat="43.04338" lon="0.79218">
        <ele>504.6499939</ele>
        <time>2020-10-22T09:27:51Z</time>
      </trkpt>
      <trkpt lat="43.04335" lon="0.79224">
        <ele>504.80999756</ele>
        <time>2020-10-22T09:27:53Z</time>
      </trkpt>
      <trkpt lat="43.04334" lon="0.79228">
        <ele>505.07000732</ele>
        <time>2020-10-22T09:27:54Z</time>
      </trkpt>
      <trkpt lat="43.04332" lon="0.79232">
        <ele>505.22000122</ele>
        <time>2020-10-22T09:27:55Z</time>
      </trkpt>
      <trkpt lat="43.04332" lon="0.79237">
        <ele>505.76000977</ele>
        <time>2020-10-22T09:27:56Z</time>
      </trkpt>
      <trkpt lat="43.04331" lon="0.79243">
        <ele>506.14001465</ele>
        <time>2020-10-22T09:27:58Z</time>
      </trkpt>
      <trkpt lat="43.04332" lon="0.7925">
        <ele>505.82998657</ele>
        <time>2020-10-22T09:27:59Z</time>
      </trkpt>
      <trkpt lat="43.04331" lon="0.79255">
        <ele>506.32998657</ele>
        <time>2020-10-22T09:28:01Z</time>
      </trkpt>
      <trkpt lat="43.04331" lon="0.79258">
        <ele>507</ele>
        <time>2020-10-22T09:28:02Z</time>
      </trkpt>
      <trkpt lat="43.04331" lon="0.79263">
        <ele>506.88000488</ele>
        <time>2020-10-22T09:28:04Z</time>
      </trkpt>
      <trkpt lat="43.04331" lon="0.79266">
        <ele>507.55999756</ele>
        <time>2020-10-22T09:28:05Z</time>
      </trkpt>
      <trkpt lat="43.04331" lon="0.7927">
        <ele>508.27999878</ele>
        <time>2020-10-22T09:28:06Z</time>
      </trkpt>
      <trkpt lat="43.04331" lon="0.79274">
        <ele>510.01000977</ele>
        <time>2020-10-22T09:28:08Z</time>
      </trkpt>
      <trkpt lat="43.04331" lon="0.79278">
        <ele>510.01000977</ele>
        <time>2020-10-22T09:28:09Z</time>
      </trkpt>
      <trkpt lat="43.04331" lon="0.79281">
        <ele>510.01000977</ele>
        <time>2020-10-22T09:28:10Z</time>
      </trkpt>
      <trkpt lat="43.04331" lon="0.79287">
        <ele>509.66000366</ele>
        <time>2020-10-22T09:28:12Z</time>
      </trkpt>
      <trkpt lat="43.04332" lon="0.79291">
        <ele>509.54998779</ele>
        <time>2020-10-22T09:28:13Z</time>
      </trkpt>
      <trkpt lat="43.04334" lon="0.79294">
        <ele>509.76000977</ele>
        <time>2020-10-22T09:28:14Z</time>
      </trkpt>
      <trkpt lat="43.04335" lon="0.79301">
        <ele>510.07998657</ele>
        <time>2020-10-22T09:28:16Z</time>
      </trkpt>
      <trkpt lat="43.04335" lon="0.79308">
        <ele>510.60998535</ele>
        <time>2020-10-22T09:28:18Z</time>
      </trkpt>
      <trkpt lat="43.04335" lon="0.79312">
        <ele>510.70999146</ele>
        <time>2020-10-22T09:28:19Z</time>
      </trkpt>
      <trkpt lat="43.04335" lon="0.79316">
        <ele>510.70999146</ele>
        <time>2020-10-22T09:28:20Z</time>
      </trkpt>
      <trkpt lat="43.04334" lon="0.79323">
        <ele>511.42001343</ele>
        <time>2020-10-22T09:28:22Z</time>
      </trkpt>
      <trkpt lat="43.04334" lon="0.79326">
        <ele>511.54998779</ele>
        <time>2020-10-22T09:28:23Z</time>
      </trkpt>
      <trkpt lat="43.04334" lon="0.7933">
        <ele>511.66000366</ele>
        <time>2020-10-22T09:28:24Z</time>
      </trkpt>
      <trkpt lat="43.04332" lon="0.79337">
        <ele>512.20001221</ele>
        <time>2020-10-22T09:28:25Z</time>
      </trkpt>
      <trkpt lat="43.04329" lon="0.79345">
        <ele>512.67999268</ele>
        <time>2020-10-22T09:28:27Z</time>
      </trkpt>
      <trkpt lat="43.04322" lon="0.79354">
        <ele>513.5300293</ele>
        <time>2020-10-22T09:28:29Z</time>
      </trkpt>
      <trkpt lat="43.04318" lon="0.79358">
        <ele>513.63000488</ele>
        <time>2020-10-22T09:28:30Z</time>
      </trkpt>
      <trkpt lat="43.04314" lon="0.79364">
        <ele>513.83001709</ele>
        <time>2020-10-22T09:28:32Z</time>
      </trkpt>
      <trkpt lat="43.04312" lon="0.79367">
        <ele>513.75</ele>
        <time>2020-10-22T09:28:34Z</time>
      </trkpt>
      <trkpt lat="43.04309" lon="0.7937">
        <ele>514.01000977</ele>
        <time>2020-10-22T09:28:35Z</time>
      </trkpt>
      <trkpt lat="43.04307" lon="0.79373">
        <ele>515.21002197</ele>
        <time>2020-10-22T09:28:36Z</time>
      </trkpt>
      <trkpt lat="43.04304" lon="0.79375">
        <ele>515.67999268</ele>
        <time>2020-10-22T09:28:37Z</time>
      </trkpt>
      <trkpt lat="43.04302" lon="0.79379">
        <ele>515.67999268</ele>
        <time>2020-10-22T09:28:38Z</time>
      </trkpt>
      <trkpt lat="43.04299" lon="0.79386">
        <ele>516.9699707</ele>
        <time>2020-10-22T09:28:40Z</time>
      </trkpt>
      <trkpt lat="43.04299" lon="0.79391">
        <ele>516.65997314</ele>
        <time>2020-10-22T09:28:41Z</time>
      </trkpt>
      <trkpt lat="43.04299" lon="0.79398">
        <ele>517.16998291</ele>
        <time>2020-10-22T09:28:42Z</time>
      </trkpt>
      <trkpt lat="43.043" lon="0.79401">
        <ele>517.72998047</ele>
        <time>2020-10-22T09:28:44Z</time>
      </trkpt>
      <trkpt lat="43.043" lon="0.79404">
        <ele>518.72998047</ele>
        <time>2020-10-22T09:28:45Z</time>
      </trkpt>
      <trkpt lat="43.04301" lon="0.79409">
        <ele>519.17999268</ele>
        <time>2020-10-22T09:28:47Z</time>
      </trkpt>
      <trkpt lat="43.04302" lon="0.79413">
        <ele>519.27001953</ele>
        <time>2020-10-22T09:28:48Z</time>
      </trkpt>
      <trkpt lat="43.04303" lon="0.79415">
        <ele>519.27001953</ele>
        <time>2020-10-22T09:28:49Z</time>
      </trkpt>
      <trkpt lat="43.04305" lon="0.79418">
        <ele>519.40002441</ele>
        <time>2020-10-22T09:28:50Z</time>
      </trkpt>
      <trkpt lat="43.04308" lon="0.79423">
        <ele>520.77001953</ele>
        <time>2020-10-22T09:28:51Z</time>
      </trkpt>
      <trkpt lat="43.0431" lon="0.79427">
        <ele>520.98999023</ele>
        <time>2020-10-22T09:28:53Z</time>
      </trkpt>
      <trkpt lat="43.04311" lon="0.7943">
        <ele>521.30999756</ele>
        <time>2020-10-22T09:28:54Z</time>
      </trkpt>
      <trkpt lat="43.04313" lon="0.79434">
        <ele>521.66998291</ele>
        <time>2020-10-22T09:28:55Z</time>
      </trkpt>
      <trkpt lat="43.04314" lon="0.79437">
        <ele>521.88000488</ele>
        <time>2020-10-22T09:28:56Z</time>
      </trkpt>
      <trkpt lat="43.04316" lon="0.7944">
        <ele>522.42999268</ele>
        <time>2020-10-22T09:28:57Z</time>
      </trkpt>
      <trkpt lat="43.04317" lon="0.79443">
        <ele>522.35998535</ele>
        <time>2020-10-22T09:28:59Z</time>
      </trkpt>
      <trkpt lat="43.04317" lon="0.79447">
        <ele>522.39001465</ele>
        <time>2020-10-22T09:29:00Z</time>
      </trkpt>
      <trkpt lat="43.04318" lon="0.79451">
        <ele>523.21002197</ele>
        <time>2020-10-22T09:29:01Z</time>
      </trkpt>
      <trkpt lat="43.04319" lon="0.79457">
        <ele>523.59997559</ele>
        <time>2020-10-22T09:29:02Z</time>
      </trkpt>
      <trkpt lat="43.0432" lon="0.79461">
        <ele>524.19000244</ele>
        <time>2020-10-22T09:29:04Z</time>
      </trkpt>
      <trkpt lat="43.04321" lon="0.79465">
        <ele>524.65002441</ele>
        <time>2020-10-22T09:29:05Z</time>
      </trkpt>
      <trkpt lat="43.04323" lon="0.79468">
        <ele>525.16998291</ele>
        <time>2020-10-22T09:29:06Z</time>
      </trkpt>
      <trkpt lat="43.04324" lon="0.79473">
        <ele>525.04998779</ele>
        <time>2020-10-22T09:29:07Z</time>
      </trkpt>
      <trkpt lat="43.04325" lon="0.79477">
        <ele>525.27001953</ele>
        <time>2020-10-22T09:29:08Z</time>
      </trkpt>
      <trkpt lat="43.04326" lon="0.79481">
        <ele>525.44000244</ele>
        <time>2020-10-22T09:29:10Z</time>
      </trkpt>
      <trkpt lat="43.04327" lon="0.79485">
        <ele>525.58001709</ele>
        <time>2020-10-22T09:29:11Z</time>
      </trkpt>
      <trkpt lat="43.04328" lon="0.79489">
        <ele>526.2199707</ele>
        <time>2020-10-22T09:29:12Z</time>
      </trkpt>
      <trkpt lat="43.04329" lon="0.79493">
        <ele>526.69000244</ele>
        <time>2020-10-22T09:29:13Z</time>
      </trkpt>
      <trkpt lat="43.0433" lon="0.79498">
        <ele>527.57000732</ele>
        <time>2020-10-22T09:29:14Z</time>
      </trkpt>
      <trkpt lat="43.04331" lon="0.79503">
        <ele>528.09997559</ele>
        <time>2020-10-22T09:29:16Z</time>
      </trkpt>
      <trkpt lat="43.04332" lon="0.79507">
        <ele>528.5</ele>
        <time>2020-10-22T09:29:17Z</time>
      </trkpt>
      <trkpt lat="43.04334" lon="0.79512">
        <ele>528.97998047</ele>
        <time>2020-10-22T09:29:19Z</time>
      </trkpt>
      <trkpt lat="43.04334" lon="0.79515">
        <ele>529.53997803</ele>
        <time>2020-10-22T09:29:20Z</time>
      </trkpt>
      <trkpt lat="43.04336" lon="0.79521">
        <ele>529.95001221</ele>
        <time>2020-10-22T09:29:22Z</time>
      </trkpt>
      <trkpt lat="43.04337" lon="0.79524">
        <ele>530.53997803</ele>
        <time>2020-10-22T09:29:23Z</time>
      </trkpt>
      <trkpt lat="43.04338" lon="0.7953">
        <ele>530.7800293</ele>
        <time>2020-10-22T09:29:25Z</time>
      </trkpt>
      <trkpt lat="43.04339" lon="0.79533">
        <ele>531.25</ele>
        <time>2020-10-22T09:29:26Z</time>
      </trkpt>
      <trkpt lat="43.04339" lon="0.79539">
        <ele>531.78997803</ele>
        <time>2020-10-22T09:29:28Z</time>
      </trkpt>
      <trkpt lat="43.0434" lon="0.79542">
        <ele>532.44000244</ele>
        <time>2020-10-22T09:29:29Z</time>
      </trkpt>
      <trkpt lat="43.04341" lon="0.79545">
        <ele>532.69000244</ele>
        <time>2020-10-22T09:29:30Z</time>
      </trkpt>
      <trkpt lat="43.04342" lon="0.79548">
        <ele>533.41998291</ele>
        <time>2020-10-22T09:29:31Z</time>
      </trkpt>
      <trkpt lat="43.04342" lon="0.79551">
        <ele>533.41998291</ele>
        <time>2020-10-22T09:29:32Z</time>
      </trkpt>
      <trkpt lat="43.04343" lon="0.79555">
        <ele>533.46002197</ele>
        <time>2020-10-22T09:29:33Z</time>
      </trkpt>
      <trkpt lat="43.04344" lon="0.79559">
        <ele>534.13000488</ele>
        <time>2020-10-22T09:29:35Z</time>
      </trkpt>
      <trkpt lat="43.04346" lon="0.79566">
        <ele>534.70001221</ele>
        <time>2020-10-22T09:29:37Z</time>
      </trkpt>
      <trkpt lat="43.04347" lon="0.79571">
        <ele>534.96002197</ele>
        <time>2020-10-22T09:29:38Z</time>
      </trkpt>
      <trkpt lat="43.04348" lon="0.79578">
        <ele>535.7800293</ele>
        <time>2020-10-22T09:29:40Z</time>
      </trkpt>
      <trkpt lat="43.04349" lon="0.79584">
        <ele>536.64001465</ele>
        <time>2020-10-22T09:29:41Z</time>
      </trkpt>
      <trkpt lat="43.0435" lon="0.79589">
        <ele>536.71002197</ele>
        <time>2020-10-22T09:29:43Z</time>
      </trkpt>
      <trkpt lat="43.04352" lon="0.79596">
        <ele>537.58001709</ele>
        <time>2020-10-22T09:29:45Z</time>
      </trkpt>
      <trkpt lat="43.04353" lon="0.796">
        <ele>537.58001709</ele>
        <time>2020-10-22T09:29:46Z</time>
      </trkpt>
      <trkpt lat="43.04354" lon="0.79605">
        <ele>538.92999268</ele>
        <time>2020-10-22T09:29:47Z</time>
      </trkpt>
      <trkpt lat="43.04354" lon="0.7961">
        <ele>538.95001221</ele>
        <time>2020-10-22T09:29:48Z</time>
      </trkpt>
      <trkpt lat="43.04355" lon="0.79613">
        <ele>539.97998047</ele>
        <time>2020-10-22T09:29:49Z</time>
      </trkpt>
      <trkpt lat="43.04357" lon="0.79617">
        <ele>540.28997803</ele>
        <time>2020-10-22T09:29:50Z</time>
      </trkpt>
      <trkpt lat="43.04358" lon="0.79621">
        <ele>540.45001221</ele>
        <time>2020-10-22T09:29:52Z</time>
      </trkpt>
      <trkpt lat="43.0436" lon="0.79627">
        <ele>541.41998291</ele>
        <time>2020-10-22T09:29:54Z</time>
      </trkpt>
      <trkpt lat="43.04362" lon="0.79631">
        <ele>541.41998291</ele>
        <time>2020-10-22T09:29:55Z</time>
      </trkpt>
      <trkpt lat="43.04363" lon="0.79637">
        <ele>542.15997314</ele>
        <time>2020-10-22T09:29:57Z</time>
      </trkpt>
      <trkpt lat="43.04363" lon="0.79642">
        <ele>543.01000977</ele>
        <time>2020-10-22T09:29:58Z</time>
      </trkpt>
      <trkpt lat="43.04362" lon="0.79645">
        <ele>543.61999512</ele>
        <time>2020-10-22T09:30:00Z</time>
      </trkpt>
      <trkpt lat="43.04361" lon="0.79649">
        <ele>543.73999023</ele>
        <time>2020-10-22T09:30:01Z</time>
      </trkpt>
      <trkpt lat="43.04359" lon="0.79652">
        <ele>544.30999756</ele>
        <time>2020-10-22T09:30:02Z</time>
      </trkpt>
      <trkpt lat="43.04356" lon="0.79656">
        <ele>544.32000732</ele>
        <time>2020-10-22T09:30:04Z</time>
      </trkpt>
      <trkpt lat="43.04355" lon="0.79658">
        <ele>544.65002441</ele>
        <time>2020-10-22T09:30:05Z</time>
      </trkpt>
      <trkpt lat="43.04353" lon="0.79659">
        <ele>544.79998779</ele>
        <time>2020-10-22T09:30:06Z</time>
      </trkpt>
      <trkpt lat="43.0435" lon="0.79662">
        <ele>545.71002197</ele>
        <time>2020-10-22T09:30:08Z</time>
      </trkpt>
      <trkpt lat="43.04348" lon="0.79663">
        <ele>545.71002197</ele>
        <time>2020-10-22T09:30:09Z</time>
      </trkpt>
      <trkpt lat="43.04344" lon="0.79663">
        <ele>546.21002197</ele>
        <time>2020-10-22T09:30:10Z</time>
      </trkpt>
      <trkpt lat="43.04341" lon="0.79662">
        <ele>547.15997314</ele>
        <time>2020-10-22T09:30:12Z</time>
      </trkpt>
      <trkpt lat="43.04338" lon="0.79661">
        <ele>547.15997314</ele>
        <time>2020-10-22T09:30:13Z</time>
      </trkpt>
      <trkpt lat="43.04335" lon="0.79659">
        <ele>548.48999023</ele>
        <time>2020-10-22T09:30:14Z</time>
      </trkpt>
      <trkpt lat="43.04333" lon="0.79657">
        <ele>549.13000488</ele>
        <time>2020-10-22T09:30:16Z</time>
      </trkpt>
      <trkpt lat="43.04329" lon="0.79655">
        <ele>549.75</ele>
        <time>2020-10-22T09:30:18Z</time>
      </trkpt>
      <trkpt lat="43.04324" lon="0.79653">
        <ele>550.02001953</ele>
        <time>2020-10-22T09:30:20Z</time>
      </trkpt>
      <trkpt lat="43.04321" lon="0.79653">
        <ele>550.73999023</ele>
        <time>2020-10-22T09:30:21Z</time>
      </trkpt>
      <trkpt lat="43.04318" lon="0.79654">
        <ele>551.63000488</ele>
        <time>2020-10-22T09:30:22Z</time>
      </trkpt>
      <trkpt lat="43.04316" lon="0.79655">
        <ele>552.34002686</ele>
        <time>2020-10-22T09:30:23Z</time>
      </trkpt>
      <trkpt lat="43.04313" lon="0.79657">
        <ele>552.61999512</ele>
        <time>2020-10-22T09:30:24Z</time>
      </trkpt>
      <trkpt lat="43.04311" lon="0.79659">
        <ele>553.2800293</ele>
        <time>2020-10-22T09:30:26Z</time>
      </trkpt>
      <trkpt lat="43.04308" lon="0.79662">
        <ele>553.39001465</ele>
        <time>2020-10-22T09:30:27Z</time>
      </trkpt>
      <trkpt lat="43.04305" lon="0.79666">
        <ele>553.69000244</ele>
        <time>2020-10-22T09:30:28Z</time>
      </trkpt>
      <trkpt lat="43.04303" lon="0.7967">
        <ele>554.66998291</ele>
        <time>2020-10-22T09:30:30Z</time>
      </trkpt>
      <trkpt lat="43.04301" lon="0.79673">
        <ele>554.85998535</ele>
        <time>2020-10-22T09:30:32Z</time>
      </trkpt>
      <trkpt lat="43.04297" lon="0.79678">
        <ele>556.01000977</ele>
        <time>2020-10-22T09:30:34Z</time>
      </trkpt>
      <trkpt lat="43.04295" lon="0.79683">
        <ele>556.40002441</ele>
        <time>2020-10-22T09:30:35Z</time>
      </trkpt>
      <trkpt lat="43.04292" lon="0.79688">
        <ele>556.52001953</ele>
        <time>2020-10-22T09:30:37Z</time>
      </trkpt>
      <trkpt lat="43.04291" lon="0.79697">
        <ele>557.19000244</ele>
        <time>2020-10-22T09:30:39Z</time>
      </trkpt>
      <trkpt lat="43.0429" lon="0.79703">
        <ele>557.5</ele>
        <time>2020-10-22T09:30:40Z</time>
      </trkpt>
      <trkpt lat="43.04288" lon="0.79709">
        <ele>558.0300293</ele>
        <time>2020-10-22T09:30:41Z</time>
      </trkpt>
      <trkpt lat="43.04287" lon="0.79714">
        <ele>557.98999023</ele>
        <time>2020-10-22T09:30:43Z</time>
      </trkpt>
      <trkpt lat="43.04287" lon="0.79718">
        <ele>558.36999512</ele>
        <time>2020-10-22T09:30:44Z</time>
      </trkpt>
      <trkpt lat="43.04287" lon="0.7972">
        <ele>558.42999268</ele>
        <time>2020-10-22T09:30:45Z</time>
      </trkpt>
      <trkpt lat="43.04286" lon="0.79723">
        <ele>558.70001221</ele>
        <time>2020-10-22T09:30:46Z</time>
      </trkpt>
      <trkpt lat="43.04285" lon="0.79727">
        <ele>559.2199707</ele>
        <time>2020-10-22T09:30:48Z</time>
      </trkpt>
      <trkpt lat="43.04285" lon="0.79731">
        <ele>559.13000488</ele>
        <time>2020-10-22T09:30:49Z</time>
      </trkpt>
      <trkpt lat="43.04284" lon="0.79733">
        <ele>559.10998535</ele>
        <time>2020-10-22T09:30:50Z</time>
      </trkpt>
      <trkpt lat="43.04282" lon="0.79738">
        <ele>559.5300293</ele>
        <time>2020-10-22T09:30:52Z</time>
      </trkpt>
      <trkpt lat="43.04279" lon="0.79744">
        <ele>559.86999512</ele>
        <time>2020-10-22T09:30:54Z</time>
      </trkpt>
      <trkpt lat="43.04277" lon="0.79748">
        <ele>560.15997314</ele>
        <time>2020-10-22T09:30:55Z</time>
      </trkpt>
      <trkpt lat="43.04275" lon="0.79752">
        <ele>560.72998047</ele>
        <time>2020-10-22T09:30:56Z</time>
      </trkpt>
      <trkpt lat="43.04272" lon="0.79756">
        <ele>561.08001709</ele>
        <time>2020-10-22T09:30:58Z</time>
      </trkpt>
      <trkpt lat="43.0427" lon="0.79759">
        <ele>561.41998291</ele>
        <time>2020-10-22T09:30:59Z</time>
      </trkpt>
      <trkpt lat="43.04266" lon="0.79764">
        <ele>562.25</ele>
        <time>2020-10-22T09:31:01Z</time>
      </trkpt>
      <trkpt lat="43.04264" lon="0.79767">
        <ele>562.46002197</ele>
        <time>2020-10-22T09:31:02Z</time>
      </trkpt>
      <trkpt lat="43.0426" lon="0.79771">
        <ele>562.98999023</ele>
        <time>2020-10-22T09:31:04Z</time>
      </trkpt>
      <trkpt lat="43.04258" lon="0.79773">
        <ele>562.98999023</ele>
        <time>2020-10-22T09:31:05Z</time>
      </trkpt>
      <trkpt lat="43.04256" lon="0.79775">
        <ele>563.82000732</ele>
        <time>2020-10-22T09:31:06Z</time>
      </trkpt>
      <trkpt lat="43.04253" lon="0.79779">
        <ele>565.19000244</ele>
        <time>2020-10-22T09:31:07Z</time>
      </trkpt>
      <trkpt lat="43.04251" lon="0.79782">
        <ele>565.57000732</ele>
        <time>2020-10-22T09:31:08Z</time>
      </trkpt>
      <trkpt lat="43.04248" lon="0.79785">
        <ele>566.40002441</ele>
        <time>2020-10-22T09:31:09Z</time>
      </trkpt>
      <trkpt lat="43.04246" lon="0.79788">
        <ele>567.78997803</ele>
        <time>2020-10-22T09:31:10Z</time>
      </trkpt>
      <trkpt lat="43.04243" lon="0.79793">
        <ele>568.15997314</ele>
        <time>2020-10-22T09:31:12Z</time>
      </trkpt>
      <trkpt lat="43.0424" lon="0.79797">
        <ele>568.7199707</ele>
        <time>2020-10-22T09:31:13Z</time>
      </trkpt>
      <trkpt lat="43.04237" lon="0.79801">
        <ele>568.78997803</ele>
        <time>2020-10-22T09:31:14Z</time>
      </trkpt>
      <trkpt lat="43.04235" lon="0.79804">
        <ele>569.13000488</ele>
        <time>2020-10-22T09:31:15Z</time>
      </trkpt>
      <trkpt lat="43.04232" lon="0.79808">
        <ele>569.2199707</ele>
        <time>2020-10-22T09:31:17Z</time>
      </trkpt>
      <trkpt lat="43.0423" lon="0.79811">
        <ele>569.15997314</ele>
        <time>2020-10-22T09:31:18Z</time>
      </trkpt>
      <trkpt lat="43.04227" lon="0.79814">
        <ele>569.25</ele>
        <time>2020-10-22T09:31:19Z</time>
      </trkpt>
      <trkpt lat="43.04223" lon="0.79816">
        <ele>569.40997314</ele>
        <time>2020-10-22T09:31:21Z</time>
      </trkpt>
      <trkpt lat="43.0422" lon="0.7982">
        <ele>572.01000977</ele>
        <time>2020-10-22T09:31:22Z</time>
      </trkpt>
      <trkpt lat="43.04216" lon="0.79824">
        <ele>572.01000977</ele>
        <time>2020-10-22T09:31:24Z</time>
      </trkpt>
      <trkpt lat="43.04213" lon="0.79827">
        <ele>573.28997803</ele>
        <time>2020-10-22T09:31:25Z</time>
      </trkpt>
      <trkpt lat="43.0421" lon="0.79829">
        <ele>573.59002686</ele>
        <time>2020-10-22T09:31:26Z</time>
      </trkpt>
      <trkpt lat="43.04206" lon="0.79831">
        <ele>573.79998779</ele>
        <time>2020-10-22T09:31:27Z</time>
      </trkpt>
      <trkpt lat="43.04203" lon="0.79833">
        <ele>573.58001709</ele>
        <time>2020-10-22T09:31:28Z</time>
      </trkpt>
      <trkpt lat="43.042" lon="0.79834">
        <ele>573.28997803</ele>
        <time>2020-10-22T09:31:29Z</time>
      </trkpt>
      <trkpt lat="43.04196" lon="0.79835">
        <ele>573.26000977</ele>
        <time>2020-10-22T09:31:31Z</time>
      </trkpt>
      <trkpt lat="43.04193" lon="0.79836">
        <ele>573.23999023</ele>
        <time>2020-10-22T09:31:32Z</time>
      </trkpt>
      <trkpt lat="43.04189" lon="0.79837">
        <ele>574.27001953</ele>
        <time>2020-10-22T09:31:33Z</time>
      </trkpt>
      <trkpt lat="43.04184" lon="0.79837">
        <ele>574.5</ele>
        <time>2020-10-22T09:31:34Z</time>
      </trkpt>
      <trkpt lat="43.0418" lon="0.79837">
        <ele>574.5300293</ele>
        <time>2020-10-22T09:31:36Z</time>
      </trkpt>
      <trkpt lat="43.04173" lon="0.79838">
        <ele>574.61999512</ele>
        <time>2020-10-22T09:31:38Z</time>
      </trkpt>
      <trkpt lat="43.04167" lon="0.79838">
        <ele>575.09997559</ele>
        <time>2020-10-22T09:31:40Z</time>
      </trkpt>
      <trkpt lat="43.04163" lon="0.79837">
        <ele>575.40002441</ele>
        <time>2020-10-22T09:31:41Z</time>
      </trkpt>
      <trkpt lat="43.04159" lon="0.79837">
        <ele>575.59002686</ele>
        <time>2020-10-22T09:31:43Z</time>
      </trkpt>
      <trkpt lat="43.04156" lon="0.79838">
        <ele>576.09002686</ele>
        <time>2020-10-22T09:31:44Z</time>
      </trkpt>
      <trkpt lat="43.04154" lon="0.79839">
        <ele>576.7199707</ele>
        <time>2020-10-22T09:31:45Z</time>
      </trkpt>
      <trkpt lat="43.0415" lon="0.79839">
        <ele>576.83001709</ele>
        <time>2020-10-22T09:31:47Z</time>
      </trkpt>
      <trkpt lat="43.04146" lon="0.79839">
        <ele>577.22998047</ele>
        <time>2020-10-22T09:31:48Z</time>
      </trkpt>
      <trkpt lat="43.04144" lon="0.79839">
        <ele>577.27001953</ele>
        <time>2020-10-22T09:31:49Z</time>
      </trkpt>
      <trkpt lat="43.04141" lon="0.79841">
        <ele>577.13000488</ele>
        <time>2020-10-22T09:31:50Z</time>
      </trkpt>
      <trkpt lat="43.04136" lon="0.79842">
        <ele>578.91998291</ele>
        <time>2020-10-22T09:31:52Z</time>
      </trkpt>
      <trkpt lat="43.04133" lon="0.79845">
        <ele>579.25</ele>
        <time>2020-10-22T09:31:53Z</time>
      </trkpt>
      <trkpt lat="43.04129" lon="0.79849">
        <ele>579.55999756</ele>
        <time>2020-10-22T09:31:54Z</time>
      </trkpt>
      <trkpt lat="43.04124" lon="0.79852">
        <ele>579.79998779</ele>
        <time>2020-10-22T09:31:56Z</time>
      </trkpt>
      <trkpt lat="43.0412" lon="0.79855">
        <ele>579.19000244</ele>
        <time>2020-10-22T09:31:57Z</time>
      </trkpt>
      <trkpt lat="43.04115" lon="0.79858">
        <ele>578.92999268</ele>
        <time>2020-10-22T09:31:58Z</time>
      </trkpt>
      <trkpt lat="43.04111" lon="0.79861">
        <ele>578.90997314</ele>
        <time>2020-10-22T09:32:00Z</time>
      </trkpt>
      <trkpt lat="43.04106" lon="0.79864">
        <ele>578.71002197</ele>
        <time>2020-10-22T09:32:01Z</time>
      </trkpt>
      <trkpt lat="43.04102" lon="0.79867">
        <ele>578.7800293</ele>
        <time>2020-10-22T09:32:03Z</time>
      </trkpt>
      <trkpt lat="43.04099" lon="0.79869">
        <ele>579.03997803</ele>
        <time>2020-10-22T09:32:04Z</time>
      </trkpt>
      <trkpt lat="43.04095" lon="0.79872">
        <ele>578.90002441</ele>
        <time>2020-10-22T09:32:05Z</time>
      </trkpt>
      <trkpt lat="43.04091" lon="0.79875">
        <ele>581.54998779</ele>
        <time>2020-10-22T09:32:07Z</time>
      </trkpt>
      <trkpt lat="43.04086" lon="0.79884">
        <ele>582.23999023</ele>
        <time>2020-10-22T09:32:08Z</time>
      </trkpt>
      <trkpt lat="43.04083" lon="0.79889">
        <ele>582.63000488</ele>
        <time>2020-10-22T09:32:10Z</time>
      </trkpt>
      <trkpt lat="43.0408" lon="0.79894">
        <ele>582.88000488</ele>
        <time>2020-10-22T09:32:11Z</time>
      </trkpt>
      <trkpt lat="43.04077" lon="0.79899">
        <ele>583.46002197</ele>
        <time>2020-10-22T09:32:12Z</time>
      </trkpt>
      <trkpt lat="43.04072" lon="0.79907">
        <ele>583.95001221</ele>
        <time>2020-10-22T09:32:14Z</time>
      </trkpt>
      <trkpt lat="43.04068" lon="0.79912">
        <ele>584.28997803</ele>
        <time>2020-10-22T09:32:15Z</time>
      </trkpt>
      <trkpt lat="43.04063" lon="0.79919">
        <ele>583.95001221</ele>
        <time>2020-10-22T09:32:16Z</time>
      </trkpt>
      <trkpt lat="43.04059" lon="0.79923">
        <ele>583.90002441</ele>
        <time>2020-10-22T09:32:18Z</time>
      </trkpt>
      <trkpt lat="43.04055" lon="0.7993">
        <ele>586.58001709</ele>
        <time>2020-10-22T09:32:20Z</time>
      </trkpt>
      <trkpt lat="43.04052" lon="0.79934">
        <ele>586.54998779</ele>
        <time>2020-10-22T09:32:21Z</time>
      </trkpt>
      <trkpt lat="43.0405" lon="0.79938">
        <ele>586.22998047</ele>
        <time>2020-10-22T09:32:22Z</time>
      </trkpt>
      <trkpt lat="43.04047" lon="0.79945">
        <ele>586.15002441</ele>
        <time>2020-10-22T09:32:23Z</time>
      </trkpt>
      <trkpt lat="43.04044" lon="0.79949">
        <ele>586.05999756</ele>
        <time>2020-10-22T09:32:24Z</time>
      </trkpt>
      <trkpt lat="43.04042" lon="0.79953">
        <ele>585.52001953</ele>
        <time>2020-10-22T09:32:26Z</time>
      </trkpt>
      <trkpt lat="43.0404" lon="0.79957">
        <ele>585.40997314</ele>
        <time>2020-10-22T09:32:27Z</time>
      </trkpt>
      <trkpt lat="43.04037" lon="0.79961">
        <ele>584.94000244</ele>
        <time>2020-10-22T09:32:28Z</time>
      </trkpt>
      <trkpt lat="43.04033" lon="0.79965">
        <ele>584.97998047</ele>
        <time>2020-10-22T09:32:30Z</time>
      </trkpt>
      <trkpt lat="43.0403" lon="0.79968">
        <ele>585.19000244</ele>
        <time>2020-10-22T09:32:31Z</time>
      </trkpt>
      <trkpt lat="43.04025" lon="0.79972">
        <ele>585.9699707</ele>
        <time>2020-10-22T09:32:32Z</time>
      </trkpt>
      <trkpt lat="43.04022" lon="0.79975">
        <ele>586.38000488</ele>
        <time>2020-10-22T09:32:34Z</time>
      </trkpt>
      <trkpt lat="43.04019" lon="0.79979">
        <ele>587.21002197</ele>
        <time>2020-10-22T09:32:35Z</time>
      </trkpt>
      <trkpt lat="43.04015" lon="0.79983">
        <ele>587.33001709</ele>
        <time>2020-10-22T09:32:36Z</time>
      </trkpt>
      <trkpt lat="43.04012" lon="0.79986">
        <ele>587.58001709</ele>
        <time>2020-10-22T09:32:38Z</time>
      </trkpt>
      <trkpt lat="43.0401" lon="0.79988">
        <ele>587.9699707</ele>
        <time>2020-10-22T09:32:39Z</time>
      </trkpt>
      <trkpt lat="43.04006" lon="0.79992">
        <ele>588.35998535</ele>
        <time>2020-10-22T09:32:40Z</time>
      </trkpt>
      <trkpt lat="43.04003" lon="0.79995">
        <ele>589.26000977</ele>
        <time>2020-10-22T09:32:42Z</time>
      </trkpt>
      <trkpt lat="43.04" lon="0.79997">
        <ele>589.66998291</ele>
        <time>2020-10-22T09:32:43Z</time>
      </trkpt>
      <trkpt lat="43.03998" lon="0.8">
        <ele>589.59002686</ele>
        <time>2020-10-22T09:32:44Z</time>
      </trkpt>
      <trkpt lat="43.03995" lon="0.80001">
        <ele>589.59002686</ele>
        <time>2020-10-22T09:32:45Z</time>
      </trkpt>
      <trkpt lat="43.03991" lon="0.80004">
        <ele>591.09002686</ele>
        <time>2020-10-22T09:32:46Z</time>
      </trkpt>
      <trkpt lat="43.03988" lon="0.80006">
        <ele>591.27001953</ele>
        <time>2020-10-22T09:32:47Z</time>
      </trkpt>
      <trkpt lat="43.03985" lon="0.80009">
        <ele>591.46002197</ele>
        <time>2020-10-22T09:32:48Z</time>
      </trkpt>
      <trkpt lat="43.03982" lon="0.80012">
        <ele>592.20001221</ele>
        <time>2020-10-22T09:32:50Z</time>
      </trkpt>
      <trkpt lat="43.03979" lon="0.80014">
        <ele>592.20001221</ele>
        <time>2020-10-22T09:32:51Z</time>
      </trkpt>
      <trkpt lat="43.03973" lon="0.80019">
        <ele>592.28997803</ele>
        <time>2020-10-22T09:32:53Z</time>
      </trkpt>
      <trkpt lat="43.03971" lon="0.80021">
        <ele>592.83001709</ele>
        <time>2020-10-22T09:32:54Z</time>
      </trkpt>
      <trkpt lat="43.03968" lon="0.80024">
        <ele>593.4699707</ele>
        <time>2020-10-22T09:32:55Z</time>
      </trkpt>
      <trkpt lat="43.03964" lon="0.80029">
        <ele>592.86999512</ele>
        <time>2020-10-22T09:32:56Z</time>
      </trkpt>
      <trkpt lat="43.03961" lon="0.80034">
        <ele>593.19000244</ele>
        <time>2020-10-22T09:32:58Z</time>
      </trkpt>
      <trkpt lat="43.03958" lon="0.80037">
        <ele>595.84002686</ele>
        <time>2020-10-22T09:32:59Z</time>
      </trkpt>
      <trkpt lat="43.03953" lon="0.80046">
        <ele>595.98999023</ele>
        <time>2020-10-22T09:33:00Z</time>
      </trkpt>
      <trkpt lat="43.03948" lon="0.80056">
        <ele>596.27001953</ele>
        <time>2020-10-22T09:33:02Z</time>
      </trkpt>
      <trkpt lat="43.03944" lon="0.80061">
        <ele>596.57000732</ele>
        <time>2020-10-22T09:33:03Z</time>
      </trkpt>
      <trkpt lat="43.03937" lon="0.80068">
        <ele>596.48999023</ele>
        <time>2020-10-22T09:33:05Z</time>
      </trkpt>
      <trkpt lat="43.03931" lon="0.80075">
        <ele>597.69000244</ele>
        <time>2020-10-22T09:33:06Z</time>
      </trkpt>
      <trkpt lat="43.03927" lon="0.80079">
        <ele>597.59997559</ele>
        <time>2020-10-22T09:33:08Z</time>
      </trkpt>
      <trkpt lat="43.03924" lon="0.80082">
        <ele>597.34997559</ele>
        <time>2020-10-22T09:33:09Z</time>
      </trkpt>
      <trkpt lat="43.03919" lon="0.80087">
        <ele>598.46002197</ele>
        <time>2020-10-22T09:33:10Z</time>
      </trkpt>
      <trkpt lat="43.03915" lon="0.80091">
        <ele>599.14001465</ele>
        <time>2020-10-22T09:33:12Z</time>
      </trkpt>
      <trkpt lat="43.03912" lon="0.80093">
        <ele>599.94000244</ele>
        <time>2020-10-22T09:33:13Z</time>
      </trkpt>
      <trkpt lat="43.0391" lon="0.80096">
        <ele>600.54998779</ele>
        <time>2020-10-22T09:33:14Z</time>
      </trkpt>
      <trkpt lat="43.03907" lon="0.801">
        <ele>600.82000732</ele>
        <time>2020-10-22T09:33:15Z</time>
      </trkpt>
      <trkpt lat="43.03905" lon="0.80103">
        <ele>600.94000244</ele>
        <time>2020-10-22T09:33:16Z</time>
      </trkpt>
      <trkpt lat="43.03902" lon="0.80108">
        <ele>602.10998535</ele>
        <time>2020-10-22T09:33:18Z</time>
      </trkpt>
      <trkpt lat="43.03899" lon="0.80112">
        <ele>602.09002686</ele>
        <time>2020-10-22T09:33:20Z</time>
      </trkpt>
      <trkpt lat="43.03897" lon="0.80114">
        <ele>602.51000977</ele>
        <time>2020-10-22T09:33:21Z</time>
      </trkpt>
      <trkpt lat="43.03893" lon="0.80117">
        <ele>602.89001465</ele>
        <time>2020-10-22T09:33:22Z</time>
      </trkpt>
      <trkpt lat="43.03891" lon="0.80118">
        <ele>603.01000977</ele>
        <time>2020-10-22T09:33:23Z</time>
      </trkpt>
      <trkpt lat="43.03886" lon="0.80121">
        <ele>602.17999268</ele>
        <time>2020-10-22T09:33:25Z</time>
      </trkpt>
      <trkpt lat="43.03883" lon="0.80121">
        <ele>602.80999756</ele>
        <time>2020-10-22T09:33:26Z</time>
      </trkpt>
      <trkpt lat="43.0388" lon="0.80121">
        <ele>603.15997314</ele>
        <time>2020-10-22T09:33:27Z</time>
      </trkpt>
      <trkpt lat="43.03876" lon="0.80122">
        <ele>603.97998047</ele>
        <time>2020-10-22T09:33:29Z</time>
      </trkpt>
      <trkpt lat="43.03875" lon="0.80125">
        <ele>605.48999023</ele>
        <time>2020-10-22T09:33:30Z</time>
      </trkpt>
      <trkpt lat="43.03874" lon="0.80128">
        <ele>606.44000244</ele>
        <time>2020-10-22T09:33:31Z</time>
      </trkpt>
      <trkpt lat="43.03874" lon="0.80132">
        <ele>607.80999756</ele>
        <time>2020-10-22T09:33:33Z</time>
      </trkpt>
      <trkpt lat="43.03873" lon="0.80135">
        <ele>608.32000732</ele>
        <time>2020-10-22T09:33:34Z</time>
      </trkpt>
      <trkpt lat="43.03872" lon="0.80138">
        <ele>608.76000977</ele>
        <time>2020-10-22T09:33:35Z</time>
      </trkpt>
      <trkpt lat="43.03871" lon="0.8014">
        <ele>609.20001221</ele>
        <time>2020-10-22T09:33:36Z</time>
      </trkpt>
      <trkpt lat="43.0387" lon="0.80143">
        <ele>610.08001709</ele>
        <time>2020-10-22T09:33:38Z</time>
      </trkpt>
      <trkpt lat="43.03872" lon="0.80149">
        <ele>614.38000488</ele>
        <time>2020-10-22T09:33:57Z</time>
      </trkpt>
      <trkpt lat="43.03868" lon="0.80155">
        <ele>615.58001709</ele>
        <time>2020-10-22T09:34:30Z</time>
      </trkpt>
      <trkpt lat="43.03868" lon="0.80156">
        <ele>615.59997559</ele>
        <time>2020-10-22T09:34:31Z</time>
      </trkpt>
      <trkpt lat="43.03867" lon="0.80157">
        <ele>615.60998535</ele>
        <time>2020-10-22T09:34:32Z</time>
      </trkpt>
      <trkpt lat="43.03867" lon="0.80158">
        <ele>615.66998291</ele>
        <time>2020-10-22T09:34:33Z</time>
      </trkpt>
      <trkpt lat="43.03866" lon="0.80159">
        <ele>615.97998047</ele>
        <time>2020-10-22T09:34:34Z</time>
      </trkpt>
      <trkpt lat="43.03865" lon="0.80161">
        <ele>616.16998291</ele>
        <time>2020-10-22T09:34:36Z</time>
      </trkpt>
      <trkpt lat="43.03863" lon="0.80163">
        <ele>616.66998291</ele>
        <time>2020-10-22T09:34:37Z</time>
      </trkpt>
      <trkpt lat="43.03861" lon="0.80165">
        <ele>616.66998291</ele>
        <time>2020-10-22T09:34:38Z</time>
      </trkpt>
      <trkpt lat="43.0386" lon="0.80168">
        <ele>617.15002441</ele>
        <time>2020-10-22T09:34:39Z</time>
      </trkpt>
      <trkpt lat="43.03858" lon="0.80171">
        <ele>617.60998535</ele>
        <time>2020-10-22T09:34:41Z</time>
      </trkpt>
      <trkpt lat="43.03858" lon="0.80174">
        <ele>618.04998779</ele>
        <time>2020-10-22T09:34:42Z</time>
      </trkpt>
      <trkpt lat="43.03857" lon="0.80176">
        <ele>618.73999023</ele>
        <time>2020-10-22T09:34:43Z</time>
      </trkpt>
      <trkpt lat="43.03855" lon="0.80179">
        <ele>618.85998535</ele>
        <time>2020-10-22T09:34:44Z</time>
      </trkpt>
      <trkpt lat="43.03854" lon="0.80182">
        <ele>618.90002441</ele>
        <time>2020-10-22T09:34:46Z</time>
      </trkpt>
      <trkpt lat="43.03853" lon="0.80185">
        <ele>619.90997314</ele>
        <time>2020-10-22T09:34:47Z</time>
      </trkpt>
      <trkpt lat="43.03852" lon="0.80187">
        <ele>620.28997803</ele>
        <time>2020-10-22T09:34:48Z</time>
      </trkpt>
      <trkpt lat="43.03851" lon="0.80189">
        <ele>620.92999268</ele>
        <time>2020-10-22T09:34:50Z</time>
      </trkpt>
      <trkpt lat="43.0385" lon="0.80192">
        <ele>621.85998535</ele>
        <time>2020-10-22T09:34:51Z</time>
      </trkpt>
      <trkpt lat="43.0385" lon="0.80193">
        <ele>622.71002197</ele>
        <time>2020-10-22T09:34:52Z</time>
      </trkpt>
      <trkpt lat="43.0385" lon="0.80195">
        <ele>622.71002197</ele>
        <time>2020-10-22T09:34:53Z</time>
      </trkpt>
      <trkpt lat="43.0385" lon="0.80199">
        <ele>624.04998779</ele>
        <time>2020-10-22T09:34:55Z</time>
      </trkpt>
      <trkpt lat="43.03848" lon="0.80204">
        <ele>624.76000977</ele>
        <time>2020-10-22T09:34:56Z</time>
      </trkpt>
      <trkpt lat="43.03847" lon="0.80206">
        <ele>624.90002441</ele>
        <time>2020-10-22T09:34:58Z</time>
      </trkpt>
      <trkpt lat="43.03847" lon="0.80209">
        <ele>626.78997803</ele>
        <time>2020-10-22T09:34:59Z</time>
      </trkpt>
      <trkpt lat="43.03845" lon="0.80213">
        <ele>627.28997803</ele>
        <time>2020-10-22T09:35:01Z</time>
      </trkpt>
      <trkpt lat="43.03844" lon="0.80217">
        <ele>627.40997314</ele>
        <time>2020-10-22T09:35:02Z</time>
      </trkpt>
      <trkpt lat="43.03843" lon="0.8022">
        <ele>627.40997314</ele>
        <time>2020-10-22T09:35:03Z</time>
      </trkpt>
      <trkpt lat="43.03842" lon="0.80224">
        <ele>628.10998535</ele>
        <time>2020-10-22T09:35:04Z</time>
      </trkpt>
      <trkpt lat="43.03841" lon="0.80226">
        <ele>628.65002441</ele>
        <time>2020-10-22T09:35:05Z</time>
      </trkpt>
      <trkpt lat="43.0384" lon="0.80229">
        <ele>628.84997559</ele>
        <time>2020-10-22T09:35:06Z</time>
      </trkpt>
      <trkpt lat="43.03838" lon="0.80231">
        <ele>628.95001221</ele>
        <time>2020-10-22T09:35:08Z</time>
      </trkpt>
      <trkpt lat="43.03835" lon="0.80236">
        <ele>629.52001953</ele>
        <time>2020-10-22T09:35:10Z</time>
      </trkpt>
      <trkpt lat="43.03832" lon="0.8024">
        <ele>629.55999756</ele>
        <time>2020-10-22T09:35:12Z</time>
      </trkpt>
      <trkpt lat="43.03831" lon="0.80243">
        <ele>629.42999268</ele>
        <time>2020-10-22T09:35:13Z</time>
      </trkpt>
      <trkpt lat="43.0383" lon="0.80245">
        <ele>629.42999268</ele>
        <time>2020-10-22T09:35:14Z</time>
      </trkpt>
      <trkpt lat="43.03827" lon="0.80251">
        <ele>629.34002686</ele>
        <time>2020-10-22T09:35:15Z</time>
      </trkpt>
      <trkpt lat="43.03825" lon="0.80254">
        <ele>629.28997803</ele>
        <time>2020-10-22T09:35:17Z</time>
      </trkpt>
      <trkpt lat="43.03823" lon="0.80257">
        <ele>628.32000732</ele>
        <time>2020-10-22T09:35:19Z</time>
      </trkpt>
      <trkpt lat="43.03821" lon="0.8026">
        <ele>627.52001953</ele>
        <time>2020-10-22T09:35:20Z</time>
      </trkpt>
      <trkpt lat="43.03819" lon="0.80264">
        <ele>627.30999756</ele>
        <time>2020-10-22T09:35:21Z</time>
      </trkpt>
      <trkpt lat="43.03815" lon="0.80268">
        <ele>627.0300293</ele>
        <time>2020-10-22T09:35:23Z</time>
      </trkpt>
      <trkpt lat="43.03812" lon="0.80273">
        <ele>625.91998291</ele>
        <time>2020-10-22T09:35:24Z</time>
      </trkpt>
      <trkpt lat="43.03806" lon="0.80282">
        <ele>624.89001465</ele>
        <time>2020-10-22T09:35:26Z</time>
      </trkpt>
      <trkpt lat="43.03803" lon="0.80289">
        <ele>623.7199707</ele>
        <time>2020-10-22T09:35:27Z</time>
      </trkpt>
      <trkpt lat="43.03798" lon="0.80295">
        <ele>620.59002686</ele>
        <time>2020-10-22T09:35:28Z</time>
      </trkpt>
      <trkpt lat="43.03792" lon="0.80299">
        <ele>620</ele>
        <time>2020-10-22T09:35:30Z</time>
      </trkpt>
      <trkpt lat="43.03788" lon="0.80303">
        <ele>619.40002441</ele>
        <time>2020-10-22T09:35:31Z</time>
      </trkpt>
      <trkpt lat="43.03775" lon="0.80315">
        <ele>617.22998047</ele>
        <time>2020-10-22T09:35:33Z</time>
      </trkpt>
      <trkpt lat="43.03766" lon="0.80322">
        <ele>615.33001709</ele>
        <time>2020-10-22T09:35:34Z</time>
      </trkpt>
      <trkpt lat="43.03759" lon="0.80329">
        <ele>614.51000977</ele>
        <time>2020-10-22T09:35:35Z</time>
      </trkpt>
      <trkpt lat="43.0375" lon="0.80343">
        <ele>612.7800293</ele>
        <time>2020-10-22T09:35:37Z</time>
      </trkpt>
      <trkpt lat="43.03746" lon="0.80349">
        <ele>608.78997803</ele>
        <time>2020-10-22T09:35:38Z</time>
      </trkpt>
      <trkpt lat="43.0374" lon="0.80362">
        <ele>609.91998291</ele>
        <time>2020-10-22T09:35:40Z</time>
      </trkpt>
      <trkpt lat="43.03737" lon="0.80367">
        <ele>609.22998047</ele>
        <time>2020-10-22T09:35:41Z</time>
      </trkpt>
      <trkpt lat="43.03734" lon="0.80372">
        <ele>609.53997803</ele>
        <time>2020-10-22T09:35:42Z</time>
      </trkpt>
      <trkpt lat="43.03728" lon="0.80378">
        <ele>610.66998291</ele>
        <time>2020-10-22T09:35:43Z</time>
      </trkpt>
      <trkpt lat="43.03724" lon="0.80386">
        <ele>609.17999268</ele>
        <time>2020-10-22T09:35:45Z</time>
      </trkpt>
      <trkpt lat="43.03713" lon="0.80404">
        <ele>606.95001221</ele>
        <time>2020-10-22T09:35:47Z</time>
      </trkpt>
      <trkpt lat="43.03708" lon="0.80413">
        <ele>606.51000977</ele>
        <time>2020-10-22T09:35:48Z</time>
      </trkpt>
      <trkpt lat="43.03704" lon="0.80424">
        <ele>605.59002686</ele>
        <time>2020-10-22T09:35:49Z</time>
      </trkpt>
      <trkpt lat="43.03694" lon="0.80446">
        <ele>604.66998291</ele>
        <time>2020-10-22T09:35:51Z</time>
      </trkpt>
      <trkpt lat="43.03686" lon="0.80467">
        <ele>605.41998291</ele>
        <time>2020-10-22T09:35:53Z</time>
      </trkpt>
      <trkpt lat="43.03684" lon="0.80476">
        <ele>605.95001221</ele>
        <time>2020-10-22T09:35:54Z</time>
      </trkpt>
      <trkpt lat="43.03676" lon="0.80497">
        <ele>605.02001953</ele>
        <time>2020-10-22T09:35:56Z</time>
      </trkpt>
      <trkpt lat="43.03673" lon="0.80507">
        <ele>605.15002441</ele>
        <time>2020-10-22T09:35:57Z</time>
      </trkpt>
      <trkpt lat="43.0367" lon="0.80515">
        <ele>604.79998779</ele>
        <time>2020-10-22T09:35:58Z</time>
      </trkpt>
      <trkpt lat="43.03665" lon="0.8053">
        <ele>605.88000488</ele>
        <time>2020-10-22T09:36:00Z</time>
      </trkpt>
      <trkpt lat="43.0366" lon="0.80544">
        <ele>605.07000732</ele>
        <time>2020-10-22T09:36:02Z</time>
      </trkpt>
      <trkpt lat="43.03658" lon="0.8055">
        <ele>604.53997803</ele>
        <time>2020-10-22T09:36:03Z</time>
      </trkpt>
      <trkpt lat="43.03657" lon="0.80555">
        <ele>605.0300293</ele>
        <time>2020-10-22T09:36:04Z</time>
      </trkpt>
      <trkpt lat="43.03652" lon="0.80556">
        <ele>605.13000488</ele>
        <time>2020-10-22T09:36:05Z</time>
      </trkpt>
      <trkpt lat="43.03651" lon="0.80561">
        <ele>605.89001465</ele>
        <time>2020-10-22T09:36:07Z</time>
      </trkpt>
      <trkpt lat="43.03649" lon="0.80569">
        <ele>605.92999268</ele>
        <time>2020-10-22T09:36:08Z</time>
      </trkpt>
      <trkpt lat="43.03647" lon="0.80575">
        <ele>606.36999512</ele>
        <time>2020-10-22T09:36:10Z</time>
      </trkpt>
      <trkpt lat="43.03645" lon="0.80585">
        <ele>606.83001709</ele>
        <time>2020-10-22T09:36:11Z</time>
      </trkpt>
      <trkpt lat="43.03644" lon="0.80594">
        <ele>606.85998535</ele>
        <time>2020-10-22T09:36:13Z</time>
      </trkpt>
      <trkpt lat="43.03641" lon="0.80606">
        <ele>606.96002197</ele>
        <time>2020-10-22T09:36:15Z</time>
      </trkpt>
      <trkpt lat="43.0364" lon="0.80613">
        <ele>607.44000244</ele>
        <time>2020-10-22T09:36:16Z</time>
      </trkpt>
      <trkpt lat="43.03639" lon="0.8062">
        <ele>607.70001221</ele>
        <time>2020-10-22T09:36:17Z</time>
      </trkpt>
      <trkpt lat="43.03637" lon="0.8063">
        <ele>608.09002686</ele>
        <time>2020-10-22T09:36:19Z</time>
      </trkpt>
      <trkpt lat="43.03636" lon="0.80637">
        <ele>607.78997803</ele>
        <time>2020-10-22T09:36:20Z</time>
      </trkpt>
      <trkpt lat="43.03634" lon="0.8065">
        <ele>608.01000977</ele>
        <time>2020-10-22T09:36:22Z</time>
      </trkpt>
      <trkpt lat="43.03631" lon="0.80663">
        <ele>609.2199707</ele>
        <time>2020-10-22T09:36:24Z</time>
      </trkpt>
      <trkpt lat="43.0363" lon="0.8067">
        <ele>608.86999512</ele>
        <time>2020-10-22T09:36:25Z</time>
      </trkpt>
      <trkpt lat="43.03628" lon="0.80678">
        <ele>608.91998291</ele>
        <time>2020-10-22T09:36:26Z</time>
      </trkpt>
      <trkpt lat="43.03626" lon="0.80689">
        <ele>609.19000244</ele>
        <time>2020-10-22T09:36:27Z</time>
      </trkpt>
      <trkpt lat="43.03624" lon="0.80699">
        <ele>608.97998047</ele>
        <time>2020-10-22T09:36:29Z</time>
      </trkpt>
      <trkpt lat="43.03622" lon="0.80713">
        <ele>608.4699707</ele>
        <time>2020-10-22T09:36:31Z</time>
      </trkpt>
      <trkpt lat="43.03617" lon="0.80722">
        <ele>608.67999268</ele>
        <time>2020-10-22T09:36:32Z</time>
      </trkpt>
      <trkpt lat="43.0361" lon="0.8073">
        <ele>607.54998779</ele>
        <time>2020-10-22T09:36:34Z</time>
      </trkpt>
      <trkpt lat="43.03601" lon="0.80748">
        <ele>606.90997314</ele>
        <time>2020-10-22T09:36:36Z</time>
      </trkpt>
      <trkpt lat="43.03592" lon="0.80763">
        <ele>606.60998535</ele>
        <time>2020-10-22T09:36:38Z</time>
      </trkpt>
      <trkpt lat="43.03588" lon="0.80772">
        <ele>606.84002686</ele>
        <time>2020-10-22T09:36:39Z</time>
      </trkpt>
      <trkpt lat="43.03583" lon="0.80793">
        <ele>606.30999756</ele>
        <time>2020-10-22T09:36:41Z</time>
      </trkpt>
      <trkpt lat="43.0358" lon="0.80806">
        <ele>605.65002441</ele>
        <time>2020-10-22T09:36:42Z</time>
      </trkpt>
      <trkpt lat="43.03577" lon="0.80818">
        <ele>604.59997559</ele>
        <time>2020-10-22T09:36:43Z</time>
      </trkpt>
      <trkpt lat="43.03571" lon="0.80846">
        <ele>603.82000732</ele>
        <time>2020-10-22T09:36:45Z</time>
      </trkpt>
      <trkpt lat="43.03566" lon="0.80874">
        <ele>602.26000977</ele>
        <time>2020-10-22T09:36:47Z</time>
      </trkpt>
      <trkpt lat="43.03563" lon="0.80889">
        <ele>600.29998779</ele>
        <time>2020-10-22T09:36:48Z</time>
      </trkpt>
      <trkpt lat="43.03561" lon="0.80919">
        <ele>597.84997559</ele>
        <time>2020-10-22T09:36:50Z</time>
      </trkpt>
      <trkpt lat="43.03561" lon="0.80933">
        <ele>596.44000244</ele>
        <time>2020-10-22T09:36:51Z</time>
      </trkpt>
      <trkpt lat="43.03562" lon="0.80959">
        <ele>592.90002441</ele>
        <time>2020-10-22T09:36:53Z</time>
      </trkpt>
      <trkpt lat="43.03563" lon="0.80972">
        <ele>592.05999756</ele>
        <time>2020-10-22T09:36:54Z</time>
      </trkpt>
      <trkpt lat="43.03564" lon="0.80998">
        <ele>589.29998779</ele>
        <time>2020-10-22T09:36:56Z</time>
      </trkpt>
      <trkpt lat="43.03565" lon="0.81009">
        <ele>587.57000732</ele>
        <time>2020-10-22T09:36:57Z</time>
      </trkpt>
      <trkpt lat="43.03567" lon="0.81019">
        <ele>585.57000732</ele>
        <time>2020-10-22T09:36:58Z</time>
      </trkpt>
      <trkpt lat="43.03572" lon="0.81044">
        <ele>582.67999268</ele>
        <time>2020-10-22T09:37:00Z</time>
      </trkpt>
      <trkpt lat="43.03575" lon="0.81057">
        <ele>581.80999756</ele>
        <time>2020-10-22T09:37:01Z</time>
      </trkpt>
      <trkpt lat="43.03578" lon="0.81067">
        <ele>580.5300293</ele>
        <time>2020-10-22T09:37:02Z</time>
      </trkpt>
      <trkpt lat="43.03584" lon="0.81085">
        <ele>576.91998291</ele>
        <time>2020-10-22T09:37:04Z</time>
      </trkpt>
      <trkpt lat="43.0359" lon="0.81101">
        <ele>574.88000488</ele>
        <time>2020-10-22T09:37:06Z</time>
      </trkpt>
      <trkpt lat="43.03593" lon="0.81109">
        <ele>572</ele>
        <time>2020-10-22T09:37:07Z</time>
      </trkpt>
      <trkpt lat="43.03596" lon="0.81116">
        <ele>571.41998291</ele>
        <time>2020-10-22T09:37:08Z</time>
      </trkpt>
      <trkpt lat="43.03605" lon="0.8113">
        <ele>568.54998779</ele>
        <time>2020-10-22T09:37:10Z</time>
      </trkpt>
      <trkpt lat="43.0361" lon="0.81137">
        <ele>568.47998047</ele>
        <time>2020-10-22T09:37:11Z</time>
      </trkpt>
      <trkpt lat="43.03613" lon="0.81145">
        <ele>567.5300293</ele>
        <time>2020-10-22T09:37:12Z</time>
      </trkpt>
      <trkpt lat="43.03619" lon="0.81158">
        <ele>564.0300293</ele>
        <time>2020-10-22T09:37:14Z</time>
      </trkpt>
      <trkpt lat="43.03622" lon="0.81163">
        <ele>562.65002441</ele>
        <time>2020-10-22T09:37:15Z</time>
      </trkpt>
      <trkpt lat="43.03626" lon="0.8117">
        <ele>560.11999512</ele>
        <time>2020-10-22T09:37:17Z</time>
      </trkpt>
      <trkpt lat="43.03627" lon="0.81172">
        <ele>558.34002686</ele>
        <time>2020-10-22T09:37:18Z</time>
      </trkpt>
      <trkpt lat="43.03628" lon="0.81173">
        <ele>556.82000732</ele>
        <time>2020-10-22T09:37:20Z</time>
      </trkpt>
      <trkpt lat="43.03627" lon="0.81174">
        <ele>556.82000732</ele>
        <time>2020-10-22T09:37:21Z</time>
      </trkpt>
      <trkpt lat="43.03624" lon="0.81174">
        <ele>555.52001953</ele>
        <time>2020-10-22T09:37:23Z</time>
      </trkpt>
      <trkpt lat="43.0362" lon="0.81173">
        <ele>555.38000488</ele>
        <time>2020-10-22T09:37:24Z</time>
      </trkpt>
      <trkpt lat="43.03616" lon="0.81171">
        <ele>554.75</ele>
        <time>2020-10-22T09:37:25Z</time>
      </trkpt>
      <trkpt lat="43.03613" lon="0.81169">
        <ele>554.47998047</ele>
        <time>2020-10-22T09:37:26Z</time>
      </trkpt>
      <trkpt lat="43.03611" lon="0.81166">
        <ele>554.21002197</ele>
        <time>2020-10-22T09:37:28Z</time>
      </trkpt>
      <trkpt lat="43.03609" lon="0.81165">
        <ele>554.2800293</ele>
        <time>2020-10-22T09:37:29Z</time>
      </trkpt>
      <trkpt lat="43.03608" lon="0.81164">
        <ele>553.47998047</ele>
        <time>2020-10-22T09:37:30Z</time>
      </trkpt>
      <trkpt lat="43.03602" lon="0.81159">
        <ele>553.28997803</ele>
        <time>2020-10-22T09:37:32Z</time>
      </trkpt>
      <trkpt lat="43.03597" lon="0.81155">
        <ele>552.23999023</ele>
        <time>2020-10-22T09:37:33Z</time>
      </trkpt>
      <trkpt lat="43.03586" lon="0.81144">
        <ele>550.79998779</ele>
        <time>2020-10-22T09:37:35Z</time>
      </trkpt>
      <trkpt lat="43.03581" lon="0.81138">
        <ele>551.2800293</ele>
        <time>2020-10-22T09:37:36Z</time>
      </trkpt>
      <trkpt lat="43.03571" lon="0.81127">
        <ele>549.10998535</ele>
        <time>2020-10-22T09:37:38Z</time>
      </trkpt>
      <trkpt lat="43.03566" lon="0.81121">
        <ele>548.46002197</ele>
        <time>2020-10-22T09:37:39Z</time>
      </trkpt>
      <trkpt lat="43.03561" lon="0.81115">
        <ele>547.11999512</ele>
        <time>2020-10-22T09:37:40Z</time>
      </trkpt>
      <trkpt lat="43.03552" lon="0.81102">
        <ele>545.64001465</ele>
        <time>2020-10-22T09:37:42Z</time>
      </trkpt>
      <trkpt lat="43.03544" lon="0.81087">
        <ele>544.15997314</ele>
        <time>2020-10-22T09:37:44Z</time>
      </trkpt>
      <trkpt lat="43.0354" lon="0.81079">
        <ele>543.32000732</ele>
        <time>2020-10-22T09:37:45Z</time>
      </trkpt>
      <trkpt lat="43.03531" lon="0.81062">
        <ele>541.20001221</ele>
        <time>2020-10-22T09:37:47Z</time>
      </trkpt>
      <trkpt lat="43.03526" lon="0.81054">
        <ele>540.59997559</ele>
        <time>2020-10-22T09:37:48Z</time>
      </trkpt>
      <trkpt lat="43.03516" lon="0.81038">
        <ele>538.61999512</ele>
        <time>2020-10-22T09:37:50Z</time>
      </trkpt>
      <trkpt lat="43.0351" lon="0.8103">
        <ele>538.51000977</ele>
        <time>2020-10-22T09:37:51Z</time>
      </trkpt>
      <trkpt lat="43.03497" lon="0.81015">
        <ele>536.40997314</ele>
        <time>2020-10-22T09:37:53Z</time>
      </trkpt>
      <trkpt lat="43.03486" lon="0.80999">
        <ele>534.05999756</ele>
        <time>2020-10-22T09:37:55Z</time>
      </trkpt>
      <trkpt lat="43.03483" lon="0.80992">
        <ele>532.76000977</ele>
        <time>2020-10-22T09:37:56Z</time>
      </trkpt>
      <trkpt lat="43.03479" lon="0.80986">
        <ele>529.90997314</ele>
        <time>2020-10-22T09:37:58Z</time>
      </trkpt>
      <trkpt lat="43.03477" lon="0.8098">
        <ele>529.59002686</ele>
        <time>2020-10-22T09:37:59Z</time>
      </trkpt>
      <trkpt lat="43.03471" lon="0.80969">
        <ele>526.7800293</ele>
        <time>2020-10-22T09:38:01Z</time>
      </trkpt>
      <trkpt lat="43.03468" lon="0.80964">
        <ele>526.15002441</ele>
        <time>2020-10-22T09:38:02Z</time>
      </trkpt>
      <trkpt lat="43.03464" lon="0.8096">
        <ele>526.15002441</ele>
        <time>2020-10-22T09:38:03Z</time>
      </trkpt>
      <trkpt lat="43.03464" lon="0.8096">
        <ele>524.90002441</ele>
        <time>2020-10-22T09:38:04Z</time>
      </trkpt>
      <trkpt lat="43.03464" lon="0.80961">
        <ele>523.61999512</ele>
        <time>2020-10-22T09:38:06Z</time>
      </trkpt>
      <trkpt lat="43.03461" lon="0.8096">
        <ele>521.98999023</ele>
        <time>2020-10-22T09:38:07Z</time>
      </trkpt>
      <trkpt lat="43.03458" lon="0.80962">
        <ele>520.54998779</ele>
        <time>2020-10-22T09:38:08Z</time>
      </trkpt>
      <trkpt lat="43.03452" lon="0.80966">
        <ele>519.44000244</ele>
        <time>2020-10-22T09:38:09Z</time>
      </trkpt>
      <trkpt lat="43.03446" lon="0.8097">
        <ele>518.61999512</ele>
        <time>2020-10-22T09:38:11Z</time>
      </trkpt>
      <trkpt lat="43.03439" lon="0.80975">
        <ele>517.59002686</ele>
        <time>2020-10-22T09:38:12Z</time>
      </trkpt>
      <trkpt lat="43.03434" lon="0.80979">
        <ele>515.20001221</ele>
        <time>2020-10-22T09:38:14Z</time>
      </trkpt>
      <trkpt lat="43.03431" lon="0.80983">
        <ele>515.20001221</ele>
        <time>2020-10-22T09:38:15Z</time>
      </trkpt>
      <trkpt lat="43.03424" lon="0.80988">
        <ele>514.55999756</ele>
        <time>2020-10-22T09:38:16Z</time>
      </trkpt>
      <trkpt lat="43.03419" lon="0.80991">
        <ele>513.39001465</ele>
        <time>2020-10-22T09:38:18Z</time>
      </trkpt>
      <trkpt lat="43.03415" lon="0.80994">
        <ele>511.95999146</ele>
        <time>2020-10-22T09:38:19Z</time>
      </trkpt>
      <trkpt lat="43.0341" lon="0.81001">
        <ele>510.42999268</ele>
        <time>2020-10-22T09:38:20Z</time>
      </trkpt>
      <trkpt lat="43.03405" lon="0.81007">
        <ele>509.35998535</ele>
        <time>2020-10-22T09:38:22Z</time>
      </trkpt>
      <trkpt lat="43.03402" lon="0.81013">
        <ele>509.17999268</ele>
        <time>2020-10-22T09:38:23Z</time>
      </trkpt>
      <trkpt lat="43.03401" lon="0.81018">
        <ele>506.8999939</ele>
        <time>2020-10-22T09:38:24Z</time>
      </trkpt>
      <trkpt lat="43.03399" lon="0.81027">
        <ele>505.57000732</ele>
        <time>2020-10-22T09:38:25Z</time>
      </trkpt>
      <trkpt lat="43.03399" lon="0.81035">
        <ele>505.39001465</ele>
        <time>2020-10-22T09:38:27Z</time>
      </trkpt>
      <trkpt lat="43.03398" lon="0.8104">
        <ele>502.67999268</ele>
        <time>2020-10-22T09:38:28Z</time>
      </trkpt>
      <trkpt lat="43.03395" lon="0.81046">
        <ele>501.58999634</ele>
        <time>2020-10-22T09:38:29Z</time>
      </trkpt>
      <trkpt lat="43.03387" lon="0.81054">
        <ele>499.97000122</ele>
        <time>2020-10-22T09:38:31Z</time>
      </trkpt>
      <trkpt lat="43.03386" lon="0.81058">
        <ele>499.97000122</ele>
        <time>2020-10-22T09:38:32Z</time>
      </trkpt>
      <trkpt lat="43.03384" lon="0.81061">
        <ele>499.57998657</ele>
        <time>2020-10-22T09:38:33Z</time>
      </trkpt>
      <trkpt lat="43.03381" lon="0.81063">
        <ele>498.27999878</ele>
        <time>2020-10-22T09:38:34Z</time>
      </trkpt>
      <trkpt lat="43.03376" lon="0.81063">
        <ele>497.55999756</ele>
        <time>2020-10-22T09:38:35Z</time>
      </trkpt>
      <trkpt lat="43.03374" lon="0.81063">
        <ele>497.91000366</ele>
        <time>2020-10-22T09:38:37Z</time>
      </trkpt>
      <trkpt lat="43.03371" lon="0.81068">
        <ele>497.48001099</ele>
        <time>2020-10-22T09:38:38Z</time>
      </trkpt>
      <trkpt lat="43.03366" lon="0.81085">
        <ele>494.20001221</ele>
        <time>2020-10-22T09:38:40Z</time>
      </trkpt>
      <trkpt lat="43.0336" lon="0.81094">
        <ele>494.20999146</ele>
        <time>2020-10-22T09:38:41Z</time>
      </trkpt>
      <trkpt lat="43.03354" lon="0.81103">
        <ele>493.95999146</ele>
        <time>2020-10-22T09:38:42Z</time>
      </trkpt>
      <trkpt lat="43.03338" lon="0.81115">
        <ele>492.47000122</ele>
        <time>2020-10-22T09:38:44Z</time>
      </trkpt>
      <trkpt lat="43.03333" lon="0.81122">
        <ele>492.14001465</ele>
        <time>2020-10-22T09:38:45Z</time>
      </trkpt>
      <trkpt lat="43.03331" lon="0.81141">
        <ele>491.6000061</ele>
        <time>2020-10-22T09:38:47Z</time>
      </trkpt>
      <trkpt lat="43.03328" lon="0.81151">
        <ele>491.29000854</ele>
        <time>2020-10-22T09:38:48Z</time>
      </trkpt>
      <trkpt lat="43.03318" lon="0.8116">
        <ele>491.17999268</ele>
        <time>2020-10-22T09:38:50Z</time>
      </trkpt>
      <trkpt lat="43.03312" lon="0.81164">
        <ele>490.79000854</ele>
        <time>2020-10-22T09:38:51Z</time>
      </trkpt>
      <trkpt lat="43.03307" lon="0.81168">
        <ele>490.44000244</ele>
        <time>2020-10-22T09:38:52Z</time>
      </trkpt>
      <trkpt lat="43.033" lon="0.81177">
        <ele>489.85998535</ele>
        <time>2020-10-22T09:38:54Z</time>
      </trkpt>
      <trkpt lat="43.03297" lon="0.8118">
        <ele>489.72000122</ele>
        <time>2020-10-22T09:38:55Z</time>
      </trkpt>
      <trkpt lat="43.03294" lon="0.81184">
        <ele>489.26998901</ele>
        <time>2020-10-22T09:38:56Z</time>
      </trkpt>
      <trkpt lat="43.03286" lon="0.81193">
        <ele>489.02999878</ele>
        <time>2020-10-22T09:38:58Z</time>
      </trkpt>
      <trkpt lat="43.03284" lon="0.81201">
        <ele>489.64001465</ele>
        <time>2020-10-22T09:38:59Z</time>
      </trkpt>
      <trkpt lat="43.03273" lon="0.8121">
        <ele>489.1000061</ele>
        <time>2020-10-22T09:39:01Z</time>
      </trkpt>
      <trkpt lat="43.03267" lon="0.81219">
        <ele>488.8999939</ele>
        <time>2020-10-22T09:39:03Z</time>
      </trkpt>
      <trkpt lat="43.03265" lon="0.81224">
        <ele>488.32998657</ele>
        <time>2020-10-22T09:39:04Z</time>
      </trkpt>
      <trkpt lat="43.03262" lon="0.81231">
        <ele>487.89001465</ele>
        <time>2020-10-22T09:39:05Z</time>
      </trkpt>
      <trkpt lat="43.03259" lon="0.81237">
        <ele>487.27999878</ele>
        <time>2020-10-22T09:39:07Z</time>
      </trkpt>
      <trkpt lat="43.03258" lon="0.81243">
        <ele>487.76998901</ele>
        <time>2020-10-22T09:39:08Z</time>
      </trkpt>
      <trkpt lat="43.03258" lon="0.8125">
        <ele>487.39001465</ele>
        <time>2020-10-22T09:39:09Z</time>
      </trkpt>
      <trkpt lat="43.03259" lon="0.81254">
        <ele>486.3999939</ele>
        <time>2020-10-22T09:39:11Z</time>
      </trkpt>
      <trkpt lat="43.0326" lon="0.81258">
        <ele>487.14001465</ele>
        <time>2020-10-22T09:39:12Z</time>
      </trkpt>
      <trkpt lat="43.03261" lon="0.81262">
        <ele>487.19000244</ele>
        <time>2020-10-22T09:39:13Z</time>
      </trkpt>
      <trkpt lat="43.03263" lon="0.81263">
        <ele>486.83999634</ele>
        <time>2020-10-22T09:39:14Z</time>
      </trkpt>
      <trkpt lat="43.03265" lon="0.81264">
        <ele>485.75</ele>
        <time>2020-10-22T09:39:16Z</time>
      </trkpt>
      <trkpt lat="43.0327" lon="0.81266">
        <ele>485.07998657</ele>
        <time>2020-10-22T09:39:18Z</time>
      </trkpt>
      <trkpt lat="43.03273" lon="0.8127">
        <ele>484.91000366</ele>
        <time>2020-10-22T09:39:19Z</time>
      </trkpt>
      <trkpt lat="43.03276" lon="0.81272">
        <ele>485.02999878</ele>
        <time>2020-10-22T09:39:20Z</time>
      </trkpt>
      <trkpt lat="43.03281" lon="0.81273">
        <ele>483.61999512</ele>
        <time>2020-10-22T09:39:21Z</time>
      </trkpt>
      <trkpt lat="43.03286" lon="0.81273">
        <ele>483.05999756</ele>
        <time>2020-10-22T09:39:23Z</time>
      </trkpt>
      <trkpt lat="43.03288" lon="0.81274">
        <ele>480.95999146</ele>
        <time>2020-10-22T09:39:24Z</time>
      </trkpt>
      <trkpt lat="43.03291" lon="0.81277">
        <ele>480.41000366</ele>
        <time>2020-10-22T09:39:25Z</time>
      </trkpt>
      <trkpt lat="43.03292" lon="0.81281">
        <ele>479.92001343</ele>
        <time>2020-10-22T09:39:27Z</time>
      </trkpt>
      <trkpt lat="43.03293" lon="0.81283">
        <ele>479.69000244</ele>
        <time>2020-10-22T09:39:28Z</time>
      </trkpt>
      <trkpt lat="43.03297" lon="0.81283">
        <ele>478.51000977</ele>
        <time>2020-10-22T09:39:30Z</time>
      </trkpt>
      <trkpt lat="43.033" lon="0.81283">
        <ele>477.14001465</ele>
        <time>2020-10-22T09:39:31Z</time>
      </trkpt>
      <trkpt lat="43.03304" lon="0.81283">
        <ele>474.92001343</ele>
        <time>2020-10-22T09:39:32Z</time>
      </trkpt>
      <trkpt lat="43.03312" lon="0.81286">
        <ele>475.1000061</ele>
        <time>2020-10-22T09:39:33Z</time>
      </trkpt>
      <trkpt lat="43.03317" lon="0.81288">
        <ele>475.75</ele>
        <time>2020-10-22T09:39:34Z</time>
      </trkpt>
      <trkpt lat="43.03333" lon="0.81295">
        <ele>474.70999146</ele>
        <time>2020-10-22T09:39:36Z</time>
      </trkpt>
      <trkpt lat="43.0334" lon="0.81296">
        <ele>474.47000122</ele>
        <time>2020-10-22T09:39:37Z</time>
      </trkpt>
      <trkpt lat="43.03348" lon="0.81298">
        <ele>474.38000488</ele>
        <time>2020-10-22T09:39:39Z</time>
      </trkpt>
      <trkpt lat="43.0336" lon="0.8131">
        <ele>471.30999756</ele>
        <time>2020-10-22T09:39:41Z</time>
      </trkpt>
      <trkpt lat="43.03365" lon="0.81328">
        <ele>472.82000732</ele>
        <time>2020-10-22T09:39:43Z</time>
      </trkpt>
      <trkpt lat="43.03371" lon="0.81335">
        <ele>471.63000488</ele>
        <time>2020-10-22T09:39:44Z</time>
      </trkpt>
      <trkpt lat="43.03383" lon="0.81347">
        <ele>471.41000366</ele>
        <time>2020-10-22T09:39:46Z</time>
      </trkpt>
      <trkpt lat="43.03388" lon="0.81353">
        <ele>471.5</ele>
        <time>2020-10-22T09:39:47Z</time>
      </trkpt>
      <trkpt lat="43.03394" lon="0.81359">
        <ele>471.44000244</ele>
        <time>2020-10-22T09:39:48Z</time>
      </trkpt>
      <trkpt lat="43.03406" lon="0.81368">
        <ele>470.60998535</ele>
        <time>2020-10-22T09:39:50Z</time>
      </trkpt>
      <trkpt lat="43.03413" lon="0.81374">
        <ele>470.33999634</ele>
        <time>2020-10-22T09:39:51Z</time>
      </trkpt>
      <trkpt lat="43.0342" lon="0.8138">
        <ele>469.82000732</ele>
        <time>2020-10-22T09:39:52Z</time>
      </trkpt>
      <trkpt lat="43.03427" lon="0.81385">
        <ele>469.45001221</ele>
        <time>2020-10-22T09:39:53Z</time>
      </trkpt>
      <trkpt lat="43.03434" lon="0.8139">
        <ele>469.14001465</ele>
        <time>2020-10-22T09:39:54Z</time>
      </trkpt>
      <trkpt lat="43.03449" lon="0.81401">
        <ele>469.05999756</ele>
        <time>2020-10-22T09:39:56Z</time>
      </trkpt>
      <trkpt lat="43.03456" lon="0.81406">
        <ele>468.98999023</ele>
        <time>2020-10-22T09:39:57Z</time>
      </trkpt>
      <trkpt lat="43.03464" lon="0.81412">
        <ele>470.20999146</ele>
        <time>2020-10-22T09:39:58Z</time>
      </trkpt>
      <trkpt lat="43.03471" lon="0.81418">
        <ele>469.70001221</ele>
        <time>2020-10-22T09:39:59Z</time>
      </trkpt>
      <trkpt lat="43.03485" lon="0.81427">
        <ele>468.92001343</ele>
        <time>2020-10-22T09:40:01Z</time>
      </trkpt>
      <trkpt lat="43.03493" lon="0.81432">
        <ele>468.57000732</ele>
        <time>2020-10-22T09:40:02Z</time>
      </trkpt>
      <trkpt lat="43.03506" lon="0.81441">
        <ele>468.29998779</ele>
        <time>2020-10-22T09:40:04Z</time>
      </trkpt>
      <trkpt lat="43.03521" lon="0.81451">
        <ele>467.79998779</ele>
        <time>2020-10-22T09:40:06Z</time>
      </trkpt>
      <trkpt lat="43.03528" lon="0.81456">
        <ele>468.01000977</ele>
        <time>2020-10-22T09:40:07Z</time>
      </trkpt>
      <trkpt lat="43.03542" lon="0.81467">
        <ele>467.48999023</ele>
        <time>2020-10-22T09:40:09Z</time>
      </trkpt>
      <trkpt lat="43.03549" lon="0.81473">
        <ele>466.85998535</ele>
        <time>2020-10-22T09:40:10Z</time>
      </trkpt>
      <trkpt lat="43.03556" lon="0.81478">
        <ele>466.79000854</ele>
        <time>2020-10-22T09:40:11Z</time>
      </trkpt>
      <trkpt lat="43.03572" lon="0.81488">
        <ele>466.67999268</ele>
        <time>2020-10-22T09:40:13Z</time>
      </trkpt>
      <trkpt lat="43.03588" lon="0.81497">
        <ele>465.20999146</ele>
        <time>2020-10-22T09:40:15Z</time>
      </trkpt>
      <trkpt lat="43.03606" lon="0.81506">
        <ele>464.3500061</ele>
        <time>2020-10-22T09:40:17Z</time>
      </trkpt>
      <trkpt lat="43.03615" lon="0.81512">
        <ele>463.89001465</ele>
        <time>2020-10-22T09:40:18Z</time>
      </trkpt>
      <trkpt lat="43.03632" lon="0.81524">
        <ele>461.42001343</ele>
        <time>2020-10-22T09:40:20Z</time>
      </trkpt>
      <trkpt lat="43.0364" lon="0.81532">
        <ele>460.75</ele>
        <time>2020-10-22T09:40:21Z</time>
      </trkpt>
      <trkpt lat="43.03657" lon="0.81547">
        <ele>459.76998901</ele>
        <time>2020-10-22T09:40:23Z</time>
      </trkpt>
      <trkpt lat="43.03672" lon="0.81562">
        <ele>458.95999146</ele>
        <time>2020-10-22T09:40:25Z</time>
      </trkpt>
      <trkpt lat="43.0368" lon="0.81569">
        <ele>458.58999634</ele>
        <time>2020-10-22T09:40:26Z</time>
      </trkpt>
      <trkpt lat="43.03688" lon="0.81577">
        <ele>458.42001343</ele>
        <time>2020-10-22T09:40:27Z</time>
      </trkpt>
      <trkpt lat="43.037" lon="0.81593">
        <ele>458.44000244</ele>
        <time>2020-10-22T09:40:29Z</time>
      </trkpt>
      <trkpt lat="43.03714" lon="0.81602">
        <ele>458.73001099</ele>
        <time>2020-10-22T09:40:31Z</time>
      </trkpt>
      <trkpt lat="43.03721" lon="0.81602">
        <ele>458.57998657</ele>
        <time>2020-10-22T09:40:32Z</time>
      </trkpt>
      <trkpt lat="43.03734" lon="0.81604">
        <ele>458.83999634</ele>
        <time>2020-10-22T09:40:34Z</time>
      </trkpt>
      <trkpt lat="43.03739" lon="0.81605">
        <ele>458.86999512</ele>
        <time>2020-10-22T09:40:35Z</time>
      </trkpt>
      <trkpt lat="43.03744" lon="0.81607">
        <ele>458.91000366</ele>
        <time>2020-10-22T09:40:36Z</time>
      </trkpt>
      <trkpt lat="43.03749" lon="0.81608">
        <ele>458.6499939</ele>
        <time>2020-10-22T09:40:37Z</time>
      </trkpt>
      <trkpt lat="43.03758" lon="0.81612">
        <ele>458.70999146</ele>
        <time>2020-10-22T09:40:39Z</time>
      </trkpt>
      <trkpt lat="43.03763" lon="0.81613">
        <ele>458.17999268</ele>
        <time>2020-10-22T09:40:40Z</time>
      </trkpt>
      <trkpt lat="43.0377" lon="0.81619">
        <ele>459.95001221</ele>
        <time>2020-10-22T09:40:42Z</time>
      </trkpt>
      <trkpt lat="43.03776" lon="0.81624">
        <ele>459.13000488</ele>
        <time>2020-10-22T09:40:44Z</time>
      </trkpt>
      <trkpt lat="43.03787" lon="0.81623">
        <ele>460.54998779</ele>
        <time>2020-10-22T09:40:46Z</time>
      </trkpt>
      <trkpt lat="43.03793" lon="0.8162">
        <ele>460.85998535</ele>
        <time>2020-10-22T09:40:47Z</time>
      </trkpt>
      <trkpt lat="43.03798" lon="0.81616">
        <ele>461.04998779</ele>
        <time>2020-10-22T09:40:48Z</time>
      </trkpt>
      <trkpt lat="43.0381" lon="0.8161">
        <ele>460.5</ele>
        <time>2020-10-22T09:40:50Z</time>
      </trkpt>
      <trkpt lat="43.03822" lon="0.81607">
        <ele>460.94000244</ele>
        <time>2020-10-22T09:40:52Z</time>
      </trkpt>
      <trkpt lat="43.03827" lon="0.81605">
        <ele>460.01998901</ele>
        <time>2020-10-22T09:40:53Z</time>
      </trkpt>
      <trkpt lat="43.03838" lon="0.81601">
        <ele>460.29000854</ele>
        <time>2020-10-22T09:40:55Z</time>
      </trkpt>
      <trkpt lat="43.03844" lon="0.816">
        <ele>460.08999634</ele>
        <time>2020-10-22T09:40:56Z</time>
      </trkpt>
      <trkpt lat="43.0385" lon="0.81598">
        <ele>460.08999634</ele>
        <time>2020-10-22T09:40:57Z</time>
      </trkpt>
      <trkpt lat="43.03863" lon="0.81594">
        <ele>459.8500061</ele>
        <time>2020-10-22T09:40:59Z</time>
      </trkpt>
      <trkpt lat="43.03871" lon="0.81593">
        <ele>459.91000366</ele>
        <time>2020-10-22T09:41:00Z</time>
      </trkpt>
      <trkpt lat="43.03878" lon="0.81592">
        <ele>460.07000732</ele>
        <time>2020-10-22T09:41:01Z</time>
      </trkpt>
      <trkpt lat="43.03885" lon="0.81592">
        <ele>460.38000488</ele>
        <time>2020-10-22T09:41:02Z</time>
      </trkpt>
      <trkpt lat="43.03899" lon="0.81594">
        <ele>459.63000488</ele>
        <time>2020-10-22T09:41:04Z</time>
      </trkpt>
      <trkpt lat="43.03913" lon="0.81599">
        <ele>458.38000488</ele>
        <time>2020-10-22T09:41:06Z</time>
      </trkpt>
      <trkpt lat="43.03922" lon="0.81603">
        <ele>458.72000122</ele>
        <time>2020-10-22T09:41:07Z</time>
      </trkpt>
      <trkpt lat="43.0393" lon="0.81607">
        <ele>458.66000366</ele>
        <time>2020-10-22T09:41:08Z</time>
      </trkpt>
      <trkpt lat="43.03946" lon="0.81615">
        <ele>457</ele>
        <time>2020-10-22T09:41:10Z</time>
      </trkpt>
      <trkpt lat="43.03962" lon="0.81623">
        <ele>455.75</ele>
        <time>2020-10-22T09:41:12Z</time>
      </trkpt>
      <trkpt lat="43.0397" lon="0.81627">
        <ele>454.88000488</ele>
        <time>2020-10-22T09:41:13Z</time>
      </trkpt>
      <trkpt lat="43.03986" lon="0.81635">
        <ele>453.91000366</ele>
        <time>2020-10-22T09:41:15Z</time>
      </trkpt>
      <trkpt lat="43.03993" lon="0.8164">
        <ele>454.08999634</ele>
        <time>2020-10-22T09:41:16Z</time>
      </trkpt>
      <trkpt lat="43.04007" lon="0.81649">
        <ele>454.69000244</ele>
        <time>2020-10-22T09:41:18Z</time>
      </trkpt>
      <trkpt lat="43.04019" lon="0.81656">
        <ele>455.38000488</ele>
        <time>2020-10-22T09:41:20Z</time>
      </trkpt>
      <trkpt lat="43.04025" lon="0.81659">
        <ele>455.66000366</ele>
        <time>2020-10-22T09:41:21Z</time>
      </trkpt>
      <trkpt lat="43.04033" lon="0.81663">
        <ele>456.29998779</ele>
        <time>2020-10-22T09:41:23Z</time>
      </trkpt>
      <trkpt lat="43.04038" lon="0.81665">
        <ele>456.6499939</ele>
        <time>2020-10-22T09:41:24Z</time>
      </trkpt>
      <trkpt lat="43.04041" lon="0.81666">
        <ele>457.01998901</ele>
        <time>2020-10-22T09:41:25Z</time>
      </trkpt>
      <trkpt lat="43.04049" lon="0.81668">
        <ele>457.57000732</ele>
        <time>2020-10-22T09:41:27Z</time>
      </trkpt>
      <trkpt lat="43.04056" lon="0.81668">
        <ele>457.70999146</ele>
        <time>2020-10-22T09:41:29Z</time>
      </trkpt>
      <trkpt lat="43.0406" lon="0.81667">
        <ele>457.80999756</ele>
        <time>2020-10-22T09:41:30Z</time>
      </trkpt>
      <trkpt lat="43.04065" lon="0.81666">
        <ele>457.80999756</ele>
        <time>2020-10-22T09:41:31Z</time>
      </trkpt>
      <trkpt lat="43.04072" lon="0.8166">
        <ele>458.35998535</ele>
        <time>2020-10-22T09:41:33Z</time>
      </trkpt>
      <trkpt lat="43.04077" lon="0.81659">
        <ele>458.76000977</ele>
        <time>2020-10-22T09:41:34Z</time>
      </trkpt>
      <trkpt lat="43.04081" lon="0.81658">
        <ele>459.29998779</ele>
        <time>2020-10-22T09:41:35Z</time>
      </trkpt>
      <trkpt lat="43.04088" lon="0.81656">
        <ele>459.3500061</ele>
        <time>2020-10-22T09:41:37Z</time>
      </trkpt>
      <trkpt lat="43.04093" lon="0.81657">
        <ele>459.51998901</ele>
        <time>2020-10-22T09:41:38Z</time>
      </trkpt>
      <trkpt lat="43.04103" lon="0.81661">
        <ele>459.41000366</ele>
        <time>2020-10-22T09:41:40Z</time>
      </trkpt>
      <trkpt lat="43.04108" lon="0.81663">
        <ele>458.95999146</ele>
        <time>2020-10-22T09:41:41Z</time>
      </trkpt>
      <trkpt lat="43.04113" lon="0.81667">
        <ele>458.70001221</ele>
        <time>2020-10-22T09:41:42Z</time>
      </trkpt>
      <trkpt lat="43.04124" lon="0.81674">
        <ele>458.51000977</ele>
        <time>2020-10-22T09:41:44Z</time>
      </trkpt>
      <trkpt lat="43.0413" lon="0.81678">
        <ele>458.52999878</ele>
        <time>2020-10-22T09:41:45Z</time>
      </trkpt>
      <trkpt lat="43.0414" lon="0.81685">
        <ele>458.67001343</ele>
        <time>2020-10-22T09:41:47Z</time>
      </trkpt>
      <trkpt lat="43.04146" lon="0.81688">
        <ele>458.75</ele>
        <time>2020-10-22T09:41:48Z</time>
      </trkpt>
      <trkpt lat="43.04151" lon="0.81691">
        <ele>458.75</ele>
        <time>2020-10-22T09:41:49Z</time>
      </trkpt>
      <trkpt lat="43.04162" lon="0.81694">
        <ele>458.79000854</ele>
        <time>2020-10-22T09:41:51Z</time>
      </trkpt>
      <trkpt lat="43.04173" lon="0.81696">
        <ele>458.97000122</ele>
        <time>2020-10-22T09:41:53Z</time>
      </trkpt>
      <trkpt lat="43.04182" lon="0.81695">
        <ele>459.73001099</ele>
        <time>2020-10-22T09:41:55Z</time>
      </trkpt>
      <trkpt lat="43.04187" lon="0.81695">
        <ele>460.04998779</ele>
        <time>2020-10-22T09:41:56Z</time>
      </trkpt>
      <trkpt lat="43.04196" lon="0.81696">
        <ele>460.33999634</ele>
        <time>2020-10-22T09:41:58Z</time>
      </trkpt>
      <trkpt lat="43.04206" lon="0.81697">
        <ele>460.67999268</ele>
        <time>2020-10-22T09:42:00Z</time>
      </trkpt>
      <trkpt lat="43.04211" lon="0.81697">
        <ele>460.88000488</ele>
        <time>2020-10-22T09:42:01Z</time>
      </trkpt>
      <trkpt lat="43.0422" lon="0.81698">
        <ele>459.41000366</ele>
        <time>2020-10-22T09:42:03Z</time>
      </trkpt>
      <trkpt lat="43.04225" lon="0.81699">
        <ele>460.08999634</ele>
        <time>2020-10-22T09:42:05Z</time>
      </trkpt>
      <trkpt lat="43.04232" lon="0.817">
        <ele>460.33999634</ele>
        <time>2020-10-22T09:42:07Z</time>
      </trkpt>
      <trkpt lat="43.04241" lon="0.817">
        <ele>460.95999146</ele>
        <time>2020-10-22T09:42:09Z</time>
      </trkpt>
      <trkpt lat="43.04251" lon="0.81701">
        <ele>462.41000366</ele>
        <time>2020-10-22T09:42:11Z</time>
      </trkpt>
      <trkpt lat="43.04261" lon="0.81704">
        <ele>463.23001099</ele>
        <time>2020-10-22T09:42:13Z</time>
      </trkpt>
      <trkpt lat="43.04266" lon="0.81706">
        <ele>463.44000244</ele>
        <time>2020-10-22T09:42:14Z</time>
      </trkpt>
      <trkpt lat="43.04275" lon="0.81709">
        <ele>464.47000122</ele>
        <time>2020-10-22T09:42:16Z</time>
      </trkpt>
      <trkpt lat="43.04281" lon="0.81712">
        <ele>464.79998779</ele>
        <time>2020-10-22T09:42:17Z</time>
      </trkpt>
      <trkpt lat="43.04291" lon="0.81717">
        <ele>465.67001343</ele>
        <time>2020-10-22T09:42:19Z</time>
      </trkpt>
      <trkpt lat="43.04296" lon="0.81719">
        <ele>465.8500061</ele>
        <time>2020-10-22T09:42:20Z</time>
      </trkpt>
      <trkpt lat="43.04301" lon="0.81722">
        <ele>466.19000244</ele>
        <time>2020-10-22T09:42:21Z</time>
      </trkpt>
      <trkpt lat="43.04311" lon="0.81728">
        <ele>466.60998535</ele>
        <time>2020-10-22T09:42:23Z</time>
      </trkpt>
      <trkpt lat="43.04321" lon="0.81734">
        <ele>467.42999268</ele>
        <time>2020-10-22T09:42:25Z</time>
      </trkpt>
      <trkpt lat="43.04326" lon="0.81737">
        <ele>467.70999146</ele>
        <time>2020-10-22T09:42:26Z</time>
      </trkpt>
      <trkpt lat="43.04331" lon="0.8174">
        <ele>468.14001465</ele>
        <time>2020-10-22T09:42:27Z</time>
      </trkpt>
      <trkpt lat="43.0434" lon="0.81747">
        <ele>468.95999146</ele>
        <time>2020-10-22T09:42:29Z</time>
      </trkpt>
      <trkpt lat="43.04344" lon="0.81752">
        <ele>469.27999878</ele>
        <time>2020-10-22T09:42:30Z</time>
      </trkpt>
      <trkpt lat="43.04352" lon="0.81762">
        <ele>469.3999939</ele>
        <time>2020-10-22T09:42:32Z</time>
      </trkpt>
      <trkpt lat="43.04356" lon="0.81767">
        <ele>469.26998901</ele>
        <time>2020-10-22T09:42:33Z</time>
      </trkpt>
      <trkpt lat="43.0436" lon="0.81773">
        <ele>469.1000061</ele>
        <time>2020-10-22T09:42:34Z</time>
      </trkpt>
      <trkpt lat="43.04369" lon="0.81785">
        <ele>468.80999756</ele>
        <time>2020-10-22T09:42:36Z</time>
      </trkpt>
      <trkpt lat="43.04373" lon="0.81791">
        <ele>468.67999268</ele>
        <time>2020-10-22T09:42:37Z</time>
      </trkpt>
      <trkpt lat="43.04377" lon="0.81798">
        <ele>468.51000977</ele>
        <time>2020-10-22T09:42:38Z</time>
      </trkpt>
      <trkpt lat="43.04385" lon="0.81808">
        <ele>468.29000854</ele>
        <time>2020-10-22T09:42:40Z</time>
      </trkpt>
      <trkpt lat="43.04389" lon="0.81813">
        <ele>468.17999268</ele>
        <time>2020-10-22T09:42:41Z</time>
      </trkpt>
      <trkpt lat="43.04394" lon="0.81818">
        <ele>467.98999023</ele>
        <time>2020-10-22T09:42:42Z</time>
      </trkpt>
      <trkpt lat="43.04398" lon="0.81823">
        <ele>467.94000244</ele>
        <time>2020-10-22T09:42:43Z</time>
      </trkpt>
      <trkpt lat="43.04406" lon="0.81832">
        <ele>467.16000366</ele>
        <time>2020-10-22T09:42:45Z</time>
      </trkpt>
      <trkpt lat="43.0441" lon="0.81837">
        <ele>466.72000122</ele>
        <time>2020-10-22T09:42:46Z</time>
      </trkpt>
      <trkpt lat="43.04415" lon="0.81842">
        <ele>466.25</ele>
        <time>2020-10-22T09:42:47Z</time>
      </trkpt>
      <trkpt lat="43.04424" lon="0.81852">
        <ele>465.79998779</ele>
        <time>2020-10-22T09:42:49Z</time>
      </trkpt>
      <trkpt lat="43.0443" lon="0.81857">
        <ele>465.29000854</ele>
        <time>2020-10-22T09:42:50Z</time>
      </trkpt>
      <trkpt lat="43.04436" lon="0.81862">
        <ele>464.83999634</ele>
        <time>2020-10-22T09:42:51Z</time>
      </trkpt>
      <trkpt lat="43.04445" lon="0.81876">
        <ele>463.73999023</ele>
        <time>2020-10-22T09:42:53Z</time>
      </trkpt>
      <trkpt lat="43.04444" lon="0.819">
        <ele>462.52999878</ele>
        <time>2020-10-22T09:42:55Z</time>
      </trkpt>
      <trkpt lat="43.0444" lon="0.81922">
        <ele>461.92001343</ele>
        <time>2020-10-22T09:42:57Z</time>
      </trkpt>
      <trkpt lat="43.04438" lon="0.81933">
        <ele>461.64001465</ele>
        <time>2020-10-22T09:42:58Z</time>
      </trkpt>
      <trkpt lat="43.04434" lon="0.81952">
        <ele>460.79998779</ele>
        <time>2020-10-22T09:43:00Z</time>
      </trkpt>
      <trkpt lat="43.04433" lon="0.81961">
        <ele>460.35998535</ele>
        <time>2020-10-22T09:43:01Z</time>
      </trkpt>
      <trkpt lat="43.04433" lon="0.81968">
        <ele>460.01998901</ele>
        <time>2020-10-22T09:43:02Z</time>
      </trkpt>
      <trkpt lat="43.0444" lon="0.81977">
        <ele>459.44000244</ele>
        <time>2020-10-22T09:43:04Z</time>
      </trkpt>
      <trkpt lat="43.04451" lon="0.81985">
        <ele>458.88000488</ele>
        <time>2020-10-22T09:43:06Z</time>
      </trkpt>
      <trkpt lat="43.04463" lon="0.81991">
        <ele>458.13000488</ele>
        <time>2020-10-22T09:43:08Z</time>
      </trkpt>
      <trkpt lat="43.0447" lon="0.81995">
        <ele>457.73001099</ele>
        <time>2020-10-22T09:43:09Z</time>
      </trkpt>
      <trkpt lat="43.04477" lon="0.81998">
        <ele>457.19000244</ele>
        <time>2020-10-22T09:43:10Z</time>
      </trkpt>
      <trkpt lat="43.04491" lon="0.82006">
        <ele>456.10998535</ele>
        <time>2020-10-22T09:43:12Z</time>
      </trkpt>
      <trkpt lat="43.04505" lon="0.82014">
        <ele>455.05999756</ele>
        <time>2020-10-22T09:43:14Z</time>
      </trkpt>
      <trkpt lat="43.0452" lon="0.82023">
        <ele>454.23001099</ele>
        <time>2020-10-22T09:43:16Z</time>
      </trkpt>
      <trkpt lat="43.04528" lon="0.82027">
        <ele>453.76998901</ele>
        <time>2020-10-22T09:43:17Z</time>
      </trkpt>
      <trkpt lat="43.04543" lon="0.82036">
        <ele>452.95999146</ele>
        <time>2020-10-22T09:43:19Z</time>
      </trkpt>
      <trkpt lat="43.04558" lon="0.82045">
        <ele>452.10998535</ele>
        <time>2020-10-22T09:43:21Z</time>
      </trkpt>
      <trkpt lat="43.04574" lon="0.82053">
        <ele>451.25</ele>
        <time>2020-10-22T09:43:23Z</time>
      </trkpt>
      <trkpt lat="43.04582" lon="0.82057">
        <ele>450.86999512</ele>
        <time>2020-10-22T09:43:24Z</time>
      </trkpt>
      <trkpt lat="43.04598" lon="0.82063">
        <ele>450.16000366</ele>
        <time>2020-10-22T09:43:26Z</time>
      </trkpt>
      <trkpt lat="43.04606" lon="0.82065">
        <ele>449.82998657</ele>
        <time>2020-10-22T09:43:27Z</time>
      </trkpt>
      <trkpt lat="43.04623" lon="0.82063">
        <ele>449.32000732</ele>
        <time>2020-10-22T09:43:29Z</time>
      </trkpt>
      <trkpt lat="43.04631" lon="0.82062">
        <ele>449.23999023</ele>
        <time>2020-10-22T09:43:30Z</time>
      </trkpt>
      <trkpt lat="43.04646" lon="0.82064">
        <ele>449.11999512</ele>
        <time>2020-10-22T09:43:32Z</time>
      </trkpt>
      <trkpt lat="43.04654" lon="0.82065">
        <ele>448.80999756</ele>
        <time>2020-10-22T09:43:33Z</time>
      </trkpt>
      <trkpt lat="43.04668" lon="0.8207">
        <ele>448.79000854</ele>
        <time>2020-10-22T09:43:35Z</time>
      </trkpt>
      <trkpt lat="43.04674" lon="0.82075">
        <ele>448.70001221</ele>
        <time>2020-10-22T09:43:36Z</time>
      </trkpt>
      <trkpt lat="43.0468" lon="0.8208">
        <ele>448.54000854</ele>
        <time>2020-10-22T09:43:37Z</time>
      </trkpt>
      <trkpt lat="43.04691" lon="0.82093">
        <ele>448.08999634</ele>
        <time>2020-10-22T09:43:39Z</time>
      </trkpt>
      <trkpt lat="43.04696" lon="0.821">
        <ele>448.11999512</ele>
        <time>2020-10-22T09:43:40Z</time>
      </trkpt>
      <trkpt lat="43.04706" lon="0.82114">
        <ele>447.60998535</ele>
        <time>2020-10-22T09:43:42Z</time>
      </trkpt>
      <trkpt lat="43.04712" lon="0.82121">
        <ele>447.26998901</ele>
        <time>2020-10-22T09:43:43Z</time>
      </trkpt>
      <trkpt lat="43.04722" lon="0.82135">
        <ele>447.02999878</ele>
        <time>2020-10-22T09:43:45Z</time>
      </trkpt>
      <trkpt lat="43.04732" lon="0.8215">
        <ele>446.70001221</ele>
        <time>2020-10-22T09:43:47Z</time>
      </trkpt>
      <trkpt lat="43.04737" lon="0.82157">
        <ele>446.54998779</ele>
        <time>2020-10-22T09:43:48Z</time>
      </trkpt>
      <trkpt lat="43.04742" lon="0.82165">
        <ele>446.3500061</ele>
        <time>2020-10-22T09:43:49Z</time>
      </trkpt>
      <trkpt lat="43.04751" lon="0.82179">
        <ele>446.04000854</ele>
        <time>2020-10-22T09:43:51Z</time>
      </trkpt>
      <trkpt lat="43.04756" lon="0.82187">
        <ele>445.64001465</ele>
        <time>2020-10-22T09:43:52Z</time>
      </trkpt>
      <trkpt lat="43.04765" lon="0.82203">
        <ele>445.1499939</ele>
        <time>2020-10-22T09:43:54Z</time>
      </trkpt>
      <trkpt lat="43.04768" lon="0.82212">
        <ele>444.86999512</ele>
        <time>2020-10-22T09:43:55Z</time>
      </trkpt>
      <trkpt lat="43.04774" lon="0.82231">
        <ele>444.35998535</ele>
        <time>2020-10-22T09:43:57Z</time>
      </trkpt>
      <trkpt lat="43.04781" lon="0.82248">
        <ele>444.11999512</ele>
        <time>2020-10-22T09:43:59Z</time>
      </trkpt>
      <trkpt lat="43.04792" lon="0.82253">
        <ele>443.66000366</ele>
        <time>2020-10-22T09:44:01Z</time>
      </trkpt>
      <trkpt lat="43.048" lon="0.8225">
        <ele>443.26998901</ele>
        <time>2020-10-22T09:44:02Z</time>
      </trkpt>
      <trkpt lat="43.04815" lon="0.82244">
        <ele>442.01998901</ele>
        <time>2020-10-22T09:44:04Z</time>
      </trkpt>
      <trkpt lat="43.04831" lon="0.82238">
        <ele>441.27999878</ele>
        <time>2020-10-22T09:44:06Z</time>
      </trkpt>
      <trkpt lat="43.04843" lon="0.82247">
        <ele>439.73001099</ele>
        <time>2020-10-22T09:44:08Z</time>
      </trkpt>
      <trkpt lat="43.04848" lon="0.82255">
        <ele>439.1499939</ele>
        <time>2020-10-22T09:44:09Z</time>
      </trkpt>
      <trkpt lat="43.04852" lon="0.82264">
        <ele>439.11999512</ele>
        <time>2020-10-22T09:44:10Z</time>
      </trkpt>
      <trkpt lat="43.04857" lon="0.82272">
        <ele>439.07000732</ele>
        <time>2020-10-22T09:44:11Z</time>
      </trkpt>
      <trkpt lat="43.04861" lon="0.82281">
        <ele>438.73001099</ele>
        <time>2020-10-22T09:44:12Z</time>
      </trkpt>
      <trkpt lat="43.04868" lon="0.82298">
        <ele>438.72000122</ele>
        <time>2020-10-22T09:44:14Z</time>
      </trkpt>
      <trkpt lat="43.04875" lon="0.82313">
        <ele>438.77999878</ele>
        <time>2020-10-22T09:44:16Z</time>
      </trkpt>
      <trkpt lat="43.04879" lon="0.8232">
        <ele>438.86999512</ele>
        <time>2020-10-22T09:44:17Z</time>
      </trkpt>
      <trkpt lat="43.04883" lon="0.82326">
        <ele>438.92001343</ele>
        <time>2020-10-22T09:44:18Z</time>
      </trkpt>
      <trkpt lat="43.0489" lon="0.82338">
        <ele>439.20001221</ele>
        <time>2020-10-22T09:44:20Z</time>
      </trkpt>
      <trkpt lat="43.04894" lon="0.82344">
        <ele>439.04998779</ele>
        <time>2020-10-22T09:44:21Z</time>
      </trkpt>
      <trkpt lat="43.04901" lon="0.82354">
        <ele>439.35998535</ele>
        <time>2020-10-22T09:44:23Z</time>
      </trkpt>
      <trkpt lat="43.04904" lon="0.8236">
        <ele>439.67999268</ele>
        <time>2020-10-22T09:44:24Z</time>
      </trkpt>
      <trkpt lat="43.0491" lon="0.82371">
        <ele>439.82000732</ele>
        <time>2020-10-22T09:44:26Z</time>
      </trkpt>
      <trkpt lat="43.04915" lon="0.82382">
        <ele>440.5</ele>
        <time>2020-10-22T09:44:28Z</time>
      </trkpt>
      <trkpt lat="43.04918" lon="0.82388">
        <ele>440.61999512</ele>
        <time>2020-10-22T09:44:29Z</time>
      </trkpt>
      <trkpt lat="43.04923" lon="0.82398">
        <ele>440.67999268</ele>
        <time>2020-10-22T09:44:31Z</time>
      </trkpt>
      <trkpt lat="43.04929" lon="0.8241">
        <ele>440.60998535</ele>
        <time>2020-10-22T09:44:33Z</time>
      </trkpt>
      <trkpt lat="43.04931" lon="0.82416">
        <ele>440.79998779</ele>
        <time>2020-10-22T09:44:34Z</time>
      </trkpt>
      <trkpt lat="43.04934" lon="0.82422">
        <ele>440.85998535</ele>
        <time>2020-10-22T09:44:35Z</time>
      </trkpt>
      <trkpt lat="43.04937" lon="0.82427">
        <ele>441.16000366</ele>
        <time>2020-10-22T09:44:36Z</time>
      </trkpt>
      <trkpt lat="43.04942" lon="0.82439">
        <ele>441.5</ele>
        <time>2020-10-22T09:44:38Z</time>
      </trkpt>
      <trkpt lat="43.04947" lon="0.8245">
        <ele>441.61999512</ele>
        <time>2020-10-22T09:44:40Z</time>
      </trkpt>
      <trkpt lat="43.04949" lon="0.82456">
        <ele>441.64001465</ele>
        <time>2020-10-22T09:44:41Z</time>
      </trkpt>
      <trkpt lat="43.04952" lon="0.82462">
        <ele>441.72000122</ele>
        <time>2020-10-22T09:44:42Z</time>
      </trkpt>
      <trkpt lat="43.04954" lon="0.82468">
        <ele>441.92999268</ele>
        <time>2020-10-22T09:44:43Z</time>
      </trkpt>
      <trkpt lat="43.04959" lon="0.82479">
        <ele>442.27999878</ele>
        <time>2020-10-22T09:44:45Z</time>
      </trkpt>
      <trkpt lat="43.04962" lon="0.82485">
        <ele>442.3999939</ele>
        <time>2020-10-22T09:44:46Z</time>
      </trkpt>
      <trkpt lat="43.04964" lon="0.82491">
        <ele>442.70001221</ele>
        <time>2020-10-22T09:44:47Z</time>
      </trkpt>
      <trkpt lat="43.04967" lon="0.82496">
        <ele>442.82000732</ele>
        <time>2020-10-22T09:44:48Z</time>
      </trkpt>
      <trkpt lat="43.04974" lon="0.82505">
        <ele>442.95001221</ele>
        <time>2020-10-22T09:44:50Z</time>
      </trkpt>
      <trkpt lat="43.04981" lon="0.82514">
        <ele>442.80999756</ele>
        <time>2020-10-22T09:44:52Z</time>
      </trkpt>
      <trkpt lat="43.04984" lon="0.82518">
        <ele>442.6000061</ele>
        <time>2020-10-22T09:44:53Z</time>
      </trkpt>
      <trkpt lat="43.04993" lon="0.82525">
        <ele>441.67999268</ele>
        <time>2020-10-22T09:44:55Z</time>
      </trkpt>
      <trkpt lat="43.04999" lon="0.82529">
        <ele>440.92001343</ele>
        <time>2020-10-22T09:44:56Z</time>
      </trkpt>
      <trkpt lat="43.05011" lon="0.82536">
        <ele>439.57000732</ele>
        <time>2020-10-22T09:44:58Z</time>
      </trkpt>
      <trkpt lat="43.05024" lon="0.82543">
        <ele>438.1499939</ele>
        <time>2020-10-22T09:45:00Z</time>
      </trkpt>
      <trkpt lat="43.05039" lon="0.82549">
        <ele>436.91000366</ele>
        <time>2020-10-22T09:45:02Z</time>
      </trkpt>
      <trkpt lat="43.05055" lon="0.82555">
        <ele>436.01000977</ele>
        <time>2020-10-22T09:45:04Z</time>
      </trkpt>
      <trkpt lat="43.05063" lon="0.82558">
        <ele>435.66000366</ele>
        <time>2020-10-22T09:45:05Z</time>
      </trkpt>
      <trkpt lat="43.05071" lon="0.82561">
        <ele>435.45999146</ele>
        <time>2020-10-22T09:45:06Z</time>
      </trkpt>
      <trkpt lat="43.05087" lon="0.82566">
        <ele>435.17999268</ele>
        <time>2020-10-22T09:45:08Z</time>
      </trkpt>
      <trkpt lat="43.05093" lon="0.82571">
        <ele>435.30999756</ele>
        <time>2020-10-22T09:45:09Z</time>
      </trkpt>
      <trkpt lat="43.05099" lon="0.82577">
        <ele>435.48001099</ele>
        <time>2020-10-22T09:45:10Z</time>
      </trkpt>
      <trkpt lat="43.05103" lon="0.82584">
        <ele>435.69000244</ele>
        <time>2020-10-22T09:45:11Z</time>
      </trkpt>
      <trkpt lat="43.05107" lon="0.82591">
        <ele>435.69000244</ele>
        <time>2020-10-22T09:45:12Z</time>
      </trkpt>
      <trkpt lat="43.0511" lon="0.82597">
        <ele>436.05999756</ele>
        <time>2020-10-22T09:45:13Z</time>
      </trkpt>
      <trkpt lat="43.05117" lon="0.82609">
        <ele>436.57000732</ele>
        <time>2020-10-22T09:45:15Z</time>
      </trkpt>
      <trkpt lat="43.0512" lon="0.82613">
        <ele>436.82000732</ele>
        <time>2020-10-22T09:45:16Z</time>
      </trkpt>
      <trkpt lat="43.05128" lon="0.8262">
        <ele>437.1000061</ele>
        <time>2020-10-22T09:45:18Z</time>
      </trkpt>
      <trkpt lat="43.05136" lon="0.82626">
        <ele>437.38000488</ele>
        <time>2020-10-22T09:45:20Z</time>
      </trkpt>
      <trkpt lat="43.05142" lon="0.82632">
        <ele>437.54998779</ele>
        <time>2020-10-22T09:45:22Z</time>
      </trkpt>
      <trkpt lat="43.05138" lon="0.82637">
        <ele>437.88000488</ele>
        <time>2020-10-22T09:45:24Z</time>
      </trkpt>
      <trkpt lat="43.05134" lon="0.82638">
        <ele>437.97000122</ele>
        <time>2020-10-22T09:45:25Z</time>
      </trkpt>
      <trkpt lat="43.05126" lon="0.8264">
        <ele>438.25</ele>
        <time>2020-10-22T09:45:27Z</time>
      </trkpt>
      <trkpt lat="43.05121" lon="0.82641">
        <ele>438.26998901</ele>
        <time>2020-10-22T09:45:28Z</time>
      </trkpt>
      <trkpt lat="43.05116" lon="0.82642">
        <ele>438.42001343</ele>
        <time>2020-10-22T09:45:29Z</time>
      </trkpt>
      <trkpt lat="43.05107" lon="0.82647">
        <ele>438.47000122</ele>
        <time>2020-10-22T09:45:31Z</time>
      </trkpt>
      <trkpt lat="43.05098" lon="0.82653">
        <ele>438.6499939</ele>
        <time>2020-10-22T09:45:33Z</time>
      </trkpt>
      <trkpt lat="43.05095" lon="0.82657">
        <ele>438.55999756</ele>
        <time>2020-10-22T09:45:34Z</time>
      </trkpt>
      <trkpt lat="43.05088" lon="0.82666">
        <ele>438.55999756</ele>
        <time>2020-10-22T09:45:36Z</time>
      </trkpt>
      <trkpt lat="43.05085" lon="0.8267">
        <ele>438.57998657</ele>
        <time>2020-10-22T09:45:37Z</time>
      </trkpt>
      <trkpt lat="43.05081" lon="0.82674">
        <ele>438.57998657</ele>
        <time>2020-10-22T09:45:38Z</time>
      </trkpt>
      <trkpt lat="43.05075" lon="0.82681">
        <ele>438.63000488</ele>
        <time>2020-10-22T09:45:40Z</time>
      </trkpt>
      <trkpt lat="43.05072" lon="0.82688">
        <ele>438.89001465</ele>
        <time>2020-10-22T09:45:41Z</time>
      </trkpt>
      <trkpt lat="43.05068" lon="0.82699">
        <ele>439.20999146</ele>
        <time>2020-10-22T09:45:43Z</time>
      </trkpt>
      <trkpt lat="43.05067" lon="0.82708">
        <ele>438.82998657</ele>
        <time>2020-10-22T09:45:44Z</time>
      </trkpt>
      <trkpt lat="43.05064" lon="0.82714">
        <ele>439.04998779</ele>
        <time>2020-10-22T09:45:46Z</time>
      </trkpt>
      <trkpt lat="43.05062" lon="0.8272">
        <ele>439.29000854</ele>
        <time>2020-10-22T09:45:47Z</time>
      </trkpt>
      <trkpt lat="43.0506" lon="0.82725">
        <ele>439.17999268</ele>
        <time>2020-10-22T09:45:48Z</time>
      </trkpt>
      <trkpt lat="43.05058" lon="0.82731">
        <ele>439.48001099</ele>
        <time>2020-10-22T09:45:49Z</time>
      </trkpt>
      <trkpt lat="43.05056" lon="0.82739">
        <ele>439.79998779</ele>
        <time>2020-10-22T09:45:51Z</time>
      </trkpt>
      <trkpt lat="43.05054" lon="0.82745">
        <ele>440.47000122</ele>
        <time>2020-10-22T09:45:52Z</time>
      </trkpt>
      <trkpt lat="43.05052" lon="0.82755">
        <ele>440.85998535</ele>
        <time>2020-10-22T09:45:53Z</time>
      </trkpt>
      <trkpt lat="43.05051" lon="0.8276">
        <ele>440.92001343</ele>
        <time>2020-10-22T09:45:55Z</time>
      </trkpt>
      <trkpt lat="43.05049" lon="0.82765">
        <ele>441.36999512</ele>
        <time>2020-10-22T09:45:56Z</time>
      </trkpt>
      <trkpt lat="43.05048" lon="0.82771">
        <ele>442.25</ele>
        <time>2020-10-22T09:45:57Z</time>
      </trkpt>
      <trkpt lat="43.05045" lon="0.82779">
        <ele>442.48999023</ele>
        <time>2020-10-22T09:45:58Z</time>
      </trkpt>
      <trkpt lat="43.05043" lon="0.82786">
        <ele>442.92999268</ele>
        <time>2020-10-22T09:46:00Z</time>
      </trkpt>
      <trkpt lat="43.0504" lon="0.82795">
        <ele>443.33999634</ele>
        <time>2020-10-22T09:46:02Z</time>
      </trkpt>
      <trkpt lat="43.05037" lon="0.82803">
        <ele>443.97000122</ele>
        <time>2020-10-22T09:46:03Z</time>
      </trkpt>
      <trkpt lat="43.05035" lon="0.82809">
        <ele>444.13000488</ele>
        <time>2020-10-22T09:46:04Z</time>
      </trkpt>
      <trkpt lat="43.05033" lon="0.82815">
        <ele>444.17001343</ele>
        <time>2020-10-22T09:46:06Z</time>
      </trkpt>
      <trkpt lat="43.0503" lon="0.8282">
        <ele>444.92999268</ele>
        <time>2020-10-22T09:46:07Z</time>
      </trkpt>
      <trkpt lat="43.05028" lon="0.82824">
        <ele>444.92999268</ele>
        <time>2020-10-22T09:46:08Z</time>
      </trkpt>
      <trkpt lat="43.05023" lon="0.82832">
        <ele>445.23001099</ele>
        <time>2020-10-22T09:46:10Z</time>
      </trkpt>
      <trkpt lat="43.05018" lon="0.82839">
        <ele>445.70999146</ele>
        <time>2020-10-22T09:46:11Z</time>
      </trkpt>
      <trkpt lat="43.05015" lon="0.82844">
        <ele>445.85998535</ele>
        <time>2020-10-22T09:46:13Z</time>
      </trkpt>
      <trkpt lat="43.05012" lon="0.82849">
        <ele>445.82998657</ele>
        <time>2020-10-22T09:46:14Z</time>
      </trkpt>
      <trkpt lat="43.05009" lon="0.82852">
        <ele>446.14001465</ele>
        <time>2020-10-22T09:46:15Z</time>
      </trkpt>
      <trkpt lat="43.05006" lon="0.82856">
        <ele>446.11999512</ele>
        <time>2020-10-22T09:46:16Z</time>
      </trkpt>
      <trkpt lat="43.05003" lon="0.8286">
        <ele>446.11999512</ele>
        <time>2020-10-22T09:46:17Z</time>
      </trkpt>
      <trkpt lat="43.05" lon="0.82867">
        <ele>445.64001465</ele>
        <time>2020-10-22T09:46:18Z</time>
      </trkpt>
      <trkpt lat="43.04997" lon="0.82875">
        <ele>446.01998901</ele>
        <time>2020-10-22T09:46:20Z</time>
      </trkpt>
      <trkpt lat="43.04994" lon="0.82883">
        <ele>446.05999756</ele>
        <time>2020-10-22T09:46:21Z</time>
      </trkpt>
      <trkpt lat="43.04992" lon="0.82889">
        <ele>446.52999878</ele>
        <time>2020-10-22T09:46:23Z</time>
      </trkpt>
      <trkpt lat="43.0499" lon="0.82896">
        <ele>446.70001221</ele>
        <time>2020-10-22T09:46:24Z</time>
      </trkpt>
      <trkpt lat="43.04988" lon="0.829">
        <ele>446.88000488</ele>
        <time>2020-10-22T09:46:26Z</time>
      </trkpt>
      <trkpt lat="43.04987" lon="0.82902">
        <ele>447.07000732</ele>
        <time>2020-10-22T09:46:27Z</time>
      </trkpt>
      <trkpt lat="43.04986" lon="0.82906">
        <ele>447.26998901</ele>
        <time>2020-10-22T09:46:28Z</time>
      </trkpt>
      <trkpt lat="43.04983" lon="0.82912">
        <ele>447.42001343</ele>
        <time>2020-10-22T09:46:30Z</time>
      </trkpt>
      <trkpt lat="43.04982" lon="0.82916">
        <ele>447.61999512</ele>
        <time>2020-10-22T09:46:31Z</time>
      </trkpt>
      <trkpt lat="43.04982" lon="0.8292">
        <ele>447.57000732</ele>
        <time>2020-10-22T09:46:32Z</time>
      </trkpt>
      <trkpt lat="43.04982" lon="0.82926">
        <ele>448.36999512</ele>
        <time>2020-10-22T09:46:33Z</time>
      </trkpt>
      <trkpt lat="43.04983" lon="0.82931">
        <ele>448.57000732</ele>
        <time>2020-10-22T09:46:34Z</time>
      </trkpt>
      <trkpt lat="43.04984" lon="0.82938">
        <ele>448.79000854</ele>
        <time>2020-10-22T09:46:36Z</time>
      </trkpt>
      <trkpt lat="43.04985" lon="0.82944">
        <ele>449.32000732</ele>
        <time>2020-10-22T09:46:37Z</time>
      </trkpt>
      <trkpt lat="43.04986" lon="0.82949">
        <ele>449.8999939</ele>
        <time>2020-10-22T09:46:39Z</time>
      </trkpt>
      <trkpt lat="43.04986" lon="0.82953">
        <ele>449.8999939</ele>
        <time>2020-10-22T09:46:40Z</time>
      </trkpt>
      <trkpt lat="43.04986" lon="0.82957">
        <ele>450.01998901</ele>
        <time>2020-10-22T09:46:41Z</time>
      </trkpt>
      <trkpt lat="43.04986" lon="0.8296">
        <ele>450.08999634</ele>
        <time>2020-10-22T09:46:42Z</time>
      </trkpt>
      <trkpt lat="43.04985" lon="0.82964">
        <ele>450.13000488</ele>
        <time>2020-10-22T09:46:43Z</time>
      </trkpt>
      <trkpt lat="43.04985" lon="0.82968">
        <ele>450.6000061</ele>
        <time>2020-10-22T09:46:45Z</time>
      </trkpt>
      <trkpt lat="43.04984" lon="0.82971">
        <ele>451.05999756</ele>
        <time>2020-10-22T09:46:46Z</time>
      </trkpt>
      <trkpt lat="43.04983" lon="0.82974">
        <ele>451.05999756</ele>
        <time>2020-10-22T09:46:47Z</time>
      </trkpt>
      <trkpt lat="43.04982" lon="0.82978">
        <ele>451.52999878</ele>
        <time>2020-10-22T09:46:48Z</time>
      </trkpt>
      <trkpt lat="43.0498" lon="0.82981">
        <ele>452</ele>
        <time>2020-10-22T09:46:50Z</time>
      </trkpt>
      <trkpt lat="43.04978" lon="0.82985">
        <ele>452.23001099</ele>
        <time>2020-10-22T09:46:51Z</time>
      </trkpt>
      <trkpt lat="43.04976" lon="0.82988">
        <ele>453.07998657</ele>
        <time>2020-10-22T09:46:52Z</time>
      </trkpt>
      <trkpt lat="43.04974" lon="0.8299">
        <ele>453.41000366</ele>
        <time>2020-10-22T09:46:53Z</time>
      </trkpt>
      <trkpt lat="43.04971" lon="0.82992">
        <ele>453.6499939</ele>
        <time>2020-10-22T09:46:55Z</time>
      </trkpt>
      <trkpt lat="43.04969" lon="0.82995">
        <ele>454.1000061</ele>
        <time>2020-10-22T09:46:56Z</time>
      </trkpt>
      <trkpt lat="43.04966" lon="0.82998">
        <ele>454.16000366</ele>
        <time>2020-10-22T09:46:58Z</time>
      </trkpt>
      <trkpt lat="43.04964" lon="0.82999">
        <ele>454.42001343</ele>
        <time>2020-10-22T09:46:59Z</time>
      </trkpt>
      <trkpt lat="43.04962" lon="0.83002">
        <ele>454.77999878</ele>
        <time>2020-10-22T09:47:00Z</time>
      </trkpt>
      <trkpt lat="43.0496" lon="0.83004">
        <ele>455.10998535</ele>
        <time>2020-10-22T09:47:01Z</time>
      </trkpt>
      <trkpt lat="43.04958" lon="0.83006">
        <ele>455.51998901</ele>
        <time>2020-10-22T09:47:02Z</time>
      </trkpt>
      <trkpt lat="43.04957" lon="0.83008">
        <ele>455.79998779</ele>
        <time>2020-10-22T09:47:03Z</time>
      </trkpt>
      <trkpt lat="43.04955" lon="0.8301">
        <ele>456.25</ele>
        <time>2020-10-22T09:47:05Z</time>
      </trkpt>
      <trkpt lat="43.04953" lon="0.83012">
        <ele>456.51998901</ele>
        <time>2020-10-22T09:47:06Z</time>
      </trkpt>
      <trkpt lat="43.04951" lon="0.83016">
        <ele>457.54000854</ele>
        <time>2020-10-22T09:47:07Z</time>
      </trkpt>
      <trkpt lat="43.04949" lon="0.83019">
        <ele>457.58999634</ele>
        <time>2020-10-22T09:47:08Z</time>
      </trkpt>
      <trkpt lat="43.04946" lon="0.83022">
        <ele>458.23001099</ele>
        <time>2020-10-22T09:47:10Z</time>
      </trkpt>
      <trkpt lat="43.04945" lon="0.83024">
        <ele>458.23001099</ele>
        <time>2020-10-22T09:47:11Z</time>
      </trkpt>
      <trkpt lat="43.04943" lon="0.83028">
        <ele>458.85998535</ele>
        <time>2020-10-22T09:47:12Z</time>
      </trkpt>
      <trkpt lat="43.04941" lon="0.83031">
        <ele>459.23001099</ele>
        <time>2020-10-22T09:47:14Z</time>
      </trkpt>
      <trkpt lat="43.0494" lon="0.83034">
        <ele>459.42999268</ele>
        <time>2020-10-22T09:47:15Z</time>
      </trkpt>
      <trkpt lat="43.04939" lon="0.83038">
        <ele>459.6499939</ele>
        <time>2020-10-22T09:47:16Z</time>
      </trkpt>
      <trkpt lat="43.04938" lon="0.83041">
        <ele>459.92001343</ele>
        <time>2020-10-22T09:47:17Z</time>
      </trkpt>
      <trkpt lat="43.04935" lon="0.83048">
        <ele>460.38000488</ele>
        <time>2020-10-22T09:47:19Z</time>
      </trkpt>
      <trkpt lat="43.04933" lon="0.83053">
        <ele>461.44000244</ele>
        <time>2020-10-22T09:47:20Z</time>
      </trkpt>
      <trkpt lat="43.04931" lon="0.83058">
        <ele>462.14001465</ele>
        <time>2020-10-22T09:47:22Z</time>
      </trkpt>
      <trkpt lat="43.04928" lon="0.83064">
        <ele>462.01998901</ele>
        <time>2020-10-22T09:47:23Z</time>
      </trkpt>
      <trkpt lat="43.04927" lon="0.83067">
        <ele>462.8999939</ele>
        <time>2020-10-22T09:47:24Z</time>
      </trkpt>
      <trkpt lat="43.04926" lon="0.83071">
        <ele>463.73999023</ele>
        <time>2020-10-22T09:47:26Z</time>
      </trkpt>
      <trkpt lat="43.04925" lon="0.83075">
        <ele>463.5</ele>
        <time>2020-10-22T09:47:27Z</time>
      </trkpt>
      <trkpt lat="43.04924" lon="0.83078">
        <ele>463.5</ele>
        <time>2020-10-22T09:47:28Z</time>
      </trkpt>
      <trkpt lat="43.04922" lon="0.83084">
        <ele>464.04998779</ele>
        <time>2020-10-22T09:47:30Z</time>
      </trkpt>
      <trkpt lat="43.04921" lon="0.83088">
        <ele>464.80999756</ele>
        <time>2020-10-22T09:47:31Z</time>
      </trkpt>
      <trkpt lat="43.0492" lon="0.83091">
        <ele>464.80999756</ele>
        <time>2020-10-22T09:47:32Z</time>
      </trkpt>
      <trkpt lat="43.04919" lon="0.83097">
        <ele>465.67001343</ele>
        <time>2020-10-22T09:47:33Z</time>
      </trkpt>
      <trkpt lat="43.04917" lon="0.83101">
        <ele>465.79998779</ele>
        <time>2020-10-22T09:47:35Z</time>
      </trkpt>
      <trkpt lat="43.04916" lon="0.83105">
        <ele>466.64001465</ele>
        <time>2020-10-22T09:47:36Z</time>
      </trkpt>
      <trkpt lat="43.04914" lon="0.83108">
        <ele>467.41000366</ele>
        <time>2020-10-22T09:47:37Z</time>
      </trkpt>
      <trkpt lat="43.04912" lon="0.83111">
        <ele>467.48999023</ele>
        <time>2020-10-22T09:47:38Z</time>
      </trkpt>
      <trkpt lat="43.04911" lon="0.83114">
        <ele>467.48999023</ele>
        <time>2020-10-22T09:47:39Z</time>
      </trkpt>
      <trkpt lat="43.04908" lon="0.83119">
        <ele>468.47000122</ele>
        <time>2020-10-22T09:47:41Z</time>
      </trkpt>
      <trkpt lat="43.04906" lon="0.83123">
        <ele>468.6000061</ele>
        <time>2020-10-22T09:47:42Z</time>
      </trkpt>
      <trkpt lat="43.04904" lon="0.83128">
        <ele>468.79998779</ele>
        <time>2020-10-22T09:47:43Z</time>
      </trkpt>
      <trkpt lat="43.04902" lon="0.83133">
        <ele>469.20999146</ele>
        <time>2020-10-22T09:47:45Z</time>
      </trkpt>
      <trkpt lat="43.049" lon="0.83137">
        <ele>469.51998901</ele>
        <time>2020-10-22T09:47:46Z</time>
      </trkpt>
      <trkpt lat="43.04897" lon="0.83143">
        <ele>470.04998779</ele>
        <time>2020-10-22T09:47:47Z</time>
      </trkpt>
      <trkpt lat="43.04895" lon="0.83149">
        <ele>469.95001221</ele>
        <time>2020-10-22T09:47:48Z</time>
      </trkpt>
      <trkpt lat="43.04894" lon="0.83153">
        <ele>470.67999268</ele>
        <time>2020-10-22T09:47:49Z</time>
      </trkpt>
      <trkpt lat="43.04892" lon="0.83157">
        <ele>471.35998535</ele>
        <time>2020-10-22T09:47:51Z</time>
      </trkpt>
      <trkpt lat="43.0489" lon="0.83161">
        <ele>472.54998779</ele>
        <time>2020-10-22T09:47:52Z</time>
      </trkpt>
      <trkpt lat="43.04888" lon="0.83165">
        <ele>472.32000732</ele>
        <time>2020-10-22T09:47:53Z</time>
      </trkpt>
      <trkpt lat="43.04885" lon="0.8317">
        <ele>472.92999268</ele>
        <time>2020-10-22T09:47:54Z</time>
      </trkpt>
      <trkpt lat="43.04883" lon="0.83174">
        <ele>473.92001343</ele>
        <time>2020-10-22T09:47:56Z</time>
      </trkpt>
      <trkpt lat="43.04882" lon="0.83176">
        <ele>473.92001343</ele>
        <time>2020-10-22T09:47:57Z</time>
      </trkpt>
      <trkpt lat="43.04881" lon="0.8318">
        <ele>474.42999268</ele>
        <time>2020-10-22T09:47:58Z</time>
      </trkpt>
      <trkpt lat="43.0488" lon="0.83184">
        <ele>474.23001099</ele>
        <time>2020-10-22T09:47:59Z</time>
      </trkpt>
      <trkpt lat="43.04878" lon="0.83188">
        <ele>474.48001099</ele>
        <time>2020-10-22T09:48:01Z</time>
      </trkpt>
      <trkpt lat="43.04877" lon="0.83192">
        <ele>474.92001343</ele>
        <time>2020-10-22T09:48:02Z</time>
      </trkpt>
      <trkpt lat="43.04876" lon="0.83195">
        <ele>474.92001343</ele>
        <time>2020-10-22T09:48:03Z</time>
      </trkpt>
      <trkpt lat="43.04874" lon="0.83199">
        <ele>475.38000488</ele>
        <time>2020-10-22T09:48:04Z</time>
      </trkpt>
      <trkpt lat="43.04872" lon="0.83205">
        <ele>476.23999023</ele>
        <time>2020-10-22T09:48:05Z</time>
      </trkpt>
      <trkpt lat="43.0487" lon="0.83209">
        <ele>476.58999634</ele>
        <time>2020-10-22T09:48:07Z</time>
      </trkpt>
      <trkpt lat="43.04869" lon="0.83213">
        <ele>476.95001221</ele>
        <time>2020-10-22T09:48:08Z</time>
      </trkpt>
      <trkpt lat="43.04866" lon="0.83217">
        <ele>477.80999756</ele>
        <time>2020-10-22T09:48:09Z</time>
      </trkpt>
      <trkpt lat="43.04865" lon="0.83223">
        <ele>478.35998535</ele>
        <time>2020-10-22T09:48:11Z</time>
      </trkpt>
      <trkpt lat="43.04863" lon="0.83227">
        <ele>478.02999878</ele>
        <time>2020-10-22T09:48:12Z</time>
      </trkpt>
      <trkpt lat="43.04862" lon="0.8323">
        <ele>478.45999146</ele>
        <time>2020-10-22T09:48:13Z</time>
      </trkpt>
      <trkpt lat="43.04861" lon="0.83236">
        <ele>479.98999023</ele>
        <time>2020-10-22T09:48:14Z</time>
      </trkpt>
      <trkpt lat="43.04858" lon="0.83247">
        <ele>480.29998779</ele>
        <time>2020-10-22T09:48:15Z</time>
      </trkpt>
      <trkpt lat="43.04857" lon="0.83251">
        <ele>480.3999939</ele>
        <time>2020-10-22T09:48:16Z</time>
      </trkpt>
      <trkpt lat="43.04855" lon="0.83255">
        <ele>481.41000366</ele>
        <time>2020-10-22T09:48:18Z</time>
      </trkpt>
      <trkpt lat="43.04855" lon="0.83258">
        <ele>481.20999146</ele>
        <time>2020-10-22T09:48:19Z</time>
      </trkpt>
      <trkpt lat="43.04853" lon="0.83263">
        <ele>481.73001099</ele>
        <time>2020-10-22T09:48:21Z</time>
      </trkpt>
      <trkpt lat="43.04852" lon="0.83268">
        <ele>482.91000366</ele>
        <time>2020-10-22T09:48:23Z</time>
      </trkpt>
      <trkpt lat="43.04851" lon="0.83272">
        <ele>484.04000854</ele>
        <time>2020-10-22T09:48:25Z</time>
      </trkpt>
      <trkpt lat="43.04849" lon="0.83277">
        <ele>484.45001221</ele>
        <time>2020-10-22T09:48:26Z</time>
      </trkpt>
      <trkpt lat="43.04849" lon="0.83281">
        <ele>484.94000244</ele>
        <time>2020-10-22T09:48:28Z</time>
      </trkpt>
      <trkpt lat="43.04847" lon="0.83286">
        <ele>485.63000488</ele>
        <time>2020-10-22T09:48:29Z</time>
      </trkpt>
      <trkpt lat="43.04846" lon="0.83291">
        <ele>486.23001099</ele>
        <time>2020-10-22T09:48:31Z</time>
      </trkpt>
      <trkpt lat="43.04844" lon="0.83295">
        <ele>487.02999878</ele>
        <time>2020-10-22T09:48:32Z</time>
      </trkpt>
      <trkpt lat="43.04843" lon="0.83299">
        <ele>487.38000488</ele>
        <time>2020-10-22T09:48:33Z</time>
      </trkpt>
      <trkpt lat="43.04842" lon="0.83303">
        <ele>487.98999023</ele>
        <time>2020-10-22T09:48:35Z</time>
      </trkpt>
      <trkpt lat="43.0484" lon="0.83307">
        <ele>487.76998901</ele>
        <time>2020-10-22T09:48:36Z</time>
      </trkpt>
      <trkpt lat="43.04838" lon="0.83313">
        <ele>488.57998657</ele>
        <time>2020-10-22T09:48:38Z</time>
      </trkpt>
      <trkpt lat="43.04837" lon="0.83317">
        <ele>489.04000854</ele>
        <time>2020-10-22T09:48:39Z</time>
      </trkpt>
      <trkpt lat="43.04836" lon="0.83321">
        <ele>489.48999023</ele>
        <time>2020-10-22T09:48:40Z</time>
      </trkpt>
      <trkpt lat="43.04834" lon="0.83326">
        <ele>490.25</ele>
        <time>2020-10-22T09:48:41Z</time>
      </trkpt>
      <trkpt lat="43.04833" lon="0.83331">
        <ele>490.67999268</ele>
        <time>2020-10-22T09:48:43Z</time>
      </trkpt>
      <trkpt lat="43.04832" lon="0.83335">
        <ele>491.14001465</ele>
        <time>2020-10-22T09:48:44Z</time>
      </trkpt>
      <trkpt lat="43.04831" lon="0.83342">
        <ele>491.97000122</ele>
        <time>2020-10-22T09:48:45Z</time>
      </trkpt>
      <trkpt lat="43.0483" lon="0.83348">
        <ele>491.67999268</ele>
        <time>2020-10-22T09:48:47Z</time>
      </trkpt>
      <trkpt lat="43.04829" lon="0.83352">
        <ele>491.98001099</ele>
        <time>2020-10-22T09:48:48Z</time>
      </trkpt>
      <trkpt lat="43.04828" lon="0.83357">
        <ele>492.42999268</ele>
        <time>2020-10-22T09:48:49Z</time>
      </trkpt>
      <trkpt lat="43.04827" lon="0.83367">
        <ele>492.82000732</ele>
        <time>2020-10-22T09:48:51Z</time>
      </trkpt>
      <trkpt lat="43.04826" lon="0.83373">
        <ele>492.51000977</ele>
        <time>2020-10-22T09:48:52Z</time>
      </trkpt>
      <trkpt lat="43.04824" lon="0.83383">
        <ele>493.32000732</ele>
        <time>2020-10-22T09:48:54Z</time>
      </trkpt>
      <trkpt lat="43.04823" lon="0.83392">
        <ele>493.17001343</ele>
        <time>2020-10-22T09:48:55Z</time>
      </trkpt>
      <trkpt lat="43.04822" lon="0.83398">
        <ele>493.45999146</ele>
        <time>2020-10-22T09:48:57Z</time>
      </trkpt>
      <trkpt lat="43.04821" lon="0.83403">
        <ele>493.3500061</ele>
        <time>2020-10-22T09:48:58Z</time>
      </trkpt>
      <trkpt lat="43.0482" lon="0.83409">
        <ele>493.82998657</ele>
        <time>2020-10-22T09:48:59Z</time>
      </trkpt>
      <trkpt lat="43.04819" lon="0.83413">
        <ele>494.47000122</ele>
        <time>2020-10-22T09:49:00Z</time>
      </trkpt>
      <trkpt lat="43.04818" lon="0.83419">
        <ele>495.07000732</ele>
        <time>2020-10-22T09:49:01Z</time>
      </trkpt>
      <trkpt lat="43.04815" lon="0.83427">
        <ele>495.19000244</ele>
        <time>2020-10-22T09:49:03Z</time>
      </trkpt>
      <trkpt lat="43.04814" lon="0.83433">
        <ele>496.97000122</ele>
        <time>2020-10-22T09:49:04Z</time>
      </trkpt>
      <trkpt lat="43.0481" lon="0.83442">
        <ele>497.77999878</ele>
        <time>2020-10-22T09:49:05Z</time>
      </trkpt>
      <trkpt lat="43.04807" lon="0.83448">
        <ele>497.95999146</ele>
        <time>2020-10-22T09:49:06Z</time>
      </trkpt>
      <trkpt lat="43.04804" lon="0.83455">
        <ele>497.29000854</ele>
        <time>2020-10-22T09:49:08Z</time>
      </trkpt>
      <trkpt lat="43.048" lon="0.83461">
        <ele>497.36999512</ele>
        <time>2020-10-22T09:49:10Z</time>
      </trkpt>
      <trkpt lat="43.04796" lon="0.83465">
        <ele>497.77999878</ele>
        <time>2020-10-22T09:49:11Z</time>
      </trkpt>
      <trkpt lat="43.04794" lon="0.83468">
        <ele>497.92999268</ele>
        <time>2020-10-22T09:49:12Z</time>
      </trkpt>
      <trkpt lat="43.04791" lon="0.83474">
        <ele>498.3999939</ele>
        <time>2020-10-22T09:49:14Z</time>
      </trkpt>
      <trkpt lat="43.04787" lon="0.8348">
        <ele>498.97000122</ele>
        <time>2020-10-22T09:49:15Z</time>
      </trkpt>
      <trkpt lat="43.04785" lon="0.83484">
        <ele>500.57000732</ele>
        <time>2020-10-22T09:49:17Z</time>
      </trkpt>
      <trkpt lat="43.04782" lon="0.83491">
        <ele>500.42001343</ele>
        <time>2020-10-22T09:49:18Z</time>
      </trkpt>
      <trkpt lat="43.04778" lon="0.83498">
        <ele>500.26000977</ele>
        <time>2020-10-22T09:49:20Z</time>
      </trkpt>
      <trkpt lat="43.04776" lon="0.83503">
        <ele>500.64001465</ele>
        <time>2020-10-22T09:49:21Z</time>
      </trkpt>
      <trkpt lat="43.04773" lon="0.83507">
        <ele>500.67001343</ele>
        <time>2020-10-22T09:49:23Z</time>
      </trkpt>
      <trkpt lat="43.04771" lon="0.83511">
        <ele>500.77999878</ele>
        <time>2020-10-22T09:49:24Z</time>
      </trkpt>
      <trkpt lat="43.0477" lon="0.83516">
        <ele>501.04998779</ele>
        <time>2020-10-22T09:49:25Z</time>
      </trkpt>
      <trkpt lat="43.04767" lon="0.83521">
        <ele>501.41000366</ele>
        <time>2020-10-22T09:49:26Z</time>
      </trkpt>
      <trkpt lat="43.04765" lon="0.83526">
        <ele>501.92001343</ele>
        <time>2020-10-22T09:49:27Z</time>
      </trkpt>
      <trkpt lat="43.04762" lon="0.83532">
        <ele>502.07000732</ele>
        <time>2020-10-22T09:49:29Z</time>
      </trkpt>
      <trkpt lat="43.04759" lon="0.83538">
        <ele>502.61999512</ele>
        <time>2020-10-22T09:49:30Z</time>
      </trkpt>
      <trkpt lat="43.04756" lon="0.83542">
        <ele>503.38000488</ele>
        <time>2020-10-22T09:49:32Z</time>
      </trkpt>
      <trkpt lat="43.04754" lon="0.83549">
        <ele>504.76998901</ele>
        <time>2020-10-22T09:49:33Z</time>
      </trkpt>
      <trkpt lat="43.04751" lon="0.83555">
        <ele>504.70999146</ele>
        <time>2020-10-22T09:49:35Z</time>
      </trkpt>
      <trkpt lat="43.04749" lon="0.8356">
        <ele>504.95001221</ele>
        <time>2020-10-22T09:49:36Z</time>
      </trkpt>
      <trkpt lat="43.04747" lon="0.83565">
        <ele>504.8500061</ele>
        <time>2020-10-22T09:49:37Z</time>
      </trkpt>
      <trkpt lat="43.04745" lon="0.8357">
        <ele>506.6000061</ele>
        <time>2020-10-22T09:49:39Z</time>
      </trkpt>
      <trkpt lat="43.04742" lon="0.83576">
        <ele>506.57000732</ele>
        <time>2020-10-22T09:49:40Z</time>
      </trkpt>
      <trkpt lat="43.0474" lon="0.8358">
        <ele>507.04000854</ele>
        <time>2020-10-22T09:49:42Z</time>
      </trkpt>
      <trkpt lat="43.04738" lon="0.83585">
        <ele>506.8500061</ele>
        <time>2020-10-22T09:49:43Z</time>
      </trkpt>
      <trkpt lat="43.04735" lon="0.83588">
        <ele>506.52999878</ele>
        <time>2020-10-22T09:49:44Z</time>
      </trkpt>
      <trkpt lat="43.04733" lon="0.83591">
        <ele>506.57998657</ele>
        <time>2020-10-22T09:49:46Z</time>
      </trkpt>
      <trkpt lat="43.0473" lon="0.83596">
        <ele>506.61999512</ele>
        <time>2020-10-22T09:49:47Z</time>
      </trkpt>
      <trkpt lat="43.04727" lon="0.83601">
        <ele>507.1000061</ele>
        <time>2020-10-22T09:49:48Z</time>
      </trkpt>
      <trkpt lat="43.04724" lon="0.83607">
        <ele>507.64001465</ele>
        <time>2020-10-22T09:49:50Z</time>
      </trkpt>
      <trkpt lat="43.04719" lon="0.83616">
        <ele>507.38000488</ele>
        <time>2020-10-22T09:49:52Z</time>
      </trkpt>
      <trkpt lat="43.04716" lon="0.83621">
        <ele>507.41000366</ele>
        <time>2020-10-22T09:49:53Z</time>
      </trkpt>
      <trkpt lat="43.04714" lon="0.83627">
        <ele>508.45001221</ele>
        <time>2020-10-22T09:49:54Z</time>
      </trkpt>
      <trkpt lat="43.04712" lon="0.83632">
        <ele>508.23999023</ele>
        <time>2020-10-22T09:49:56Z</time>
      </trkpt>
      <trkpt lat="43.0471" lon="0.83635">
        <ele>507.13000488</ele>
        <time>2020-10-22T09:49:57Z</time>
      </trkpt>
      <trkpt lat="43.04708" lon="0.8364">
        <ele>507.72000122</ele>
        <time>2020-10-22T09:49:58Z</time>
      </trkpt>
      <trkpt lat="43.04707" lon="0.83644">
        <ele>507.80999756</ele>
        <time>2020-10-22T09:49:59Z</time>
      </trkpt>
      <trkpt lat="43.04703" lon="0.83652">
        <ele>508.17999268</ele>
        <time>2020-10-22T09:50:01Z</time>
      </trkpt>
      <trkpt lat="43.047" lon="0.83658">
        <ele>508.22000122</ele>
        <time>2020-10-22T09:50:02Z</time>
      </trkpt>
      <trkpt lat="43.04698" lon="0.83663">
        <ele>508.1000061</ele>
        <time>2020-10-22T09:50:04Z</time>
      </trkpt>
      <trkpt lat="43.04695" lon="0.83668">
        <ele>508.39001465</ele>
        <time>2020-10-22T09:50:05Z</time>
      </trkpt>
      <trkpt lat="43.04693" lon="0.83673">
        <ele>508.48999023</ele>
        <time>2020-10-22T09:50:06Z</time>
      </trkpt>
      <trkpt lat="43.0469" lon="0.83679">
        <ele>507.89001465</ele>
        <time>2020-10-22T09:50:07Z</time>
      </trkpt>
      <trkpt lat="43.04687" lon="0.83684">
        <ele>508.25</ele>
        <time>2020-10-22T09:50:09Z</time>
      </trkpt>
      <trkpt lat="43.04683" lon="0.83691">
        <ele>508.1000061</ele>
        <time>2020-10-22T09:50:11Z</time>
      </trkpt>
      <trkpt lat="43.0468" lon="0.83697">
        <ele>508.26998901</ele>
        <time>2020-10-22T09:50:12Z</time>
      </trkpt>
      <trkpt lat="43.04678" lon="0.83702">
        <ele>507.98001099</ele>
        <time>2020-10-22T09:50:13Z</time>
      </trkpt>
      <trkpt lat="43.04673" lon="0.83719">
        <ele>508.35998535</ele>
        <time>2020-10-22T09:50:15Z</time>
      </trkpt>
      <trkpt lat="43.04669" lon="0.83735">
        <ele>507.76000977</ele>
        <time>2020-10-22T09:50:17Z</time>
      </trkpt>
      <trkpt lat="43.04665" lon="0.83752">
        <ele>507.54000854</ele>
        <time>2020-10-22T09:50:19Z</time>
      </trkpt>
      <trkpt lat="43.04663" lon="0.8376">
        <ele>507.33999634</ele>
        <time>2020-10-22T09:50:20Z</time>
      </trkpt>
      <trkpt lat="43.04662" lon="0.83768">
        <ele>507.02999878</ele>
        <time>2020-10-22T09:50:21Z</time>
      </trkpt>
      <trkpt lat="43.04661" lon="0.83785">
        <ele>506.42001343</ele>
        <time>2020-10-22T09:50:23Z</time>
      </trkpt>
      <trkpt lat="43.04659" lon="0.838">
        <ele>505.85998535</ele>
        <time>2020-10-22T09:50:25Z</time>
      </trkpt>
      <trkpt lat="43.04658" lon="0.83808">
        <ele>505.98001099</ele>
        <time>2020-10-22T09:50:26Z</time>
      </trkpt>
      <trkpt lat="43.04657" lon="0.83816">
        <ele>505.67999268</ele>
        <time>2020-10-22T09:50:28Z</time>
      </trkpt>
      <trkpt lat="43.04657" lon="0.83821">
        <ele>505.55999756</ele>
        <time>2020-10-22T09:50:29Z</time>
      </trkpt>
      <trkpt lat="43.04656" lon="0.83828">
        <ele>505.3999939</ele>
        <time>2020-10-22T09:50:31Z</time>
      </trkpt>
      <trkpt lat="43.04656" lon="0.83834">
        <ele>505.08999634</ele>
        <time>2020-10-22T09:50:33Z</time>
      </trkpt>
      <trkpt lat="43.04655" lon="0.83839">
        <ele>505.42001343</ele>
        <time>2020-10-22T09:50:34Z</time>
      </trkpt>
      <trkpt lat="43.04654" lon="0.83845">
        <ele>505.27999878</ele>
        <time>2020-10-22T09:50:35Z</time>
      </trkpt>
      <trkpt lat="43.04653" lon="0.8385">
        <ele>505.41000366</ele>
        <time>2020-10-22T09:50:37Z</time>
      </trkpt>
      <trkpt lat="43.04652" lon="0.83857">
        <ele>505.32998657</ele>
        <time>2020-10-22T09:50:38Z</time>
      </trkpt>
      <trkpt lat="43.0465" lon="0.83867">
        <ele>505.04998779</ele>
        <time>2020-10-22T09:50:40Z</time>
      </trkpt>
      <trkpt lat="43.04649" lon="0.83874">
        <ele>505.05999756</ele>
        <time>2020-10-22T09:50:41Z</time>
      </trkpt>
      <trkpt lat="43.04648" lon="0.8388">
        <ele>505.17999268</ele>
        <time>2020-10-22T09:50:42Z</time>
      </trkpt>
      <trkpt lat="43.04647" lon="0.83886">
        <ele>504.79998779</ele>
        <time>2020-10-22T09:50:43Z</time>
      </trkpt>
      <trkpt lat="43.04647" lon="0.8389">
        <ele>504.83999634</ele>
        <time>2020-10-22T09:50:45Z</time>
      </trkpt>
      <trkpt lat="43.04648" lon="0.83892">
        <ele>504.72000122</ele>
        <time>2020-10-22T09:50:46Z</time>
      </trkpt>
      <trkpt lat="43.04648" lon="0.83894">
        <ele>504.82998657</ele>
        <time>2020-10-22T09:50:48Z</time>
      </trkpt>
      <trkpt lat="43.04647" lon="0.83898">
        <ele>504.33999634</ele>
        <time>2020-10-22T09:50:50Z</time>
      </trkpt>
      <trkpt lat="43.04647" lon="0.83903">
        <ele>504.42001343</ele>
        <time>2020-10-22T09:50:51Z</time>
      </trkpt>
      <trkpt lat="43.04645" lon="0.83909">
        <ele>504.64001465</ele>
        <time>2020-10-22T09:50:53Z</time>
      </trkpt>
      <trkpt lat="43.04643" lon="0.83914">
        <ele>504.57998657</ele>
        <time>2020-10-22T09:50:54Z</time>
      </trkpt>
      <trkpt lat="43.04641" lon="0.83921">
        <ele>504.73999023</ele>
        <time>2020-10-22T09:50:56Z</time>
      </trkpt>
      <trkpt lat="43.04639" lon="0.83926">
        <ele>505.13000488</ele>
        <time>2020-10-22T09:50:57Z</time>
      </trkpt>
      <trkpt lat="43.04636" lon="0.83932">
        <ele>505.32000732</ele>
        <time>2020-10-22T09:50:58Z</time>
      </trkpt>
      <trkpt lat="43.04632" lon="0.83943">
        <ele>505.77999878</ele>
        <time>2020-10-22T09:51:00Z</time>
      </trkpt>
      <trkpt lat="43.04629" lon="0.8395">
        <ele>506.13000488</ele>
        <time>2020-10-22T09:51:01Z</time>
      </trkpt>
      <trkpt lat="43.04625" lon="0.83963">
        <ele>506.67001343</ele>
        <time>2020-10-22T09:51:03Z</time>
      </trkpt>
      <trkpt lat="43.04622" lon="0.83969">
        <ele>507</ele>
        <time>2020-10-22T09:51:04Z</time>
      </trkpt>
      <trkpt lat="43.04619" lon="0.83976">
        <ele>507.41000366</ele>
        <time>2020-10-22T09:51:05Z</time>
      </trkpt>
      <trkpt lat="43.04617" lon="0.83982">
        <ele>507.83999634</ele>
        <time>2020-10-22T09:51:06Z</time>
      </trkpt>
      <trkpt lat="43.04611" lon="0.83995">
        <ele>508.80999756</ele>
        <time>2020-10-22T09:51:08Z</time>
      </trkpt>
      <trkpt lat="43.04605" lon="0.84008">
        <ele>509.85998535</ele>
        <time>2020-10-22T09:51:10Z</time>
      </trkpt>
      <trkpt lat="43.04602" lon="0.84014">
        <ele>510.36999512</ele>
        <time>2020-10-22T09:51:11Z</time>
      </trkpt>
      <trkpt lat="43.04599" lon="0.84021">
        <ele>510.8500061</ele>
        <time>2020-10-22T09:51:12Z</time>
      </trkpt>
      <trkpt lat="43.04594" lon="0.84033">
        <ele>511.83999634</ele>
        <time>2020-10-22T09:51:14Z</time>
      </trkpt>
      <trkpt lat="43.04588" lon="0.84046">
        <ele>512.94000244</ele>
        <time>2020-10-22T09:51:16Z</time>
      </trkpt>
      <trkpt lat="43.04585" lon="0.84052">
        <ele>513.54998779</ele>
        <time>2020-10-22T09:51:17Z</time>
      </trkpt>
      <trkpt lat="43.04582" lon="0.84059">
        <ele>514.09002686</ele>
        <time>2020-10-22T09:51:18Z</time>
      </trkpt>
      <trkpt lat="43.04577" lon="0.84072">
        <ele>515.26000977</ele>
        <time>2020-10-22T09:51:20Z</time>
      </trkpt>
      <trkpt lat="43.04571" lon="0.84084">
        <ele>516.41998291</ele>
        <time>2020-10-22T09:51:22Z</time>
      </trkpt>
      <trkpt lat="43.04567" lon="0.84091">
        <ele>516.9699707</ele>
        <time>2020-10-22T09:51:23Z</time>
      </trkpt>
      <trkpt lat="43.04561" lon="0.84103">
        <ele>517.65997314</ele>
        <time>2020-10-22T09:51:25Z</time>
      </trkpt>
      <trkpt lat="43.04555" lon="0.84115">
        <ele>518.92999268</ele>
        <time>2020-10-22T09:51:27Z</time>
      </trkpt>
      <trkpt lat="43.04552" lon="0.84122">
        <ele>519.59002686</ele>
        <time>2020-10-22T09:51:28Z</time>
      </trkpt>
      <trkpt lat="43.04548" lon="0.84128">
        <ele>519.59997559</ele>
        <time>2020-10-22T09:51:29Z</time>
      </trkpt>
      <trkpt lat="43.04542" lon="0.84139">
        <ele>520.78997803</ele>
        <time>2020-10-22T09:51:31Z</time>
      </trkpt>
      <trkpt lat="43.04535" lon="0.84151">
        <ele>521.5</ele>
        <time>2020-10-22T09:51:33Z</time>
      </trkpt>
      <trkpt lat="43.04532" lon="0.84156">
        <ele>521.98999023</ele>
        <time>2020-10-22T09:51:34Z</time>
      </trkpt>
      <trkpt lat="43.04529" lon="0.84162">
        <ele>522.5</ele>
        <time>2020-10-22T09:51:35Z</time>
      </trkpt>
      <trkpt lat="43.04523" lon="0.84173">
        <ele>523.48999023</ele>
        <time>2020-10-22T09:51:37Z</time>
      </trkpt>
      <trkpt lat="43.04519" lon="0.84179">
        <ele>523.92999268</ele>
        <time>2020-10-22T09:51:38Z</time>
      </trkpt>
      <trkpt lat="43.04513" lon="0.8419">
        <ele>524.77001953</ele>
        <time>2020-10-22T09:51:40Z</time>
      </trkpt>
      <trkpt lat="43.04507" lon="0.84201">
        <ele>525.0300293</ele>
        <time>2020-10-22T09:51:42Z</time>
      </trkpt>
      <trkpt lat="43.045" lon="0.84212">
        <ele>526</ele>
        <time>2020-10-22T09:51:44Z</time>
      </trkpt>
      <trkpt lat="43.04494" lon="0.84223">
        <ele>526.4699707</ele>
        <time>2020-10-22T09:51:46Z</time>
      </trkpt>
      <trkpt lat="43.04488" lon="0.84234">
        <ele>527.19000244</ele>
        <time>2020-10-22T09:51:48Z</time>
      </trkpt>
      <trkpt lat="43.04484" lon="0.84239">
        <ele>527.47998047</ele>
        <time>2020-10-22T09:51:49Z</time>
      </trkpt>
      <trkpt lat="43.04478" lon="0.8425">
        <ele>527.83001709</ele>
        <time>2020-10-22T09:51:51Z</time>
      </trkpt>
      <trkpt lat="43.04475" lon="0.84256">
        <ele>528.04998779</ele>
        <time>2020-10-22T09:51:52Z</time>
      </trkpt>
      <trkpt lat="43.04468" lon="0.84266">
        <ele>528.41998291</ele>
        <time>2020-10-22T09:51:54Z</time>
      </trkpt>
      <trkpt lat="43.04461" lon="0.84277">
        <ele>528.53997803</ele>
        <time>2020-10-22T09:51:56Z</time>
      </trkpt>
      <trkpt lat="43.04457" lon="0.84283">
        <ele>527.90997314</ele>
        <time>2020-10-22T09:51:57Z</time>
      </trkpt>
      <trkpt lat="43.04453" lon="0.84288">
        <ele>527.79998779</ele>
        <time>2020-10-22T09:51:58Z</time>
      </trkpt>
      <trkpt lat="43.04445" lon="0.843">
        <ele>527.69000244</ele>
        <time>2020-10-22T09:52:00Z</time>
      </trkpt>
      <trkpt lat="43.04436" lon="0.84312">
        <ele>527.61999512</ele>
        <time>2020-10-22T09:52:02Z</time>
      </trkpt>
      <trkpt lat="43.04431" lon="0.84318">
        <ele>527.53997803</ele>
        <time>2020-10-22T09:52:03Z</time>
      </trkpt>
      <trkpt lat="43.04422" lon="0.8433">
        <ele>527.34997559</ele>
        <time>2020-10-22T09:52:05Z</time>
      </trkpt>
      <trkpt lat="43.04414" lon="0.84342">
        <ele>527.34002686</ele>
        <time>2020-10-22T09:52:07Z</time>
      </trkpt>
      <trkpt lat="43.04406" lon="0.84355">
        <ele>527.38000488</ele>
        <time>2020-10-22T09:52:09Z</time>
      </trkpt>
      <trkpt lat="43.04403" lon="0.84361">
        <ele>527.36999512</ele>
        <time>2020-10-22T09:52:10Z</time>
      </trkpt>
      <trkpt lat="43.04395" lon="0.84374">
        <ele>527.47998047</ele>
        <time>2020-10-22T09:52:12Z</time>
      </trkpt>
      <trkpt lat="43.04392" lon="0.8438">
        <ele>527.45001221</ele>
        <time>2020-10-22T09:52:13Z</time>
      </trkpt>
      <trkpt lat="43.04384" lon="0.84392">
        <ele>527.35998535</ele>
        <time>2020-10-22T09:52:15Z</time>
      </trkpt>
      <trkpt lat="43.04377" lon="0.84404">
        <ele>527.38000488</ele>
        <time>2020-10-22T09:52:17Z</time>
      </trkpt>
      <trkpt lat="43.04374" lon="0.84411">
        <ele>527.40002441</ele>
        <time>2020-10-22T09:52:18Z</time>
      </trkpt>
      <trkpt lat="43.0437" lon="0.84417">
        <ele>527.40002441</ele>
        <time>2020-10-22T09:52:19Z</time>
      </trkpt>
      <trkpt lat="43.04366" lon="0.84423">
        <ele>527.5</ele>
        <time>2020-10-22T09:52:20Z</time>
      </trkpt>
      <trkpt lat="43.04358" lon="0.84434">
        <ele>527.51000977</ele>
        <time>2020-10-22T09:52:22Z</time>
      </trkpt>
      <trkpt lat="43.04354" lon="0.8444">
        <ele>527.54998779</ele>
        <time>2020-10-22T09:52:23Z</time>
      </trkpt>
      <trkpt lat="43.04347" lon="0.84451">
        <ele>527.65997314</ele>
        <time>2020-10-22T09:52:25Z</time>
      </trkpt>
      <trkpt lat="43.04343" lon="0.84457">
        <ele>527.69000244</ele>
        <time>2020-10-22T09:52:26Z</time>
      </trkpt>
      <trkpt lat="43.04335" lon="0.84468">
        <ele>527.67999268</ele>
        <time>2020-10-22T09:52:28Z</time>
      </trkpt>
      <trkpt lat="43.04332" lon="0.84473">
        <ele>527.77001953</ele>
        <time>2020-10-22T09:52:29Z</time>
      </trkpt>
      <trkpt lat="43.04324" lon="0.84484">
        <ele>527.86999512</ele>
        <time>2020-10-22T09:52:31Z</time>
      </trkpt>
      <trkpt lat="43.04321" lon="0.8449">
        <ele>528.05999756</ele>
        <time>2020-10-22T09:52:32Z</time>
      </trkpt>
      <trkpt lat="43.04315" lon="0.84502">
        <ele>528.15002441</ele>
        <time>2020-10-22T09:52:34Z</time>
      </trkpt>
      <trkpt lat="43.04311" lon="0.84514">
        <ele>528.54998779</ele>
        <time>2020-10-22T09:52:36Z</time>
      </trkpt>
      <trkpt lat="43.04308" lon="0.84525">
        <ele>528.91998291</ele>
        <time>2020-10-22T09:52:38Z</time>
      </trkpt>
      <trkpt lat="43.04304" lon="0.84537">
        <ele>529.05999756</ele>
        <time>2020-10-22T09:52:40Z</time>
      </trkpt>
      <trkpt lat="43.04303" lon="0.84543">
        <ele>529.16998291</ele>
        <time>2020-10-22T09:52:41Z</time>
      </trkpt>
      <trkpt lat="43.043" lon="0.84555">
        <ele>529.15002441</ele>
        <time>2020-10-22T09:52:43Z</time>
      </trkpt>
      <trkpt lat="43.04298" lon="0.84567">
        <ele>529.44000244</ele>
        <time>2020-10-22T09:52:45Z</time>
      </trkpt>
      <trkpt lat="43.04296" lon="0.84577">
        <ele>529.7199707</ele>
        <time>2020-10-22T09:52:47Z</time>
      </trkpt>
      <trkpt lat="43.04295" lon="0.84582">
        <ele>529.71002197</ele>
        <time>2020-10-22T09:52:48Z</time>
      </trkpt>
      <trkpt lat="43.04289" lon="0.84589">
        <ele>530.57000732</ele>
        <time>2020-10-22T09:52:50Z</time>
      </trkpt>
      <trkpt lat="43.04285" lon="0.84588">
        <ele>530.52001953</ele>
        <time>2020-10-22T09:52:51Z</time>
      </trkpt>
      <trkpt lat="43.0428" lon="0.84587">
        <ele>530.94000244</ele>
        <time>2020-10-22T09:52:53Z</time>
      </trkpt>
      <trkpt lat="43.04277" lon="0.84586">
        <ele>531.45001221</ele>
        <time>2020-10-22T09:52:54Z</time>
      </trkpt>
      <trkpt lat="43.04273" lon="0.84586">
        <ele>531.40002441</ele>
        <time>2020-10-22T09:52:55Z</time>
      </trkpt>
      <trkpt lat="43.04269" lon="0.84588">
        <ele>532.16998291</ele>
        <time>2020-10-22T09:52:56Z</time>
      </trkpt>
      <trkpt lat="43.04266" lon="0.84591">
        <ele>532.21002197</ele>
        <time>2020-10-22T09:52:57Z</time>
      </trkpt>
      <trkpt lat="43.04261" lon="0.84594">
        <ele>532.59002686</ele>
        <time>2020-10-22T09:52:59Z</time>
      </trkpt>
      <trkpt lat="43.04258" lon="0.84597">
        <ele>533.15997314</ele>
        <time>2020-10-22T09:53:00Z</time>
      </trkpt>
      <trkpt lat="43.04253" lon="0.84601">
        <ele>533.20001221</ele>
        <time>2020-10-22T09:53:02Z</time>
      </trkpt>
      <trkpt lat="43.0425" lon="0.84603">
        <ele>533.42999268</ele>
        <time>2020-10-22T09:53:03Z</time>
      </trkpt>
      <trkpt lat="43.04246" lon="0.84605">
        <ele>533.70001221</ele>
        <time>2020-10-22T09:53:04Z</time>
      </trkpt>
      <trkpt lat="43.04242" lon="0.84607">
        <ele>534.09997559</ele>
        <time>2020-10-22T09:53:06Z</time>
      </trkpt>
      <trkpt lat="43.04239" lon="0.84607">
        <ele>534.22998047</ele>
        <time>2020-10-22T09:53:07Z</time>
      </trkpt>
      <trkpt lat="43.04235" lon="0.84606">
        <ele>534.47998047</ele>
        <time>2020-10-22T09:53:08Z</time>
      </trkpt>
      <trkpt lat="43.04231" lon="0.84603">
        <ele>535</ele>
        <time>2020-10-22T09:53:10Z</time>
      </trkpt>
      <trkpt lat="43.04228" lon="0.84599">
        <ele>535.20001221</ele>
        <time>2020-10-22T09:53:11Z</time>
      </trkpt>
      <trkpt lat="43.04225" lon="0.84595">
        <ele>535.34997559</ele>
        <time>2020-10-22T09:53:12Z</time>
      </trkpt>
      <trkpt lat="43.04222" lon="0.84588">
        <ele>535.57000732</ele>
        <time>2020-10-22T09:53:14Z</time>
      </trkpt>
      <trkpt lat="43.0422" lon="0.84583">
        <ele>535.96002197</ele>
        <time>2020-10-22T09:53:15Z</time>
      </trkpt>
      <trkpt lat="43.04219" lon="0.84576">
        <ele>536.04998779</ele>
        <time>2020-10-22T09:53:16Z</time>
      </trkpt>
      <trkpt lat="43.04217" lon="0.84571">
        <ele>536.25</ele>
        <time>2020-10-22T09:53:17Z</time>
      </trkpt>
      <trkpt lat="43.04215" lon="0.84567">
        <ele>536.42999268</ele>
        <time>2020-10-22T09:53:19Z</time>
      </trkpt>
      <trkpt lat="43.04214" lon="0.84565">
        <ele>536.42999268</ele>
        <time>2020-10-22T09:53:20Z</time>
      </trkpt>
      <trkpt lat="43.04211" lon="0.84564">
        <ele>536.59997559</ele>
        <time>2020-10-22T09:53:22Z</time>
      </trkpt>
      <trkpt lat="43.04211" lon="0.84565">
        <ele>536.54998779</ele>
        <time>2020-10-22T09:53:23Z</time>
      </trkpt>
    </trkseg>
  </trk>
</gpx>